<?xml version='1.0' encoding='UTF-8'?><gpx version="1.1" creator="JPX - https://github.com/jenetics/jpx" xmlns="http://www.topografix.com/GPX/1/1"><trk><trkseg><trkpt lat="45.72260348430151" lon="8.606728712774688"><ele>203.00000000000003</ele><time>2026-05-02T08:34:08.999Z</time></trkpt><trkpt lat="45.722538027396695" lon="8.606742255701946"><ele>203.0</ele><time>2026-05-02T08:34:16.999Z</time></trkpt><trkpt lat="45.72253062462128" lon="8.606841832905369"><ele>203.0</ele><time>2026-05-02T08:35:32.999Z</time></trkpt><trkpt lat="45.722591536157935" lon="8.60699577791812"><ele>203.0</ele><time>2026-05-02T08:35:34.999Z</time></trkpt><trkpt lat="45.722613796444904" lon="8.607082391075409"><ele>203.00000000000003</ele><time>2026-05-02T08:35:35.999Z</time></trkpt><trkpt lat="45.722636805515165" lon="8.607173062420138"><ele>203.0</ele><time>2026-05-02T08:35:36.999Z</time></trkpt><trkpt lat="45.72266407180623" lon="8.60726798782095"><ele>203.00000000000003</ele><time>2026-05-02T08:35:37.999Z</time></trkpt><trkpt lat="45.722686582163156" lon="8.607367464753217"><ele>203.0</ele><time>2026-05-02T08:35:38.999Z</time></trkpt><trkpt lat="45.72270760232546" lon="8.607479528516173"><ele>203.0</ele><time>2026-05-02T08:35:39.999Z</time></trkpt><trkpt lat="45.72274075771991" lon="8.607596824114404"><ele>203.0</ele><time>2026-05-02T08:35:40.999Z</time></trkpt><trkpt lat="45.7227664796322" lon="8.607706630610704"><ele>203.00000000000003</ele><time>2026-05-02T08:35:41.999Z</time></trkpt><trkpt lat="45.72280540819279" lon="8.607827652803829"><ele>203.0</ele><time>2026-05-02T08:35:42.999Z</time></trkpt><trkpt lat="45.72284918478271" lon="8.607937122420887"><ele>202.50000000000003</ele><time>2026-05-02T08:35:43.999Z</time></trkpt><trkpt lat="45.722906501466326" lon="8.608044574044603"><ele>202.0</ele><time>2026-05-02T08:35:44.999Z</time></trkpt><trkpt lat="45.722969638430975" lon="8.608167655153183"><ele>201.5</ele><time>2026-05-02T08:35:45.999Z</time></trkpt><trkpt lat="45.723016614594286" lon="8.608257024666312"><ele>201.0</ele><time>2026-05-02T08:35:46.999Z</time></trkpt><trkpt lat="45.723050367187" lon="8.60834265699617"><ele>200.50000000000003</ele><time>2026-05-02T08:35:47.999Z</time></trkpt><trkpt lat="45.72308096162038" lon="8.608438246354519"><ele>200.0</ele><time>2026-05-02T08:35:50.999Z</time></trkpt><trkpt lat="45.722990824928495" lon="8.608544322352577"><ele>200.00000000000003</ele><time>2026-05-02T08:35:52.999Z</time></trkpt><trkpt lat="45.72292885699287" lon="8.608594071309458"><ele>200.0</ele><time>2026-05-02T08:35:53.999Z</time></trkpt><trkpt lat="45.72285527868999" lon="8.608642494483854"><ele>200.0</ele><time>2026-05-02T08:35:54.999Z</time></trkpt><trkpt lat="45.722790436866276" lon="8.60868497127153"><ele>200.0</ele><time>2026-05-02T08:35:55.999Z</time></trkpt><trkpt lat="45.72272750830593" lon="8.608754834413604"><ele>200.00000000000003</ele><time>2026-05-02T08:35:56.999Z</time></trkpt><trkpt lat="45.72264035379132" lon="8.608833756008568"><ele>200.0</ele><time>2026-05-02T08:35:57.999Z</time></trkpt><trkpt lat="45.72255775709167" lon="8.608921778201797"><ele>200.4</ele><time>2026-05-02T08:35:58.999Z</time></trkpt><trkpt lat="45.72248177345406" lon="8.609023602980791"><ele>200.8</ele><time>2026-05-02T08:35:59.999Z</time></trkpt><trkpt lat="45.722394739376966" lon="8.60910866762546"><ele>201.2</ele><time>2026-05-02T08:36:00.999Z</time></trkpt><trkpt lat="45.72228478484612" lon="8.6091815634452"><ele>201.6</ele><time>2026-05-02T08:36:01.999Z</time></trkpt><trkpt lat="45.72219040749548" lon="8.609257229678954"><ele>202.0</ele><time>2026-05-02T08:36:02.999Z</time></trkpt><trkpt lat="45.72209875318104" lon="8.609321192794871"><ele>202.0</ele><time>2026-05-02T08:36:03.999Z</time></trkpt><trkpt lat="45.7220077683399" lon="8.609420114312883"><ele>202.0</ele><time>2026-05-02T08:36:04.999Z</time></trkpt><trkpt lat="45.721912366519824" lon="8.609498062347892"><ele>202.0</ele><time>2026-05-02T08:36:05.999Z</time></trkpt><trkpt lat="45.72183541911787" lon="8.609582098735995"><ele>202.0</ele><time>2026-05-02T08:36:06.999Z</time></trkpt><trkpt lat="45.7217466872934" lon="8.60966432171486"><ele>202.0</ele><time>2026-05-02T08:36:07.999Z</time></trkpt><trkpt lat="45.72167841594423" lon="8.609727611756128"><ele>202.39999999999998</ele><time>2026-05-02T08:36:08.999Z</time></trkpt><trkpt lat="45.72161165685108" lon="8.609778457028636"><ele>202.79999999999998</ele><time>2026-05-02T08:36:09.999Z</time></trkpt><trkpt lat="45.72149590403332" lon="8.609844395398227"><ele>203.2</ele><time>2026-05-02T08:36:11.999Z</time></trkpt><trkpt lat="45.72142988275661" lon="8.609897520431417"><ele>203.6</ele><time>2026-05-02T08:36:12.999Z</time></trkpt><trkpt lat="45.72135908456217" lon="8.609977362318173"><ele>204.0</ele><time>2026-05-02T08:36:13.999Z</time></trkpt><trkpt lat="45.72129640874514" lon="8.610059351677535"><ele>204.0</ele><time>2026-05-02T08:36:14.999Z</time></trkpt><trkpt lat="45.72122037722708" lon="8.610131724261032"><ele>204.0</ele><time>2026-05-02T08:36:15.999Z</time></trkpt><trkpt lat="45.7211495072242" lon="8.610228210614011"><ele>204.0</ele><time>2026-05-02T08:36:16.999Z</time></trkpt><trkpt lat="45.72107237222426" lon="8.610313558170866"><ele>204.0</ele><time>2026-05-02T08:36:17.999Z</time></trkpt><trkpt lat="45.72097958768796" lon="8.610371569304204"><ele>204.0</ele><time>2026-05-02T08:36:18.999Z</time></trkpt><trkpt lat="45.720875000496385" lon="8.61045789405326"><ele>204.6</ele><time>2026-05-02T08:36:19.999Z</time></trkpt><trkpt lat="45.7207903300681" lon="8.610525089612816"><ele>205.2</ele><time>2026-05-02T08:36:20.999Z</time></trkpt><trkpt lat="45.72069283670159" lon="8.610616907588048"><ele>205.79999999999998</ele><time>2026-05-02T08:36:21.999Z</time></trkpt><trkpt lat="45.72060381004369" lon="8.610709754430868"><ele>206.39999999999998</ele><time>2026-05-02T08:36:22.999Z</time></trkpt><trkpt lat="45.72051359587071" lon="8.610796883327941"><ele>207.0</ele><time>2026-05-02T08:36:23.999Z</time></trkpt><trkpt lat="45.72041903396883" lon="8.61086431990578"><ele>207.0</ele><time>2026-05-02T08:36:24.999Z</time></trkpt><trkpt lat="45.72033869872542" lon="8.61095026971915"><ele>207.0</ele><time>2026-05-02T08:36:25.999Z</time></trkpt><trkpt lat="45.720255578326906" lon="8.6110327526853"><ele>207.0</ele><time>2026-05-02T08:36:26.999Z</time></trkpt><trkpt lat="45.72017581625331" lon="8.611115453961212"><ele>207.0</ele><time>2026-05-02T08:36:27.999Z</time></trkpt><trkpt lat="45.72010789020831" lon="8.611186190077921"><ele>207.0</ele><time>2026-05-02T08:36:28.999Z</time></trkpt><trkpt lat="45.720040036211145" lon="8.611244320602337"><ele>207.33333333333334</ele><time>2026-05-02T08:36:29.999Z</time></trkpt><trkpt lat="45.7199808393558" lon="8.611292251417623"><ele>207.66666666666669</ele><time>2026-05-02T08:36:30.999Z</time></trkpt><trkpt lat="45.719940135466224" lon="8.611366558252605"><ele>208.0</ele><time>2026-05-02T08:36:31.999Z</time></trkpt><trkpt lat="45.71990246755195" lon="8.611509395297842"><ele>208.33333333333334</ele><time>2026-05-02T08:36:33.999Z</time></trkpt><trkpt lat="45.71988066913241" lon="8.611598058879594"><ele>208.66666666666669</ele><time>2026-05-02T08:36:35.998Z</time></trkpt><trkpt lat="45.719841344249176" lon="8.611668664954072"><ele>209.0</ele><time>2026-05-02T08:36:40.998Z</time></trkpt><trkpt lat="45.71976284358363" lon="8.611742537054038"><ele>209.0</ele><time>2026-05-02T08:37:30.998Z</time></trkpt><trkpt lat="45.71965789529599" lon="8.61171044871601"><ele>209.0</ele><time>2026-05-02T08:37:32.998Z</time></trkpt><trkpt lat="45.719583903470294" lon="8.61155857896115"><ele>209.0</ele><time>2026-05-02T08:37:34.998Z</time></trkpt><trkpt lat="45.719575175354635" lon="8.611462910079856"><ele>209.0</ele><time>2026-05-02T08:37:35.998Z</time></trkpt><trkpt lat="45.719600213591896" lon="8.611363344941779"><ele>209.0</ele><time>2026-05-02T08:37:36.998Z</time></trkpt><trkpt lat="45.719596732933965" lon="8.611201554849487"><ele>209.0</ele><time>2026-05-02T08:37:37.998Z</time></trkpt><trkpt lat="45.719555474555364" lon="8.610947368682808"><ele>209.0</ele><time>2026-05-02T08:37:38.998Z</time></trkpt><trkpt lat="45.71954998272746" lon="8.610676051041748"><ele>209.0</ele><time>2026-05-02T08:37:39.998Z</time></trkpt><trkpt lat="45.71955217200241" lon="8.6104342182229"><ele>208.66666666666669</ele><time>2026-05-02T08:37:40.998Z</time></trkpt><trkpt lat="45.719545520764775" lon="8.61022690947783"><ele>208.33333333333331</ele><time>2026-05-02T08:37:41.998Z</time></trkpt><trkpt lat="45.719542605798544" lon="8.610020035391582"><ele>208.0</ele><time>2026-05-02T08:37:42.998Z</time></trkpt><trkpt lat="45.71953752063114" lon="8.609783093197064"><ele>208.0</ele><time>2026-05-02T08:37:43.998Z</time></trkpt><trkpt lat="45.71952718632852" lon="8.609521198113601"><ele>208.0</ele><time>2026-05-02T08:37:44.998Z</time></trkpt><trkpt lat="45.71953222939334" lon="8.60925416005713"><ele>208.0</ele><time>2026-05-02T08:37:45.998Z</time></trkpt><trkpt lat="45.7195370162863" lon="8.608997965005292"><ele>208.66666666666666</ele><time>2026-05-02T08:37:46.998Z</time></trkpt><trkpt lat="45.719534574252734" lon="8.60875072989868"><ele>209.33333333333331</ele><time>2026-05-02T08:37:47.998Z</time></trkpt><trkpt lat="45.71952943976056" lon="8.608517938333698"><ele>210.0</ele><time>2026-05-02T08:37:48.998Z</time></trkpt><trkpt lat="45.719522755222634" lon="8.60830118904305"><ele>211.0</ele><time>2026-05-02T08:37:49.998Z</time></trkpt><trkpt lat="45.719526765964694" lon="8.6080597958736"><ele>212.0</ele><time>2026-05-02T08:37:50.998Z</time></trkpt><trkpt lat="45.719514975441506" lon="8.60781625241024"><ele>213.0</ele><time>2026-05-02T08:37:51.998Z</time></trkpt><trkpt lat="45.719511226955056" lon="8.607550797241677"><ele>213.33333333333331</ele><time>2026-05-02T08:37:52.998Z</time></trkpt><trkpt lat="45.71950258447517" lon="8.607294847913728"><ele>213.66666666666666</ele><time>2026-05-02T08:37:53.998Z</time></trkpt><trkpt lat="45.71949393658179" lon="8.607047812163568"><ele>214.0</ele><time>2026-05-02T08:37:54.998Z</time></trkpt><trkpt lat="45.71949815278181" lon="8.606798071101313"><ele>213.33333333333331</ele><time>2026-05-02T08:37:55.998Z</time></trkpt><trkpt lat="45.71949442458991" lon="8.606568352918638"><ele>212.66666666666669</ele><time>2026-05-02T08:37:56.998Z</time></trkpt><trkpt lat="45.7194898501919" lon="8.606353200382516"><ele>212.0</ele><time>2026-05-02T08:37:57.998Z</time></trkpt><trkpt lat="45.7194810545872" lon="8.606147480833451"><ele>212.0</ele><time>2026-05-02T08:37:58.998Z</time></trkpt><trkpt lat="45.719472243463635" lon="8.605956621754473"><ele>212.0</ele><time>2026-05-02T08:37:59.998Z</time></trkpt><trkpt lat="45.71946610589391" lon="8.605761895565104"><ele>212.0</ele><time>2026-05-02T08:38:00.998Z</time></trkpt><trkpt lat="45.71945896797634" lon="8.605568593275173"><ele>212.0</ele><time>2026-05-02T08:38:01.998Z</time></trkpt><trkpt lat="45.71945237711049" lon="8.60537351102139"><ele>211.75</ele><time>2026-05-02T08:38:02.998Z</time></trkpt><trkpt lat="45.71944831760032" lon="8.605176045846955"><ele>211.5</ele><time>2026-05-02T08:38:03.998Z</time></trkpt><trkpt lat="45.7194454242243" lon="8.604980240223135"><ele>211.25</ele><time>2026-05-02T08:38:04.998Z</time></trkpt><trkpt lat="45.71943894892575" lon="8.60477395617941"><ele>211.0</ele><time>2026-05-02T08:38:05.998Z</time></trkpt><trkpt lat="45.71943641564688" lon="8.604554411840528"><ele>210.0</ele><time>2026-05-02T08:38:06.998Z</time></trkpt><trkpt lat="45.719436227714915" lon="8.604326875496337"><ele>209.0</ele><time>2026-05-02T08:38:07.998Z</time></trkpt><trkpt lat="45.719431351657605" lon="8.604098072985266"><ele>208.0</ele><time>2026-05-02T08:38:08.998Z</time></trkpt><trkpt lat="45.71943171287366" lon="8.603897630557816"><ele>208.0</ele><time>2026-05-02T08:38:09.998Z</time></trkpt><trkpt lat="45.7194627305508" lon="8.60371918384409"><ele>208.0</ele><time>2026-05-02T08:38:10.998Z</time></trkpt><trkpt lat="45.719469574240904" lon="8.60354963246547"><ele>208.0</ele><time>2026-05-02T08:38:11.998Z</time></trkpt><trkpt lat="45.719516073780376" lon="8.6034101102208"><ele>208.0</ele><time>2026-05-02T08:38:12.998Z</time></trkpt><trkpt lat="45.719611628982975" lon="8.603342851408861"><ele>207.83333333333331</ele><time>2026-05-02T08:38:13.998Z</time></trkpt><trkpt lat="45.719647489044206" lon="8.603237770643966"><ele>207.66666666666666</ele><time>2026-05-02T08:38:14.998Z</time></trkpt><trkpt lat="45.7196410777879" lon="8.603128457155751"><ele>207.5</ele><time>2026-05-02T08:38:15.998Z</time></trkpt><trkpt lat="45.71959085004429" lon="8.603039245444567"><ele>207.33333333333331</ele><time>2026-05-02T08:38:16.998Z</time></trkpt><trkpt lat="45.719494766971614" lon="8.603029366455708"><ele>207.16666666666666</ele><time>2026-05-02T08:38:17.998Z</time></trkpt><trkpt lat="45.719426922059725" lon="8.603058143561132"><ele>207.0</ele><time>2026-05-02T08:38:18.998Z</time></trkpt><trkpt lat="45.719361814810846" lon="8.603106267045597"><ele>207.0</ele><time>2026-05-02T08:38:19.998Z</time></trkpt><trkpt lat="45.71931370449594" lon="8.603200538603906"><ele>207.0</ele><time>2026-05-02T08:38:20.998Z</time></trkpt><trkpt lat="45.719272288073" lon="8.60330186888978"><ele>207.0</ele><time>2026-05-02T08:38:21.998Z</time></trkpt><trkpt lat="45.719160787273346" lon="8.603360936291404"><ele>207.0</ele><time>2026-05-02T08:38:23.998Z</time></trkpt><trkpt lat="45.719106110043995" lon="8.60331553382075"><ele>207.0</ele><time>2026-05-02T08:38:24.998Z</time></trkpt><trkpt lat="45.71905457926667" lon="8.603248251250635"><ele>207.0</ele><time>2026-05-02T08:38:26.998Z</time></trkpt><trkpt lat="45.718969635196245" lon="8.60318866690555"><ele>207.0</ele><time>2026-05-02T08:39:30.998Z</time></trkpt><trkpt lat="45.718904463642836" lon="8.603159679678564"><ele>207.0</ele><time>2026-05-02T08:39:31.998Z</time></trkpt><trkpt lat="45.71883026458847" lon="8.603133187911576"><ele>207.0</ele><time>2026-05-02T08:39:32.998Z</time></trkpt><trkpt lat="45.71874966758979" lon="8.603105143590943"><ele>207.0</ele><time>2026-05-02T08:39:33.998Z</time></trkpt><trkpt lat="45.71864432742741" lon="8.603068992279045"><ele>207.0</ele><time>2026-05-02T08:39:34.998Z</time></trkpt><trkpt lat="45.71851920393565" lon="8.603025119460646"><ele>207.66666666666669</ele><time>2026-05-02T08:39:35.998Z</time></trkpt><trkpt lat="45.7183658013577" lon="8.602970816579072"><ele>208.33333333333334</ele><time>2026-05-02T08:39:36.998Z</time></trkpt><trkpt lat="45.71819219513339" lon="8.602906913933849"><ele>209.0</ele><time>2026-05-02T08:39:37.998Z</time></trkpt><trkpt lat="45.71799271985932" lon="8.602823754631741"><ele>209.0</ele><time>2026-05-02T08:39:38.998Z</time></trkpt><trkpt lat="45.717795041904225" lon="8.602723776504357"><ele>209.0</ele><time>2026-05-02T08:39:39.998Z</time></trkpt><trkpt lat="45.717611508534" lon="8.602618830450112"><ele>209.0</ele><time>2026-05-02T08:39:40.998Z</time></trkpt><trkpt lat="45.71744301653796" lon="8.60254582716921"><ele>210.0</ele><time>2026-05-02T08:39:41.998Z</time></trkpt><trkpt lat="45.717296382993375" lon="8.602463252278778"><ele>211.0</ele><time>2026-05-02T08:39:42.998Z</time></trkpt><trkpt lat="45.71715283873958" lon="8.602365490469719"><ele>212.0</ele><time>2026-05-02T08:39:43.998Z</time></trkpt><trkpt lat="45.71698897079332" lon="8.602314058230723"><ele>211.66666666666669</ele><time>2026-05-02T08:39:44.998Z</time></trkpt><trkpt lat="45.71682017108438" lon="8.602306510719167"><ele>211.33333333333331</ele><time>2026-05-02T08:39:45.998Z</time></trkpt><trkpt lat="45.716650868712485" lon="8.602337044430136"><ele>211.0</ele><time>2026-05-02T08:39:46.998Z</time></trkpt><trkpt lat="45.7164920620499" lon="8.602407980191884"><ele>211.0</ele><time>2026-05-02T08:39:47.998Z</time></trkpt><trkpt lat="45.71633909362936" lon="8.602494964617925"><ele>211.0</ele><time>2026-05-02T08:39:48.998Z</time></trkpt><trkpt lat="45.716202582268906" lon="8.602575199636133"><ele>211.0</ele><time>2026-05-02T08:39:49.998Z</time></trkpt><trkpt lat="45.71607800153782" lon="8.602648422423908"><ele>211.0</ele><time>2026-05-02T08:39:50.998Z</time></trkpt><trkpt lat="45.71595764279696" lon="8.602719163681238"><ele>212.5</ele><time>2026-05-02T08:39:51.998Z</time></trkpt><trkpt lat="45.71583026848098" lon="8.602777319393056"><ele>214.0</ele><time>2026-05-02T08:39:52.998Z</time></trkpt><trkpt lat="45.7157145478498" lon="8.602836142234345"><ele>215.5</ele><time>2026-05-02T08:39:53.998Z</time></trkpt><trkpt lat="45.71559789077333" lon="8.602910813041765"><ele>217.0</ele><time>2026-05-02T08:39:54.998Z</time></trkpt><trkpt lat="45.71550984232396" lon="8.602994427180729"><ele>217.0</ele><time>2026-05-02T08:39:55.998Z</time></trkpt><trkpt lat="45.715437755419096" lon="8.60307980818099"><ele>217.0</ele><time>2026-05-02T08:39:56.998Z</time></trkpt><trkpt lat="45.715374580413254" lon="8.60317349461759"><ele>217.0</ele><time>2026-05-02T08:39:57.998Z</time></trkpt><trkpt lat="45.715310045833675" lon="8.603259197398598"><ele>217.0</ele><time>2026-05-02T08:39:58.998Z</time></trkpt><trkpt lat="45.715233634671826" lon="8.603349751293845"><ele>217.0</ele><time>2026-05-02T08:39:59.998Z</time></trkpt><trkpt lat="45.71513520231524" lon="8.60342711921035"><ele>217.6</ele><time>2026-05-02T08:40:00.998Z</time></trkpt><trkpt lat="45.71504080957435" lon="8.603487887533104"><ele>218.2</ele><time>2026-05-02T08:40:01.998Z</time></trkpt><trkpt lat="45.714947551541485" lon="8.603527413493063"><ele>218.8</ele><time>2026-05-02T08:40:02.998Z</time></trkpt><trkpt lat="45.71484348057284" lon="8.60350017792597"><ele>219.4</ele><time>2026-05-02T08:40:03.998Z</time></trkpt><trkpt lat="45.71473667025832" lon="8.603497239152736"><ele>220.0</ele><time>2026-05-02T08:40:04.998Z</time></trkpt><trkpt lat="45.71462148511361" lon="8.603524355609318"><ele>220.0</ele><time>2026-05-02T08:40:05.998Z</time></trkpt><trkpt lat="45.714502568396874" lon="8.603540537200466"><ele>220.0</ele><time>2026-05-02T08:40:06.998Z</time></trkpt><trkpt lat="45.714381774204796" lon="8.60356751512147"><ele>220.0</ele><time>2026-05-02T08:40:07.998Z</time></trkpt><trkpt lat="45.71426081950261" lon="8.603610197260119"><ele>220.0</ele><time>2026-05-02T08:40:08.998Z</time></trkpt><trkpt lat="45.71415000415408" lon="8.603679324307198"><ele>220.75</ele><time>2026-05-02T08:40:09.998Z</time></trkpt><trkpt lat="45.71406848554733" lon="8.603774750265588"><ele>221.5</ele><time>2026-05-02T08:40:10.998Z</time></trkpt><trkpt lat="45.71396955241055" lon="8.60385103267664"><ele>222.25</ele><time>2026-05-02T08:40:11.998Z</time></trkpt><trkpt lat="45.71386984606174" lon="8.603938987753477"><ele>223.0</ele><time>2026-05-02T08:40:12.998Z</time></trkpt><trkpt lat="45.71374588708881" lon="8.60400993407149"><ele>223.0</ele><time>2026-05-02T08:40:13.998Z</time></trkpt><trkpt lat="45.713637894554424" lon="8.604100515804328"><ele>223.0</ele><time>2026-05-02T08:40:14.998Z</time></trkpt><trkpt lat="45.713542149411474" lon="8.604203042088226"><ele>223.0</ele><time>2026-05-02T08:40:15.998Z</time></trkpt><trkpt lat="45.71344948461332" lon="8.604317177609742"><ele>223.0</ele><time>2026-05-02T08:40:16.998Z</time></trkpt><trkpt lat="45.71336770689489" lon="8.604449168390754"><ele>223.60000000000002</ele><time>2026-05-02T08:40:17.998Z</time></trkpt><trkpt lat="45.71329864400941" lon="8.604588367652397"><ele>224.20000000000002</ele><time>2026-05-02T08:40:18.998Z</time></trkpt><trkpt lat="45.71324781188967" lon="8.604706349008373"><ele>224.8</ele><time>2026-05-02T08:40:19.998Z</time></trkpt><trkpt lat="45.71319366981692" lon="8.604817305085612"><ele>225.4</ele><time>2026-05-02T08:40:20.998Z</time></trkpt><trkpt lat="45.71314612141713" lon="8.604896017536987"><ele>226.0</ele><time>2026-05-02T08:40:21.998Z</time></trkpt><trkpt lat="45.71305217558886" lon="8.604931253240531"><ele>226.0</ele><time>2026-05-02T08:40:24.998Z</time></trkpt><trkpt lat="45.7129805630186" lon="8.60492419473171"><ele>226.0</ele><time>2026-05-02T08:40:26.998Z</time></trkpt><trkpt lat="45.71280616894249" lon="8.604472232865367"><ele>226.0</ele><time>2026-05-02T08:40:28.998Z</time></trkpt><trkpt lat="45.71275426991075" lon="8.604351915396856"><ele>226.0</ele><time>2026-05-02T08:40:29.998Z</time></trkpt><trkpt lat="45.71271148032739" lon="8.604225184758539"><ele>226.00000000000003</ele><time>2026-05-02T08:40:30.998Z</time></trkpt><trkpt lat="45.71266403783512" lon="8.604084712483004"><ele>226.00000000000003</ele><time>2026-05-02T08:40:31.998Z</time></trkpt><trkpt lat="45.71263382370418" lon="8.603896688184461"><ele>226.0</ele><time>2026-05-02T08:40:32.998Z</time></trkpt><trkpt lat="45.712618074982984" lon="8.603764312554187"><ele>226.0</ele><time>2026-05-02T08:40:33.998Z</time></trkpt><trkpt lat="45.71256615165291" lon="8.60358151548616"><ele>226.0</ele><time>2026-05-02T08:40:35.997Z</time></trkpt><trkpt lat="45.71249546652631" lon="8.603496486409934"><ele>226.0</ele><time>2026-05-02T08:40:36.997Z</time></trkpt><trkpt lat="45.71239933719186" lon="8.603467001506134"><ele>226.0</ele><time>2026-05-02T08:40:37.997Z</time></trkpt><trkpt lat="45.71224608758187" lon="8.603421668426474"><ele>226.0</ele><time>2026-05-02T08:40:38.997Z</time></trkpt><trkpt lat="45.71209075824829" lon="8.603397616074187"><ele>226.0</ele><time>2026-05-02T08:40:39.997Z</time></trkpt><trkpt lat="45.71195276282228" lon="8.603391801370538"><ele>226.0</ele><time>2026-05-02T08:40:40.997Z</time></trkpt><trkpt lat="45.71175767187336" lon="8.603351124570072"><ele>226.0</ele><time>2026-05-02T08:40:41.997Z</time></trkpt><trkpt lat="45.711618337114935" lon="8.60332752267925"><ele>226.0</ele><time>2026-05-02T08:40:42.997Z</time></trkpt><trkpt lat="45.71153021276577" lon="8.603354144824788"><ele>226.0</ele><time>2026-05-02T08:40:43.997Z</time></trkpt><trkpt lat="45.71145632112685" lon="8.603415564455315"><ele>226.0</ele><time>2026-05-02T08:40:44.997Z</time></trkpt><trkpt lat="45.711471245734224" lon="8.603073119331391"><ele>226.0</ele><time>2026-05-02T08:40:45.997Z</time></trkpt><trkpt lat="45.711388927529185" lon="8.60310931008651"><ele>226.0</ele><time>2026-05-02T08:40:46.997Z</time></trkpt><trkpt lat="45.71126511308885" lon="8.603186052391175"><ele>226.00000000000003</ele><time>2026-05-02T08:40:47.997Z</time></trkpt><trkpt lat="45.71115578765593" lon="8.603261902054332"><ele>226.00000000000003</ele><time>2026-05-02T08:40:48.997Z</time></trkpt><trkpt lat="45.711073571673474" lon="8.60328908863854"><ele>226.0</ele><time>2026-05-02T08:40:49.997Z</time></trkpt><trkpt lat="45.711004669817065" lon="8.603247778950427"><ele>226.0</ele><time>2026-05-02T08:40:50.997Z</time></trkpt><trkpt lat="45.71094899595281" lon="8.603145610504775"><ele>225.4</ele><time>2026-05-02T08:40:51.997Z</time></trkpt><trkpt lat="45.71092206510791" lon="8.60300377144979"><ele>224.8</ele><time>2026-05-02T08:40:52.997Z</time></trkpt><trkpt lat="45.710908886229525" lon="8.602878707242919"><ele>224.20000000000002</ele><time>2026-05-02T08:40:53.997Z</time></trkpt><trkpt lat="45.71081513878733" lon="8.602827174929729"><ele>223.60000000000002</ele><time>2026-05-02T08:40:55.997Z</time></trkpt><trkpt lat="45.71070749222917" lon="8.602878106696764"><ele>223.0</ele><time>2026-05-02T08:40:56.997Z</time></trkpt><trkpt lat="45.71054392236987" lon="8.602972268075856"><ele>223.0</ele><time>2026-05-02T08:40:57.997Z</time></trkpt><trkpt lat="45.71038925061483" lon="8.60304881367145"><ele>223.0</ele><time>2026-05-02T08:40:58.997Z</time></trkpt><trkpt lat="45.71025492362474" lon="8.603117503807415"><ele>223.0</ele><time>2026-05-02T08:40:59.997Z</time></trkpt><trkpt lat="45.71017575402226" lon="8.60315162257121"><ele>223.0</ele><time>2026-05-02T08:41:00.997Z</time></trkpt><trkpt lat="45.710220129863856" lon="8.60328273668262"><ele>223.0</ele><time>2026-05-02T08:41:02.997Z</time></trkpt><trkpt lat="45.71026521570228" lon="8.603396909112217"><ele>223.0</ele><time>2026-05-02T08:41:04.997Z</time></trkpt><trkpt lat="45.71024140410125" lon="8.603533207855937"><ele>223.0</ele><time>2026-05-02T08:41:06.997Z</time></trkpt><trkpt lat="45.71014559140093" lon="8.603596830125298"><ele>223.0</ele><time>2026-05-02T08:41:07.997Z</time></trkpt><trkpt lat="45.71003589988045" lon="8.603647795363292"><ele>223.0</ele><time>2026-05-02T08:41:08.997Z</time></trkpt><trkpt lat="45.7099549008649" lon="8.603692675746068"><ele>222.0</ele><time>2026-05-02T08:41:09.997Z</time></trkpt><trkpt lat="45.70981090708347" lon="8.60383059694079"><ele>221.0</ele><time>2026-05-02T08:41:10.997Z</time></trkpt><trkpt lat="45.70967346874033" lon="8.603971517890644"><ele>220.0</ele><time>2026-05-02T08:41:11.997Z</time></trkpt><trkpt lat="45.709551572891705" lon="8.60408057968392"><ele>220.0</ele><time>2026-05-02T08:41:12.997Z</time></trkpt><trkpt lat="45.70946285680539" lon="8.604145940420432"><ele>220.0</ele><time>2026-05-02T08:41:13.997Z</time></trkpt><trkpt lat="45.70933788373764" lon="8.604335297192959"><ele>220.0</ele><time>2026-05-02T08:41:15.997Z</time></trkpt><trkpt lat="45.709233466857604" lon="8.60446808793837"><ele>220.0</ele><time>2026-05-02T08:41:16.997Z</time></trkpt><trkpt lat="45.70915265157886" lon="8.60455900652591"><ele>220.0</ele><time>2026-05-02T08:41:17.997Z</time></trkpt><trkpt lat="45.70907694812242" lon="8.604674086682618"><ele>220.0</ele><time>2026-05-02T08:41:18.997Z</time></trkpt><trkpt lat="45.708993845067525" lon="8.604855118407842"><ele>220.0</ele><time>2026-05-02T08:41:19.997Z</time></trkpt><trkpt lat="45.708909841166914" lon="8.605050127719617"><ele>220.0</ele><time>2026-05-02T08:41:20.997Z</time></trkpt><trkpt lat="45.708805514145176" lon="8.60526091295665"><ele>220.33333333333331</ele><time>2026-05-02T08:41:21.997Z</time></trkpt><trkpt lat="45.70871235347127" lon="8.60546485827639"><ele>220.66666666666669</ele><time>2026-05-02T08:41:22.997Z</time></trkpt><trkpt lat="45.70862566916577" lon="8.605680853416882"><ele>221.0</ele><time>2026-05-02T08:41:23.997Z</time></trkpt><trkpt lat="45.70854304206368" lon="8.605854182005821"><ele>221.25</ele><time>2026-05-02T08:41:24.997Z</time></trkpt><trkpt lat="45.70844373219931" lon="8.605977948032532"><ele>221.5</ele><time>2026-05-02T08:41:25.997Z</time></trkpt><trkpt lat="45.70835007826535" lon="8.606106713238384"><ele>221.75</ele><time>2026-05-02T08:41:26.997Z</time></trkpt><trkpt lat="45.70826624378837" lon="8.606235568239192"><ele>222.0</ele><time>2026-05-02T08:41:27.997Z</time></trkpt><trkpt lat="45.70818480996259" lon="8.606349021938975"><ele>222.0</ele><time>2026-05-02T08:41:28.997Z</time></trkpt><trkpt lat="45.70813905454619" lon="8.606417977149224"><ele>222.0</ele><time>2026-05-02T08:41:29.997Z</time></trkpt><trkpt lat="45.708006179495996" lon="8.60649908496549"><ele>222.0</ele><time>2026-05-02T08:41:31.997Z</time></trkpt><trkpt lat="45.70787127188399" lon="8.60657264217946"><ele>222.0</ele><time>2026-05-02T08:41:32.997Z</time></trkpt><trkpt lat="45.70773397261496" lon="8.606656177569166"><ele>221.8</ele><time>2026-05-02T08:41:33.997Z</time></trkpt><trkpt lat="45.70761837370725" lon="8.606721254674007"><ele>221.6</ele><time>2026-05-02T08:41:34.997Z</time></trkpt><trkpt lat="45.70752275845357" lon="8.606766211035232"><ele>221.40000000000003</ele><time>2026-05-02T08:41:35.997Z</time></trkpt><trkpt lat="45.70743177182527" lon="8.60681502565105"><ele>221.20000000000002</ele><time>2026-05-02T08:41:36.997Z</time></trkpt><trkpt lat="45.70733366171912" lon="8.606850437647784"><ele>221.0</ele><time>2026-05-02T08:41:37.997Z</time></trkpt><trkpt lat="45.70722406692253" lon="8.606866458863397"><ele>221.0</ele><time>2026-05-02T08:41:38.997Z</time></trkpt><trkpt lat="45.7070957075963" lon="8.606866744049977"><ele>221.0</ele><time>2026-05-02T08:41:39.997Z</time></trkpt><trkpt lat="45.70695392055868" lon="8.606861318728257"><ele>221.0</ele><time>2026-05-02T08:41:40.997Z</time></trkpt><trkpt lat="45.70678732362623" lon="8.606883476396867"><ele>221.0</ele><time>2026-05-02T08:41:41.997Z</time></trkpt><trkpt lat="45.706635346030865" lon="8.606949479473409"><ele>222.0</ele><time>2026-05-02T08:41:42.997Z</time></trkpt><trkpt lat="45.70651291915235" lon="8.607003478522712"><ele>223.0</ele><time>2026-05-02T08:41:43.997Z</time></trkpt><trkpt lat="45.70638223229458" lon="8.607043426308826"><ele>224.0</ele><time>2026-05-02T08:41:44.997Z</time></trkpt><trkpt lat="45.70622788744063" lon="8.607083936289992"><ele>225.0</ele><time>2026-05-02T08:41:45.997Z</time></trkpt><trkpt lat="45.70609187454032" lon="8.607106068941434"><ele>225.25</ele><time>2026-05-02T08:41:46.997Z</time></trkpt><trkpt lat="45.70595621370812" lon="8.607119322571911"><ele>225.5</ele><time>2026-05-02T08:41:47.997Z</time></trkpt><trkpt lat="45.705833060529876" lon="8.607116246687928"><ele>225.75</ele><time>2026-05-02T08:41:48.997Z</time></trkpt><trkpt lat="45.70569841775348" lon="8.607110732676302"><ele>226.0</ele><time>2026-05-02T08:41:49.997Z</time></trkpt><trkpt lat="45.7055640174807" lon="8.607089379107569"><ele>226.0</ele><time>2026-05-02T08:41:50.997Z</time></trkpt><trkpt lat="45.70543445602194" lon="8.607081535564804"><ele>226.00000000000003</ele><time>2026-05-02T08:41:51.997Z</time></trkpt><trkpt lat="45.70533288649171" lon="8.607084324194105"><ele>226.00000000000003</ele><time>2026-05-02T08:41:52.997Z</time></trkpt><trkpt lat="45.70524947816633" lon="8.60710782930136"><ele>226.0</ele><time>2026-05-02T08:41:53.997Z</time></trkpt><trkpt lat="45.70516747902482" lon="8.607158593984515"><ele>226.0</ele><time>2026-05-02T08:41:54.997Z</time></trkpt><trkpt lat="45.705094618740254" lon="8.607221287554761"><ele>226.60000000000002</ele><time>2026-05-02T08:41:55.997Z</time></trkpt><trkpt lat="45.705002433482086" lon="8.607273483011502"><ele>227.20000000000002</ele><time>2026-05-02T08:41:56.997Z</time></trkpt><trkpt lat="45.70489279674296" lon="8.607298400989514"><ele>227.79999999999998</ele><time>2026-05-02T08:41:57.997Z</time></trkpt><trkpt lat="45.704792546972904" lon="8.607313569591708"><ele>228.39999999999998</ele><time>2026-05-02T08:41:58.997Z</time></trkpt><trkpt lat="45.70469573299149" lon="8.60734397885942"><ele>229.0</ele><time>2026-05-02T08:41:59.997Z</time></trkpt><trkpt lat="45.70457442383403" lon="8.607420531797917"><ele>229.0</ele><time>2026-05-02T08:42:00.997Z</time></trkpt><trkpt lat="45.704447767857005" lon="8.607502693085424"><ele>228.99999999999997</ele><time>2026-05-02T08:42:01.997Z</time></trkpt><trkpt lat="45.70433477970987" lon="8.607553774081229"><ele>228.99999999999997</ele><time>2026-05-02T08:42:02.997Z</time></trkpt><trkpt lat="45.70423823868671" lon="8.607584185109715"><ele>229.0</ele><time>2026-05-02T08:42:03.997Z</time></trkpt><trkpt lat="45.70415267575458" lon="8.607590694085307"><ele>229.0</ele><time>2026-05-02T08:42:04.997Z</time></trkpt><trkpt lat="45.70404783839024" lon="8.607579056775718"><ele>229.79999999999998</ele><time>2026-05-02T08:42:05.997Z</time></trkpt><trkpt lat="45.703923084671914" lon="8.60753808511127"><ele>230.59999999999997</ele><time>2026-05-02T08:42:06.997Z</time></trkpt><trkpt lat="45.70381518847565" lon="8.607480029398603"><ele>231.4</ele><time>2026-05-02T08:42:07.997Z</time></trkpt><trkpt lat="45.70373096757583" lon="8.607469372905085"><ele>232.2</ele><time>2026-05-02T08:42:11.997Z</time></trkpt><trkpt lat="45.70366444411394" lon="8.607443600712198"><ele>233.0</ele><time>2026-05-02T08:42:12.997Z</time></trkpt><trkpt lat="45.703574698152075" lon="8.607379788490105"><ele>233.0</ele><time>2026-05-02T08:42:13.997Z</time></trkpt><trkpt lat="45.70347264831133" lon="8.607246565158652"><ele>233.0</ele><time>2026-05-02T08:42:14.997Z</time></trkpt><trkpt lat="45.70336911566178" lon="8.607151705546565"><ele>233.0</ele><time>2026-05-02T08:42:15.997Z</time></trkpt><trkpt lat="45.70328803443421" lon="8.607068747745659"><ele>233.0</ele><time>2026-05-02T08:42:16.997Z</time></trkpt><trkpt lat="45.70324457027818" lon="8.606992893039692"><ele>233.0</ele><time>2026-05-02T08:42:17.997Z</time></trkpt><trkpt lat="45.70318220224819" lon="8.606940042171674"><ele>233.0</ele><time>2026-05-02T08:42:18.997Z</time></trkpt><trkpt lat="45.7030830234395" lon="8.606953655835714"><ele>233.0</ele><time>2026-05-02T08:42:20.997Z</time></trkpt><trkpt lat="45.703003797213405" lon="8.606980045532111"><ele>233.0</ele><time>2026-05-02T08:42:21.997Z</time></trkpt><trkpt lat="45.7029054973759" lon="8.606969695235914"><ele>233.0</ele><time>2026-05-02T08:42:22.997Z</time></trkpt><trkpt lat="45.70278778316485" lon="8.606897046187047"><ele>233.0</ele><time>2026-05-02T08:42:23.997Z</time></trkpt><trkpt lat="45.702679026800396" lon="8.606826594931134"><ele>233.0</ele><time>2026-05-02T08:42:24.997Z</time></trkpt><trkpt lat="45.70257152516421" lon="8.606734463612094"><ele>233.0</ele><time>2026-05-02T08:42:25.997Z</time></trkpt><trkpt lat="45.70247274434105" lon="8.606633110684236"><ele>233.0</ele><time>2026-05-02T08:42:26.997Z</time></trkpt><trkpt lat="45.702417154434315" lon="8.60650604266876"><ele>233.0</ele><time>2026-05-02T08:42:27.997Z</time></trkpt><trkpt lat="45.70238441826414" lon="8.606378591314847"><ele>233.0</ele><time>2026-05-02T08:42:28.997Z</time></trkpt><trkpt lat="45.702321203105726" lon="8.606331143689566"><ele>233.0</ele><time>2026-05-02T08:42:30.997Z</time></trkpt><trkpt lat="45.70225294638907" lon="8.606395278410883"><ele>233.0</ele><time>2026-05-02T08:42:31.997Z</time></trkpt><trkpt lat="45.70216748734859" lon="8.606525284742316"><ele>233.0</ele><time>2026-05-02T08:42:32.997Z</time></trkpt><trkpt lat="45.7020518219985" lon="8.606645123961826"><ele>233.0</ele><time>2026-05-02T08:42:33.997Z</time></trkpt><trkpt lat="45.701936777593346" lon="8.60675448236249"><ele>233.0</ele><time>2026-05-02T08:42:34.997Z</time></trkpt><trkpt lat="45.701867998042296" lon="8.606839493505515"><ele>233.0</ele><time>2026-05-02T08:42:35.997Z</time></trkpt><trkpt lat="45.701804889579" lon="8.606948360590602"><ele>233.0</ele><time>2026-05-02T08:42:36.997Z</time></trkpt><trkpt lat="45.70172321795903" lon="8.607088818207988"><ele>233.0</ele><time>2026-05-02T08:42:37.997Z</time></trkpt><trkpt lat="45.70159613169956" lon="8.607259342486236"><ele>232.66666666666669</ele><time>2026-05-02T08:42:38.997Z</time></trkpt><trkpt lat="45.701454787634624" lon="8.607433187500593"><ele>232.33333333333331</ele><time>2026-05-02T08:42:39.997Z</time></trkpt><trkpt lat="45.7013142142392" lon="8.607617322278127"><ele>232.0</ele><time>2026-05-02T08:42:40.997Z</time></trkpt><trkpt lat="45.70122416288058" lon="8.607760873511847"><ele>231.75</ele><time>2026-05-02T08:42:41.997Z</time></trkpt><trkpt lat="45.70112988645694" lon="8.607916258490642"><ele>231.5</ele><time>2026-05-02T08:42:42.997Z</time></trkpt><trkpt lat="45.70103401878624" lon="8.60809347281463"><ele>231.25</ele><time>2026-05-02T08:42:43.997Z</time></trkpt><trkpt lat="45.70097898733514" lon="8.608227938827039"><ele>231.0</ele><time>2026-05-02T08:42:44.997Z</time></trkpt><trkpt lat="45.70094339281424" lon="8.608343389276353"><ele>231.5</ele><time>2026-05-02T08:42:45.997Z</time></trkpt><trkpt lat="45.700918811156875" lon="8.60852567823424"><ele>232.0</ele><time>2026-05-02T08:42:46.997Z</time></trkpt><trkpt lat="45.70087420672019" lon="8.608717899487408"><ele>232.5</ele><time>2026-05-02T08:42:47.997Z</time></trkpt><trkpt lat="45.70081072514553" lon="8.608887937681015"><ele>233.0</ele><time>2026-05-02T08:42:48.997Z</time></trkpt><trkpt lat="45.700726232549506" lon="8.609085037615657"><ele>233.25</ele><time>2026-05-02T08:42:49.997Z</time></trkpt><trkpt lat="45.70064401448395" lon="8.609275983091988"><ele>233.5</ele><time>2026-05-02T08:42:50.997Z</time></trkpt><trkpt lat="45.700571159687364" lon="8.60945715950816"><ele>233.75</ele><time>2026-05-02T08:42:51.997Z</time></trkpt><trkpt lat="45.70051088326558" lon="8.60959801062272"><ele>234.0</ele><time>2026-05-02T08:42:52.997Z</time></trkpt><trkpt lat="45.700401278195" lon="8.60960110986111"><ele>234.0</ele><time>2026-05-02T08:42:55.997Z</time></trkpt><trkpt lat="45.70031946681117" lon="8.609553247756487"><ele>233.99999999999997</ele><time>2026-05-02T08:42:56.997Z</time></trkpt><trkpt lat="45.70022643924511" lon="8.609499510694755"><ele>233.99999999999997</ele><time>2026-05-02T08:42:57.997Z</time></trkpt><trkpt lat="45.70013433255388" lon="8.60945941602305"><ele>234.0</ele><time>2026-05-02T08:42:58.997Z</time></trkpt><trkpt lat="45.700032123993985" lon="8.609428030417016"><ele>234.0</ele><time>2026-05-02T08:42:59.997Z</time></trkpt><trkpt lat="45.69996798696899" lon="8.609318834739524"><ele>234.0</ele><time>2026-05-02T08:43:00.997Z</time></trkpt><trkpt lat="45.70001333437487" lon="8.609188164403047"><ele>234.0</ele><time>2026-05-02T08:43:01.997Z</time></trkpt><trkpt lat="45.700058127931854" lon="8.608988826671476"><ele>234.0</ele><time>2026-05-02T08:43:02.997Z</time></trkpt><trkpt lat="45.70010329688316" lon="8.608723871871883"><ele>234.0</ele><time>2026-05-02T08:43:03.997Z</time></trkpt><trkpt lat="45.70012591847155" lon="8.608506916339204"><ele>234.0</ele><time>2026-05-02T08:43:04.997Z</time></trkpt><trkpt lat="45.700140715165176" lon="8.608292244474496"><ele>234.0</ele><time>2026-05-02T08:43:05.997Z</time></trkpt><trkpt lat="45.70015669751154" lon="8.608079198673652"><ele>234.0</ele><time>2026-05-02T08:43:06.997Z</time></trkpt><trkpt lat="45.70015770578087" lon="8.607830075653961"><ele>233.66666666666669</ele><time>2026-05-02T08:43:07.997Z</time></trkpt><trkpt lat="45.70018398235309" lon="8.60759428147945"><ele>233.33333333333334</ele><time>2026-05-02T08:43:08.997Z</time></trkpt><trkpt lat="45.700195318370824" lon="8.607322885316794"><ele>233.0</ele><time>2026-05-02T08:43:09.997Z</time></trkpt><trkpt lat="45.70020588709918" lon="8.6070589115269"><ele>233.66666666666669</ele><time>2026-05-02T08:43:10.997Z</time></trkpt><trkpt lat="45.70020505830049" lon="8.606816702183954"><ele>234.33333333333331</ele><time>2026-05-02T08:43:11.997Z</time></trkpt><trkpt lat="45.70020969180978" lon="8.606611529866166"><ele>235.0</ele><time>2026-05-02T08:43:12.997Z</time></trkpt><trkpt lat="45.7002149144663" lon="8.606411027496364"><ele>235.0</ele><time>2026-05-02T08:43:13.997Z</time></trkpt><trkpt lat="45.70021884667955" lon="8.606215606863435"><ele>235.0</ele><time>2026-05-02T08:43:14.997Z</time></trkpt><trkpt lat="45.70024268763494" lon="8.606039127339358"><ele>235.0</ele><time>2026-05-02T08:43:15.997Z</time></trkpt><trkpt lat="45.700273761666146" lon="8.605862382056147"><ele>235.0</ele><time>2026-05-02T08:43:16.997Z</time></trkpt><trkpt lat="45.700335810196975" lon="8.605680325997579"><ele>234.6</ele><time>2026-05-02T08:43:17.997Z</time></trkpt><trkpt lat="45.70039785213757" lon="8.605498300414093"><ele>234.2</ele><time>2026-05-02T08:43:18.997Z</time></trkpt><trkpt lat="45.700460447554654" lon="8.605376576881673"><ele>233.8</ele><time>2026-05-02T08:43:19.997Z</time></trkpt><trkpt lat="45.70050456154062" lon="8.605306946619374"><ele>233.4</ele><time>2026-05-02T08:43:20.997Z</time></trkpt><trkpt lat="45.700487262882746" lon="8.605217035327023"><ele>233.0</ele><time>2026-05-02T08:43:22.997Z</time></trkpt><trkpt lat="45.700323184598645" lon="8.605119467500574"><ele>234.16666666666669</ele><time>2026-05-02T08:43:24.997Z</time></trkpt><trkpt lat="45.70024068356124" lon="8.605025374422963"><ele>235.33333333333334</ele><time>2026-05-02T08:43:25.997Z</time></trkpt><trkpt lat="45.70016900222799" lon="8.605020655978484"><ele>236.5</ele><time>2026-05-02T08:43:28.997Z</time></trkpt><trkpt lat="45.70013910400454" lon="8.60493429073353"><ele>237.66666666666669</ele><time>2026-05-02T08:43:30.997Z</time></trkpt><trkpt lat="45.70014405132775" lon="8.604841471880986"><ele>238.83333333333334</ele><time>2026-05-02T08:43:31.997Z</time></trkpt><trkpt lat="45.70015538221603" lon="8.604715601649207"><ele>240.0</ele><time>2026-05-02T08:43:32.997Z</time></trkpt><trkpt lat="45.70016656084368" lon="8.604565144669516"><ele>240.2</ele><time>2026-05-02T08:43:33.997Z</time></trkpt><trkpt lat="45.700176042696924" lon="8.60437864018889"><ele>240.4</ele><time>2026-05-02T08:43:34.997Z</time></trkpt><trkpt lat="45.70018276247098" lon="8.604200967143163"><ele>240.60000000000002</ele><time>2026-05-02T08:43:35.997Z</time></trkpt><trkpt lat="45.70017306395225" lon="8.604083674040048"><ele>240.8</ele><time>2026-05-02T08:43:36.997Z</time></trkpt><trkpt lat="45.700129071958536" lon="8.60400554816107"><ele>241.0</ele><time>2026-05-02T08:43:39.997Z</time></trkpt><trkpt lat="45.7000523990631" lon="8.604017054117167"><ele>240.99999999999997</ele><time>2026-05-02T08:43:40.997Z</time></trkpt><trkpt lat="45.69996231036433" lon="8.604029907876082"><ele>241.0</ele><time>2026-05-02T08:43:41.997Z</time></trkpt><trkpt lat="45.699872708333636" lon="8.604012343582047"><ele>241.0</ele><time>2026-05-02T08:43:42.997Z</time></trkpt><trkpt lat="45.69978392589231" lon="8.603986531687752"><ele>241.0</ele><time>2026-05-02T08:43:43.997Z</time></trkpt><trkpt lat="45.699709082409285" lon="8.603959396517274"><ele>240.99999999999997</ele><time>2026-05-02T08:43:44.997Z</time></trkpt><trkpt lat="45.69964559938683" lon="8.603922123934906"><ele>241.0</ele><time>2026-05-02T08:43:45.997Z</time></trkpt><trkpt lat="45.699579924325086" lon="8.60385391531334"><ele>241.0</ele><time>2026-05-02T08:43:46.997Z</time></trkpt><trkpt lat="45.69950595649103" lon="8.603761377886268"><ele>241.00000000000003</ele><time>2026-05-02T08:43:47.997Z</time></trkpt><trkpt lat="45.699437724924145" lon="8.603657638739497"><ele>241.00000000000003</ele><time>2026-05-02T08:43:48.997Z</time></trkpt><trkpt lat="45.699386093731015" lon="8.603540724830744"><ele>241.0</ele><time>2026-05-02T08:43:49.997Z</time></trkpt><trkpt lat="45.69929301196435" lon="8.603513899252707"><ele>241.0</ele><time>2026-05-02T08:43:50.997Z</time></trkpt><trkpt lat="45.699219989984094" lon="8.603529386811203"><ele>242.8</ele><time>2026-05-02T08:43:51.997Z</time></trkpt><trkpt lat="45.69913657878509" lon="8.603640935850926"><ele>244.60000000000002</ele><time>2026-05-02T08:43:52.997Z</time></trkpt><trkpt lat="45.699114855514956" lon="8.603788442367765"><ele>246.4</ele><time>2026-05-02T08:43:53.997Z</time></trkpt><trkpt lat="45.69909002269607" lon="8.603931965295628"><ele>248.2</ele><time>2026-05-02T08:43:54.997Z</time></trkpt><trkpt lat="45.699066615464005" lon="8.604054792849361"><ele>250.0</ele><time>2026-05-02T08:43:55.997Z</time></trkpt><trkpt lat="45.69903748402702" lon="8.60413625917043"><ele>250.0</ele><time>2026-05-02T08:43:56.997Z</time></trkpt><trkpt lat="45.69893177758375" lon="8.603992742715592"><ele>250.0</ele><time>2026-05-02T08:43:59.997Z</time></trkpt><trkpt lat="45.69892919628564" lon="8.603869120399137"><ele>250.0</ele><time>2026-05-02T08:44:00.997Z</time></trkpt><trkpt lat="45.69891811582577" lon="8.603744111172215"><ele>250.0</ele><time>2026-05-02T08:44:01.997Z</time></trkpt><trkpt lat="45.69890393766334" lon="8.603619760262324"><ele>250.0</ele><time>2026-05-02T08:44:02.997Z</time></trkpt><trkpt lat="45.698889748219386" lon="8.60352015319952"><ele>250.0</ele><time>2026-05-02T08:44:03.997Z</time></trkpt><trkpt lat="45.698838590512395" lon="8.603450285856828"><ele>250.0</ele><time>2026-05-02T08:44:04.997Z</time></trkpt><trkpt lat="45.69875520372217" lon="8.603353630335448"><ele>250.0</ele><time>2026-05-02T08:44:06.997Z</time></trkpt><trkpt lat="45.69862906488667" lon="8.60331053545931"><ele>250.0</ele><time>2026-05-02T08:44:08.997Z</time></trkpt><trkpt lat="45.69854235635627" lon="8.603329861590208"><ele>250.0</ele><time>2026-05-02T08:44:09.997Z</time></trkpt><trkpt lat="45.69843415251789" lon="8.60335716407857"><ele>251.0</ele><time>2026-05-02T08:44:10.997Z</time></trkpt><trkpt lat="45.698308757964206" lon="8.603396408957414"><ele>252.0</ele><time>2026-05-02T08:44:11.997Z</time></trkpt><trkpt lat="45.69818891650689" lon="8.603434838596911"><ele>253.0</ele><time>2026-05-02T08:44:12.997Z</time></trkpt><trkpt lat="45.69806592636666" lon="8.603479308901747"><ele>254.0</ele><time>2026-05-02T08:44:13.997Z</time></trkpt><trkpt lat="45.69793991388608" lon="8.603527546065836"><ele>254.00000000000003</ele><time>2026-05-02T08:44:14.997Z</time></trkpt><trkpt lat="45.69782749209585" lon="8.603549054642768"><ele>254.0</ele><time>2026-05-02T08:44:15.997Z</time></trkpt><trkpt lat="45.69773492251953" lon="8.603599822696768"><ele>254.0</ele><time>2026-05-02T08:44:16.997Z</time></trkpt><trkpt lat="45.69766156677519" lon="8.603637846995781"><ele>254.0</ele><time>2026-05-02T08:44:17.997Z</time></trkpt><trkpt lat="45.697597340877714" lon="8.603662036419458"><ele>254.00000000000003</ele><time>2026-05-02T08:44:18.997Z</time></trkpt><trkpt lat="45.69751108867913" lon="8.603633303513822"><ele>254.0</ele><time>2026-05-02T08:44:20.997Z</time></trkpt><trkpt lat="45.69745902692895" lon="8.603419537410593"><ele>253.75</ele><time>2026-05-02T08:44:22.997Z</time></trkpt><trkpt lat="45.697412774214314" lon="8.603291824509208"><ele>253.5</ele><time>2026-05-02T08:44:23.997Z</time></trkpt><trkpt lat="45.69737869322475" lon="8.603136989877504"><ele>253.25</ele><time>2026-05-02T08:44:24.997Z</time></trkpt><trkpt lat="45.6973456195019" lon="8.602973337417163"><ele>253.0</ele><time>2026-05-02T08:44:25.997Z</time></trkpt><trkpt lat="45.69731509021375" lon="8.602794315895524"><ele>252.75</ele><time>2026-05-02T08:44:26.997Z</time></trkpt><trkpt lat="45.697289011085246" lon="8.602625850238267"><ele>252.5</ele><time>2026-05-02T08:44:27.997Z</time></trkpt><trkpt lat="45.69726156075707" lon="8.602451303783603"><ele>252.25</ele><time>2026-05-02T08:44:28.997Z</time></trkpt><trkpt lat="45.69723102405102" lon="8.602277310087597"><ele>252.0</ele><time>2026-05-02T08:44:29.997Z</time></trkpt><trkpt lat="45.69720295701154" lon="8.602130932666055"><ele>252.0</ele><time>2026-05-02T08:44:30.997Z</time></trkpt><trkpt lat="45.69718138403293" lon="8.60201499040677"><ele>252.0</ele><time>2026-05-02T08:44:31.997Z</time></trkpt><trkpt lat="45.69716654264219" lon="8.601892613120974"><ele>252.0</ele><time>2026-05-02T08:44:32.997Z</time></trkpt><trkpt lat="45.697143745651424" lon="8.601767345554677"><ele>252.0</ele><time>2026-05-02T08:44:33.997Z</time></trkpt><trkpt lat="45.697112457739806" lon="8.601626127402763"><ele>252.0</ele><time>2026-05-02T08:44:34.996Z</time></trkpt><trkpt lat="45.697077900909896" lon="8.601465446196803"><ele>252.25</ele><time>2026-05-02T08:44:35.996Z</time></trkpt><trkpt lat="45.697044073350895" lon="8.601280557675631"><ele>252.5</ele><time>2026-05-02T08:44:36.996Z</time></trkpt><trkpt lat="45.69699902197594" lon="8.60108804756113"><ele>252.75</ele><time>2026-05-02T08:44:37.996Z</time></trkpt><trkpt lat="45.696936876773826" lon="8.600894495478688"><ele>253.0</ele><time>2026-05-02T08:44:38.996Z</time></trkpt><trkpt lat="45.69688290773964" lon="8.600701087568527"><ele>253.2</ele><time>2026-05-02T08:44:39.996Z</time></trkpt><trkpt lat="45.69682487153659" lon="8.600522172660574"><ele>253.4</ele><time>2026-05-02T08:44:40.996Z</time></trkpt><trkpt lat="45.69677475976017" lon="8.600378714644249"><ele>253.59999999999997</ele><time>2026-05-02T08:44:41.996Z</time></trkpt><trkpt lat="45.69673973300042" lon="8.60028270989723"><ele>253.79999999999998</ele><time>2026-05-02T08:44:42.996Z</time></trkpt><trkpt lat="45.69671038353809" lon="8.600168669921697"><ele>254.0</ele><time>2026-05-02T08:44:44.996Z</time></trkpt><trkpt lat="45.69658044878644" lon="8.60022251395406"><ele>254.0</ele><time>2026-05-02T08:44:45.996Z</time></trkpt><trkpt lat="45.69649035308107" lon="8.600250384038395"><ele>253.99999999999997</ele><time>2026-05-02T08:44:46.996Z</time></trkpt><trkpt lat="45.69637322022187" lon="8.600300116287462"><ele>253.99999999999997</ele><time>2026-05-02T08:44:47.996Z</time></trkpt><trkpt lat="45.6962687480375" lon="8.600347650725606"><ele>254.0</ele><time>2026-05-02T08:44:48.996Z</time></trkpt><trkpt lat="45.69614883938513" lon="8.600399729163785"><ele>254.0</ele><time>2026-05-02T08:44:49.996Z</time></trkpt><trkpt lat="45.69601691186377" lon="8.60045597331571"><ele>254.25</ele><time>2026-05-02T08:44:50.996Z</time></trkpt><trkpt lat="45.695887254908214" lon="8.600539551062083"><ele>254.5</ele><time>2026-05-02T08:44:51.996Z</time></trkpt><trkpt lat="45.69575937962755" lon="8.600589721171676"><ele>254.75</ele><time>2026-05-02T08:44:52.996Z</time></trkpt><trkpt lat="45.69565041062956" lon="8.600646814472329"><ele>255.0</ele><time>2026-05-02T08:44:53.996Z</time></trkpt><trkpt lat="45.69557903279276" lon="8.600701088005941"><ele>255.0</ele><time>2026-05-02T08:44:54.996Z</time></trkpt><trkpt lat="45.6955538100997" lon="8.60050041872452"><ele>255.0</ele><time>2026-05-02T08:44:57.996Z</time></trkpt><trkpt lat="45.695518626337744" lon="8.600371996441316"><ele>255.0</ele><time>2026-05-02T08:44:58.996Z</time></trkpt><trkpt lat="45.69546172984621" lon="8.600214317490162"><ele>255.0</ele><time>2026-05-02T08:44:59.996Z</time></trkpt><trkpt lat="45.69541154617362" lon="8.600033682517608"><ele>255.4</ele><time>2026-05-02T08:45:00.996Z</time></trkpt><trkpt lat="45.695361081008606" lon="8.599865358823083"><ele>255.8</ele><time>2026-05-02T08:45:01.996Z</time></trkpt><trkpt lat="45.695309920653976" lon="8.599718760158746"><ele>256.2</ele><time>2026-05-02T08:45:02.996Z</time></trkpt><trkpt lat="45.69526752025337" lon="8.599584882638919"><ele>256.6</ele><time>2026-05-02T08:45:03.996Z</time></trkpt><trkpt lat="45.695234924282744" lon="8.599500862943223"><ele>257.0</ele><time>2026-05-02T08:45:04.996Z</time></trkpt><trkpt lat="45.69519893385118" lon="8.599406234968743"><ele>257.2</ele><time>2026-05-02T08:45:06.996Z</time></trkpt><trkpt lat="45.695270598714814" lon="8.599284654256062"><ele>257.4</ele><time>2026-05-02T08:45:08.996Z</time></trkpt><trkpt lat="45.69533926207606" lon="8.599218864672068"><ele>257.6</ele><time>2026-05-02T08:45:09.996Z</time></trkpt><trkpt lat="45.69541893021336" lon="8.599113729422033"><ele>257.8</ele><time>2026-05-02T08:45:10.996Z</time></trkpt><trkpt lat="45.69551077961293" lon="8.598989265867324"><ele>258.0</ele><time>2026-05-02T08:45:11.996Z</time></trkpt><trkpt lat="45.69560542482586" lon="8.598840134082733"><ele>258.0</ele><time>2026-05-02T08:45:12.996Z</time></trkpt><trkpt lat="45.695706015698484" lon="8.59869891121378"><ele>258.0</ele><time>2026-05-02T08:45:13.996Z</time></trkpt><trkpt lat="45.6958176381777" lon="8.59855234076942"><ele>258.0</ele><time>2026-05-02T08:45:14.996Z</time></trkpt><trkpt lat="45.695920660194176" lon="8.598407503303214"><ele>258.0</ele><time>2026-05-02T08:45:15.996Z</time></trkpt><trkpt lat="45.696016544306495" lon="8.598269030804888"><ele>257.8</ele><time>2026-05-02T08:45:16.996Z</time></trkpt><trkpt lat="45.69610962212577" lon="8.598146090066853"><ele>257.6</ele><time>2026-05-02T08:45:17.996Z</time></trkpt><trkpt lat="45.69619535027575" lon="8.598035971470006"><ele>257.4</ele><time>2026-05-02T08:45:18.996Z</time></trkpt><trkpt lat="45.69628518857922" lon="8.597956240085974"><ele>257.2</ele><time>2026-05-02T08:45:19.996Z</time></trkpt><trkpt lat="45.696357732405936" lon="8.59785993356004"><ele>257.0</ele><time>2026-05-02T08:45:20.996Z</time></trkpt><trkpt lat="45.69642005581534" lon="8.597777362926331"><ele>257.4</ele><time>2026-05-02T08:45:21.996Z</time></trkpt><trkpt lat="45.69646863278087" lon="8.597713004552368"><ele>257.79999999999995</ele><time>2026-05-02T08:45:22.996Z</time></trkpt><trkpt lat="45.69640320692966" lon="8.597505906450474"><ele>258.2</ele><time>2026-05-02T08:45:23.996Z</time></trkpt><trkpt lat="45.69635819572976" lon="8.597402986385507"><ele>258.59999999999997</ele><time>2026-05-02T08:45:24.996Z</time></trkpt><trkpt lat="45.696274883542515" lon="8.597289346236144"><ele>259.0</ele><time>2026-05-02T08:45:25.996Z</time></trkpt><trkpt lat="45.69617553857918" lon="8.597165736192368"><ele>259.25</ele><time>2026-05-02T08:45:26.996Z</time></trkpt><trkpt lat="45.69606332235543" lon="8.59702532248689"><ele>259.5</ele><time>2026-05-02T08:45:27.996Z</time></trkpt><trkpt lat="45.69595702490048" lon="8.596880382251546"><ele>259.75</ele><time>2026-05-02T08:45:28.996Z</time></trkpt><trkpt lat="45.69588271200403" lon="8.596757539655503"><ele>260.0</ele><time>2026-05-02T08:45:29.996Z</time></trkpt><trkpt lat="45.69579951522705" lon="8.596634970912598"><ele>260.6</ele><time>2026-05-02T08:45:30.996Z</time></trkpt><trkpt lat="45.69567383414442" lon="8.596570443045467"><ele>261.2</ele><time>2026-05-02T08:45:31.996Z</time></trkpt><trkpt lat="45.6955858850188" lon="8.596577214465487"><ele>261.8</ele><time>2026-05-02T08:45:32.996Z</time></trkpt><trkpt lat="45.69552539364576" lon="8.596611321086934"><ele>262.4</ele><time>2026-05-02T08:45:33.996Z</time></trkpt><trkpt lat="45.69562346378254" lon="8.59655439105946"><ele>263.0</ele><time>2026-05-02T08:45:36.996Z</time></trkpt><trkpt lat="45.69572441441641" lon="8.596490572951986"><ele>263.0</ele><time>2026-05-02T08:45:37.996Z</time></trkpt><trkpt lat="45.695825194620966" lon="8.596340271414599"><ele>263.0</ele><time>2026-05-02T08:45:38.996Z</time></trkpt><trkpt lat="45.695940669691105" lon="8.59617311723947"><ele>263.0</ele><time>2026-05-02T08:45:39.996Z</time></trkpt><trkpt lat="45.69606224117723" lon="8.596011210405361"><ele>262.75</ele><time>2026-05-02T08:45:40.996Z</time></trkpt><trkpt lat="45.69615684633024" lon="8.595858844763887"><ele>262.5</ele><time>2026-05-02T08:45:41.996Z</time></trkpt><trkpt lat="45.69623462831543" lon="8.595691211017122"><ele>262.25</ele><time>2026-05-02T08:45:42.996Z</time></trkpt><trkpt lat="45.696288662255476" lon="8.595530276251132"><ele>262.0</ele><time>2026-05-02T08:45:43.996Z</time></trkpt><trkpt lat="45.69634883054334" lon="8.595389817256107"><ele>263.5</ele><time>2026-05-02T08:45:44.996Z</time></trkpt><trkpt lat="45.696405022826944" lon="8.595265907617794"><ele>265.0</ele><time>2026-05-02T08:45:45.996Z</time></trkpt><trkpt lat="45.69645512912644" lon="8.59516724586035"><ele>266.5</ele><time>2026-05-02T08:45:46.996Z</time></trkpt><trkpt lat="45.69650679340211" lon="8.595084309125248"><ele>268.0</ele><time>2026-05-02T08:45:47.996Z</time></trkpt><trkpt lat="45.69654887371536" lon="8.595006893618018"><ele>269.5</ele><time>2026-05-02T08:45:48.996Z</time></trkpt><trkpt lat="45.69662891377629" lon="8.594909816475365"><ele>271.0</ele><time>2026-05-02T08:45:50.996Z</time></trkpt><trkpt lat="45.69666738596441" lon="8.594835215893909"><ele>271.0</ele><time>2026-05-02T08:45:51.996Z</time></trkpt><trkpt lat="45.696696476039264" lon="8.594747661372766"><ele>271.0</ele><time>2026-05-02T08:45:52.996Z</time></trkpt><trkpt lat="45.69674912183765" lon="8.594624928279341"><ele>271.0</ele><time>2026-05-02T08:45:53.996Z</time></trkpt><trkpt lat="45.696792678842215" lon="8.594525483077149"><ele>271.0</ele><time>2026-05-02T08:45:54.996Z</time></trkpt><trkpt lat="45.69684122806815" lon="8.59437653419085"><ele>271.0</ele><time>2026-05-02T08:45:55.996Z</time></trkpt><trkpt lat="45.69689652034142" lon="8.594202649175728"><ele>270.40000000000003</ele><time>2026-05-02T08:45:56.996Z</time></trkpt><trkpt lat="45.69696213591501" lon="8.594068830215475"><ele>269.8</ele><time>2026-05-02T08:45:57.996Z</time></trkpt><trkpt lat="45.697055906706524" lon="8.593961173679165"><ele>269.20000000000005</ele><time>2026-05-02T08:45:58.996Z</time></trkpt><trkpt lat="45.69712766928441" lon="8.593895833879106"><ele>268.6</ele><time>2026-05-02T08:45:59.996Z</time></trkpt><trkpt lat="45.69719012667039" lon="8.593800722327025"><ele>268.0</ele><time>2026-05-02T08:46:00.996Z</time></trkpt><trkpt lat="45.697246491947816" lon="8.59367169539257"><ele>271.5</ele><time>2026-05-02T08:46:01.996Z</time></trkpt><trkpt lat="45.697269756516484" lon="8.593584793428956"><ele>275.0</ele><time>2026-05-02T08:46:02.996Z</time></trkpt><trkpt lat="45.697271580838795" lon="8.593469338953453"><ele>278.5</ele><time>2026-05-02T08:46:03.996Z</time></trkpt><trkpt lat="45.69727724545188" lon="8.5933442470163"><ele>282.0</ele><time>2026-05-02T08:46:04.996Z</time></trkpt><trkpt lat="45.69728582844996" lon="8.593213708454742"><ele>285.5</ele><time>2026-05-02T08:46:05.996Z</time></trkpt><trkpt lat="45.69732043044002" lon="8.593125929941436"><ele>289.0</ele><time>2026-05-02T08:46:06.996Z</time></trkpt><trkpt lat="45.69736638324948" lon="8.593042666730302"><ele>289.0</ele><time>2026-05-02T08:46:07.996Z</time></trkpt><trkpt lat="45.697445311370494" lon="8.592966602353398"><ele>289.0</ele><time>2026-05-02T08:46:08.996Z</time></trkpt><trkpt lat="45.69754942902804" lon="8.592880579977061"><ele>289.0</ele><time>2026-05-02T08:46:09.996Z</time></trkpt><trkpt lat="45.69757246187733" lon="8.592743650188702"><ele>289.0</ele><time>2026-05-02T08:46:10.996Z</time></trkpt><trkpt lat="45.697655364749785" lon="8.59266967773304"><ele>289.0</ele><time>2026-05-02T08:46:11.996Z</time></trkpt><trkpt lat="45.697717016657954" lon="8.592604875949316"><ele>287.75</ele><time>2026-05-02T08:46:12.996Z</time></trkpt><trkpt lat="45.69776986676288" lon="8.59252597938287"><ele>286.5</ele><time>2026-05-02T08:46:13.996Z</time></trkpt><trkpt lat="45.69785369384039" lon="8.592368111074041"><ele>285.25</ele><time>2026-05-02T08:46:14.996Z</time></trkpt><trkpt lat="45.697974785788425" lon="8.592140483516138"><ele>284.0</ele><time>2026-05-02T08:46:15.996Z</time></trkpt><trkpt lat="45.69804877961563" lon="8.59193817716998"><ele>286.5</ele><time>2026-05-02T08:46:16.996Z</time></trkpt><trkpt lat="45.698079249557345" lon="8.591735297933676"><ele>289.0</ele><time>2026-05-02T08:46:17.996Z</time></trkpt><trkpt lat="45.69810156820724" lon="8.591556474740571"><ele>291.5</ele><time>2026-05-02T08:46:18.996Z</time></trkpt><trkpt lat="45.698111964268264" lon="8.591350177000866"><ele>294.0</ele><time>2026-05-02T08:46:19.996Z</time></trkpt><trkpt lat="45.69811461182118" lon="8.591111940633459"><ele>294.25</ele><time>2026-05-02T08:46:20.996Z</time></trkpt><trkpt lat="45.698113721507696" lon="8.590857709281288"><ele>294.5</ele><time>2026-05-02T08:46:21.996Z</time></trkpt><trkpt lat="45.69812734600972" lon="8.590637697208548"><ele>294.75</ele><time>2026-05-02T08:46:22.996Z</time></trkpt><trkpt lat="45.69813717110451" lon="8.590476402916003"><ele>295.0</ele><time>2026-05-02T08:46:23.996Z</time></trkpt><trkpt lat="45.69808205591777" lon="8.590273931573075"><ele>295.0</ele><time>2026-05-02T08:46:25.996Z</time></trkpt><trkpt lat="45.698026468014405" lon="8.590089757041532"><ele>295.0</ele><time>2026-05-02T08:46:26.996Z</time></trkpt><trkpt lat="45.697986261216386" lon="8.589840912130919"><ele>295.0</ele><time>2026-05-02T08:46:27.996Z</time></trkpt><trkpt lat="45.697937620726215" lon="8.589628595051234"><ele>294.5</ele><time>2026-05-02T08:46:28.996Z</time></trkpt><trkpt lat="45.69788231730648" lon="8.589472999917948"><ele>294.0</ele><time>2026-05-02T08:46:29.996Z</time></trkpt><trkpt lat="45.69783129491119" lon="8.5892766025745"><ele>293.5</ele><time>2026-05-02T08:46:30.996Z</time></trkpt><trkpt lat="45.697745723514224" lon="8.589053773641341"><ele>293.0</ele><time>2026-05-02T08:46:31.996Z</time></trkpt><trkpt lat="45.69763208392216" lon="8.588838760928704"><ele>294.6666666666667</ele><time>2026-05-02T08:46:32.996Z</time></trkpt><trkpt lat="45.69750817366933" lon="8.588657658172023"><ele>296.3333333333333</ele><time>2026-05-02T08:46:33.996Z</time></trkpt><trkpt lat="45.69737738196369" lon="8.588451047255859"><ele>298.0</ele><time>2026-05-02T08:46:34.996Z</time></trkpt><trkpt lat="45.697296196464954" lon="8.588295587410784"><ele>298.0</ele><time>2026-05-02T08:46:35.996Z</time></trkpt><trkpt lat="45.69724068006458" lon="8.588174568806624"><ele>298.0</ele><time>2026-05-02T08:46:36.996Z</time></trkpt><trkpt lat="45.69720681201467" lon="8.58809663198443"><ele>298.0</ele><time>2026-05-02T08:46:37.996Z</time></trkpt><trkpt lat="45.69725020210361" lon="8.587986189605493"><ele>298.0</ele><time>2026-05-02T08:46:39.996Z</time></trkpt><trkpt lat="45.69726696817181" lon="8.587868479695025"><ele>298.0</ele><time>2026-05-02T08:46:40.996Z</time></trkpt><trkpt lat="45.69729478288123" lon="8.587720717458938"><ele>298.0</ele><time>2026-05-02T08:46:41.996Z</time></trkpt><trkpt lat="45.6973133600064" lon="8.587587005691457"><ele>297.3333333333333</ele><time>2026-05-02T08:46:42.996Z</time></trkpt><trkpt lat="45.69733830730059" lon="8.587411350496007"><ele>296.6666666666667</ele><time>2026-05-02T08:46:43.996Z</time></trkpt><trkpt lat="45.69737614477065" lon="8.587196957087373"><ele>296.0</ele><time>2026-05-02T08:46:44.996Z</time></trkpt><trkpt lat="45.697413306628874" lon="8.586951065031496"><ele>296.0</ele><time>2026-05-02T08:46:45.996Z</time></trkpt><trkpt lat="45.69745610030358" lon="8.586718337794025"><ele>296.0</ele><time>2026-05-02T08:46:46.996Z</time></trkpt><trkpt lat="45.69752140350012" lon="8.586459850829232"><ele>296.0</ele><time>2026-05-02T08:46:47.996Z</time></trkpt><trkpt lat="45.697592280514804" lon="8.586142748189715"><ele>296.33333333333337</ele><time>2026-05-02T08:46:48.996Z</time></trkpt><trkpt lat="45.69763871494895" lon="8.585871888244078"><ele>296.6666666666667</ele><time>2026-05-02T08:46:49.996Z</time></trkpt><trkpt lat="45.69768552287534" lon="8.585626117459855"><ele>297.0</ele><time>2026-05-02T08:46:50.996Z</time></trkpt><trkpt lat="45.69773089505794" lon="8.585418862055189"><ele>296.25</ele><time>2026-05-02T08:46:51.996Z</time></trkpt><trkpt lat="45.69775441473589" lon="8.585265830655098"><ele>295.5</ele><time>2026-05-02T08:46:52.996Z</time></trkpt><trkpt lat="45.69776692743922" lon="8.585094320761542"><ele>294.75</ele><time>2026-05-02T08:46:53.996Z</time></trkpt><trkpt lat="45.697805017194376" lon="8.58490297605821"><ele>294.0</ele><time>2026-05-02T08:46:54.996Z</time></trkpt><trkpt lat="45.697852222093836" lon="8.58468699652642"><ele>295.6666666666667</ele><time>2026-05-02T08:46:55.996Z</time></trkpt><trkpt lat="45.69789928841072" lon="8.584403054149837"><ele>297.33333333333337</ele><time>2026-05-02T08:46:56.996Z</time></trkpt><trkpt lat="45.69793258721976" lon="8.584084872358625"><ele>299.0</ele><time>2026-05-02T08:46:57.996Z</time></trkpt><trkpt lat="45.697962883122514" lon="8.58383404437161"><ele>300.25</ele><time>2026-05-02T08:46:58.996Z</time></trkpt><trkpt lat="45.69799347570707" lon="8.583624281864182"><ele>301.5</ele><time>2026-05-02T08:46:59.996Z</time></trkpt><trkpt lat="45.69802507618751" lon="8.58343669578067"><ele>302.75</ele><time>2026-05-02T08:47:00.996Z</time></trkpt><trkpt lat="45.69806162484464" lon="8.583249991268703"><ele>304.0</ele><time>2026-05-02T08:47:01.996Z</time></trkpt><trkpt lat="45.698096683931524" lon="8.583049522937964"><ele>304.25</ele><time>2026-05-02T08:47:02.996Z</time></trkpt><trkpt lat="45.698133686265216" lon="8.58284138592979"><ele>304.5</ele><time>2026-05-02T08:47:03.996Z</time></trkpt><trkpt lat="45.69816569824279" lon="8.582662961313154"><ele>304.75</ele><time>2026-05-02T08:47:04.996Z</time></trkpt><trkpt lat="45.69818762841781" lon="8.582551752581688"><ele>305.0</ele><time>2026-05-02T08:47:05.996Z</time></trkpt><trkpt lat="45.698061735940435" lon="8.582479160252738"><ele>305.0</ele><time>2026-05-02T08:47:09.996Z</time></trkpt><trkpt lat="45.69796588496289" lon="8.582401666208304"><ele>305.0</ele><time>2026-05-02T08:47:10.996Z</time></trkpt><trkpt lat="45.69786541382195" lon="8.582305889452146"><ele>305.0</ele><time>2026-05-02T08:47:11.996Z</time></trkpt><trkpt lat="45.697791223174484" lon="8.582215516382359"><ele>305.0</ele><time>2026-05-02T08:47:12.996Z</time></trkpt><trkpt lat="45.69773132981544" lon="8.582151925803972"><ele>305.0</ele><time>2026-05-02T08:47:13.996Z</time></trkpt><trkpt lat="45.697620433298006" lon="8.582262267282118"><ele>306.33333333333337</ele><time>2026-05-02T08:47:15.996Z</time></trkpt><trkpt lat="45.69755565519292" lon="8.582340456343395"><ele>307.6666666666667</ele><time>2026-05-02T08:47:16.996Z</time></trkpt><trkpt lat="45.697495653841514" lon="8.582413399179654"><ele>309.0</ele><time>2026-05-02T08:47:17.996Z</time></trkpt><trkpt lat="45.69742601834282" lon="8.582458586396296"><ele>310.3333333333333</ele><time>2026-05-02T08:47:20.996Z</time></trkpt><trkpt lat="45.69735111239789" lon="8.582573530834058"><ele>311.66666666666663</ele><time>2026-05-02T08:47:22.996Z</time></trkpt><trkpt lat="45.69731536498553" lon="8.582676718132848"><ele>313.0</ele><time>2026-05-02T08:47:23.996Z</time></trkpt><trkpt lat="45.6972754555288" lon="8.582767045065783"><ele>313.0</ele><time>2026-05-02T08:47:24.996Z</time></trkpt><trkpt lat="45.697225553207765" lon="8.582824955566899"><ele>313.0</ele><time>2026-05-02T08:47:25.996Z</time></trkpt><trkpt lat="45.697161140843896" lon="8.58286395304955"><ele>313.0</ele><time>2026-05-02T08:47:27.996Z</time></trkpt><trkpt lat="45.697094883479146" lon="8.58296268345972"><ele>313.0</ele><time>2026-05-02T08:47:29.996Z</time></trkpt><trkpt lat="45.697032263938745" lon="8.583006278251439"><ele>313.0</ele><time>2026-05-02T08:47:30.996Z</time></trkpt><trkpt lat="45.69695718294387" lon="8.583051647160444"><ele>313.0</ele><time>2026-05-02T08:47:31.996Z</time></trkpt><trkpt lat="45.69684207703295" lon="8.583109582546724"><ele>314.4</ele><time>2026-05-02T08:47:32.996Z</time></trkpt><trkpt lat="45.696736164944426" lon="8.583180288715592"><ele>315.8</ele><time>2026-05-02T08:47:33.996Z</time></trkpt><trkpt lat="45.69665455300159" lon="8.583229998198215"><ele>317.2</ele><time>2026-05-02T08:47:34.996Z</time></trkpt><trkpt lat="45.696553091030516" lon="8.583259523517947"><ele>318.6</ele><time>2026-05-02T08:47:36.996Z</time></trkpt><trkpt lat="45.696530561470325" lon="8.583160414815392"><ele>320.0</ele><time>2026-05-02T08:47:40.996Z</time></trkpt><trkpt lat="45.69648896674658" lon="8.582982098700557"><ele>320.4</ele><time>2026-05-02T08:47:43.996Z</time></trkpt><trkpt lat="45.69646223903582" lon="8.582837694881317"><ele>320.8</ele><time>2026-05-02T08:47:45.996Z</time></trkpt><trkpt lat="45.69642161821003" lon="8.58267817341694"><ele>321.20000000000005</ele><time>2026-05-02T08:47:47.996Z</time></trkpt><trkpt lat="45.696375005540986" lon="8.582565873780801"><ele>321.6</ele><time>2026-05-02T08:47:50.996Z</time></trkpt><trkpt lat="45.696387117298435" lon="8.58244905244736"><ele>322.0</ele><time>2026-05-02T08:47:51.996Z</time></trkpt><trkpt lat="45.69642823220936" lon="8.582338278602519"><ele>322.0</ele><time>2026-05-02T08:47:52.996Z</time></trkpt><trkpt lat="45.69646393621696" lon="8.582233604591025"><ele>322.0</ele><time>2026-05-02T08:47:53.996Z</time></trkpt><trkpt lat="45.696527071657414" lon="8.582097863890107"><ele>322.0</ele><time>2026-05-02T08:47:55.996Z</time></trkpt><trkpt lat="45.6965897949479" lon="8.581986189148939"><ele>322.0</ele><time>2026-05-02T08:47:56.996Z</time></trkpt><trkpt lat="45.69664868940737" lon="8.581903566564733"><ele>322.0</ele><time>2026-05-02T08:47:57.996Z</time></trkpt><trkpt lat="45.6967090657987" lon="8.58181495096285"><ele>321.66666666666663</ele><time>2026-05-02T08:47:58.996Z</time></trkpt><trkpt lat="45.69674947273936" lon="8.581723863489085"><ele>321.3333333333333</ele><time>2026-05-02T08:47:59.996Z</time></trkpt><trkpt lat="45.696838146206126" lon="8.581601015061668"><ele>321.0</ele><time>2026-05-02T08:48:01.996Z</time></trkpt><trkpt lat="45.696887630703806" lon="8.581526287067412"><ele>320.6666666666667</ele><time>2026-05-02T08:48:02.996Z</time></trkpt><trkpt lat="45.696926378762264" lon="8.581454201369286"><ele>320.33333333333337</ele><time>2026-05-02T08:48:03.996Z</time></trkpt><trkpt lat="45.69696181240077" lon="8.581379144626704"><ele>320.0</ele><time>2026-05-02T08:48:04.996Z</time></trkpt><trkpt lat="45.69702095403072" lon="8.581226246969866"><ele>320.83333333333337</ele><time>2026-05-02T08:48:06.996Z</time></trkpt><trkpt lat="45.697055618319645" lon="8.581146307887634"><ele>321.6666666666667</ele><time>2026-05-02T08:48:07.996Z</time></trkpt><trkpt lat="45.69706711270648" lon="8.581010843850096"><ele>322.5</ele><time>2026-05-02T08:48:09.996Z</time></trkpt><trkpt lat="45.69706877749516" lon="8.580887993292558"><ele>323.3333333333333</ele><time>2026-05-02T08:48:11.996Z</time></trkpt><trkpt lat="45.697077240378945" lon="8.580795038044437"><ele>324.16666666666663</ele><time>2026-05-02T08:48:12.996Z</time></trkpt><trkpt lat="45.69709245004886" lon="8.580681070319788"><ele>325.0</ele><time>2026-05-02T08:48:13.996Z</time></trkpt><trkpt lat="45.697040651221286" lon="8.58052337180053"><ele>325.0</ele><time>2026-05-02T08:48:16.996Z</time></trkpt><trkpt lat="45.6970476220694" lon="8.580427865999523"><ele>325.0</ele><time>2026-05-02T08:48:17.996Z</time></trkpt><trkpt lat="45.6970838239053" lon="8.580337313297177"><ele>325.0</ele><time>2026-05-02T08:48:18.996Z</time></trkpt><trkpt lat="45.69710911155555" lon="8.580253071224462"><ele>325.0</ele><time>2026-05-02T08:48:19.996Z</time></trkpt><trkpt lat="45.69711059543655" lon="8.580158330755456"><ele>325.0</ele><time>2026-05-02T08:48:20.996Z</time></trkpt><trkpt lat="45.697092721709716" lon="8.580037540319253"><ele>325.0</ele><time>2026-05-02T08:48:21.996Z</time></trkpt><trkpt lat="45.69706936037713" lon="8.579877757223947"><ele>326.6</ele><time>2026-05-02T08:48:22.996Z</time></trkpt><trkpt lat="45.69707689851388" lon="8.579723944553663"><ele>328.2</ele><time>2026-05-02T08:48:23.996Z</time></trkpt><trkpt lat="45.69709889442749" lon="8.579601693327515"><ele>329.79999999999995</ele><time>2026-05-02T08:48:24.996Z</time></trkpt><trkpt lat="45.69716483057659" lon="8.57952280066748"><ele>331.4</ele><time>2026-05-02T08:48:26.996Z</time></trkpt><trkpt lat="45.69724788906415" lon="8.579405861108162"><ele>333.0</ele><time>2026-05-02T08:48:28.996Z</time></trkpt><trkpt lat="45.69731115978966" lon="8.579286435592191"><ele>333.8333333333333</ele><time>2026-05-02T08:48:29.996Z</time></trkpt><trkpt lat="45.69735563647478" lon="8.57915264540897"><ele>334.6666666666667</ele><time>2026-05-02T08:48:30.996Z</time></trkpt><trkpt lat="45.6973776145103" lon="8.57905066298893"><ele>335.5</ele><time>2026-05-02T08:48:31.996Z</time></trkpt><trkpt lat="45.69739415270228" lon="8.578961826210069"><ele>336.33333333333337</ele><time>2026-05-02T08:48:32.996Z</time></trkpt><trkpt lat="45.697400596796" lon="8.578841266606767"><ele>337.1666666666667</ele><time>2026-05-02T08:48:33.996Z</time></trkpt><trkpt lat="45.69743472032813" lon="8.578756702302929"><ele>338.0</ele><time>2026-05-02T08:48:34.996Z</time></trkpt><trkpt lat="45.69745398029817" lon="8.578630433350522"><ele>339.0</ele><time>2026-05-02T08:48:38.996Z</time></trkpt><trkpt lat="45.69745165196029" lon="8.578518563665064"><ele>340.0</ele><time>2026-05-02T08:48:40.996Z</time></trkpt><trkpt lat="45.69740780734033" lon="8.578347850142556"><ele>341.0</ele><time>2026-05-02T08:48:42.996Z</time></trkpt><trkpt lat="45.69738257804624" lon="8.578240694980947"><ele>342.0</ele><time>2026-05-02T08:48:43.996Z</time></trkpt><trkpt lat="45.69737798336215" lon="8.578065152178494"><ele>343.0</ele><time>2026-05-02T08:48:45.996Z</time></trkpt><trkpt lat="45.697365443727314" lon="8.577962282978731"><ele>344.3333333333333</ele><time>2026-05-02T08:48:46.996Z</time></trkpt><trkpt lat="45.6973204668195" lon="8.57784637751809"><ele>345.66666666666663</ele><time>2026-05-02T08:48:48.996Z</time></trkpt><trkpt lat="45.69726593448727" lon="8.57771170357962"><ele>347.0</ele><time>2026-05-02T08:48:50.996Z</time></trkpt><trkpt lat="45.6972567491369" lon="8.57759325204942"><ele>348.3333333333333</ele><time>2026-05-02T08:48:52.996Z</time></trkpt><trkpt lat="45.69725099085231" lon="8.577492926647365"><ele>349.6666666666667</ele><time>2026-05-02T08:48:53.996Z</time></trkpt><trkpt lat="45.69725721705798" lon="8.57735946061437"><ele>351.0</ele><time>2026-05-02T08:48:54.996Z</time></trkpt><trkpt lat="45.69723749545519" lon="8.577267026505814"><ele>351.0</ele><time>2026-05-02T08:48:55.996Z</time></trkpt><trkpt lat="45.69721954615444" lon="8.577168715779822"><ele>351.0</ele><time>2026-05-02T08:48:56.995Z</time></trkpt><trkpt lat="45.69717870276581" lon="8.577062882280948"><ele>351.0</ele><time>2026-05-02T08:48:57.995Z</time></trkpt><trkpt lat="45.69715904958974" lon="8.576975995940323"><ele>351.0</ele><time>2026-05-02T08:48:58.995Z</time></trkpt><trkpt lat="45.697152388893684" lon="8.576838124378602"><ele>351.0</ele><time>2026-05-02T08:48:59.995Z</time></trkpt><trkpt lat="45.697148267898676" lon="8.576729938513468"><ele>351.0</ele><time>2026-05-02T08:49:00.995Z</time></trkpt><trkpt lat="45.69712738073988" lon="8.576635794421968"><ele>352.3333333333333</ele><time>2026-05-02T08:49:01.995Z</time></trkpt><trkpt lat="45.69710640438973" lon="8.576533713199213"><ele>353.6666666666667</ele><time>2026-05-02T08:49:02.995Z</time></trkpt><trkpt lat="45.69709302785053" lon="8.576435113541244"><ele>355.0</ele><time>2026-05-02T08:49:03.995Z</time></trkpt><trkpt lat="45.6970625072261" lon="8.576319595297358"><ele>356.33333333333337</ele><time>2026-05-02T08:49:04.995Z</time></trkpt><trkpt lat="45.6970421581315" lon="8.576178684977767"><ele>357.6666666666667</ele><time>2026-05-02T08:49:05.995Z</time></trkpt><trkpt lat="45.697038212387746" lon="8.57604385270231"><ele>359.0</ele><time>2026-05-02T08:49:06.995Z</time></trkpt><trkpt lat="45.69704175768456" lon="8.575887309571536"><ele>359.79999999999995</ele><time>2026-05-02T08:49:07.995Z</time></trkpt><trkpt lat="45.69702230264635" lon="8.57574192313179"><ele>360.59999999999997</ele><time>2026-05-02T08:49:08.995Z</time></trkpt><trkpt lat="45.696997920965096" lon="8.575599200397308"><ele>361.4</ele><time>2026-05-02T08:49:09.995Z</time></trkpt><trkpt lat="45.696980898794095" lon="8.575478328925978"><ele>362.2</ele><time>2026-05-02T08:49:10.995Z</time></trkpt><trkpt lat="45.69696395877702" lon="8.575332359004365"><ele>363.0</ele><time>2026-05-02T08:49:11.995Z</time></trkpt><trkpt lat="45.696933787801186" lon="8.5751389208569"><ele>357.3333333333333</ele><time>2026-05-02T08:49:12.995Z</time></trkpt><trkpt lat="45.69689942161254" lon="8.574932550309315"><ele>351.66666666666663</ele><time>2026-05-02T08:49:13.995Z</time></trkpt><trkpt lat="45.69684363480468" lon="8.574729593621955"><ele>346.0</ele><time>2026-05-02T08:49:14.995Z</time></trkpt><trkpt lat="45.696804924211065" lon="8.574516159989837"><ele>344.0</ele><time>2026-05-02T08:49:15.995Z</time></trkpt><trkpt lat="45.696789751205934" lon="8.574338845136648"><ele>344.0</ele><time>2026-05-02T08:49:16.995Z</time></trkpt><trkpt lat="45.6967942758379" lon="8.574207395815487"><ele>344.0</ele><time>2026-05-02T08:49:17.995Z</time></trkpt><trkpt lat="45.696780337188784" lon="8.574112525560384"><ele>344.0</ele><time>2026-05-02T08:49:18.995Z</time></trkpt><trkpt lat="45.696764647348665" lon="8.574008987309515"><ele>344.0</ele><time>2026-05-02T08:49:20.995Z</time></trkpt></trkseg><trkseg><trkpt lat="45.69800873198897" lon="8.569741870423831"><ele>355.0</ele><time>2026-05-02T08:54:18.993Z</time></trkpt><trkpt lat="45.69804350741376" lon="8.569627230601512"><ele>355.0</ele><time>2026-05-02T08:54:19.993Z</time></trkpt><trkpt lat="45.69807889446689" lon="8.56947344060364"><ele>355.0</ele><time>2026-05-02T08:54:20.993Z</time></trkpt><trkpt lat="45.69813424137803" lon="8.569341968159685"><ele>355.0</ele><time>2026-05-02T08:54:21.993Z</time></trkpt><trkpt lat="45.69817607541126" lon="8.569199023720525"><ele>355.0</ele><time>2026-05-02T08:54:22.992Z</time></trkpt><trkpt lat="45.69821539470475" lon="8.569068972199632"><ele>353.6</ele><time>2026-05-02T08:54:23.992Z</time></trkpt><trkpt lat="45.6982584714648" lon="8.568967671914562"><ele>352.2</ele><time>2026-05-02T08:54:24.992Z</time></trkpt><trkpt lat="45.6982692824121" lon="8.568878646994754"><ele>350.79999999999995</ele><time>2026-05-02T08:54:25.992Z</time></trkpt><trkpt lat="45.69829345217267" lon="8.568780958643188"><ele>349.4</ele><time>2026-05-02T08:54:27.992Z</time></trkpt><trkpt lat="45.69832542568286" lon="8.56864648105725"><ele>348.0</ele><time>2026-05-02T08:54:30.991Z</time></trkpt><trkpt lat="45.69837042897195" lon="8.56843751485821"><ele>347.3333333333333</ele><time>2026-05-02T08:54:32.992Z</time></trkpt><trkpt lat="45.69841078300142" lon="8.568241385001343"><ele>346.66666666666663</ele><time>2026-05-02T08:54:33.992Z</time></trkpt><trkpt lat="45.69844617338159" lon="8.568029701503217"><ele>346.0</ele><time>2026-05-02T08:54:34.992Z</time></trkpt><trkpt lat="45.69847419625103" lon="8.567811361040917"><ele>346.0</ele><time>2026-05-02T08:54:35.992Z</time></trkpt><trkpt lat="45.69850733773532" lon="8.56759847062507"><ele>346.0</ele><time>2026-05-02T08:54:36.992Z</time></trkpt><trkpt lat="45.698531807757014" lon="8.567418601244558"><ele>346.0</ele><time>2026-05-02T08:54:37.992Z</time></trkpt><trkpt lat="45.698575143474464" lon="8.567263913431361"><ele>346.0</ele><time>2026-05-02T08:54:38.992Z</time></trkpt><trkpt lat="45.69860486327405" lon="8.567109456752947"><ele>347.75</ele><time>2026-05-02T08:54:39.992Z</time></trkpt><trkpt lat="45.698640926721666" lon="8.566932582897275"><ele>349.5</ele><time>2026-05-02T08:54:40.992Z</time></trkpt><trkpt lat="45.69867789670187" lon="8.566751659857992"><ele>351.25</ele><time>2026-05-02T08:54:41.992Z</time></trkpt><trkpt lat="45.69871043823708" lon="8.566595671461158"><ele>353.0</ele><time>2026-05-02T08:54:42.992Z</time></trkpt><trkpt lat="45.69874141294247" lon="8.566443133221155"><ele>353.0</ele><time>2026-05-02T08:54:43.992Z</time></trkpt><trkpt lat="45.69877277386814" lon="8.566286369860126"><ele>353.0</ele><time>2026-05-02T08:54:44.992Z</time></trkpt><trkpt lat="45.698808116953735" lon="8.566106430697209"><ele>353.0</ele><time>2026-05-02T08:54:45.992Z</time></trkpt><trkpt lat="45.69885677410993" lon="8.565909478495113"><ele>353.0</ele><time>2026-05-02T08:54:46.992Z</time></trkpt><trkpt lat="45.698904421418305" lon="8.565726158408241"><ele>353.0</ele><time>2026-05-02T08:54:47.992Z</time></trkpt><trkpt lat="45.698949703148934" lon="8.565538836257604"><ele>353.0</ele><time>2026-05-02T08:54:48.992Z</time></trkpt><trkpt lat="45.69897456494247" lon="8.56534810731364"><ele>353.0</ele><time>2026-05-02T08:54:49.992Z</time></trkpt><trkpt lat="45.69900392131665" lon="8.565196935066256"><ele>353.0</ele><time>2026-05-02T08:54:50.992Z</time></trkpt><trkpt lat="45.699022442877016" lon="8.565101466762753"><ele>352.79999999999995</ele><time>2026-05-02T08:54:51.992Z</time></trkpt><trkpt lat="45.69905163504847" lon="8.564950997387236"><ele>352.6</ele><time>2026-05-02T08:54:53.992Z</time></trkpt><trkpt lat="45.69907794657084" lon="8.564815376185665"><ele>352.4</ele><time>2026-05-02T08:54:55.992Z</time></trkpt><trkpt lat="45.69909771707972" lon="8.564713470252375"><ele>352.20000000000005</ele><time>2026-05-02T08:54:57.992Z</time></trkpt><trkpt lat="45.698991491635674" lon="8.564668655342514"><ele>352.0</ele><time>2026-05-02T08:55:01.992Z</time></trkpt><trkpt lat="45.698905964899886" lon="8.564650448191424"><ele>352.0</ele><time>2026-05-02T08:55:02.992Z</time></trkpt><trkpt lat="45.6988341868992" lon="8.56459452971324"><ele>352.0</ele><time>2026-05-02T08:55:03.992Z</time></trkpt><trkpt lat="45.69875931895841" lon="8.564524968153815"><ele>352.0</ele><time>2026-05-02T08:55:04.992Z</time></trkpt><trkpt lat="45.698707251544214" lon="8.564409461416439"><ele>352.0</ele><time>2026-05-02T08:55:06.992Z</time></trkpt><trkpt lat="45.698690419161096" lon="8.564250059918727"><ele>352.0</ele><time>2026-05-02T08:55:08.992Z</time></trkpt><trkpt lat="45.698642544293385" lon="8.564165549615968"><ele>351.6</ele><time>2026-05-02T08:55:10.992Z</time></trkpt><trkpt lat="45.69864810640346" lon="8.564060640978688"><ele>351.20000000000005</ele><time>2026-05-02T08:55:11.992Z</time></trkpt><trkpt lat="45.698683014728914" lon="8.563881113819175"><ele>350.8</ele><time>2026-05-02T08:55:12.992Z</time></trkpt><trkpt lat="45.6986860362727" lon="8.563700972808954"><ele>350.4</ele><time>2026-05-02T08:55:13.992Z</time></trkpt><trkpt lat="45.69869009746857" lon="8.563529379589617"><ele>350.0</ele><time>2026-05-02T08:55:14.992Z</time></trkpt><trkpt lat="45.69868791009356" lon="8.56333272152815"><ele>350.0</ele><time>2026-05-02T08:55:15.992Z</time></trkpt><trkpt lat="45.69872299738302" lon="8.563099736753257"><ele>350.0</ele><time>2026-05-02T08:55:16.992Z</time></trkpt><trkpt lat="45.69872408332992" lon="8.562862402368534"><ele>350.0</ele><time>2026-05-02T08:55:17.992Z</time></trkpt><trkpt lat="45.698749922511794" lon="8.562578711463432"><ele>349.6666666666667</ele><time>2026-05-02T08:55:18.992Z</time></trkpt><trkpt lat="45.698750294599215" lon="8.562300735236661"><ele>349.3333333333333</ele><time>2026-05-02T08:55:19.992Z</time></trkpt><trkpt lat="45.69875168539714" lon="8.562057235452803"><ele>349.0</ele><time>2026-05-02T08:55:20.992Z</time></trkpt><trkpt lat="45.6987731335234" lon="8.56183138111247"><ele>349.66666666666663</ele><time>2026-05-02T08:55:21.992Z</time></trkpt><trkpt lat="45.69861711488432" lon="8.561979620382306"><ele>350.3333333333333</ele><time>2026-05-02T08:55:22.992Z</time></trkpt><trkpt lat="45.6985995614018" lon="8.5617857507819"><ele>351.0</ele><time>2026-05-02T08:55:23.992Z</time></trkpt><trkpt lat="45.69859067756406" lon="8.561574622878931"><ele>351.0</ele><time>2026-05-02T08:55:24.992Z</time></trkpt><trkpt lat="45.69859756010305" lon="8.561331725903907"><ele>351.0</ele><time>2026-05-02T08:55:25.992Z</time></trkpt><trkpt lat="45.698599384548736" lon="8.561119531917418"><ele>351.0</ele><time>2026-05-02T08:55:26.992Z</time></trkpt><trkpt lat="45.69859644819489" lon="8.560949590972093"><ele>351.0</ele><time>2026-05-02T08:55:27.992Z</time></trkpt><trkpt lat="45.69855070899351" lon="8.560784852881445"><ele>351.5</ele><time>2026-05-02T08:55:28.992Z</time></trkpt><trkpt lat="45.6984835073455" lon="8.560597855051197"><ele>352.0</ele><time>2026-05-02T08:55:29.992Z</time></trkpt><trkpt lat="45.69842009026226" lon="8.560413655018479"><ele>352.5</ele><time>2026-05-02T08:55:30.992Z</time></trkpt><trkpt lat="45.698368197952966" lon="8.560239930284247"><ele>353.0</ele><time>2026-05-02T08:55:31.992Z</time></trkpt><trkpt lat="45.69833481990128" lon="8.560073270450996"><ele>353.75</ele><time>2026-05-02T08:55:32.992Z</time></trkpt><trkpt lat="45.69830594529162" lon="8.559916155173916"><ele>354.5</ele><time>2026-05-02T08:55:33.992Z</time></trkpt><trkpt lat="45.69828497109176" lon="8.559752723471483"><ele>355.25</ele><time>2026-05-02T08:55:34.992Z</time></trkpt><trkpt lat="45.69826769529939" lon="8.559587907130794"><ele>356.0</ele><time>2026-05-02T08:55:35.992Z</time></trkpt><trkpt lat="45.69825024066235" lon="8.559440478014462"><ele>356.1666666666667</ele><time>2026-05-02T08:55:36.992Z</time></trkpt><trkpt lat="45.698231832720865" lon="8.559313020851707"><ele>356.33333333333337</ele><time>2026-05-02T08:55:37.992Z</time></trkpt><trkpt lat="45.698192998023046" lon="8.559208262237682"><ele>356.5</ele><time>2026-05-02T08:55:38.992Z</time></trkpt><trkpt lat="45.69813617892257" lon="8.559107625236173"><ele>356.6666666666667</ele><time>2026-05-02T08:55:39.991Z</time></trkpt><trkpt lat="45.6980620155062" lon="8.559030753630896"><ele>356.8333333333333</ele><time>2026-05-02T08:55:40.991Z</time></trkpt><trkpt lat="45.69799093936447" lon="8.558971782400052"><ele>357.0</ele><time>2026-05-02T08:55:41.991Z</time></trkpt><trkpt lat="45.697905314628805" lon="8.558922466636819"><ele>357.0</ele><time>2026-05-02T08:55:42.991Z</time></trkpt><trkpt lat="45.69780878493654" lon="8.558871518146637"><ele>357.0</ele><time>2026-05-02T08:55:43.991Z</time></trkpt><trkpt lat="45.697694605575506" lon="8.558822009819675"><ele>357.0</ele><time>2026-05-02T08:55:44.991Z</time></trkpt><trkpt lat="45.69760224587153" lon="8.558777519699724"><ele>357.0</ele><time>2026-05-02T08:55:45.991Z</time></trkpt><trkpt lat="45.6974863697661" lon="8.55878219017141"><ele>357.0</ele><time>2026-05-02T08:55:46.991Z</time></trkpt><trkpt lat="45.69740877846864" lon="8.558784404547172"><ele>356.6666666666667</ele><time>2026-05-02T08:55:48.991Z</time></trkpt><trkpt lat="45.6972992565341" lon="8.558773763157724"><ele>356.33333333333337</ele><time>2026-05-02T08:55:49.991Z</time></trkpt><trkpt lat="45.69718393338348" lon="8.558693735686564"><ele>356.0</ele><time>2026-05-02T08:55:50.991Z</time></trkpt><trkpt lat="45.696983681949156" lon="8.558559584310093"><ele>356.20000000000005</ele><time>2026-05-02T08:55:51.991Z</time></trkpt><trkpt lat="45.696856366642784" lon="8.558465728991184"><ele>356.40000000000003</ele><time>2026-05-02T08:55:52.991Z</time></trkpt><trkpt lat="45.69678466154211" lon="8.558359089614076"><ele>356.6</ele><time>2026-05-02T08:55:53.991Z</time></trkpt><trkpt lat="45.696741298672514" lon="8.55826589410019"><ele>356.8</ele><time>2026-05-02T08:55:54.991Z</time></trkpt><trkpt lat="45.69668674007141" lon="8.558210175694654"><ele>357.0</ele><time>2026-05-02T08:55:55.991Z</time></trkpt><trkpt lat="45.69660330685418" lon="8.558167047793143"><ele>357.0</ele><time>2026-05-02T08:55:56.991Z</time></trkpt><trkpt lat="45.696478067289924" lon="8.5581175625123"><ele>357.0</ele><time>2026-05-02T08:55:57.991Z</time></trkpt><trkpt lat="45.69638194878404" lon="8.558074595272215"><ele>357.0</ele><time>2026-05-02T08:55:58.991Z</time></trkpt><trkpt lat="45.69629768148633" lon="8.557998487044165"><ele>357.0</ele><time>2026-05-02T08:56:00.991Z</time></trkpt><trkpt lat="45.696299836700064" lon="8.557894419485304"><ele>357.0</ele><time>2026-05-02T08:56:01.991Z</time></trkpt><trkpt lat="45.69633332575879" lon="8.557744882462014"><ele>357.6666666666667</ele><time>2026-05-02T08:56:02.991Z</time></trkpt><trkpt lat="45.696371594261755" lon="8.557563069644075"><ele>358.33333333333337</ele><time>2026-05-02T08:56:03.991Z</time></trkpt><trkpt lat="45.696428671206434" lon="8.557324977479727"><ele>359.0</ele><time>2026-05-02T08:56:04.991Z</time></trkpt><trkpt lat="45.69649245058886" lon="8.5570533154229"><ele>358.6666666666667</ele><time>2026-05-02T08:56:05.991Z</time></trkpt><trkpt lat="45.696548599171926" lon="8.556779620672355"><ele>358.3333333333333</ele><time>2026-05-02T08:56:06.991Z</time></trkpt><trkpt lat="45.696590489972394" lon="8.556527548500604"><ele>358.0</ele><time>2026-05-02T08:56:07.991Z</time></trkpt><trkpt lat="45.696516511349536" lon="8.556704659344184"><ele>358.0</ele><time>2026-05-02T08:56:08.991Z</time></trkpt><trkpt lat="45.6966164082475" lon="8.556686223029613"><ele>358.0</ele><time>2026-05-02T08:56:11.991Z</time></trkpt><trkpt lat="45.69668186660639" lon="8.55680085629354"><ele>358.0</ele><time>2026-05-02T08:56:12.991Z</time></trkpt><trkpt lat="45.69677408822834" lon="8.556825447632011"><ele>358.0</ele><time>2026-05-02T08:56:13.991Z</time></trkpt><trkpt lat="45.6968676125651" lon="8.556850389930336"><ele>358.0</ele><time>2026-05-02T08:56:14.991Z</time></trkpt><trkpt lat="45.696965181598195" lon="8.55687692785627"><ele>359.8333333333333</ele><time>2026-05-02T08:56:15.991Z</time></trkpt><trkpt lat="45.69705865761583" lon="8.556902533875862"><ele>361.66666666666663</ele><time>2026-05-02T08:56:16.991Z</time></trkpt><trkpt lat="45.69715519856505" lon="8.55692929791151"><ele>363.5</ele><time>2026-05-02T08:56:17.991Z</time></trkpt><trkpt lat="45.697245224979184" lon="8.556955479363296"><ele>365.3333333333333</ele><time>2026-05-02T08:56:18.991Z</time></trkpt><trkpt lat="45.69732701577375" lon="8.556977023713147"><ele>367.1666666666667</ele><time>2026-05-02T08:56:19.991Z</time></trkpt><trkpt lat="45.69739084654974" lon="8.556976111994537"><ele>369.0</ele><time>2026-05-02T08:56:20.991Z</time></trkpt><trkpt lat="45.6974659069851" lon="8.55699317520306"><ele>369.0</ele><time>2026-05-02T08:56:22.991Z</time></trkpt><trkpt lat="45.69750912811364" lon="8.556753974568315"><ele>369.0</ele><time>2026-05-02T08:56:23.991Z</time></trkpt><trkpt lat="45.69753365230949" lon="8.556563071282339"><ele>369.0</ele><time>2026-05-02T08:56:24.991Z</time></trkpt><trkpt lat="45.69757474119716" lon="8.556380056394445"><ele>369.0</ele><time>2026-05-02T08:56:25.991Z</time></trkpt><trkpt lat="45.69761530474714" lon="8.55620015288609"><ele>369.6666666666667</ele><time>2026-05-02T08:56:26.991Z</time></trkpt><trkpt lat="45.697660202950274" lon="8.555993828952408"><ele>370.33333333333337</ele><time>2026-05-02T08:56:27.991Z</time></trkpt><trkpt lat="45.697707760887305" lon="8.555768061839165"><ele>371.0</ele><time>2026-05-02T08:56:28.991Z</time></trkpt><trkpt lat="45.697754219593655" lon="8.55554338194153"><ele>372.0</ele><time>2026-05-02T08:56:29.99Z</time></trkpt><trkpt lat="45.6977997823407" lon="8.5553109081531"><ele>373.0</ele><time>2026-05-02T08:56:30.99Z</time></trkpt><trkpt lat="45.697847359787076" lon="8.555059257971397"><ele>374.0</ele><time>2026-05-02T08:56:31.99Z</time></trkpt><trkpt lat="45.69789817141456" lon="8.55485838923701"><ele>374.0</ele><time>2026-05-02T08:56:32.99Z</time></trkpt><trkpt lat="45.69793931246282" lon="8.554669109499013"><ele>374.0</ele><time>2026-05-02T08:56:33.99Z</time></trkpt><trkpt lat="45.69797897770514" lon="8.554494700725936"><ele>374.0</ele><time>2026-05-02T08:56:34.991Z</time></trkpt><trkpt lat="45.698012532198966" lon="8.554319073153295"><ele>374.0</ele><time>2026-05-02T08:56:35.991Z</time></trkpt><trkpt lat="45.69804986521573" lon="8.554142075240737"><ele>374.0</ele><time>2026-05-02T08:56:36.991Z</time></trkpt><trkpt lat="45.698087699917636" lon="8.553920753982972"><ele>374.0</ele><time>2026-05-02T08:56:37.99Z</time></trkpt><trkpt lat="45.698148462351575" lon="8.553711377367668"><ele>374.0</ele><time>2026-05-02T08:56:38.99Z</time></trkpt><trkpt lat="45.69818871449735" lon="8.553518088572241"><ele>373.25</ele><time>2026-05-02T08:56:39.99Z</time></trkpt><trkpt lat="45.69822139726477" lon="8.553327179134751"><ele>372.5</ele><time>2026-05-02T08:56:40.991Z</time></trkpt><trkpt lat="45.69825812904829" lon="8.553157594084961"><ele>371.75</ele><time>2026-05-02T08:56:41.99Z</time></trkpt><trkpt lat="45.698288177869095" lon="8.552983211871718"><ele>371.0</ele><time>2026-05-02T08:56:42.99Z</time></trkpt><trkpt lat="45.69832221172701" lon="8.55282243287347"><ele>370.8</ele><time>2026-05-02T08:56:43.99Z</time></trkpt><trkpt lat="45.69834966012911" lon="8.552674006456751"><ele>370.6</ele><time>2026-05-02T08:56:44.99Z</time></trkpt><trkpt lat="45.69837579798761" lon="8.552556560788542"><ele>370.4</ele><time>2026-05-02T08:56:45.99Z</time></trkpt><trkpt lat="45.69840535884594" lon="8.55243622334663"><ele>370.2</ele><time>2026-05-02T08:56:47.99Z</time></trkpt><trkpt lat="45.698551828484" lon="8.552450948542706"><ele>370.0</ele><time>2026-05-02T08:56:50.99Z</time></trkpt><trkpt lat="45.69864366875633" lon="8.552481422383073"><ele>370.0</ele><time>2026-05-02T08:56:51.99Z</time></trkpt><trkpt lat="45.69877593953297" lon="8.55253418227389"><ele>370.0</ele><time>2026-05-02T08:56:52.99Z</time></trkpt><trkpt lat="45.69890545736241" lon="8.552610521961453"><ele>370.0</ele><time>2026-05-02T08:56:53.99Z</time></trkpt><trkpt lat="45.69904510089959" lon="8.552717957300867"><ele>370.0</ele><time>2026-05-02T08:56:54.99Z</time></trkpt><trkpt lat="45.69919440615006" lon="8.552806575880732"><ele>370.0</ele><time>2026-05-02T08:56:55.99Z</time></trkpt><trkpt lat="45.69935583365307" lon="8.552886631068176"><ele>370.0</ele><time>2026-05-02T08:56:56.99Z</time></trkpt><trkpt lat="45.699552490367836" lon="8.552857344974193"><ele>370.0</ele><time>2026-05-02T08:56:57.99Z</time></trkpt><trkpt lat="45.69977526886929" lon="8.552816670511092"><ele>368.66666666666663</ele><time>2026-05-02T08:56:58.99Z</time></trkpt><trkpt lat="45.69999606197754" lon="8.552764904274301"><ele>367.3333333333333</ele><time>2026-05-02T08:56:59.99Z</time></trkpt><trkpt lat="45.70020940091615" lon="8.552711952236287"><ele>366.0</ele><time>2026-05-02T08:57:00.99Z</time></trkpt><trkpt lat="45.70041078368907" lon="8.552676182434672"><ele>366.0</ele><time>2026-05-02T08:57:01.99Z</time></trkpt><trkpt lat="45.700615398790745" lon="8.552652288149277"><ele>366.0</ele><time>2026-05-02T08:57:02.99Z</time></trkpt><trkpt lat="45.70079205922431" lon="8.552677817470647"><ele>366.0</ele><time>2026-05-02T08:57:03.99Z</time></trkpt><trkpt lat="45.7009640190735" lon="8.552732024887195"><ele>367.6666666666667</ele><time>2026-05-02T08:57:04.99Z</time></trkpt><trkpt lat="45.701134123156976" lon="8.552810617175986"><ele>369.33333333333337</ele><time>2026-05-02T08:57:05.99Z</time></trkpt><trkpt lat="45.701289334213286" lon="8.552893683430144"><ele>371.0</ele><time>2026-05-02T08:57:06.99Z</time></trkpt><trkpt lat="45.701407022198794" lon="8.552959414731976"><ele>371.0</ele><time>2026-05-02T08:57:07.99Z</time></trkpt><trkpt lat="45.70149043306027" lon="8.553005481561115"><ele>371.0</ele><time>2026-05-02T08:57:08.99Z</time></trkpt><trkpt lat="45.701554167909514" lon="8.553039761855235"><ele>371.0</ele><time>2026-05-02T08:57:09.99Z</time></trkpt><trkpt lat="45.70162476735471" lon="8.553049423653716"><ele>371.0</ele><time>2026-05-02T08:57:12.99Z</time></trkpt><trkpt lat="45.70172044990424" lon="8.552665114702767"><ele>371.0</ele><time>2026-05-02T08:57:13.99Z</time></trkpt><trkpt lat="45.70173553126077" lon="8.55251485403583"><ele>371.0</ele><time>2026-05-02T08:57:14.99Z</time></trkpt><trkpt lat="45.7017188632761" lon="8.552379880796451"><ele>371.0</ele><time>2026-05-02T08:57:15.99Z</time></trkpt><trkpt lat="45.70168660721808" lon="8.552224259357239"><ele>371.0</ele><time>2026-05-02T08:57:16.99Z</time></trkpt><trkpt lat="45.70164203004323" lon="8.552056556409724"><ele>371.0</ele><time>2026-05-02T08:57:17.99Z</time></trkpt><trkpt lat="45.70163659820643" lon="8.55189037138464"><ele>370.0</ele><time>2026-05-02T08:57:18.99Z</time></trkpt><trkpt lat="45.70163996699617" lon="8.551707712003893"><ele>369.0</ele><time>2026-05-02T08:57:19.99Z</time></trkpt><trkpt lat="45.70163095621945" lon="8.551543372575786"><ele>368.0</ele><time>2026-05-02T08:57:20.99Z</time></trkpt><trkpt lat="45.701618041518216" lon="8.55138788332979"><ele>367.0</ele><time>2026-05-02T08:57:21.99Z</time></trkpt><trkpt lat="45.70160585384607" lon="8.551245502986738"><ele>365.8</ele><time>2026-05-02T08:57:22.99Z</time></trkpt><trkpt lat="45.70160685379179" lon="8.551109507563918"><ele>364.6</ele><time>2026-05-02T08:57:23.99Z</time></trkpt><trkpt lat="45.70159780595156" lon="8.550973192342529"><ele>363.40000000000003</ele><time>2026-05-02T08:57:24.99Z</time></trkpt><trkpt lat="45.70156832378771" lon="8.550836239383466"><ele>362.20000000000005</ele><time>2026-05-02T08:57:25.99Z</time></trkpt><trkpt lat="45.70155217767676" lon="8.550681285893978"><ele>361.0</ele><time>2026-05-02T08:57:26.99Z</time></trkpt><trkpt lat="45.701556637723534" lon="8.550526752437966"><ele>360.0</ele><time>2026-05-02T08:57:27.99Z</time></trkpt><trkpt lat="45.70156881071753" lon="8.550350802526571"><ele>359.0</ele><time>2026-05-02T08:57:28.99Z</time></trkpt><trkpt lat="45.70157606376012" lon="8.550171846637369"><ele>358.0</ele><time>2026-05-02T08:57:29.99Z</time></trkpt><trkpt lat="45.701581670677875" lon="8.549988734011464"><ele>357.0</ele><time>2026-05-02T08:57:30.99Z</time></trkpt><trkpt lat="45.701588644400786" lon="8.549809821182317"><ele>357.0</ele><time>2026-05-02T08:57:31.99Z</time></trkpt><trkpt lat="45.70159790454645" lon="8.549645963137678"><ele>357.0</ele><time>2026-05-02T08:57:32.99Z</time></trkpt><trkpt lat="45.70164942841764" lon="8.549523921815771"><ele>357.0</ele><time>2026-05-02T08:57:33.99Z</time></trkpt><trkpt lat="45.70172192370001" lon="8.549415658200392"><ele>357.0</ele><time>2026-05-02T08:57:34.99Z</time></trkpt><trkpt lat="45.7018119034658" lon="8.549275602115248"><ele>358.0</ele><time>2026-05-02T08:57:35.99Z</time></trkpt><trkpt lat="45.701905009349176" lon="8.549107867178577"><ele>359.0</ele><time>2026-05-02T08:57:36.99Z</time></trkpt><trkpt lat="45.70199733990798" lon="8.548911086409507"><ele>360.0</ele><time>2026-05-02T08:57:37.99Z</time></trkpt><trkpt lat="45.702072448394915" lon="8.548708705198244"><ele>358.2</ele><time>2026-05-02T08:57:38.99Z</time></trkpt><trkpt lat="45.70212355061261" lon="8.548488982966486"><ele>356.4</ele><time>2026-05-02T08:57:39.99Z</time></trkpt><trkpt lat="45.70213842096763" lon="8.548350545782172"><ele>354.6</ele><time>2026-05-02T08:57:40.99Z</time></trkpt><trkpt lat="45.702142682375076" lon="8.548211161933335"><ele>352.8</ele><time>2026-05-02T08:57:41.99Z</time></trkpt><trkpt lat="45.702151581402916" lon="8.548094597179553"><ele>351.0</ele><time>2026-05-02T08:57:42.99Z</time></trkpt><trkpt lat="45.702214216716484" lon="8.54792988437909"><ele>350.0</ele><time>2026-05-02T08:57:44.99Z</time></trkpt><trkpt lat="45.702252452235115" lon="8.547842471100392"><ele>349.0</ele><time>2026-05-02T08:57:45.99Z</time></trkpt><trkpt lat="45.7023246806222" lon="8.547759953279437"><ele>348.0</ele><time>2026-05-02T08:57:46.99Z</time></trkpt><trkpt lat="45.702388171511025" lon="8.547661468192569"><ele>347.0</ele><time>2026-05-02T08:57:47.99Z</time></trkpt><trkpt lat="45.70243861771681" lon="8.5475256795555"><ele>346.0</ele><time>2026-05-02T08:57:48.99Z</time></trkpt><trkpt lat="45.702449929782894" lon="8.547426959915448"><ele>345.0</ele><time>2026-05-02T08:57:49.99Z</time></trkpt><trkpt lat="45.70234811416794" lon="8.547350705570604"><ele>345.0</ele><time>2026-05-02T08:57:51.99Z</time></trkpt><trkpt lat="45.70226890859052" lon="8.54729825146285"><ele>345.0</ele><time>2026-05-02T08:57:52.99Z</time></trkpt><trkpt lat="45.70226654258702" lon="8.547200780211423"><ele>345.0</ele><time>2026-05-02T08:57:54.99Z</time></trkpt><trkpt lat="45.702298961988745" lon="8.547103131671415"><ele>345.0</ele><time>2026-05-02T08:57:55.99Z</time></trkpt><trkpt lat="45.70233203189391" lon="8.546982118845925"><ele>345.0</ele><time>2026-05-02T08:57:56.99Z</time></trkpt><trkpt lat="45.702354123643794" lon="8.546830493973395"><ele>345.0</ele><time>2026-05-02T08:57:57.99Z</time></trkpt><trkpt lat="45.70239939764542" lon="8.546659966635392"><ele>343.0</ele><time>2026-05-02T08:57:58.99Z</time></trkpt><trkpt lat="45.702457485187935" lon="8.546532119432435"><ele>341.0</ele><time>2026-05-02T08:57:59.99Z</time></trkpt><trkpt lat="45.70252433924314" lon="8.54640855482486"><ele>339.0</ele><time>2026-05-02T08:58:00.99Z</time></trkpt><trkpt lat="45.702635116400444" lon="8.54626110909123"><ele>337.0</ele><time>2026-05-02T08:58:01.99Z</time></trkpt><trkpt lat="45.70269465174257" lon="8.546145016709241"><ele>336.3333333333333</ele><time>2026-05-02T08:58:02.99Z</time></trkpt><trkpt lat="45.70274416399897" lon="8.546053770843896"><ele>335.66666666666663</ele><time>2026-05-02T08:58:03.99Z</time></trkpt><trkpt lat="45.702769005902454" lon="8.545956439024254"><ele>335.0</ele><time>2026-05-02T08:58:04.99Z</time></trkpt><trkpt lat="45.70275135310926" lon="8.545864459540313"><ele>334.3333333333333</ele><time>2026-05-02T08:58:09.99Z</time></trkpt><trkpt lat="45.70283693695262" lon="8.545738568670107"><ele>333.6666666666667</ele><time>2026-05-02T08:58:11.99Z</time></trkpt><trkpt lat="45.70289056392278" lon="8.545684110087402"><ele>333.0</ele><time>2026-05-02T08:58:12.99Z</time></trkpt><trkpt lat="45.702969246273085" lon="8.54561721945289"><ele>333.0</ele><time>2026-05-02T08:58:13.99Z</time></trkpt><trkpt lat="45.703066766847414" lon="8.545544502681715"><ele>333.0</ele><time>2026-05-02T08:58:14.99Z</time></trkpt><trkpt lat="45.7031752053651" lon="8.545515669728275"><ele>333.0</ele><time>2026-05-02T08:58:15.99Z</time></trkpt><trkpt lat="45.703290752596466" lon="8.545488739088965"><ele>333.0</ele><time>2026-05-02T08:58:16.99Z</time></trkpt><trkpt lat="45.703360688899224" lon="8.545527131121062"><ele>333.0</ele><time>2026-05-02T08:58:17.99Z</time></trkpt><trkpt lat="45.70347178751081" lon="8.545722743960047"><ele>333.0</ele><time>2026-05-02T08:58:19.99Z</time></trkpt><trkpt lat="45.70356386605966" lon="8.54586041312904"><ele>333.0</ele><time>2026-05-02T08:58:20.99Z</time></trkpt><trkpt lat="45.70364883432404" lon="8.545962303032844"><ele>333.0</ele><time>2026-05-02T08:58:21.99Z</time></trkpt><trkpt lat="45.703704182429824" lon="8.5460318921325"><ele>333.0</ele><time>2026-05-02T08:58:22.99Z</time></trkpt><trkpt lat="45.70375184636696" lon="8.546104619468858"><ele>333.0</ele><time>2026-05-02T08:58:24.99Z</time></trkpt><trkpt lat="45.703697023217735" lon="8.546035905866127"><ele>333.0</ele><time>2026-05-02T08:58:30.99Z</time></trkpt><trkpt lat="45.70364791499926" lon="8.54592725201732"><ele>333.0</ele><time>2026-05-02T08:58:32.99Z</time></trkpt><trkpt lat="45.70357277020629" lon="8.545814224093192"><ele>333.0</ele><time>2026-05-02T08:58:34.989Z</time></trkpt><trkpt lat="45.70350925556519" lon="8.54573694139757"><ele>333.0</ele><time>2026-05-02T08:58:35.989Z</time></trkpt><trkpt lat="45.70344407541351" lon="8.54567332523638"><ele>333.0</ele><time>2026-05-02T08:58:36.989Z</time></trkpt><trkpt lat="45.70338586992912" lon="8.545615984984464"><ele>333.0</ele><time>2026-05-02T08:58:37.989Z</time></trkpt><trkpt lat="45.70333886284766" lon="8.545554883901165"><ele>333.0</ele><time>2026-05-02T08:58:39.989Z</time></trkpt><trkpt lat="45.703271580326174" lon="8.545584049977894"><ele>333.0</ele><time>2026-05-02T08:58:45.989Z</time></trkpt><trkpt lat="45.70320533848509" lon="8.545592080920992"><ele>333.0</ele><time>2026-05-02T08:58:47.989Z</time></trkpt><trkpt lat="45.703174197080216" lon="8.545486114068131"><ele>333.0</ele><time>2026-05-02T08:58:51.989Z</time></trkpt><trkpt lat="45.70314487651755" lon="8.545337530994987"><ele>333.0</ele><time>2026-05-02T08:58:53.989Z</time></trkpt><trkpt lat="45.7030992729549" lon="8.545204246832338"><ele>333.0</ele><time>2026-05-02T08:58:56.989Z</time></trkpt><trkpt lat="45.70305877109895" lon="8.545107748550054"><ele>331.5</ele><time>2026-05-02T08:58:58.989Z</time></trkpt><trkpt lat="45.703085151919495" lon="8.545016304802335"><ele>330.0</ele><time>2026-05-02T08:59:02.989Z</time></trkpt><trkpt lat="45.703129525268174" lon="8.544939377098478"><ele>328.5</ele><time>2026-05-02T08:59:05.989Z</time></trkpt><trkpt lat="45.703188155867245" lon="8.544846063030466"><ele>327.0</ele><time>2026-05-02T08:59:11.989Z</time></trkpt><trkpt lat="45.703237403612555" lon="8.544705020603041"><ele>325.5</ele><time>2026-05-02T08:59:12.989Z</time></trkpt><trkpt lat="45.70331790720063" lon="8.544634555232351"><ele>324.0</ele><time>2026-05-02T08:59:13.989Z</time></trkpt><trkpt lat="45.70341283245252" lon="8.544602922626757"><ele>324.0</ele><time>2026-05-02T08:59:15.989Z</time></trkpt><trkpt lat="45.70347594023512" lon="8.544634497772124"><ele>324.0</ele><time>2026-05-02T08:59:16.989Z</time></trkpt><trkpt lat="45.70354584045791" lon="8.54471881217145"><ele>324.0</ele><time>2026-05-02T08:59:17.989Z</time></trkpt><trkpt lat="45.70360311861588" lon="8.544811278343126"><ele>324.0</ele><time>2026-05-02T08:59:18.989Z</time></trkpt><trkpt lat="45.70369002219091" lon="8.544918482765992"><ele>324.0</ele><time>2026-05-02T08:59:19.989Z</time></trkpt><trkpt lat="45.70377953975897" lon="8.545030344182084"><ele>325.25</ele><time>2026-05-02T08:59:20.989Z</time></trkpt><trkpt lat="45.70387610075057" lon="8.545143697241876"><ele>326.5</ele><time>2026-05-02T08:59:21.989Z</time></trkpt><trkpt lat="45.703979892074564" lon="8.545282012977047"><ele>327.75</ele><time>2026-05-02T08:59:22.989Z</time></trkpt><trkpt lat="45.70406237514221" lon="8.545431595754078"><ele>329.0</ele><time>2026-05-02T08:59:23.989Z</time></trkpt><trkpt lat="45.70415517057303" lon="8.545561499533566"><ele>329.6666666666667</ele><time>2026-05-02T08:59:24.989Z</time></trkpt><trkpt lat="45.70427272673293" lon="8.545709012653756"><ele>330.3333333333333</ele><time>2026-05-02T08:59:25.989Z</time></trkpt><trkpt lat="45.704401907904106" lon="8.54587539068032"><ele>331.0</ele><time>2026-05-02T08:59:26.989Z</time></trkpt><trkpt lat="45.7045271368593" lon="8.54601703748576"><ele>331.3333333333333</ele><time>2026-05-02T08:59:27.989Z</time></trkpt><trkpt lat="45.70464935774332" lon="8.54615737158583"><ele>331.6666666666667</ele><time>2026-05-02T08:59:28.989Z</time></trkpt><trkpt lat="45.704767362616835" lon="8.546307671402024"><ele>332.0</ele><time>2026-05-02T08:59:29.989Z</time></trkpt><trkpt lat="45.704883685680656" lon="8.546411756385664"><ele>332.0</ele><time>2026-05-02T08:59:30.989Z</time></trkpt><trkpt lat="45.70496746526524" lon="8.546541496325625"><ele>332.0</ele><time>2026-05-02T08:59:31.989Z</time></trkpt><trkpt lat="45.70504681548725" lon="8.546655107066949"><ele>332.0</ele><time>2026-05-02T08:59:32.989Z</time></trkpt><trkpt lat="45.70510737724661" lon="8.546741578285834"><ele>332.0</ele><time>2026-05-02T08:59:33.989Z</time></trkpt><trkpt lat="45.70518987175685" lon="8.546821691166029"><ele>332.0</ele><time>2026-05-02T08:59:35.989Z</time></trkpt><trkpt lat="45.7051239766466" lon="8.546745886306077"><ele>332.0</ele><time>2026-05-02T08:59:39.989Z</time></trkpt><trkpt lat="45.70504043670816" lon="8.546686717161437"><ele>332.0</ele><time>2026-05-02T08:59:41.989Z</time></trkpt><trkpt lat="45.70499385079846" lon="8.546616665442079"><ele>332.0</ele><time>2026-05-02T08:59:43.989Z</time></trkpt><trkpt lat="45.7049397656178" lon="8.546530514929138"><ele>332.0</ele><time>2026-05-02T08:59:46.989Z</time></trkpt><trkpt lat="45.704876749346795" lon="8.546481104991289"><ele>332.0</ele><time>2026-05-02T08:59:48.989Z</time></trkpt><trkpt lat="45.704801387446736" lon="8.546397697239794"><ele>332.0</ele><time>2026-05-02T08:59:51.989Z</time></trkpt><trkpt lat="45.70470493517964" lon="8.546314110671512"><ele>332.0</ele><time>2026-05-02T08:59:53.989Z</time></trkpt><trkpt lat="45.70459942516934" lon="8.54634108642515"><ele>332.0</ele><time>2026-05-02T08:59:54.989Z</time></trkpt><trkpt lat="45.70455183142507" lon="8.546272195348621"><ele>332.0</ele><time>2026-05-02T08:59:56.989Z</time></trkpt><trkpt lat="45.70450946822916" lon="8.546191920046533"><ele>332.0</ele><time>2026-05-02T09:00:00.989Z</time></trkpt><trkpt lat="45.70443542975571" lon="8.546110607049137"><ele>332.0</ele><time>2026-05-02T09:00:02.989Z</time></trkpt><trkpt lat="45.704617613964" lon="8.545803508853334"><ele>332.25</ele><time>2026-05-02T09:00:04.989Z</time></trkpt><trkpt lat="45.704689594338056" lon="8.545714874421321"><ele>332.5</ele><time>2026-05-02T09:00:05.989Z</time></trkpt><trkpt lat="45.70478060187244" lon="8.545568039598223"><ele>332.75</ele><time>2026-05-02T09:00:06.989Z</time></trkpt><trkpt lat="45.70486787549651" lon="8.545434635602454"><ele>333.0</ele><time>2026-05-02T09:00:07.989Z</time></trkpt><trkpt lat="45.70495408088785" lon="8.545309435321586"><ele>333.0</ele><time>2026-05-02T09:00:08.989Z</time></trkpt><trkpt lat="45.70503802265254" lon="8.545197514978277"><ele>333.0</ele><time>2026-05-02T09:00:09.989Z</time></trkpt><trkpt lat="45.7051056015066" lon="8.545090778099675"><ele>333.0</ele><time>2026-05-02T09:00:10.989Z</time></trkpt><trkpt lat="45.70511942190406" lon="8.544970194297028"><ele>333.0</ele><time>2026-05-02T09:00:13.989Z</time></trkpt><trkpt lat="45.70518213026369" lon="8.544866644295558"><ele>333.0</ele><time>2026-05-02T09:00:17.989Z</time></trkpt><trkpt lat="45.705257084072265" lon="8.544724718447927"><ele>332.6666666666667</ele><time>2026-05-02T09:00:19.989Z</time></trkpt><trkpt lat="45.70530367476912" lon="8.544659081834856"><ele>332.3333333333333</ele><time>2026-05-02T09:00:21.989Z</time></trkpt><trkpt lat="45.70533021158085" lon="8.544576827364823"><ele>332.0</ele><time>2026-05-02T09:00:25.989Z</time></trkpt><trkpt lat="45.705371784723816" lon="8.544489557216584"><ele>331.66666666666663</ele><time>2026-05-02T09:00:30.989Z</time></trkpt><trkpt lat="45.705426441121304" lon="8.544417696927724"><ele>331.3333333333333</ele><time>2026-05-02T09:00:39.988Z</time></trkpt><trkpt lat="45.705539626541494" lon="8.544330399193926"><ele>331.0</ele><time>2026-05-02T09:00:41.988Z</time></trkpt><trkpt lat="45.7056116608482" lon="8.544280971589746"><ele>331.0</ele><time>2026-05-02T09:00:42.988Z</time></trkpt><trkpt lat="45.70571354975184" lon="8.544236630325988"><ele>331.0</ele><time>2026-05-02T09:00:43.989Z</time></trkpt><trkpt lat="45.70577394179916" lon="8.544173151250867"><ele>331.0</ele><time>2026-05-02T09:00:44.988Z</time></trkpt><trkpt lat="45.705816069560235" lon="8.54408290902805"><ele>331.0</ele><time>2026-05-02T09:00:45.988Z</time></trkpt><trkpt lat="45.70582061554773" lon="8.543945581760106"><ele>331.0</ele><time>2026-05-02T09:00:48.988Z</time></trkpt><trkpt lat="45.70592665085247" lon="8.543899594831347"><ele>331.0</ele><time>2026-05-02T09:00:50.988Z</time></trkpt><trkpt lat="45.70603551994198" lon="8.543786127382322"><ele>331.0</ele><time>2026-05-02T09:00:52.988Z</time></trkpt><trkpt lat="45.70611804931938" lon="8.543719453581586"><ele>331.0</ele><time>2026-05-02T09:00:53.988Z</time></trkpt><trkpt lat="45.70622674758988" lon="8.543665942107745"><ele>331.0</ele><time>2026-05-02T09:00:54.988Z</time></trkpt><trkpt lat="45.70629624996785" lon="8.543609062763842"><ele>331.0</ele><time>2026-05-02T09:00:55.988Z</time></trkpt><trkpt lat="45.706326689184024" lon="8.543527534543092"><ele>329.8</ele><time>2026-05-02T09:00:56.988Z</time></trkpt><trkpt lat="45.706353716501184" lon="8.543380226762654"><ele>328.6</ele><time>2026-05-02T09:01:00.988Z</time></trkpt><trkpt lat="45.706375461667825" lon="8.543255314262092"><ele>327.4</ele><time>2026-05-02T09:01:01.988Z</time></trkpt><trkpt lat="45.70637860323141" lon="8.54307216314923"><ele>326.2</ele><time>2026-05-02T09:01:02.988Z</time></trkpt><trkpt lat="45.70637130614786" lon="8.542910286277719"><ele>325.0</ele><time>2026-05-02T09:01:03.988Z</time></trkpt><trkpt lat="45.70633205949836" lon="8.542782740231221"><ele>324.5</ele><time>2026-05-02T09:01:04.988Z</time></trkpt><trkpt lat="45.70624609596529" lon="8.542637347187958"><ele>324.0</ele><time>2026-05-02T09:01:05.988Z</time></trkpt><trkpt lat="45.70615991939046" lon="8.542466022742508"><ele>323.5</ele><time>2026-05-02T09:01:06.988Z</time></trkpt><trkpt lat="45.706118530762154" lon="8.542335584976062"><ele>323.0</ele><time>2026-05-02T09:01:07.988Z</time></trkpt><trkpt lat="45.706232579759806" lon="8.542178335114484"><ele>324.0</ele><time>2026-05-02T09:01:08.988Z</time></trkpt><trkpt lat="45.706201113033146" lon="8.542015754535417"><ele>325.0</ele><time>2026-05-02T09:01:09.988Z</time></trkpt><trkpt lat="45.7061839129138" lon="8.541815814079117"><ele>326.0</ele><time>2026-05-02T09:01:10.988Z</time></trkpt><trkpt lat="45.7061781131082" lon="8.54160698271917"><ele>327.0</ele><time>2026-05-02T09:01:11.988Z</time></trkpt><trkpt lat="45.70613193883738" lon="8.54147119063581"><ele>327.0</ele><time>2026-05-02T09:01:12.988Z</time></trkpt><trkpt lat="45.70609991632351" lon="8.541323180787485"><ele>327.0</ele><time>2026-05-02T09:01:14.988Z</time></trkpt><trkpt lat="45.70610042282956" lon="8.541195355947226"><ele>327.0</ele><time>2026-05-02T09:01:16.988Z</time></trkpt><trkpt lat="45.706116524358144" lon="8.541101923694875"><ele>327.0</ele><time>2026-05-02T09:01:17.988Z</time></trkpt><trkpt lat="45.706140160170484" lon="8.540978967177857"><ele>327.0</ele><time>2026-05-02T09:01:18.988Z</time></trkpt><trkpt lat="45.70617572845411" lon="8.540802487363168"><ele>328.6666666666667</ele><time>2026-05-02T09:01:19.988Z</time></trkpt><trkpt lat="45.70619771797959" lon="8.540588396276034"><ele>330.33333333333337</ele><time>2026-05-02T09:01:20.988Z</time></trkpt><trkpt lat="45.706214511194034" lon="8.540343815605246"><ele>332.0</ele><time>2026-05-02T09:01:21.988Z</time></trkpt><trkpt lat="45.70622171588768" lon="8.540083557028929"><ele>332.0</ele><time>2026-05-02T09:01:22.988Z</time></trkpt><trkpt lat="45.70623609086247" lon="8.539909859993402"><ele>332.0</ele><time>2026-05-02T09:01:23.988Z</time></trkpt><trkpt lat="45.70626745716327" lon="8.5397251146187"><ele>332.0</ele><time>2026-05-02T09:01:24.988Z</time></trkpt><trkpt lat="45.70633084836325" lon="8.539502634012091"><ele>332.0</ele><time>2026-05-02T09:01:25.988Z</time></trkpt><trkpt lat="45.70639287135987" lon="8.539299344003197"><ele>332.5</ele><time>2026-05-02T09:01:26.988Z</time></trkpt><trkpt lat="45.706432274213476" lon="8.539107479415813"><ele>333.0</ele><time>2026-05-02T09:01:27.988Z</time></trkpt><trkpt lat="45.70651707186617" lon="8.538960500147594"><ele>333.5</ele><time>2026-05-02T09:01:28.988Z</time></trkpt><trkpt lat="45.70661684045463" lon="8.538756410586211"><ele>334.0</ele><time>2026-05-02T09:01:29.988Z</time></trkpt><trkpt lat="45.70672324435309" lon="8.538538747315439"><ele>335.3333333333333</ele><time>2026-05-02T09:01:30.988Z</time></trkpt><trkpt lat="45.7068174572837" lon="8.538331577838084"><ele>336.6666666666667</ele><time>2026-05-02T09:01:31.988Z</time></trkpt><trkpt lat="45.706791651652736" lon="8.538042644503479"><ele>338.0</ele><time>2026-05-02T09:01:32.988Z</time></trkpt><trkpt lat="45.70682974432813" lon="8.537873114874689"><ele>336.79999999999995</ele><time>2026-05-02T09:01:33.988Z</time></trkpt><trkpt lat="45.706854226240225" lon="8.537727220690341"><ele>335.6</ele><time>2026-05-02T09:01:34.988Z</time></trkpt><trkpt lat="45.70689052391283" lon="8.537636296242649"><ele>334.4</ele><time>2026-05-02T09:01:35.988Z</time></trkpt><trkpt lat="45.70695180457413" lon="8.53752296504741"><ele>333.20000000000005</ele><time>2026-05-02T09:01:36.988Z</time></trkpt><trkpt lat="45.707007564526734" lon="8.53740941836301"><ele>332.0</ele><time>2026-05-02T09:01:37.988Z</time></trkpt><trkpt lat="45.707072048416464" lon="8.537268304051688"><ele>332.0</ele><time>2026-05-02T09:01:38.988Z</time></trkpt><trkpt lat="45.70717358030635" lon="8.53707658889108"><ele>332.0</ele><time>2026-05-02T09:01:39.988Z</time></trkpt><trkpt lat="45.707301844529404" lon="8.536815246213974"><ele>332.0</ele><time>2026-05-02T09:01:40.988Z</time></trkpt><trkpt lat="45.70742500911323" lon="8.536557758069582"><ele>333.33333333333337</ele><time>2026-05-02T09:01:41.988Z</time></trkpt><trkpt lat="45.70751120287991" lon="8.536321676692392"><ele>334.6666666666667</ele><time>2026-05-02T09:01:42.988Z</time></trkpt><trkpt lat="45.70758498562639" lon="8.536129185552756"><ele>336.0</ele><time>2026-05-02T09:01:43.988Z</time></trkpt><trkpt lat="45.70769202794896" lon="8.535934410970878"><ele>336.0</ele><time>2026-05-02T09:01:44.988Z</time></trkpt><trkpt lat="45.70779150759894" lon="8.535739344020408"><ele>336.0</ele><time>2026-05-02T09:01:45.988Z</time></trkpt><trkpt lat="45.70789890226534" lon="8.535535866792564"><ele>336.0</ele><time>2026-05-02T09:01:46.988Z</time></trkpt><trkpt lat="45.70798817477334" lon="8.53532937841437"><ele>336.0</ele><time>2026-05-02T09:01:47.988Z</time></trkpt><trkpt lat="45.70808712171342" lon="8.535157525008024"><ele>336.0</ele><time>2026-05-02T09:01:48.988Z</time></trkpt><trkpt lat="45.70816213807496" lon="8.535000452273703"><ele>336.0</ele><time>2026-05-02T09:01:49.988Z</time></trkpt><trkpt lat="45.70820516673498" lon="8.534863977863345"><ele>336.0</ele><time>2026-05-02T09:01:50.988Z</time></trkpt><trkpt lat="45.70824373702198" lon="8.534749727321913"><ele>336.0</ele><time>2026-05-02T09:01:51.988Z</time></trkpt><trkpt lat="45.70828504116732" lon="8.53457325748831"><ele>336.0</ele><time>2026-05-02T09:01:52.988Z</time></trkpt><trkpt lat="45.70834090672903" lon="8.534375002150686"><ele>336.0</ele><time>2026-05-02T09:01:53.988Z</time></trkpt><trkpt lat="45.708428540897934" lon="8.534203958443923"><ele>336.0</ele><time>2026-05-02T09:01:54.988Z</time></trkpt><trkpt lat="45.70853733430908" lon="8.534029682777422"><ele>335.3333333333333</ele><time>2026-05-02T09:01:55.988Z</time></trkpt><trkpt lat="45.708685470881115" lon="8.533835059267371"><ele>334.66666666666663</ele><time>2026-05-02T09:01:56.988Z</time></trkpt><trkpt lat="45.70883674234199" lon="8.533666460756425"><ele>334.0</ele><time>2026-05-02T09:01:57.988Z</time></trkpt><trkpt lat="45.70896596666551" lon="8.533480087537075"><ele>334.0</ele><time>2026-05-02T09:01:58.988Z</time></trkpt><trkpt lat="45.70907537056939" lon="8.533323034708705"><ele>334.0</ele><time>2026-05-02T09:01:59.988Z</time></trkpt><trkpt lat="45.70913956743429" lon="8.533239851637967"><ele>334.0</ele><time>2026-05-02T09:02:00.988Z</time></trkpt><trkpt lat="45.7091808412899" lon="8.533140061516583"><ele>334.0</ele><time>2026-05-02T09:02:01.988Z</time></trkpt><trkpt lat="45.70920297553711" lon="8.533013109528985"><ele>334.0</ele><time>2026-05-02T09:02:02.988Z</time></trkpt><trkpt lat="45.709234263684934" lon="8.532861957623044"><ele>335.75</ele><time>2026-05-02T09:02:03.988Z</time></trkpt><trkpt lat="45.70924818358001" lon="8.53263619650015"><ele>337.5</ele><time>2026-05-02T09:02:04.988Z</time></trkpt><trkpt lat="45.709258258033046" lon="8.532403077134688"><ele>339.25</ele><time>2026-05-02T09:02:05.988Z</time></trkpt><trkpt lat="45.709277231474" lon="8.532255419174287"><ele>341.0</ele><time>2026-05-02T09:02:06.988Z</time></trkpt><trkpt lat="45.70928116782171" lon="8.532142678999342"><ele>341.6666666666667</ele><time>2026-05-02T09:02:08.988Z</time></trkpt><trkpt lat="45.70928706407989" lon="8.532029631355474"><ele>342.33333333333337</ele><time>2026-05-02T09:02:10.988Z</time></trkpt><trkpt lat="45.70929805258795" lon="8.531916632994424"><ele>343.0</ele><time>2026-05-02T09:02:12.988Z</time></trkpt><trkpt lat="45.70931892212274" lon="8.531809131004314"><ele>343.6666666666667</ele><time>2026-05-02T09:02:14.988Z</time></trkpt><trkpt lat="45.7093329904649" lon="8.531670963589661"><ele>344.3333333333333</ele><time>2026-05-02T09:02:16.988Z</time></trkpt><trkpt lat="45.709409441608756" lon="8.531571635216274"><ele>345.0</ele><time>2026-05-02T09:02:18.988Z</time></trkpt><trkpt lat="45.70937882362534" lon="8.531272057020836"><ele>346.0</ele><time>2026-05-02T09:02:20.988Z</time></trkpt><trkpt lat="45.70938670992334" lon="8.531080932865498"><ele>347.0</ele><time>2026-05-02T09:02:21.988Z</time></trkpt><trkpt lat="45.70940677618203" lon="8.53088816522442"><ele>348.0</ele><time>2026-05-02T09:02:22.988Z</time></trkpt><trkpt lat="45.70942890695435" lon="8.530710918632254"><ele>349.0</ele><time>2026-05-02T09:02:23.988Z</time></trkpt><trkpt lat="45.7094564003352" lon="8.530541914044939"><ele>346.25</ele><time>2026-05-02T09:02:24.988Z</time></trkpt><trkpt lat="45.709503917503376" lon="8.530408132233008"><ele>343.5</ele><time>2026-05-02T09:02:25.988Z</time></trkpt><trkpt lat="45.70956871816747" lon="8.5302833794455"><ele>340.75</ele><time>2026-05-02T09:02:26.988Z</time></trkpt><trkpt lat="45.709643713649044" lon="8.530122488662581"><ele>338.0</ele><time>2026-05-02T09:02:27.988Z</time></trkpt><trkpt lat="45.709710491652324" lon="8.529938794737646"><ele>338.0</ele><time>2026-05-02T09:02:28.988Z</time></trkpt><trkpt lat="45.70975952005256" lon="8.529753317291298"><ele>338.0</ele><time>2026-05-02T09:02:29.988Z</time></trkpt><trkpt lat="45.70977953383151" lon="8.529574351531224"><ele>338.0</ele><time>2026-05-02T09:02:30.988Z</time></trkpt><trkpt lat="45.7098066118325" lon="8.529470397161173"><ele>338.0</ele><time>2026-05-02T09:02:31.988Z</time></trkpt><trkpt lat="45.709871159595465" lon="8.529380357262092"><ele>338.0</ele><time>2026-05-02T09:02:32.988Z</time></trkpt><trkpt lat="45.7099771906226" lon="8.529318246577633"><ele>338.33333333333337</ele><time>2026-05-02T09:02:33.988Z</time></trkpt><trkpt lat="45.71001612156242" lon="8.529221387259645"><ele>338.6666666666667</ele><time>2026-05-02T09:02:34.988Z</time></trkpt><trkpt lat="45.71007166697288" lon="8.529154562986038"><ele>339.0</ele><time>2026-05-02T09:02:36.988Z</time></trkpt><trkpt lat="45.71011140702678" lon="8.529035773427387"><ele>339.3333333333333</ele><time>2026-05-02T09:02:38.988Z</time></trkpt><trkpt lat="45.71013142273591" lon="8.528935854115725"><ele>339.66666666666663</ele><time>2026-05-02T09:02:39.988Z</time></trkpt><trkpt lat="45.71023398235966" lon="8.528866370645808"><ele>340.0</ele><time>2026-05-02T09:02:40.988Z</time></trkpt><trkpt lat="45.71032710848943" lon="8.528739385953386"><ele>338.66666666666663</ele><time>2026-05-02T09:02:41.988Z</time></trkpt><trkpt lat="45.71045231411934" lon="8.528566681350036"><ele>337.3333333333333</ele><time>2026-05-02T09:02:42.988Z</time></trkpt><trkpt lat="45.71058772548073" lon="8.528387963969324"><ele>336.0</ele><time>2026-05-02T09:02:43.988Z</time></trkpt><trkpt lat="45.7107148409063" lon="8.52822159767405"><ele>336.0</ele><time>2026-05-02T09:02:44.988Z</time></trkpt><trkpt lat="45.710834183327265" lon="8.528080521416317"><ele>336.0</ele><time>2026-05-02T09:02:45.988Z</time></trkpt><trkpt lat="45.71095318076902" lon="8.527965369565376"><ele>336.0</ele><time>2026-05-02T09:02:46.988Z</time></trkpt><trkpt lat="45.71105240955756" lon="8.527867200163367"><ele>336.0</ele><time>2026-05-02T09:02:47.987Z</time></trkpt><trkpt lat="45.71112552260503" lon="8.527793788902793"><ele>337.3333333333333</ele><time>2026-05-02T09:02:48.987Z</time></trkpt><trkpt lat="45.71123064413138" lon="8.527718016105444"><ele>338.66666666666663</ele><time>2026-05-02T09:02:50.988Z</time></trkpt><trkpt lat="45.711310997573165" lon="8.527622288429882"><ele>340.0</ele><time>2026-05-02T09:02:52.987Z</time></trkpt><trkpt lat="45.71122059624197" lon="8.527155591865482"><ele>342.0</ele><time>2026-05-02T09:02:53.987Z</time></trkpt><trkpt lat="45.71125323366411" lon="8.526971509127293"><ele>344.0</ele><time>2026-05-02T09:02:54.987Z</time></trkpt><trkpt lat="45.71129726014546" lon="8.526825032630134"><ele>346.0</ele><time>2026-05-02T09:02:55.988Z</time></trkpt><trkpt lat="45.711340092253664" lon="8.526665862072154"><ele>348.0</ele><time>2026-05-02T09:02:56.988Z</time></trkpt><trkpt lat="45.71139827440317" lon="8.52650739225465"><ele>348.0</ele><time>2026-05-02T09:02:57.988Z</time></trkpt><trkpt lat="45.71149751047839" lon="8.526368634320773"><ele>348.0</ele><time>2026-05-02T09:02:58.987Z</time></trkpt><trkpt lat="45.711607404921736" lon="8.526296330439662"><ele>348.0</ele><time>2026-05-02T09:02:59.987Z</time></trkpt><trkpt lat="45.71162279043776" lon="8.526474985592039"><ele>348.0</ele><time>2026-05-02T09:03:00.987Z</time></trkpt><trkpt lat="45.71171933542543" lon="8.526437456287244"><ele>348.0</ele><time>2026-05-02T09:03:01.987Z</time></trkpt><trkpt lat="45.71181248952603" lon="8.526381056571605"><ele>348.0</ele><time>2026-05-02T09:03:02.987Z</time></trkpt><trkpt lat="45.711880220007025" lon="8.526349166663048"><ele>348.0</ele><time>2026-05-02T09:03:03.987Z</time></trkpt><trkpt lat="45.71195627696668" lon="8.526303973845405"><ele>348.0</ele><time>2026-05-02T09:03:05.987Z</time></trkpt><trkpt lat="45.71200889628596" lon="8.526217091694175"><ele>348.0</ele><time>2026-05-02T09:03:06.987Z</time></trkpt><trkpt lat="45.71208710426099" lon="8.526103798090697"><ele>348.0</ele><time>2026-05-02T09:03:07.987Z</time></trkpt><trkpt lat="45.71212570762442" lon="8.52602573187677"><ele>348.6666666666667</ele><time>2026-05-02T09:03:08.987Z</time></trkpt><trkpt lat="45.712179727564354" lon="8.52597894094934"><ele>349.3333333333333</ele><time>2026-05-02T09:03:11.987Z</time></trkpt><trkpt lat="45.71228317076926" lon="8.525998448716667"><ele>350.0</ele><time>2026-05-02T09:03:13.987Z</time></trkpt><trkpt lat="45.71234760940253" lon="8.526004370386973"><ele>350.66666666666663</ele><time>2026-05-02T09:03:14.987Z</time></trkpt><trkpt lat="45.71240961322878" lon="8.526044931779978"><ele>351.3333333333333</ele><time>2026-05-02T09:03:15.987Z</time></trkpt><trkpt lat="45.712470836737545" lon="8.52608834740057"><ele>352.0</ele><time>2026-05-02T09:03:16.987Z</time></trkpt><trkpt lat="45.71255996187163" lon="8.526148693940401"><ele>349.75</ele><time>2026-05-02T09:03:18.987Z</time></trkpt><trkpt lat="45.71266682016882" lon="8.526231232196915"><ele>347.5</ele><time>2026-05-02T09:03:20.987Z</time></trkpt><trkpt lat="45.7125903533278" lon="8.526520850443848"><ele>345.25</ele><time>2026-05-02T09:03:22.987Z</time></trkpt><trkpt lat="45.71263386261803" lon="8.52663120922706"><ele>343.0</ele><time>2026-05-02T09:03:23.987Z</time></trkpt><trkpt lat="45.71267583852147" lon="8.526729368490896"><ele>341.5</ele><time>2026-05-02T09:03:25.987Z</time></trkpt><trkpt lat="45.712753737913346" lon="8.526911533742014"><ele>340.0</ele><time>2026-05-02T09:03:27.987Z</time></trkpt><trkpt lat="45.71280430954546" lon="8.52702979390313"><ele>338.5</ele><time>2026-05-02T09:03:28.987Z</time></trkpt><trkpt lat="45.71285882391594" lon="8.527157259866891"><ele>337.0</ele><time>2026-05-02T09:03:29.987Z</time></trkpt><trkpt lat="45.71292580319397" lon="8.527313846298368"><ele>337.0</ele><time>2026-05-02T09:03:30.987Z</time></trkpt><trkpt lat="45.71299666165293" lon="8.527479501632678"><ele>337.0</ele><time>2026-05-02T09:03:31.987Z</time></trkpt><trkpt lat="45.71306573636469" lon="8.527640986859971"><ele>337.0</ele><time>2026-05-02T09:03:32.987Z</time></trkpt><trkpt lat="45.713106751904874" lon="8.527736874393684"><ele>337.0</ele><time>2026-05-02T09:03:33.987Z</time></trkpt><trkpt lat="45.71315707666205" lon="8.52785219065631"><ele>337.0</ele><time>2026-05-02T09:03:35.987Z</time></trkpt><trkpt lat="45.713205773172824" lon="8.52793241649461"><ele>337.66666666666663</ele><time>2026-05-02T09:03:37.987Z</time></trkpt><trkpt lat="45.71324128623388" lon="8.528039151130228"><ele>338.3333333333333</ele><time>2026-05-02T09:03:39.987Z</time></trkpt><trkpt lat="45.71328975815201" lon="8.528146767552078"><ele>339.0</ele><time>2026-05-02T09:03:40.987Z</time></trkpt><trkpt lat="45.71333757089734" lon="8.528252902954035"><ele>339.6666666666667</ele><time>2026-05-02T09:03:41.987Z</time></trkpt><trkpt lat="45.71338428038373" lon="8.52835642411032"><ele>340.33333333333337</ele><time>2026-05-02T09:03:42.987Z</time></trkpt><trkpt lat="45.71342421444855" lon="8.528444929001546"><ele>341.0</ele><time>2026-05-02T09:03:43.987Z</time></trkpt><trkpt lat="45.71346873109576" lon="8.528543590192568"><ele>341.0</ele><time>2026-05-02T09:03:44.987Z</time></trkpt><trkpt lat="45.713523513836925" lon="8.528665003889241"><ele>341.0</ele><time>2026-05-02T09:03:45.987Z</time></trkpt><trkpt lat="45.71358950681888" lon="8.528804419719275"><ele>341.0</ele><time>2026-05-02T09:03:46.987Z</time></trkpt><trkpt lat="45.71365370232636" lon="8.528937787242297"><ele>341.0</ele><time>2026-05-02T09:03:47.987Z</time></trkpt><trkpt lat="45.713722443216064" lon="8.529080642786715"><ele>338.0</ele><time>2026-05-02T09:03:48.987Z</time></trkpt><trkpt lat="45.71377620930651" lon="8.529192419518107"><ele>335.0</ele><time>2026-05-02T09:03:49.987Z</time></trkpt><trkpt lat="45.713833315653986" lon="8.529311155059002"><ele>332.0</ele><time>2026-05-02T09:03:50.987Z</time></trkpt><trkpt lat="45.713905363472435" lon="8.529460656756468"><ele>329.0</ele><time>2026-05-02T09:03:51.987Z</time></trkpt><trkpt lat="45.713989818812585" lon="8.52963590332745"><ele>330.0</ele><time>2026-05-02T09:03:52.987Z</time></trkpt><trkpt lat="45.714503433502315" lon="8.529421178513928"><ele>329.6666666666667</ele><time>2026-05-02T09:03:53.987Z</time></trkpt><trkpt lat="45.71464196819561" lon="8.52960023262169"><ele>329.33333333333337</ele><time>2026-05-02T09:03:54.987Z</time></trkpt><trkpt lat="45.714769563037116" lon="8.529767702157573"><ele>329.0</ele><time>2026-05-02T09:03:55.987Z</time></trkpt><trkpt lat="45.71489011942345" lon="8.529903237459555"><ele>329.0</ele><time>2026-05-02T09:03:56.987Z</time></trkpt><trkpt lat="45.71494526126496" lon="8.530029254849294"><ele>329.0</ele><time>2026-05-02T09:03:57.987Z</time></trkpt><trkpt lat="45.714972495445295" lon="8.530144968680384"><ele>329.0</ele><time>2026-05-02T09:03:58.987Z</time></trkpt><trkpt lat="45.714997536428115" lon="8.530251363943526"><ele>329.0</ele><time>2026-05-02T09:03:59.987Z</time></trkpt><trkpt lat="45.71520007187036" lon="8.530200305229918"><ele>329.2</ele><time>2026-05-02T09:04:02.987Z</time></trkpt><trkpt lat="45.71524830803561" lon="8.530114089115601"><ele>329.4</ele><time>2026-05-02T09:04:03.987Z</time></trkpt><trkpt lat="45.71531970727675" lon="8.53001586974929"><ele>329.6</ele><time>2026-05-02T09:04:04.987Z</time></trkpt><trkpt lat="45.715416024187" lon="8.529921857981064"><ele>329.8</ele><time>2026-05-02T09:04:05.987Z</time></trkpt><trkpt lat="45.71551408204157" lon="8.529844083010094"><ele>330.0</ele><time>2026-05-02T09:04:06.987Z</time></trkpt><trkpt lat="45.71559238082939" lon="8.529786298580465"><ele>330.0</ele><time>2026-05-02T09:04:07.987Z</time></trkpt><trkpt lat="45.71565619228448" lon="8.529698180687713"><ele>330.0</ele><time>2026-05-02T09:04:08.987Z</time></trkpt><trkpt lat="45.71572442231061" lon="8.529615343238545"><ele>330.0</ele><time>2026-05-02T09:04:09.987Z</time></trkpt><trkpt lat="45.71579514254647" lon="8.52954912636285"><ele>330.0</ele><time>2026-05-02T09:04:10.987Z</time></trkpt><trkpt lat="45.71590415806862" lon="8.52947862024745"><ele>330.0</ele><time>2026-05-02T09:04:11.987Z</time></trkpt><trkpt lat="45.716046575039954" lon="8.529417106018345"><ele>330.0</ele><time>2026-05-02T09:04:12.987Z</time></trkpt><trkpt lat="45.71617582887737" lon="8.529338882049224"><ele>330.0</ele><time>2026-05-02T09:04:13.987Z</time></trkpt><trkpt lat="45.71632601753983" lon="8.529244649888522"><ele>330.0</ele><time>2026-05-02T09:04:14.987Z</time></trkpt><trkpt lat="45.716478787715126" lon="8.529155301699818"><ele>330.0</ele><time>2026-05-02T09:04:15.987Z</time></trkpt><trkpt lat="45.71660239225042" lon="8.529062627755492"><ele>330.0</ele><time>2026-05-02T09:04:16.987Z</time></trkpt><trkpt lat="45.71673772856646" lon="8.528957407410287"><ele>330.0</ele><time>2026-05-02T09:04:17.987Z</time></trkpt><trkpt lat="45.71687858596857" lon="8.528847639269049"><ele>328.0</ele><time>2026-05-02T09:04:18.987Z</time></trkpt><trkpt lat="45.717025803526774" lon="8.528726661619114"><ele>326.0</ele><time>2026-05-02T09:04:19.987Z</time></trkpt><trkpt lat="45.71721261020939" lon="8.528610982333397"><ele>324.0</ele><time>2026-05-02T09:04:20.987Z</time></trkpt><trkpt lat="45.717344122087376" lon="8.528519947942486"><ele>324.0</ele><time>2026-05-02T09:04:21.987Z</time></trkpt><trkpt lat="45.7174638318452" lon="8.52845514136039"><ele>324.0</ele><time>2026-05-02T09:04:22.987Z</time></trkpt><trkpt lat="45.71762681792972" lon="8.528355403329426"><ele>324.0</ele><time>2026-05-02T09:04:23.987Z</time></trkpt><trkpt lat="45.71780156930642" lon="8.52822153090623"><ele>324.5</ele><time>2026-05-02T09:04:24.987Z</time></trkpt><trkpt lat="45.717939739712264" lon="8.528119878402615"><ele>325.0</ele><time>2026-05-02T09:04:25.987Z</time></trkpt><trkpt lat="45.71804683018897" lon="8.52805129399591"><ele>325.5</ele><time>2026-05-02T09:04:26.987Z</time></trkpt><trkpt lat="45.71814808766701" lon="8.527973142030607"><ele>326.0</ele><time>2026-05-02T09:04:27.987Z</time></trkpt><trkpt lat="45.71825077908941" lon="8.527880558782481"><ele>325.83333333333337</ele><time>2026-05-02T09:04:28.987Z</time></trkpt><trkpt lat="45.71833087385673" lon="8.527795904636706"><ele>325.6666666666667</ele><time>2026-05-02T09:04:29.987Z</time></trkpt><trkpt lat="45.718393398089184" lon="8.527699873978689"><ele>325.5</ele><time>2026-05-02T09:04:30.987Z</time></trkpt><trkpt lat="45.71845415492856" lon="8.527632630520412"><ele>325.3333333333333</ele><time>2026-05-02T09:04:31.987Z</time></trkpt><trkpt lat="45.71851122583844" lon="8.527564415409095"><ele>325.16666666666663</ele><time>2026-05-02T09:04:32.987Z</time></trkpt><trkpt lat="45.71859574579978" lon="8.527472796551242"><ele>325.0</ele><time>2026-05-02T09:04:34.987Z</time></trkpt><trkpt lat="45.718641003109866" lon="8.527384175608676"><ele>325.0</ele><time>2026-05-02T09:04:38.987Z</time></trkpt><trkpt lat="45.718672868913906" lon="8.527298065417375"><ele>325.0</ele><time>2026-05-02T09:04:39.987Z</time></trkpt><trkpt lat="45.71871934714105" lon="8.527195436956644"><ele>325.0</ele><time>2026-05-02T09:04:40.987Z</time></trkpt><trkpt lat="45.71877936269016" lon="8.527086280032476"><ele>325.0</ele><time>2026-05-02T09:04:41.987Z</time></trkpt><trkpt lat="45.718845308835675" lon="8.526957914536599"><ele>325.0</ele><time>2026-05-02T09:04:42.987Z</time></trkpt><trkpt lat="45.71892975164949" lon="8.526825220103401"><ele>326.5</ele><time>2026-05-02T09:04:43.987Z</time></trkpt><trkpt lat="45.71903262950413" lon="8.526690853305933"><ele>328.0</ele><time>2026-05-02T09:04:44.987Z</time></trkpt><trkpt lat="45.719152931171635" lon="8.52655392775196"><ele>329.5</ele><time>2026-05-02T09:04:45.987Z</time></trkpt><trkpt lat="45.71925233112902" lon="8.526411599294754"><ele>331.0</ele><time>2026-05-02T09:04:46.987Z</time></trkpt><trkpt lat="45.71934303232107" lon="8.526247936585623"><ele>330.75</ele><time>2026-05-02T09:04:47.987Z</time></trkpt><trkpt lat="45.71943448976305" lon="8.526091152866199"><ele>330.5</ele><time>2026-05-02T09:04:48.987Z</time></trkpt><trkpt lat="45.71952177597715" lon="8.525960869377112"><ele>330.25</ele><time>2026-05-02T09:04:49.987Z</time></trkpt><trkpt lat="45.71960536555082" lon="8.525860041800978"><ele>330.0</ele><time>2026-05-02T09:04:50.987Z</time></trkpt><trkpt lat="45.71969768226421" lon="8.525773282715816"><ele>330.0</ele><time>2026-05-02T09:04:51.987Z</time></trkpt><trkpt lat="45.71977766230325" lon="8.525667850789064"><ele>330.0</ele><time>2026-05-02T09:04:52.986Z</time></trkpt><trkpt lat="45.719871350369345" lon="8.525555539776304"><ele>330.0</ele><time>2026-05-02T09:04:53.987Z</time></trkpt><trkpt lat="45.71994800407728" lon="8.525432628421589"><ele>330.0</ele><time>2026-05-02T09:04:54.987Z</time></trkpt><trkpt lat="45.72002891611118" lon="8.52529594678235"><ele>331.0</ele><time>2026-05-02T09:04:55.987Z</time></trkpt><trkpt lat="45.720129902849266" lon="8.52516516285875"><ele>332.0</ele><time>2026-05-02T09:04:56.987Z</time></trkpt><trkpt lat="45.72025336649699" lon="8.525028672881643"><ele>333.0</ele><time>2026-05-02T09:04:57.987Z</time></trkpt><trkpt lat="45.720406779877" lon="8.524842949257584"><ele>333.0</ele><time>2026-05-02T09:04:58.987Z</time></trkpt><trkpt lat="45.72056345177546" lon="8.524645950954252"><ele>333.0</ele><time>2026-05-02T09:04:59.987Z</time></trkpt><trkpt lat="45.720740311999904" lon="8.524421968811069"><ele>333.0</ele><time>2026-05-02T09:05:00.987Z</time></trkpt><trkpt lat="45.720890108243786" lon="8.52422322247468"><ele>333.3333333333333</ele><time>2026-05-02T09:05:01.987Z</time></trkpt><trkpt lat="45.72103456298105" lon="8.524034686936249"><ele>333.66666666666663</ele><time>2026-05-02T09:05:02.986Z</time></trkpt><trkpt lat="45.7211444572303" lon="8.523891402617567"><ele>334.0</ele><time>2026-05-02T09:05:03.986Z</time></trkpt><trkpt lat="45.7212473401168" lon="8.523762204321109"><ele>337.3333333333333</ele><time>2026-05-02T09:05:04.987Z</time></trkpt><trkpt lat="45.7213646870736" lon="8.52363945240355"><ele>340.6666666666667</ele><time>2026-05-02T09:05:05.986Z</time></trkpt><trkpt lat="45.72150903541411" lon="8.52352313672684"><ele>344.0</ele><time>2026-05-02T09:05:06.986Z</time></trkpt><trkpt lat="45.72164810290388" lon="8.523397137577138"><ele>344.0</ele><time>2026-05-02T09:05:07.986Z</time></trkpt><trkpt lat="45.721774187797315" lon="8.523267163019593"><ele>344.0</ele><time>2026-05-02T09:05:08.986Z</time></trkpt><trkpt lat="45.72187211801664" lon="8.523171813328618"><ele>344.0</ele><time>2026-05-02T09:05:09.986Z</time></trkpt><trkpt lat="45.72195536210707" lon="8.523108610721957"><ele>344.0</ele><time>2026-05-02T09:05:10.986Z</time></trkpt><trkpt lat="45.72206344765952" lon="8.522967486487868"><ele>342.6666666666667</ele><time>2026-05-02T09:05:11.986Z</time></trkpt><trkpt lat="45.72217357793726" lon="8.52282160795423"><ele>341.3333333333333</ele><time>2026-05-02T09:05:12.986Z</time></trkpt><trkpt lat="45.72228964672849" lon="8.522652996758863"><ele>340.0</ele><time>2026-05-02T09:05:13.986Z</time></trkpt><trkpt lat="45.72241177093345" lon="8.522500917915847"><ele>340.0</ele><time>2026-05-02T09:05:14.986Z</time></trkpt><trkpt lat="45.72252834099394" lon="8.52233630637799"><ele>340.0</ele><time>2026-05-02T09:05:15.986Z</time></trkpt><trkpt lat="45.7226514422462" lon="8.522180285502301"><ele>340.0</ele><time>2026-05-02T09:05:16.986Z</time></trkpt><trkpt lat="45.722792337956044" lon="8.522027026927917"><ele>341.0</ele><time>2026-05-02T09:05:17.986Z</time></trkpt><trkpt lat="45.722939126222506" lon="8.52188228937151"><ele>342.0</ele><time>2026-05-02T09:05:18.986Z</time></trkpt><trkpt lat="45.723088848223874" lon="8.52173219878865"><ele>343.0</ele><time>2026-05-02T09:05:19.986Z</time></trkpt><trkpt lat="45.723246940405105" lon="8.521585010718397"><ele>343.0</ele><time>2026-05-02T09:05:20.986Z</time></trkpt><trkpt lat="45.723398421375734" lon="8.521439679420334"><ele>343.0</ele><time>2026-05-02T09:05:21.986Z</time></trkpt><trkpt lat="45.723551708468044" lon="8.521280206088793"><ele>343.0</ele><time>2026-05-02T09:05:22.986Z</time></trkpt><trkpt lat="45.72370978813229" lon="8.521119750472222"><ele>344.25</ele><time>2026-05-02T09:05:23.986Z</time></trkpt><trkpt lat="45.72385731945424" lon="8.520959933454611"><ele>345.5</ele><time>2026-05-02T09:05:24.986Z</time></trkpt><trkpt lat="45.72397352154592" lon="8.52083604108361"><ele>346.75</ele><time>2026-05-02T09:05:25.986Z</time></trkpt><trkpt lat="45.724028180161476" lon="8.520769232912674"><ele>348.0</ele><time>2026-05-02T09:05:26.986Z</time></trkpt><trkpt lat="45.72409066161178" lon="8.520677410395704"><ele>348.0</ele><time>2026-05-02T09:05:29.986Z</time></trkpt><trkpt lat="45.72415334409422" lon="8.520592351217557"><ele>348.0</ele><time>2026-05-02T09:05:31.986Z</time></trkpt><trkpt lat="45.72424039469138" lon="8.520467062323197"><ele>348.0</ele><time>2026-05-02T09:05:33.986Z</time></trkpt><trkpt lat="45.724334411406765" lon="8.520352937448878"><ele>348.0</ele><time>2026-05-02T09:05:35.986Z</time></trkpt><trkpt lat="45.72438433245067" lon="8.520286515900985"><ele>348.0</ele><time>2026-05-02T09:05:36.986Z</time></trkpt><trkpt lat="45.72446447463702" lon="8.520201566848126"><ele>348.4</ele><time>2026-05-02T09:05:38.986Z</time></trkpt><trkpt lat="45.72454463640989" lon="8.520088884049676"><ele>348.79999999999995</ele><time>2026-05-02T09:05:40.986Z</time></trkpt><trkpt lat="45.72459149032109" lon="8.520027171209568"><ele>349.2</ele><time>2026-05-02T09:05:41.986Z</time></trkpt><trkpt lat="45.72465093664957" lon="8.519945672070618"><ele>349.6</ele><time>2026-05-02T09:05:42.986Z</time></trkpt><trkpt lat="45.724725119191206" lon="8.519852035172434"><ele>350.0</ele><time>2026-05-02T09:05:43.986Z</time></trkpt><trkpt lat="45.72482505848675" lon="8.51972315378807"><ele>350.0</ele><time>2026-05-02T09:05:44.986Z</time></trkpt><trkpt lat="45.72491752253677" lon="8.519597190840113"><ele>350.0</ele><time>2026-05-02T09:05:45.986Z</time></trkpt><trkpt lat="45.724999149408845" lon="8.51950730083875"><ele>350.0</ele><time>2026-05-02T09:05:46.986Z</time></trkpt><trkpt lat="45.72505119666868" lon="8.519449709153522"><ele>350.0</ele><time>2026-05-02T09:05:47.986Z</time></trkpt><trkpt lat="45.7250904730266" lon="8.519366068865418"><ele>350.0</ele><time>2026-05-02T09:05:49.986Z</time></trkpt><trkpt lat="45.72509436810329" lon="8.51925686445918"><ele>350.0</ele><time>2026-05-02T09:05:51.986Z</time></trkpt><trkpt lat="45.72507917121086" lon="8.51914487429286"><ele>350.0</ele><time>2026-05-02T09:05:56.986Z</time></trkpt><trkpt lat="45.72511407141695" lon="8.519059969249756"><ele>350.0</ele><time>2026-05-02T09:05:58.986Z</time></trkpt><trkpt lat="45.725172422711886" lon="8.518999389055832"><ele>350.0</ele><time>2026-05-02T09:05:59.986Z</time></trkpt><trkpt lat="45.725237593774274" lon="8.518937447843909"><ele>350.0</ele><time>2026-05-02T09:06:00.986Z</time></trkpt><trkpt lat="45.725302025246684" lon="8.518865608578611"><ele>350.0</ele><time>2026-05-02T09:06:01.986Z</time></trkpt><trkpt lat="45.72538139140156" lon="8.518784282744246"><ele>350.0</ele><time>2026-05-02T09:06:02.986Z</time></trkpt><trkpt lat="45.72546732469498" lon="8.518673320769055"><ele>351.0</ele><time>2026-05-02T09:06:03.986Z</time></trkpt><trkpt lat="45.72555859597833" lon="8.518563332678564"><ele>352.0</ele><time>2026-05-02T09:06:04.986Z</time></trkpt><trkpt lat="45.72566563985786" lon="8.518462931615366"><ele>353.0</ele><time>2026-05-02T09:06:05.986Z</time></trkpt><trkpt lat="45.725763856758924" lon="8.518391665349004"><ele>354.0</ele><time>2026-05-02T09:06:06.986Z</time></trkpt><trkpt lat="45.72584428259769" lon="8.518331733535309"><ele>355.0</ele><time>2026-05-02T09:06:07.986Z</time></trkpt><trkpt lat="45.725933319198056" lon="8.518265836719964"><ele>355.0</ele><time>2026-05-02T09:06:08.986Z</time></trkpt><trkpt lat="45.72600158060978" lon="8.518200879294625"><ele>355.0</ele><time>2026-05-02T09:06:09.986Z</time></trkpt><trkpt lat="45.72605925809382" lon="8.518162246179143"><ele>355.0</ele><time>2026-05-02T09:06:11.986Z</time></trkpt><trkpt lat="45.725976821610516" lon="8.51824712529195"><ele>355.0</ele><time>2026-05-02T09:06:19.986Z</time></trkpt><trkpt lat="45.72588021225662" lon="8.518286591715105"><ele>355.0</ele><time>2026-05-02T09:06:20.986Z</time></trkpt><trkpt lat="45.72576342555938" lon="8.51834648841405"><ele>355.0</ele><time>2026-05-02T09:06:21.986Z</time></trkpt><trkpt lat="45.72566202680418" lon="8.518440026677716"><ele>355.0</ele><time>2026-05-02T09:06:22.986Z</time></trkpt><trkpt lat="45.725550054967705" lon="8.518550696755122"><ele>355.0</ele><time>2026-05-02T09:06:23.986Z</time></trkpt><trkpt lat="45.72540980391128" lon="8.518696132971042"><ele>355.0</ele><time>2026-05-02T09:06:24.986Z</time></trkpt><trkpt lat="45.72530129499504" lon="8.518860028986893"><ele>355.4</ele><time>2026-05-02T09:06:25.986Z</time></trkpt><trkpt lat="45.7252185843603" lon="8.518991403451393"><ele>355.8</ele><time>2026-05-02T09:06:26.986Z</time></trkpt><trkpt lat="45.725157680280304" lon="8.519073301502539"><ele>356.20000000000005</ele><time>2026-05-02T09:06:27.986Z</time></trkpt><trkpt lat="45.725151859594405" lon="8.519194185153447"><ele>356.6</ele><time>2026-05-02T09:06:28.986Z</time></trkpt><trkpt lat="45.72509225170644" lon="8.519108056089927"><ele>357.0</ele><time>2026-05-02T09:06:29.986Z</time></trkpt><trkpt lat="45.72518699712442" lon="8.51909136253463"><ele>356.6</ele><time>2026-05-02T09:06:31.986Z</time></trkpt><trkpt lat="45.72526350904714" lon="8.51902905430016"><ele>356.20000000000005</ele><time>2026-05-02T09:06:32.986Z</time></trkpt><trkpt lat="45.72534062311702" lon="8.51893299486064"><ele>355.8</ele><time>2026-05-02T09:06:33.986Z</time></trkpt><trkpt lat="45.72543831400507" lon="8.51882825042927"><ele>355.4</ele><time>2026-05-02T09:06:34.986Z</time></trkpt><trkpt lat="45.72554555108726" lon="8.518720288889353"><ele>355.0</ele><time>2026-05-02T09:06:35.986Z</time></trkpt><trkpt lat="45.72565889920727" lon="8.518604656067332"><ele>355.0</ele><time>2026-05-02T09:06:36.986Z</time></trkpt><trkpt lat="45.72574160228373" lon="8.518510997400933"><ele>355.0</ele><time>2026-05-02T09:06:37.986Z</time></trkpt><trkpt lat="45.72582657811753" lon="8.518453872643901"><ele>355.0</ele><time>2026-05-02T09:06:38.986Z</time></trkpt><trkpt lat="45.72590817562064" lon="8.518423487736305"><ele>355.0</ele><time>2026-05-02T09:06:39.986Z</time></trkpt><trkpt lat="45.7259971648587" lon="8.51843334535146"><ele>355.0</ele><time>2026-05-02T09:06:40.986Z</time></trkpt><trkpt lat="45.72607090439144" lon="8.51842721788819"><ele>355.0</ele><time>2026-05-02T09:06:41.986Z</time></trkpt><trkpt lat="45.72620118237329" lon="8.518444014272703"><ele>354.0</ele><time>2026-05-02T09:06:43.986Z</time></trkpt><trkpt lat="45.72626720099122" lon="8.518445762976324"><ele>353.0</ele><time>2026-05-02T09:06:44.986Z</time></trkpt><trkpt lat="45.726342722463954" lon="8.518452611240034"><ele>352.0</ele><time>2026-05-02T09:06:45.986Z</time></trkpt><trkpt lat="45.72640658309996" lon="8.518459779991582"><ele>351.0</ele><time>2026-05-02T09:06:46.986Z</time></trkpt><trkpt lat="45.72648108136745" lon="8.518497492596207"><ele>350.0</ele><time>2026-05-02T09:06:51.986Z</time></trkpt><trkpt lat="45.72649076232729" lon="8.51837636268196"><ele>349.0</ele><time>2026-05-02T09:06:52.986Z</time></trkpt><trkpt lat="45.7265586367424" lon="8.518277086755223"><ele>349.0</ele><time>2026-05-02T09:06:53.986Z</time></trkpt><trkpt lat="45.7266427824089" lon="8.518154010557312"><ele>349.0</ele><time>2026-05-02T09:06:54.986Z</time></trkpt><trkpt lat="45.72671528628018" lon="8.518047105771663"><ele>349.0</ele><time>2026-05-02T09:06:55.986Z</time></trkpt><trkpt lat="45.72676291404988" lon="8.517976548025475"><ele>349.0</ele><time>2026-05-02T09:06:56.986Z</time></trkpt><trkpt lat="45.72681046898785" lon="8.517906098555349"><ele>349.0</ele><time>2026-05-02T09:07:03.985Z</time></trkpt><trkpt lat="45.72687152565231" lon="8.51781564696357"><ele>349.0</ele><time>2026-05-02T09:07:04.986Z</time></trkpt><trkpt lat="45.726934402556374" lon="8.517722498797843"><ele>349.5</ele><time>2026-05-02T09:07:05.986Z</time></trkpt><trkpt lat="45.727005968209205" lon="8.517614677117713"><ele>350.0</ele><time>2026-05-02T09:07:06.986Z</time></trkpt><trkpt lat="45.727084781789145" lon="8.517493775612401"><ele>350.5</ele><time>2026-05-02T09:07:07.986Z</time></trkpt><trkpt lat="45.72718221123106" lon="8.517342045825355"><ele>351.0</ele><time>2026-05-02T09:07:08.986Z</time></trkpt><trkpt lat="45.7272822917998" lon="8.517186022772856"><ele>351.5</ele><time>2026-05-02T09:07:09.986Z</time></trkpt><trkpt lat="45.72737577931591" lon="8.517040278479486"><ele>352.0</ele><time>2026-05-02T09:07:10.986Z</time></trkpt><trkpt lat="45.72746161825855" lon="8.516906458013981"><ele>352.5</ele><time>2026-05-02T09:07:11.986Z</time></trkpt><trkpt lat="45.72754549758559" lon="8.516775692719458"><ele>353.0</ele><time>2026-05-02T09:07:12.986Z</time></trkpt><trkpt lat="45.72762726209136" lon="8.516648223903708"><ele>353.0</ele><time>2026-05-02T09:07:13.986Z</time></trkpt><trkpt lat="45.72770844955514" lon="8.516521655159035"><ele>353.0</ele><time>2026-05-02T09:07:14.986Z</time></trkpt><trkpt lat="45.727817164406225" lon="8.516351498767351"><ele>353.0</ele><time>2026-05-02T09:07:15.986Z</time></trkpt><trkpt lat="45.727917430664135" lon="8.516193752675795"><ele>353.0</ele><time>2026-05-02T09:07:16.986Z</time></trkpt><trkpt lat="45.728000549979974" lon="8.51606297775903"><ele>354.0</ele><time>2026-05-02T09:07:17.986Z</time></trkpt><trkpt lat="45.72808840919338" lon="8.51592188603845"><ele>355.0</ele><time>2026-05-02T09:07:18.986Z</time></trkpt><trkpt lat="45.728171434877005" lon="8.515804414809992"><ele>356.0</ele><time>2026-05-02T09:07:19.986Z</time></trkpt><trkpt lat="45.72825295116131" lon="8.51569630118544"><ele>357.0</ele><time>2026-05-02T09:07:20.986Z</time></trkpt><trkpt lat="45.72832639404974" lon="8.515606588448918"><ele>357.0</ele><time>2026-05-02T09:07:21.986Z</time></trkpt><trkpt lat="45.72839888224298" lon="8.51552734838174"><ele>357.0</ele><time>2026-05-02T09:07:22.986Z</time></trkpt><trkpt lat="45.72848642454478" lon="8.51543849057128"><ele>357.0</ele><time>2026-05-02T09:07:23.986Z</time></trkpt><trkpt lat="45.72907041030185" lon="8.515958519494726"><ele>356.6666666666667</ele><time>2026-05-02T09:07:24.986Z</time></trkpt><trkpt lat="45.72922469211496" lon="8.515947454676278"><ele>356.33333333333337</ele><time>2026-05-02T09:07:25.986Z</time></trkpt><trkpt lat="45.72938387550783" lon="8.515949236916224"><ele>356.0</ele><time>2026-05-02T09:07:26.986Z</time></trkpt><trkpt lat="45.729553401143576" lon="8.515952233901018"><ele>355.0</ele><time>2026-05-02T09:07:27.986Z</time></trkpt><trkpt lat="45.72973764910181" lon="8.515962288111245"><ele>354.0</ele><time>2026-05-02T09:07:28.986Z</time></trkpt><trkpt lat="45.72991077564335" lon="8.51596994226208"><ele>353.0</ele><time>2026-05-02T09:07:29.986Z</time></trkpt><trkpt lat="45.73008117074348" lon="8.51597495083549"><ele>353.33333333333337</ele><time>2026-05-02T09:07:30.986Z</time></trkpt><trkpt lat="45.73026369672305" lon="8.515967726278253"><ele>353.6666666666667</ele><time>2026-05-02T09:07:31.986Z</time></trkpt><trkpt lat="45.7304346185895" lon="8.515949086704671"><ele>354.0</ele><time>2026-05-02T09:07:32.986Z</time></trkpt><trkpt lat="45.73058376334399" lon="8.515936647167667"><ele>354.0</ele><time>2026-05-02T09:07:33.986Z</time></trkpt><trkpt lat="45.7307456014004" lon="8.515930817262765"><ele>354.0</ele><time>2026-05-02T09:07:34.986Z</time></trkpt><trkpt lat="45.73089380670397" lon="8.515905793862936"><ele>354.0</ele><time>2026-05-02T09:07:35.986Z</time></trkpt><trkpt lat="45.73103478115766" lon="8.515874789330603"><ele>353.25</ele><time>2026-05-02T09:07:36.986Z</time></trkpt><trkpt lat="45.731161849573596" lon="8.515837286347587"><ele>352.5</ele><time>2026-05-02T09:07:37.986Z</time></trkpt><trkpt lat="45.73128830032443" lon="8.515816907970253"><ele>351.75</ele><time>2026-05-02T09:07:38.986Z</time></trkpt><trkpt lat="45.73141853210125" lon="8.515807749685539"><ele>351.0</ele><time>2026-05-02T09:07:39.986Z</time></trkpt><trkpt lat="45.73156623872933" lon="8.515794702771899"><ele>351.0</ele><time>2026-05-02T09:07:40.986Z</time></trkpt><trkpt lat="45.73170623259123" lon="8.515737541122473"><ele>351.0</ele><time>2026-05-02T09:07:41.986Z</time></trkpt><trkpt lat="45.73189150305668" lon="8.515681929657935"><ele>351.0</ele><time>2026-05-02T09:07:42.986Z</time></trkpt><trkpt lat="45.73205397121017" lon="8.515657133528409"><ele>350.25</ele><time>2026-05-02T09:07:43.986Z</time></trkpt><trkpt lat="45.73219852418813" lon="8.515650875555101"><ele>349.5</ele><time>2026-05-02T09:07:44.986Z</time></trkpt><trkpt lat="45.73234119904055" lon="8.515613207250029"><ele>348.75</ele><time>2026-05-02T09:07:45.986Z</time></trkpt><trkpt lat="45.73248824176297" lon="8.515565689482246"><ele>348.0</ele><time>2026-05-02T09:07:46.986Z</time></trkpt><trkpt lat="45.73262590119466" lon="8.51548932266977"><ele>348.0</ele><time>2026-05-02T09:07:47.986Z</time></trkpt><trkpt lat="45.73274629293869" lon="8.515426082712443"><ele>348.0</ele><time>2026-05-02T09:07:48.986Z</time></trkpt><trkpt lat="45.732884806321735" lon="8.515333271486405"><ele>348.0</ele><time>2026-05-02T09:07:49.986Z</time></trkpt><trkpt lat="45.733036580848015" lon="8.51525131010167"><ele>348.0</ele><time>2026-05-02T09:07:50.986Z</time></trkpt><trkpt lat="45.73317731521896" lon="8.515155982891924"><ele>348.0</ele><time>2026-05-02T09:07:51.986Z</time></trkpt><trkpt lat="45.73331417599307" lon="8.515084327176906"><ele>348.0</ele><time>2026-05-02T09:07:52.986Z</time></trkpt><trkpt lat="45.73344739356574" lon="8.515023498958668"><ele>348.0</ele><time>2026-05-02T09:07:53.986Z</time></trkpt><trkpt lat="45.73357454994615" lon="8.514940858816951"><ele>348.0</ele><time>2026-05-02T09:07:54.986Z</time></trkpt><trkpt lat="45.73369372293198" lon="8.514855274212783"><ele>346.2</ele><time>2026-05-02T09:07:55.986Z</time></trkpt><trkpt lat="45.73379474952065" lon="8.514762764979237"><ele>344.4</ele><time>2026-05-02T09:07:56.986Z</time></trkpt><trkpt lat="45.73386521201359" lon="8.51466582479352"><ele>342.59999999999997</ele><time>2026-05-02T09:07:57.986Z</time></trkpt><trkpt lat="45.73393330650611" lon="8.514550281653891"><ele>340.79999999999995</ele><time>2026-05-02T09:07:58.986Z</time></trkpt><trkpt lat="45.733991766591316" lon="8.514442628364236"><ele>339.0</ele><time>2026-05-02T09:07:59.986Z</time></trkpt><trkpt lat="45.734039138881705" lon="8.514312122762567"><ele>339.0</ele><time>2026-05-02T09:08:00.986Z</time></trkpt><trkpt lat="45.73408252963874" lon="8.51415143984812"><ele>339.0</ele><time>2026-05-02T09:08:01.986Z</time></trkpt><trkpt lat="45.73414673192263" lon="8.513966312957706"><ele>339.0</ele><time>2026-05-02T09:08:02.986Z</time></trkpt><trkpt lat="45.7342281346478" lon="8.513830644395638"><ele>339.0</ele><time>2026-05-02T09:08:03.986Z</time></trkpt><trkpt lat="45.7343132987197" lon="8.5137167421657"><ele>338.5</ele><time>2026-05-02T09:08:04.986Z</time></trkpt><trkpt lat="45.73442701316259" lon="8.513595359309777"><ele>338.0</ele><time>2026-05-02T09:08:05.986Z</time></trkpt><trkpt lat="45.73452793962588" lon="8.513501436558629"><ele>337.5</ele><time>2026-05-02T09:08:06.986Z</time></trkpt><trkpt lat="45.73463059058967" lon="8.51347535510715"><ele>337.0</ele><time>2026-05-02T09:08:07.986Z</time></trkpt><trkpt lat="45.73475985092031" lon="8.51352413210033"><ele>337.0</ele><time>2026-05-02T09:08:08.986Z</time></trkpt><trkpt lat="45.73487589279193" lon="8.513446919884055"><ele>337.0</ele><time>2026-05-02T09:08:09.986Z</time></trkpt><trkpt lat="45.73500902144897" lon="8.513394516650509"><ele>337.0</ele><time>2026-05-02T09:08:10.986Z</time></trkpt><trkpt lat="45.735140412201375" lon="8.513313934600648"><ele>337.0</ele><time>2026-05-02T09:08:11.986Z</time></trkpt><trkpt lat="45.73529595051648" lon="8.513209384213903"><ele>337.0</ele><time>2026-05-02T09:08:12.986Z</time></trkpt><trkpt lat="45.735470802336124" lon="8.513125581635142"><ele>337.0</ele><time>2026-05-02T09:08:13.986Z</time></trkpt><trkpt lat="45.73564236924192" lon="8.513020413092312"><ele>337.0</ele><time>2026-05-02T09:08:14.986Z</time></trkpt><trkpt lat="45.73582303139062" lon="8.512909669284854"><ele>337.3333333333333</ele><time>2026-05-02T09:08:15.986Z</time></trkpt><trkpt lat="45.736004933750294" lon="8.512814210814357"><ele>337.6666666666667</ele><time>2026-05-02T09:08:16.986Z</time></trkpt><trkpt lat="45.73616282141517" lon="8.512730636191487"><ele>338.0</ele><time>2026-05-02T09:08:17.986Z</time></trkpt><trkpt lat="45.73630987324849" lon="8.512652707382063"><ele>337.0</ele><time>2026-05-02T09:08:18.986Z</time></trkpt><trkpt lat="45.736453106433885" lon="8.512576802031491"><ele>336.0</ele><time>2026-05-02T09:08:19.986Z</time></trkpt><trkpt lat="45.73660552376677" lon="8.512496029682577"><ele>335.0</ele><time>2026-05-02T09:08:20.986Z</time></trkpt><trkpt lat="45.73678318163555" lon="8.512401881182095"><ele>335.33333333333337</ele><time>2026-05-02T09:08:21.986Z</time></trkpt><trkpt lat="45.736989773925316" lon="8.512300328146488"><ele>335.6666666666667</ele><time>2026-05-02T09:08:22.986Z</time></trkpt><trkpt lat="45.73719421121033" lon="8.512205323639927"><ele>336.0</ele><time>2026-05-02T09:08:23.986Z</time></trkpt><trkpt lat="45.737366607376785" lon="8.512130557699951"><ele>336.0</ele><time>2026-05-02T09:08:24.986Z</time></trkpt><trkpt lat="45.737504546980816" lon="8.512070735352298"><ele>336.0</ele><time>2026-05-02T09:08:25.986Z</time></trkpt><trkpt lat="45.73760749029874" lon="8.512026090320235"><ele>336.0</ele><time>2026-05-02T09:08:26.986Z</time></trkpt><trkpt lat="45.737673566163934" lon="8.511986322750797"><ele>336.0</ele><time>2026-05-02T09:08:27.986Z</time></trkpt><trkpt lat="45.737739866750616" lon="8.511908946239659"><ele>336.0</ele><time>2026-05-02T09:08:29.986Z</time></trkpt><trkpt lat="45.73773289126426" lon="8.51180600168991"><ele>336.5</ele><time>2026-05-02T09:08:30.986Z</time></trkpt><trkpt lat="45.737717521926314" lon="8.511700102292808"><ele>337.0</ele><time>2026-05-02T09:08:31.986Z</time></trkpt><trkpt lat="45.737705168089846" lon="8.51154525163635"><ele>337.5</ele><time>2026-05-02T09:08:32.986Z</time></trkpt><trkpt lat="45.73768686937892" lon="8.511393915609291"><ele>338.0</ele><time>2026-05-02T09:08:33.986Z</time></trkpt><trkpt lat="45.73767745774366" lon="8.51127628162022"><ele>338.5</ele><time>2026-05-02T09:08:34.986Z</time></trkpt><trkpt lat="45.737684580258374" lon="8.5111759865597"><ele>339.0</ele><time>2026-05-02T09:08:35.986Z</time></trkpt><trkpt lat="45.737688214327996" lon="8.511072995917315"><ele>338.8333333333333</ele><time>2026-05-02T09:08:36.986Z</time></trkpt><trkpt lat="45.73774264195948" lon="8.510980819271623"><ele>338.6666666666667</ele><time>2026-05-02T09:08:38.986Z</time></trkpt><trkpt lat="45.73779299901311" lon="8.511042300459883"><ele>338.5</ele><time>2026-05-02T09:08:39.986Z</time></trkpt><trkpt lat="45.737875923466085" lon="8.51105209089114"><ele>338.33333333333337</ele><time>2026-05-02T09:08:41.986Z</time></trkpt><trkpt lat="45.73793968061105" lon="8.51100874800147"><ele>338.1666666666667</ele><time>2026-05-02T09:08:43.986Z</time></trkpt><trkpt lat="45.73786872974531" lon="8.511027427858437"><ele>338.0</ele><time>2026-05-02T09:08:52.986Z</time></trkpt><trkpt lat="45.737786422649855" lon="8.511057259998678"><ele>338.0</ele><time>2026-05-02T09:08:54.986Z</time></trkpt><trkpt lat="45.73776553528979" lon="8.510969258036065"><ele>338.0</ele><time>2026-05-02T09:08:58.986Z</time></trkpt><trkpt lat="45.73789450853928" lon="8.510979585318111"><ele>338.0</ele><time>2026-05-02T09:10:44.984Z</time></trkpt><trkpt lat="45.73799574050367" lon="8.51096988364709"><ele>338.0</ele><time>2026-05-02T09:10:45.984Z</time></trkpt><trkpt lat="45.73806621575094" lon="8.510936909597872"><ele>338.0</ele><time>2026-05-02T09:10:46.984Z</time></trkpt><trkpt lat="45.738162421439895" lon="8.510917499012754"><ele>338.0</ele><time>2026-05-02T09:10:47.984Z</time></trkpt><trkpt lat="45.738267411984644" lon="8.510897949319059"><ele>338.0</ele><time>2026-05-02T09:10:48.984Z</time></trkpt><trkpt lat="45.73837361933508" lon="8.510881700455345"><ele>338.0</ele><time>2026-05-02T09:10:49.984Z</time></trkpt><trkpt lat="45.738470329352616" lon="8.510876710901984"><ele>338.0</ele><time>2026-05-02T09:10:50.984Z</time></trkpt><trkpt lat="45.73856286565929" lon="8.510846622088332"><ele>338.0</ele><time>2026-05-02T09:10:51.984Z</time></trkpt><trkpt lat="45.73862748296155" lon="8.510831061795972"><ele>338.0</ele><time>2026-05-02T09:10:52.984Z</time></trkpt><trkpt lat="45.73873097071986" lon="8.510794939177174"><ele>338.0</ele><time>2026-05-02T09:10:54.984Z</time></trkpt><trkpt lat="45.738790296270075" lon="8.51075900598289"><ele>338.0</ele><time>2026-05-02T09:10:57.984Z</time></trkpt><trkpt lat="45.73887099307586" lon="8.510703443055252"><ele>338.0</ele><time>2026-05-02T09:11:04.984Z</time></trkpt><trkpt lat="45.73900226018409" lon="8.51065812790916"><ele>338.0</ele><time>2026-05-02T09:11:06.984Z</time></trkpt><trkpt lat="45.73909231630974" lon="8.510648371996373"><ele>338.0</ele><time>2026-05-02T09:11:07.984Z</time></trkpt><trkpt lat="45.739203857611" lon="8.51063509992134"><ele>338.0</ele><time>2026-05-02T09:11:08.984Z</time></trkpt><trkpt lat="45.73933312080715" lon="8.510621389200319"><ele>338.0</ele><time>2026-05-02T09:11:09.984Z</time></trkpt><trkpt lat="45.73947310553299" lon="8.510608017638459"><ele>338.0</ele><time>2026-05-02T09:11:10.984Z</time></trkpt><trkpt lat="45.73961576200149" lon="8.510593058651114"><ele>338.25</ele><time>2026-05-02T09:11:11.984Z</time></trkpt><trkpt lat="45.739761419859" lon="8.510549032798489"><ele>338.5</ele><time>2026-05-02T09:11:12.984Z</time></trkpt><trkpt lat="45.73989001008863" lon="8.51047979882642"><ele>338.75</ele><time>2026-05-02T09:11:13.985Z</time></trkpt><trkpt lat="45.74001112431601" lon="8.510409542855717"><ele>339.0</ele><time>2026-05-02T09:11:14.985Z</time></trkpt><trkpt lat="45.740119328604244" lon="8.510336626503054"><ele>339.0</ele><time>2026-05-02T09:11:15.985Z</time></trkpt><trkpt lat="45.740215769995054" lon="8.510262755057507"><ele>339.0</ele><time>2026-05-02T09:11:16.984Z</time></trkpt><trkpt lat="45.74029287214048" lon="8.510169431505695"><ele>339.0</ele><time>2026-05-02T09:11:17.984Z</time></trkpt><trkpt lat="45.74039049579303" lon="8.510091208348904"><ele>339.0</ele><time>2026-05-02T09:11:18.984Z</time></trkpt><trkpt lat="45.740501299271024" lon="8.509999081557753"><ele>338.25</ele><time>2026-05-02T09:11:19.984Z</time></trkpt><trkpt lat="45.74060934758109" lon="8.50988396394445"><ele>337.5</ele><time>2026-05-02T09:11:20.984Z</time></trkpt><trkpt lat="45.740713800180025" lon="8.509750975068405"><ele>336.75</ele><time>2026-05-02T09:11:21.984Z</time></trkpt><trkpt lat="45.74080044006067" lon="8.509572673073428"><ele>336.0</ele><time>2026-05-02T09:11:22.984Z</time></trkpt><trkpt lat="45.74086846526604" lon="8.509412852946898"><ele>337.0</ele><time>2026-05-02T09:11:23.984Z</time></trkpt><trkpt lat="45.74093007916957" lon="8.509270095924965"><ele>338.0</ele><time>2026-05-02T09:11:24.984Z</time></trkpt><trkpt lat="45.7409871684215" lon="8.509137822127304"><ele>339.0</ele><time>2026-05-02T09:11:25.984Z</time></trkpt><trkpt lat="45.74104276229899" lon="8.50901494033398"><ele>340.0</ele><time>2026-05-02T09:11:26.984Z</time></trkpt><trkpt lat="45.741086021201205" lon="8.508923112800744"><ele>341.0</ele><time>2026-05-02T09:11:27.984Z</time></trkpt><trkpt lat="45.74113364782704" lon="8.508825472992845"><ele>341.6666666666667</ele><time>2026-05-02T09:11:28.984Z</time></trkpt><trkpt lat="45.74118938701071" lon="8.508732397375486"><ele>342.33333333333337</ele><time>2026-05-02T09:11:29.984Z</time></trkpt><trkpt lat="45.741261805980834" lon="8.508629122404242"><ele>343.0</ele><time>2026-05-02T09:11:30.984Z</time></trkpt><trkpt lat="45.741329966669404" lon="8.50854279258254"><ele>343.6666666666667</ele><time>2026-05-02T09:11:31.984Z</time></trkpt><trkpt lat="45.74139604353123" lon="8.508480526891322"><ele>344.3333333333333</ele><time>2026-05-02T09:11:32.984Z</time></trkpt><trkpt lat="45.741469692844746" lon="8.508443363935328"><ele>345.0</ele><time>2026-05-02T09:11:33.984Z</time></trkpt><trkpt lat="45.74155917823252" lon="8.50843398808711"><ele>345.0</ele><time>2026-05-02T09:11:34.984Z</time></trkpt><trkpt lat="45.74166230809996" lon="8.508416656732503"><ele>345.0</ele><time>2026-05-02T09:11:35.984Z</time></trkpt><trkpt lat="45.74178074388624" lon="8.508400037011784"><ele>345.0</ele><time>2026-05-02T09:11:36.984Z</time></trkpt><trkpt lat="45.741906013350736" lon="8.508382284586682"><ele>345.0</ele><time>2026-05-02T09:11:37.984Z</time></trkpt><trkpt lat="45.742043646745856" lon="8.508362780582038"><ele>345.0</ele><time>2026-05-02T09:11:38.984Z</time></trkpt><trkpt lat="45.74216323404433" lon="8.508365750171597"><ele>345.0</ele><time>2026-05-02T09:11:39.984Z</time></trkpt><trkpt lat="45.74228067903015" lon="8.508394129964083"><ele>345.0</ele><time>2026-05-02T09:11:40.984Z</time></trkpt><trkpt lat="45.74240566362911" lon="8.50843150266805"><ele>345.0</ele><time>2026-05-02T09:11:41.984Z</time></trkpt><trkpt lat="45.74251630951323" lon="8.508509846957125"><ele>345.0</ele><time>2026-05-02T09:11:42.984Z</time></trkpt><trkpt lat="45.742619994943745" lon="8.508570380774435"><ele>345.0</ele><time>2026-05-02T09:11:43.984Z</time></trkpt><trkpt lat="45.7427255279589" lon="8.508624504384542"><ele>345.0</ele><time>2026-05-02T09:11:44.984Z</time></trkpt><trkpt lat="45.74282761264958" lon="8.508733457372662"><ele>345.0</ele><time>2026-05-02T09:11:45.984Z</time></trkpt><trkpt lat="45.742958417487635" lon="8.508744584516185"><ele>345.0</ele><time>2026-05-02T09:11:46.984Z</time></trkpt><trkpt lat="45.743097683026996" lon="8.508730532452317"><ele>345.0</ele><time>2026-05-02T09:11:47.984Z</time></trkpt><trkpt lat="45.74322863911918" lon="8.508719532617905"><ele>345.0</ele><time>2026-05-02T09:11:48.984Z</time></trkpt><trkpt lat="45.743348991080026" lon="8.50870838462237"><ele>345.0</ele><time>2026-05-02T09:11:49.984Z</time></trkpt><trkpt lat="45.7434711607848" lon="8.508696370629444"><ele>344.8</ele><time>2026-05-02T09:11:50.984Z</time></trkpt><trkpt lat="45.74359228940553" lon="8.508683386463646"><ele>344.6</ele><time>2026-05-02T09:11:51.984Z</time></trkpt><trkpt lat="45.743707176006644" lon="8.508653386783468"><ele>344.4</ele><time>2026-05-02T09:11:52.984Z</time></trkpt><trkpt lat="45.743809624067275" lon="8.508584343002079"><ele>344.2</ele><time>2026-05-02T09:11:53.984Z</time></trkpt><trkpt lat="45.74387490508104" lon="8.508484709618994"><ele>344.0</ele><time>2026-05-02T09:11:54.984Z</time></trkpt><trkpt lat="45.743897872520485" lon="8.50836260643896"><ele>344.0</ele><time>2026-05-02T09:11:55.984Z</time></trkpt><trkpt lat="45.7439336078309" lon="8.508271601136471"><ele>344.0</ele><time>2026-05-02T09:11:56.984Z</time></trkpt><trkpt lat="45.743988967715126" lon="8.508166061197892"><ele>344.0</ele><time>2026-05-02T09:11:57.984Z</time></trkpt><trkpt lat="45.7440785764252" lon="8.508062037238563"><ele>344.0</ele><time>2026-05-02T09:11:58.984Z</time></trkpt><trkpt lat="45.74417792737519" lon="8.508001078609146"><ele>344.0</ele><time>2026-05-02T09:11:59.984Z</time></trkpt><trkpt lat="45.74430210103188" lon="8.507950881420678"><ele>344.4</ele><time>2026-05-02T09:12:00.984Z</time></trkpt><trkpt lat="45.74443725762705" lon="8.507958215921406"><ele>344.79999999999995</ele><time>2026-05-02T09:12:01.984Z</time></trkpt><trkpt lat="45.74453081428099" lon="8.507986137950713"><ele>345.20000000000005</ele><time>2026-05-02T09:12:02.984Z</time></trkpt><trkpt lat="45.74464676992554" lon="8.507984255366686"><ele>345.6</ele><time>2026-05-02T09:12:03.984Z</time></trkpt><trkpt lat="45.7447263955015" lon="8.507959979203559"><ele>346.0</ele><time>2026-05-02T09:12:04.984Z</time></trkpt><trkpt lat="45.744853903389604" lon="8.507950270812909"><ele>346.0</ele><time>2026-05-02T09:12:05.984Z</time></trkpt><trkpt lat="45.74501384729923" lon="8.507960418451034"><ele>346.0</ele><time>2026-05-02T09:12:06.984Z</time></trkpt><trkpt lat="45.74517799292663" lon="8.507977702051495"><ele>346.0</ele><time>2026-05-02T09:12:07.984Z</time></trkpt><trkpt lat="45.74532812570189" lon="8.508001736542774"><ele>346.5</ele><time>2026-05-02T09:12:08.984Z</time></trkpt><trkpt lat="45.745459171189786" lon="8.508034186334775"><ele>347.0</ele><time>2026-05-02T09:12:09.984Z</time></trkpt><trkpt lat="45.745582368032295" lon="8.508069247473326"><ele>347.5</ele><time>2026-05-02T09:12:10.984Z</time></trkpt><trkpt lat="45.745712100620636" lon="8.50810197666421"><ele>348.0</ele><time>2026-05-02T09:12:11.984Z</time></trkpt><trkpt lat="45.745848903171606" lon="8.50814940893162"><ele>348.0</ele><time>2026-05-02T09:12:12.984Z</time></trkpt><trkpt lat="45.74597555116178" lon="8.508246354576807"><ele>348.0</ele><time>2026-05-02T09:12:13.984Z</time></trkpt><trkpt lat="45.74608684022155" lon="8.50835290503132"><ele>348.0</ele><time>2026-05-02T09:12:14.984Z</time></trkpt><trkpt lat="45.7462074055349" lon="8.508424709711585"><ele>348.0</ele><time>2026-05-02T09:12:15.984Z</time></trkpt><trkpt lat="45.74633869009291" lon="8.508511441400618"><ele>347.75</ele><time>2026-05-02T09:12:16.984Z</time></trkpt><trkpt lat="45.74647324597595" lon="8.508632343013659"><ele>347.5</ele><time>2026-05-02T09:12:17.984Z</time></trkpt><trkpt lat="45.74659569273529" lon="8.508759114969427"><ele>347.25</ele><time>2026-05-02T09:12:18.984Z</time></trkpt><trkpt lat="45.7467015737526" lon="8.508882825724164"><ele>347.0</ele><time>2026-05-02T09:12:19.984Z</time></trkpt><trkpt lat="45.746792678058064" lon="8.509023725785944"><ele>346.25</ele><time>2026-05-02T09:12:20.984Z</time></trkpt><trkpt lat="45.74688263266543" lon="8.509172497529857"><ele>345.5</ele><time>2026-05-02T09:12:21.984Z</time></trkpt><trkpt lat="45.74697161320337" lon="8.509322201237994"><ele>344.75</ele><time>2026-05-02T09:12:22.984Z</time></trkpt><trkpt lat="45.747064502146394" lon="8.50947275671354"><ele>344.0</ele><time>2026-05-02T09:12:23.984Z</time></trkpt><trkpt lat="45.74717429853811" lon="8.509642539731646"><ele>344.0</ele><time>2026-05-02T09:12:24.984Z</time></trkpt><trkpt lat="45.74727045368917" lon="8.509807365141022"><ele>344.0</ele><time>2026-05-02T09:12:25.984Z</time></trkpt><trkpt lat="45.7473639223714" lon="8.509955679039432"><ele>344.0</ele><time>2026-05-02T09:12:26.984Z</time></trkpt><trkpt lat="45.747441295451395" lon="8.510091121455458"><ele>344.0</ele><time>2026-05-02T09:12:27.984Z</time></trkpt><trkpt lat="45.747543261928904" lon="8.510224102774638"><ele>344.0</ele><time>2026-05-02T09:12:28.984Z</time></trkpt><trkpt lat="45.74767118074538" lon="8.51038043494335"><ele>344.0</ele><time>2026-05-02T09:12:29.984Z</time></trkpt><trkpt lat="45.747817780300736" lon="8.510507804652782"><ele>344.0</ele><time>2026-05-02T09:12:30.984Z</time></trkpt><trkpt lat="45.74797141740745" lon="8.510633615133276"><ele>342.33333333333337</ele><time>2026-05-02T09:12:31.984Z</time></trkpt><trkpt lat="45.74812010182119" lon="8.510762587169523"><ele>340.6666666666667</ele><time>2026-05-02T09:12:32.984Z</time></trkpt><trkpt lat="45.7482690757327" lon="8.510892398508632"><ele>339.0</ele><time>2026-05-02T09:12:33.984Z</time></trkpt><trkpt lat="45.74840878357794" lon="8.511009336154173"><ele>339.0</ele><time>2026-05-02T09:12:34.984Z</time></trkpt><trkpt lat="45.74853821453899" lon="8.511115504026916"><ele>339.0</ele><time>2026-05-02T09:12:35.984Z</time></trkpt><trkpt lat="45.74866128712015" lon="8.511219034793218"><ele>339.0</ele><time>2026-05-02T09:12:36.984Z</time></trkpt><trkpt lat="45.748798415285755" lon="8.511336547889291"><ele>337.6666666666667</ele><time>2026-05-02T09:12:37.984Z</time></trkpt><trkpt lat="45.74893228697222" lon="8.511470180259835"><ele>336.33333333333337</ele><time>2026-05-02T09:12:38.984Z</time></trkpt><trkpt lat="45.74904351241689" lon="8.511625924691758"><ele>335.0</ele><time>2026-05-02T09:12:39.984Z</time></trkpt><trkpt lat="45.74915495102315" lon="8.511784050119914"><ele>335.0</ele><time>2026-05-02T09:12:40.984Z</time></trkpt><trkpt lat="45.749255674312685" lon="8.51194595589006"><ele>335.0</ele><time>2026-05-02T09:12:41.984Z</time></trkpt><trkpt lat="45.74934245247842" lon="8.512094991295308"><ele>335.0</ele><time>2026-05-02T09:12:42.984Z</time></trkpt><trkpt lat="45.74941421509957" lon="8.512232044438163"><ele>335.0</ele><time>2026-05-02T09:12:43.984Z</time></trkpt><trkpt lat="45.74947417330688" lon="8.51235948104317"><ele>335.25</ele><time>2026-05-02T09:12:44.984Z</time></trkpt><trkpt lat="45.74953426959459" lon="8.512485836160534"><ele>335.5</ele><time>2026-05-02T09:12:45.984Z</time></trkpt><trkpt lat="45.74959724252418" lon="8.512624927811414"><ele>335.75</ele><time>2026-05-02T09:12:46.984Z</time></trkpt><trkpt lat="45.7496650211645" lon="8.512774349039566"><ele>336.0</ele><time>2026-05-02T09:12:47.984Z</time></trkpt><trkpt lat="45.74974681679373" lon="8.512923626932126"><ele>336.0</ele><time>2026-05-02T09:12:48.984Z</time></trkpt><trkpt lat="45.7498125478752" lon="8.513093747255127"><ele>336.0</ele><time>2026-05-02T09:12:49.983Z</time></trkpt><trkpt lat="45.7498832267848" lon="8.513257742849689"><ele>336.0</ele><time>2026-05-02T09:12:50.983Z</time></trkpt><trkpt lat="45.749952164908855" lon="8.513406632985578"><ele>336.0</ele><time>2026-05-02T09:12:51.983Z</time></trkpt><trkpt lat="45.750015864748875" lon="8.513536391487298"><ele>336.0</ele><time>2026-05-02T09:12:52.983Z</time></trkpt><trkpt lat="45.750068238399" lon="8.513644834248362"><ele>336.0</ele><time>2026-05-02T09:12:53.983Z</time></trkpt><trkpt lat="45.750112005251744" lon="8.5137331260498"><ele>336.0</ele><time>2026-05-02T09:12:54.983Z</time></trkpt><trkpt lat="45.75021009908217" lon="8.513768542940557"><ele>336.0</ele><time>2026-05-02T09:12:56.983Z</time></trkpt><trkpt lat="45.75027630076248" lon="8.51369698490285"><ele>336.0</ele><time>2026-05-02T09:12:57.983Z</time></trkpt><trkpt lat="45.750337643073365" lon="8.513565032198708"><ele>336.25</ele><time>2026-05-02T09:12:58.983Z</time></trkpt><trkpt lat="45.750422726900695" lon="8.513424127884383"><ele>336.5</ele><time>2026-05-02T09:12:59.983Z</time></trkpt><trkpt lat="45.750521903179845" lon="8.513302775399676"><ele>336.75</ele><time>2026-05-02T09:13:00.983Z</time></trkpt><trkpt lat="45.75061485641892" lon="8.513165093645238"><ele>337.0</ele><time>2026-05-02T09:13:01.983Z</time></trkpt><trkpt lat="45.75069997814593" lon="8.513038881186407"><ele>337.0</ele><time>2026-05-02T09:13:02.983Z</time></trkpt><trkpt lat="45.75076698182206" lon="8.512912866722937"><ele>337.0</ele><time>2026-05-02T09:13:03.983Z</time></trkpt><trkpt lat="45.75083721197947" lon="8.512810435356066"><ele>337.0</ele><time>2026-05-02T09:13:04.983Z</time></trkpt><trkpt lat="45.75093427847495" lon="8.512757139843876"><ele>337.0</ele><time>2026-05-02T09:13:05.983Z</time></trkpt><trkpt lat="45.75105601601894" lon="8.512705608483307"><ele>337.0</ele><time>2026-05-02T09:13:06.983Z</time></trkpt><trkpt lat="45.75120118771759" lon="8.51267719425248"><ele>338.3333333333333</ele><time>2026-05-02T09:13:07.983Z</time></trkpt><trkpt lat="45.75134641212249" lon="8.512615716939742"><ele>339.6666666666667</ele><time>2026-05-02T09:13:08.983Z</time></trkpt><trkpt lat="45.751493656192466" lon="8.512551023320462"><ele>341.0</ele><time>2026-05-02T09:13:09.983Z</time></trkpt><trkpt lat="45.751652414054604" lon="8.512581921131039"><ele>341.0</ele><time>2026-05-02T09:13:10.983Z</time></trkpt><trkpt lat="45.75180496245595" lon="8.512532129595682"><ele>341.0</ele><time>2026-05-02T09:13:11.983Z</time></trkpt><trkpt lat="45.75195184899582" lon="8.512482800339843"><ele>341.0</ele><time>2026-05-02T09:13:12.983Z</time></trkpt><trkpt lat="45.75209545542611" lon="8.512434573270903"><ele>341.75</ele><time>2026-05-02T09:13:13.983Z</time></trkpt><trkpt lat="45.75223933461575" lon="8.512376511231217"><ele>342.5</ele><time>2026-05-02T09:13:14.983Z</time></trkpt><trkpt lat="45.75237701372596" lon="8.512312843474781"><ele>343.25</ele><time>2026-05-02T09:13:15.983Z</time></trkpt><trkpt lat="45.75250866281984" lon="8.512242893583169"><ele>344.0</ele><time>2026-05-02T09:13:16.983Z</time></trkpt><trkpt lat="45.752626837243575" lon="8.512177714865226"><ele>344.4</ele><time>2026-05-02T09:13:17.983Z</time></trkpt><trkpt lat="45.75273919551812" lon="8.51210266175465"><ele>344.79999999999995</ele><time>2026-05-02T09:13:18.983Z</time></trkpt><trkpt lat="45.7528444707418" lon="8.511973374719314"><ele>345.20000000000005</ele><time>2026-05-02T09:13:19.983Z</time></trkpt><trkpt lat="45.75292013690716" lon="8.511854820713785"><ele>345.6</ele><time>2026-05-02T09:13:20.983Z</time></trkpt><trkpt lat="45.75296519083537" lon="8.51178256405822"><ele>346.0</ele><time>2026-05-02T09:13:22.983Z</time></trkpt><trkpt lat="45.75303710026154" lon="8.511659560495604"><ele>346.25</ele><time>2026-05-02T09:13:26.983Z</time></trkpt><trkpt lat="45.753209501220994" lon="8.511882419763708"><ele>346.5</ele><time>2026-05-02T09:13:34.983Z</time></trkpt><trkpt lat="45.75327562005838" lon="8.511938141589088"><ele>346.75</ele><time>2026-05-02T09:13:36.983Z</time></trkpt><trkpt lat="45.75335801102751" lon="8.512004747316595"><ele>347.0</ele><time>2026-05-02T09:13:38.983Z</time></trkpt><trkpt lat="45.75343767916358" lon="8.512071842421824"><ele>343.5</ele><time>2026-05-02T09:13:40.983Z</time></trkpt><trkpt lat="45.75362844470814" lon="8.511774824076257"><ele>340.0</ele><time>2026-05-02T09:13:45.983Z</time></trkpt><trkpt lat="45.75367993860682" lon="8.51166157244567"><ele>336.5</ele><time>2026-05-02T09:13:48.983Z</time></trkpt><trkpt lat="45.753708444245945" lon="8.511576943686116"><ele>333.0</ele><time>2026-05-02T09:13:49.983Z</time></trkpt><trkpt lat="45.75374123839497" lon="8.511440514320315"><ele>333.0</ele><time>2026-05-02T09:13:51.983Z</time></trkpt><trkpt lat="45.75376659543066" lon="8.511356819210967"><ele>333.0</ele><time>2026-05-02T09:13:52.983Z</time></trkpt><trkpt lat="45.753798962853786" lon="8.511274600519837"><ele>333.0</ele><time>2026-05-02T09:13:53.983Z</time></trkpt><trkpt lat="45.753824563979485" lon="8.51117150549906"><ele>333.0</ele><time>2026-05-02T09:13:54.983Z</time></trkpt><trkpt lat="45.75386185964967" lon="8.51107715488346"><ele>333.0</ele><time>2026-05-02T09:13:55.983Z</time></trkpt><trkpt lat="45.75391497683481" lon="8.510948451272482"><ele>333.0</ele><time>2026-05-02T09:13:56.983Z</time></trkpt><trkpt lat="45.75395600749137" lon="8.510814343331614"><ele>332.79999999999995</ele><time>2026-05-02T09:13:57.983Z</time></trkpt><trkpt lat="45.75400563507786" lon="8.51068845116146"><ele>332.6</ele><time>2026-05-02T09:13:58.983Z</time></trkpt><trkpt lat="45.75404153012341" lon="8.510548164218239"><ele>332.4</ele><time>2026-05-02T09:13:59.983Z</time></trkpt><trkpt lat="45.75410517794719" lon="8.510441484362275"><ele>332.20000000000005</ele><time>2026-05-02T09:14:00.983Z</time></trkpt><trkpt lat="45.75414225535406" lon="8.51033852379395"><ele>332.0</ele><time>2026-05-02T09:14:01.983Z</time></trkpt><trkpt lat="45.754177633550164" lon="8.510206597813317"><ele>332.0</ele><time>2026-05-02T09:14:02.983Z</time></trkpt><trkpt lat="45.75419815349992" lon="8.510077668122271"><ele>332.0</ele><time>2026-05-02T09:14:03.983Z</time></trkpt><trkpt lat="45.75426825678082" lon="8.509972046069683"><ele>332.0</ele><time>2026-05-02T09:14:04.983Z</time></trkpt><trkpt lat="45.75434066246389" lon="8.509818928534845"><ele>332.0</ele><time>2026-05-02T09:14:05.983Z</time></trkpt><trkpt lat="45.75442584638669" lon="8.509633475645876"><ele>331.8</ele><time>2026-05-02T09:14:06.983Z</time></trkpt><trkpt lat="45.75447851507988" lon="8.509493341241233"><ele>331.6</ele><time>2026-05-02T09:14:07.983Z</time></trkpt><trkpt lat="45.754509583580294" lon="8.50934828018402"><ele>331.40000000000003</ele><time>2026-05-02T09:14:08.983Z</time></trkpt><trkpt lat="45.75453503809946" lon="8.509192381827836"><ele>331.20000000000005</ele><time>2026-05-02T09:14:09.983Z</time></trkpt><trkpt lat="45.75455174235468" lon="8.509066976752306"><ele>331.0</ele><time>2026-05-02T09:14:10.983Z</time></trkpt><trkpt lat="45.75455382552662" lon="8.508971718468752"><ele>331.0</ele><time>2026-05-02T09:14:11.983Z</time></trkpt><trkpt lat="45.75455267319983" lon="8.508768007474613"><ele>331.0</ele><time>2026-05-02T09:14:13.983Z</time></trkpt><trkpt lat="45.75456395139535" lon="8.508629274572039"><ele>331.0</ele><time>2026-05-02T09:14:14.983Z</time></trkpt><trkpt lat="45.7545772961053" lon="8.508472426849444"><ele>331.0</ele><time>2026-05-02T09:14:15.983Z</time></trkpt><trkpt lat="45.75462357246084" lon="8.50833825596772"><ele>331.75</ele><time>2026-05-02T09:14:16.983Z</time></trkpt><trkpt lat="45.75464500756411" lon="8.508172134405722"><ele>332.5</ele><time>2026-05-02T09:14:17.983Z</time></trkpt><trkpt lat="45.7546791991237" lon="8.508020247406314"><ele>333.25</ele><time>2026-05-02T09:14:18.983Z</time></trkpt><trkpt lat="45.754763875086006" lon="8.507849600409607"><ele>334.0</ele><time>2026-05-02T09:14:19.983Z</time></trkpt><trkpt lat="45.754840370199815" lon="8.507710588604152"><ele>335.0</ele><time>2026-05-02T09:14:20.983Z</time></trkpt><trkpt lat="45.754913127437426" lon="8.507556904000804"><ele>336.0</ele><time>2026-05-02T09:14:21.983Z</time></trkpt><trkpt lat="45.75498114885301" lon="8.507399588518838"><ele>337.0</ele><time>2026-05-02T09:14:22.983Z</time></trkpt><trkpt lat="45.75503009450646" lon="8.507230041101185"><ele>338.0</ele><time>2026-05-02T09:14:23.983Z</time></trkpt><trkpt lat="45.75503607784608" lon="8.50710074344733"><ele>339.0</ele><time>2026-05-02T09:14:24.983Z</time></trkpt><trkpt lat="45.754946175081365" lon="8.506978097515272"><ele>340.0</ele><time>2026-05-02T09:14:26.983Z</time></trkpt><trkpt lat="45.75488501083676" lon="8.506941734706873"><ele>341.0</ele><time>2026-05-02T09:14:28.983Z</time></trkpt><trkpt lat="45.75493111657192" lon="8.506873426394035"><ele>342.0</ele><time>2026-05-02T09:14:32.983Z</time></trkpt><trkpt lat="45.75495161736647" lon="8.506755745859225"><ele>343.0</ele><time>2026-05-02T09:14:34.983Z</time></trkpt><trkpt lat="45.75495300835026" lon="8.506661227900613"><ele>344.0</ele><time>2026-05-02T09:14:36.983Z</time></trkpt><trkpt lat="45.754971974506454" lon="8.506574011517467"><ele>344.0</ele><time>2026-05-02T09:14:37.983Z</time></trkpt><trkpt lat="45.754965773447964" lon="8.50641905562994"><ele>344.0</ele><time>2026-05-02T09:14:39.983Z</time></trkpt><trkpt lat="45.75496404733017" lon="8.5063228878788"><ele>344.0</ele><time>2026-05-02T09:14:40.983Z</time></trkpt><trkpt lat="45.75496117211556" lon="8.506203142859757"><ele>344.0</ele><time>2026-05-02T09:14:41.983Z</time></trkpt><trkpt lat="45.754969892731815" lon="8.506040738493072"><ele>344.0</ele><time>2026-05-02T09:14:43.983Z</time></trkpt><trkpt lat="45.75499774103333" lon="8.505949479638653"><ele>344.0</ele><time>2026-05-02T09:14:44.983Z</time></trkpt><trkpt lat="45.75501010250899" lon="8.505762554766953"><ele>343.0</ele><time>2026-05-02T09:14:46.983Z</time></trkpt><trkpt lat="45.75505048326418" lon="8.505610182118575"><ele>342.0</ele><time>2026-05-02T09:14:48.983Z</time></trkpt><trkpt lat="45.75511547663834" lon="8.50545830410388"><ele>341.0</ele><time>2026-05-02T09:14:50.983Z</time></trkpt><trkpt lat="45.75514480842563" lon="8.505376068871957"><ele>340.0</ele><time>2026-05-02T09:14:51.983Z</time></trkpt><trkpt lat="45.755167011150235" lon="8.505281903725155"><ele>339.0</ele><time>2026-05-02T09:14:52.983Z</time></trkpt><trkpt lat="45.755208872096375" lon="8.505160622417538"><ele>339.0</ele><time>2026-05-02T09:14:54.983Z</time></trkpt><trkpt lat="45.75520128517736" lon="8.505065567963733"><ele>339.0</ele><time>2026-05-02T09:14:56.983Z</time></trkpt><trkpt lat="45.75521862058946" lon="8.50492798822531"><ele>339.0</ele><time>2026-05-02T09:14:59.983Z</time></trkpt><trkpt lat="45.75524894110826" lon="8.50484272375102"><ele>339.0</ele><time>2026-05-02T09:15:00.983Z</time></trkpt><trkpt lat="45.755263358216204" lon="8.504710270470392"><ele>339.0</ele><time>2026-05-02T09:15:02.983Z</time></trkpt><trkpt lat="45.75534612024454" lon="8.504584987587284"><ele>339.0</ele><time>2026-05-02T09:15:04.983Z</time></trkpt><trkpt lat="45.755352298585585" lon="8.504415831107872"><ele>341.0</ele><time>2026-05-02T09:15:06.983Z</time></trkpt><trkpt lat="45.755373118322005" lon="8.50422279137867"><ele>343.0</ele><time>2026-05-02T09:15:08.983Z</time></trkpt><trkpt lat="45.755494624112416" lon="8.504266925471178"><ele>345.0</ele><time>2026-05-02T09:15:09.983Z</time></trkpt><trkpt lat="45.755502372734725" lon="8.50415341200481"><ele>347.0</ele><time>2026-05-02T09:15:11.983Z</time></trkpt><trkpt lat="45.755483727042346" lon="8.504061753182901"><ele>349.0</ele><time>2026-05-02T09:15:13.983Z</time></trkpt><trkpt lat="45.75542807318534" lon="8.503929155745842"><ele>349.0</ele><time>2026-05-02T09:15:15.983Z</time></trkpt><trkpt lat="45.755404371265584" lon="8.503831872399951"><ele>349.0</ele><time>2026-05-02T09:15:16.983Z</time></trkpt><trkpt lat="45.755390267279" lon="8.50372880333672"><ele>349.0</ele><time>2026-05-02T09:15:17.983Z</time></trkpt><trkpt lat="45.755392537302185" lon="8.503591137922323"><ele>349.0</ele><time>2026-05-02T09:15:18.983Z</time></trkpt><trkpt lat="45.75538015854992" lon="8.503464788329378"><ele>349.0</ele><time>2026-05-02T09:15:19.983Z</time></trkpt><trkpt lat="45.755383488554315" lon="8.503352857876994"><ele>349.0</ele><time>2026-05-02T09:15:20.983Z</time></trkpt><trkpt lat="45.755432142338556" lon="8.50324632856113"><ele>349.79999999999995</ele><time>2026-05-02T09:15:21.983Z</time></trkpt><trkpt lat="45.755503930142176" lon="8.503195193248683"><ele>350.59999999999997</ele><time>2026-05-02T09:15:22.982Z</time></trkpt><trkpt lat="45.755584306929826" lon="8.50311382680419"><ele>351.4</ele><time>2026-05-02T09:15:23.982Z</time></trkpt><trkpt lat="45.7556273029631" lon="8.50303443765721"><ele>352.2</ele><time>2026-05-02T09:15:24.982Z</time></trkpt><trkpt lat="45.75550875776983" lon="8.503133582276098"><ele>353.0</ele><time>2026-05-02T09:15:25.983Z</time></trkpt><trkpt lat="45.755561430770115" lon="8.503041823565994"><ele>353.0</ele><time>2026-05-02T09:15:27.982Z</time></trkpt><trkpt lat="45.7556001343354" lon="8.50295635730802"><ele>353.0</ele><time>2026-05-02T09:15:29.982Z</time></trkpt><trkpt lat="45.75564210906863" lon="8.502858265223624"><ele>353.0</ele><time>2026-05-02T09:15:32.982Z</time></trkpt><trkpt lat="45.75564028730904" lon="8.50274340059552"><ele>353.0</ele><time>2026-05-02T09:15:36.982Z</time></trkpt><trkpt lat="45.75565030387635" lon="8.502603680791761"><ele>353.0</ele><time>2026-05-02T09:15:39.982Z</time></trkpt><trkpt lat="45.755704295768595" lon="8.50255535498807"><ele>353.0</ele><time>2026-05-02T09:15:40.982Z</time></trkpt><trkpt lat="45.75588526496036" lon="8.502477908300675"><ele>352.5</ele><time>2026-05-02T09:15:42.982Z</time></trkpt><trkpt lat="45.75595421421414" lon="8.502443363037914"><ele>352.0</ele><time>2026-05-02T09:15:43.982Z</time></trkpt><trkpt lat="45.7560351816253" lon="8.50242158397489"><ele>351.5</ele><time>2026-05-02T09:15:45.982Z</time></trkpt><trkpt lat="45.75610608417831" lon="8.502393725581708"><ele>351.0</ele><time>2026-05-02T09:15:47.982Z</time></trkpt><trkpt lat="45.75620599979504" lon="8.502353798655518"><ele>350.5</ele><time>2026-05-02T09:15:48.982Z</time></trkpt><trkpt lat="45.75627538866185" lon="8.502287281443978"><ele>350.0</ele><time>2026-05-02T09:15:51.982Z</time></trkpt><trkpt lat="45.75615887963944" lon="8.501507866099294"><ele>350.0</ele><time>2026-05-02T09:15:52.982Z</time></trkpt><trkpt lat="45.756186519261206" lon="8.501398901012026"><ele>350.0</ele><time>2026-05-02T09:15:53.982Z</time></trkpt><trkpt lat="45.75610221020707" lon="8.501278686548186"><ele>350.0</ele><time>2026-05-02T09:15:55.982Z</time></trkpt><trkpt lat="45.75599829928133" lon="8.50128264883797"><ele>350.0</ele><time>2026-05-02T09:15:57.982Z</time></trkpt><trkpt lat="45.75591214442691" lon="8.501315390285162"><ele>350.0</ele><time>2026-05-02T09:15:59.982Z</time></trkpt><trkpt lat="45.75583248845759" lon="8.501334934081532"><ele>353.1666666666667</ele><time>2026-05-02T09:16:01.982Z</time></trkpt><trkpt lat="45.755755321258775" lon="8.501391548348895"><ele>356.33333333333337</ele><time>2026-05-02T09:16:04.982Z</time></trkpt><trkpt lat="45.755652140268396" lon="8.5014094966149"><ele>359.5</ele><time>2026-05-02T09:16:06.982Z</time></trkpt><trkpt lat="45.75556927905822" lon="8.501361762187866"><ele>362.6666666666667</ele><time>2026-05-02T09:16:07.982Z</time></trkpt><trkpt lat="45.75548358724166" lon="8.501350252718751"><ele>365.8333333333333</ele><time>2026-05-02T09:16:09.982Z</time></trkpt><trkpt lat="45.75541788164113" lon="8.501308964180126"><ele>369.0</ele><time>2026-05-02T09:16:13.982Z</time></trkpt><trkpt lat="45.7553850202953" lon="8.501167182614312"><ele>369.0</ele><time>2026-05-02T09:16:15.982Z</time></trkpt><trkpt lat="45.755414063597605" lon="8.50128856257944"><ele>369.0</ele><time>2026-05-02T09:16:23.982Z</time></trkpt><trkpt lat="45.7554548186962" lon="8.50137564030093"><ele>369.0</ele><time>2026-05-02T09:16:25.982Z</time></trkpt><trkpt lat="45.755531273935276" lon="8.501312564169044"><ele>369.0</ele><time>2026-05-02T09:16:27.982Z</time></trkpt><trkpt lat="45.755602113089616" lon="8.501099027859127"><ele>369.0</ele><time>2026-05-02T09:16:29.982Z</time></trkpt><trkpt lat="45.755646902487385" lon="8.500979733361698"><ele>368.6</ele><time>2026-05-02T09:16:30.981Z</time></trkpt><trkpt lat="45.75570889226033" lon="8.500893218280169"><ele>368.2</ele><time>2026-05-02T09:16:31.981Z</time></trkpt><trkpt lat="45.755851156326024" lon="8.500851858747678"><ele>367.8</ele><time>2026-05-02T09:16:33.981Z</time></trkpt><trkpt lat="45.75593925068299" lon="8.50085491455288"><ele>367.40000000000003</ele><time>2026-05-02T09:16:34.981Z</time></trkpt><trkpt lat="45.75604123987487" lon="8.500809604284305"><ele>367.0</ele><time>2026-05-02T09:16:36.981Z</time></trkpt><trkpt lat="45.75607862163874" lon="8.50070383393911"><ele>367.0</ele><time>2026-05-02T09:16:37.981Z</time></trkpt><trkpt lat="45.756142016679064" lon="8.500583745888425"><ele>367.0</ele><time>2026-05-02T09:16:38.981Z</time></trkpt><trkpt lat="45.75618497379967" lon="8.500495122767045"><ele>367.0</ele><time>2026-05-02T09:16:39.981Z</time></trkpt><trkpt lat="45.75624330625405" lon="8.500323847963942"><ele>367.0</ele><time>2026-05-02T09:16:41.981Z</time></trkpt><trkpt lat="45.75626189554007" lon="8.500206492102201"><ele>367.0</ele><time>2026-05-02T09:16:42.981Z</time></trkpt><trkpt lat="45.756289299348424" lon="8.500106423480887"><ele>370.75</ele><time>2026-05-02T09:16:43.981Z</time></trkpt><trkpt lat="45.75643283183857" lon="8.500065644409048"><ele>374.5</ele><time>2026-05-02T09:16:45.981Z</time></trkpt><trkpt lat="45.75654018146105" lon="8.500102876084654"><ele>378.25</ele><time>2026-05-02T09:16:46.981Z</time></trkpt><trkpt lat="45.75666246536671" lon="8.500148488485015"><ele>382.0</ele><time>2026-05-02T09:16:47.981Z</time></trkpt><trkpt lat="45.75677179910933" lon="8.500137346212702"><ele>378.8333333333333</ele><time>2026-05-02T09:16:48.981Z</time></trkpt><trkpt lat="45.75689787196382" lon="8.500138677257903"><ele>375.66666666666663</ele><time>2026-05-02T09:16:49.981Z</time></trkpt><trkpt lat="45.75695614415408" lon="8.500074271697576"><ele>372.5</ele><time>2026-05-02T09:16:50.981Z</time></trkpt><trkpt lat="45.75695954005857" lon="8.499969320599492"><ele>369.3333333333333</ele><time>2026-05-02T09:16:51.981Z</time></trkpt><trkpt lat="45.756974054965475" lon="8.49985218440092"><ele>366.1666666666667</ele><time>2026-05-02T09:16:52.981Z</time></trkpt><trkpt lat="45.75699439321862" lon="8.499754396529365"><ele>363.0</ele><time>2026-05-02T09:16:53.981Z</time></trkpt><trkpt lat="45.7570324766731" lon="8.499659899978209"><ele>363.0</ele><time>2026-05-02T09:16:54.981Z</time></trkpt><trkpt lat="45.75710373734326" lon="8.499611198069795"><ele>363.0</ele><time>2026-05-02T09:16:56.981Z</time></trkpt><trkpt lat="45.75721704393787" lon="8.499533866568802"><ele>363.0</ele><time>2026-05-02T09:16:58.981Z</time></trkpt><trkpt lat="45.75727774496101" lon="8.499468194179727"><ele>363.0</ele><time>2026-05-02T09:16:59.981Z</time></trkpt><trkpt lat="45.75734781330499" lon="8.499363443751665"><ele>363.0</ele><time>2026-05-02T09:17:00.981Z</time></trkpt><trkpt lat="45.75738681184534" lon="8.49920294744732"><ele>365.3333333333333</ele><time>2026-05-02T09:17:02.981Z</time></trkpt><trkpt lat="45.75742880269544" lon="8.499109769123542"><ele>367.6666666666667</ele><time>2026-05-02T09:17:03.981Z</time></trkpt><trkpt lat="45.75747989268236" lon="8.499029745312722"><ele>370.0</ele><time>2026-05-02T09:17:04.981Z</time></trkpt><trkpt lat="45.75754773442455" lon="8.498936470545354"><ele>372.33333333333337</ele><time>2026-05-02T09:17:05.981Z</time></trkpt><trkpt lat="45.75760562653476" lon="8.498844960083947"><ele>374.6666666666667</ele><time>2026-05-02T09:17:06.981Z</time></trkpt><trkpt lat="45.75766235843938" lon="8.498759388145318"><ele>377.0</ele><time>2026-05-02T09:17:07.981Z</time></trkpt><trkpt lat="45.75770988625675" lon="8.498649375269117"><ele>377.0</ele><time>2026-05-02T09:17:08.981Z</time></trkpt><trkpt lat="45.75779763510248" lon="8.498520691283991"><ele>377.0</ele><time>2026-05-02T09:17:09.981Z</time></trkpt><trkpt lat="45.757853062534025" lon="8.498377243300396"><ele>377.0</ele><time>2026-05-02T09:17:10.981Z</time></trkpt><trkpt lat="45.75789211419376" lon="8.49826729437499"><ele>377.0</ele><time>2026-05-02T09:17:11.981Z</time></trkpt><trkpt lat="45.75790697494578" lon="8.498161978352714"><ele>377.0</ele><time>2026-05-02T09:17:12.981Z</time></trkpt><trkpt lat="45.75791405776148" lon="8.498044619389503"><ele>377.0</ele><time>2026-05-02T09:17:13.981Z</time></trkpt><trkpt lat="45.75790799542457" lon="8.49792186179081"><ele>377.0</ele><time>2026-05-02T09:17:14.981Z</time></trkpt><trkpt lat="45.75792065100653" lon="8.497796620081838"><ele>377.0</ele><time>2026-05-02T09:17:15.981Z</time></trkpt><trkpt lat="45.757939346572805" lon="8.497666277516139"><ele>377.0</ele><time>2026-05-02T09:17:16.981Z</time></trkpt><trkpt lat="45.75794509545814" lon="8.49753293305396"><ele>377.0</ele><time>2026-05-02T09:17:17.981Z</time></trkpt><trkpt lat="45.75796255776741" lon="8.4974329421434"><ele>377.0</ele><time>2026-05-02T09:17:18.981Z</time></trkpt><trkpt lat="45.75799966067766" lon="8.497346058003032"><ele>379.6</ele><time>2026-05-02T09:17:19.981Z</time></trkpt><trkpt lat="45.75803924353666" lon="8.497263876798211"><ele>382.20000000000005</ele><time>2026-05-02T09:17:20.981Z</time></trkpt><trkpt lat="45.758095811936954" lon="8.497172866050303"><ele>384.8</ele><time>2026-05-02T09:17:21.981Z</time></trkpt><trkpt lat="45.7581616661156" lon="8.497051450121779"><ele>387.4</ele><time>2026-05-02T09:17:22.981Z</time></trkpt><trkpt lat="45.75824685115655" lon="8.496885319740718"><ele>390.0</ele><time>2026-05-02T09:17:23.981Z</time></trkpt><trkpt lat="45.75832506552223" lon="8.496710670450623"><ele>388.8</ele><time>2026-05-02T09:17:24.981Z</time></trkpt><trkpt lat="45.75839856006794" lon="8.496634716247694"><ele>387.6</ele><time>2026-05-02T09:17:25.981Z</time></trkpt><trkpt lat="45.75847859628069" lon="8.4965687820448"><ele>386.4</ele><time>2026-05-02T09:17:26.981Z</time></trkpt><trkpt lat="45.75859459081054" lon="8.496447574793692"><ele>385.2</ele><time>2026-05-02T09:17:27.981Z</time></trkpt><trkpt lat="45.75869667831931" lon="8.496359827134768"><ele>384.0</ele><time>2026-05-02T09:17:28.981Z</time></trkpt><trkpt lat="45.75877469347152" lon="8.4962958058466"><ele>384.0</ele><time>2026-05-02T09:17:29.981Z</time></trkpt><trkpt lat="45.75883426931043" lon="8.496255871572163"><ele>384.0</ele><time>2026-05-02T09:17:31.982Z</time></trkpt><trkpt lat="45.758908073827435" lon="8.496136571986927"><ele>384.0</ele><time>2026-05-02T09:17:38.981Z</time></trkpt><trkpt lat="45.75898501777203" lon="8.496043389812456"><ele>384.0</ele><time>2026-05-02T09:18:00.981Z</time></trkpt><trkpt lat="45.759036560726834" lon="8.495967136498203"><ele>384.0</ele><time>2026-05-02T09:18:38.981Z</time></trkpt><trkpt lat="45.759089577708686" lon="8.495895066926462"><ele>384.0</ele><time>2026-05-02T09:18:40.981Z</time></trkpt><trkpt lat="45.759136428819325" lon="8.495791892833722"><ele>382.85714285714283</ele><time>2026-05-02T09:18:42.981Z</time></trkpt><trkpt lat="45.759184832611794" lon="8.495723288347957"><ele>381.7142857142857</ele><time>2026-05-02T09:18:46.981Z</time></trkpt><trkpt lat="45.75924169733469" lon="8.495658055967978"><ele>380.57142857142856</ele><time>2026-05-02T09:19:01.981Z</time></trkpt><trkpt lat="45.759311697338504" lon="8.495662092977774"><ele>379.42857142857144</ele><time>2026-05-02T09:19:04.981Z</time></trkpt><trkpt lat="45.75939594545671" lon="8.49561166653859"><ele>378.2857142857143</ele><time>2026-05-02T09:19:06.981Z</time></trkpt><trkpt lat="45.75945593725997" lon="8.495572837260571"><ele>377.1428571428571</ele><time>2026-05-02T09:19:07.981Z</time></trkpt><trkpt lat="45.759524206987656" lon="8.495521991580711"><ele>376.0</ele><time>2026-05-02T09:19:08.981Z</time></trkpt><trkpt lat="45.759593546749684" lon="8.49546164931072"><ele>376.0</ele><time>2026-05-02T09:19:10.981Z</time></trkpt><trkpt lat="45.75962005948974" lon="8.495556908242692"><ele>376.0</ele><time>2026-05-02T09:19:14.981Z</time></trkpt><trkpt lat="45.75959677202267" lon="8.495665346795775"><ele>376.0</ele><time>2026-05-02T09:19:17.981Z</time></trkpt><trkpt lat="45.75958623113852" lon="8.495756639824599"><ele>376.0</ele><time>2026-05-02T09:19:19.981Z</time></trkpt><trkpt lat="45.759680636659176" lon="8.495751303894437"><ele>376.0</ele><time>2026-05-02T09:19:22.981Z</time></trkpt><trkpt lat="45.75975034937652" lon="8.49571458168243"><ele>376.0</ele><time>2026-05-02T09:19:23.981Z</time></trkpt><trkpt lat="45.75983236953515" lon="8.495650290482692"><ele>376.0</ele><time>2026-05-02T09:19:25.981Z</time></trkpt><trkpt lat="45.75990016387526" lon="8.495620677537124"><ele>376.0</ele><time>2026-05-02T09:19:28.981Z</time></trkpt><trkpt lat="45.759983554852155" lon="8.495659817284992"><ele>376.0</ele><time>2026-05-02T09:19:31.981Z</time></trkpt><trkpt lat="45.75997914756939" lon="8.495763965767118"><ele>376.0</ele><time>2026-05-02T09:19:37.98Z</time></trkpt><trkpt lat="45.75994278594776" lon="8.495860785497323"><ele>376.0</ele><time>2026-05-02T09:19:39.98Z</time></trkpt><trkpt lat="45.759877786461864" lon="8.495925871849078"><ele>376.0</ele><time>2026-05-02T09:19:41.98Z</time></trkpt><trkpt lat="45.759825372121185" lon="8.496000677930779"><ele>376.0</ele><time>2026-05-02T09:19:43.981Z</time></trkpt><trkpt lat="45.75976641892068" lon="8.496078464186953"><ele>376.0</ele><time>2026-05-02T09:19:45.98Z</time></trkpt><trkpt lat="45.75974151607098" lon="8.496169419422802"><ele>376.0</ele><time>2026-05-02T09:19:49.981Z</time></trkpt><trkpt lat="45.759786450951566" lon="8.49623433656339"><ele>376.0</ele><time>2026-05-02T09:19:54.981Z</time></trkpt><trkpt lat="45.75981595515554" lon="8.496323416612396"><ele>376.0</ele><time>2026-05-02T09:20:00.98Z</time></trkpt><trkpt lat="45.75985197719932" lon="8.496407069403684"><ele>376.0</ele><time>2026-05-02T09:20:03.98Z</time></trkpt><trkpt lat="45.75991438691494" lon="8.49637431996097"><ele>376.0</ele><time>2026-05-02T09:20:07.98Z</time></trkpt><trkpt lat="45.75997599049994" lon="8.496284588353387"><ele>372.8</ele><time>2026-05-02T09:20:10.98Z</time></trkpt><trkpt lat="45.76002631768348" lon="8.49637541281289"><ele>369.6</ele><time>2026-05-02T09:20:14.98Z</time></trkpt><trkpt lat="45.75999608763283" lon="8.496532175883628"><ele>366.4</ele><time>2026-05-02T09:20:16.98Z</time></trkpt><trkpt lat="45.759938332269726" lon="8.496660606004534"><ele>363.2</ele><time>2026-05-02T09:20:18.98Z</time></trkpt><trkpt lat="45.76000864275904" lon="8.496730399268673"><ele>360.0</ele><time>2026-05-02T09:20:21.98Z</time></trkpt><trkpt lat="45.760075132394775" lon="8.496693463255083"><ele>360.0</ele><time>2026-05-02T09:20:23.98Z</time></trkpt><trkpt lat="45.760147623138515" lon="8.496712729782328"><ele>360.0</ele><time>2026-05-02T09:20:27.98Z</time></trkpt><trkpt lat="45.76021404151778" lon="8.496702011744516"><ele>360.0</ele><time>2026-05-02T09:20:31.98Z</time></trkpt><trkpt lat="45.76030519204017" lon="8.496693795293755"><ele>360.0</ele><time>2026-05-02T09:20:34.98Z</time></trkpt><trkpt lat="45.760409673076865" lon="8.496685265228622"><ele>360.0</ele><time>2026-05-02T09:20:36.98Z</time></trkpt><trkpt lat="45.76051006500437" lon="8.49674103812918"><ele>360.0</ele><time>2026-05-02T09:20:38.98Z</time></trkpt><trkpt lat="45.760520446803454" lon="8.496865614050812"><ele>358.0</ele><time>2026-05-02T09:20:41.98Z</time></trkpt><trkpt lat="45.76056875460231" lon="8.496932285334285"><ele>356.0</ele><time>2026-05-02T09:20:44.98Z</time></trkpt><trkpt lat="45.76063769454623" lon="8.496983870040934"><ele>354.0</ele><time>2026-05-02T09:20:46.98Z</time></trkpt><trkpt lat="45.76066958788993" lon="8.49706439753891"><ele>352.0</ele><time>2026-05-02T09:20:48.98Z</time></trkpt><trkpt lat="45.7607132121315" lon="8.497129956799993"><ele>350.0</ele><time>2026-05-02T09:20:51.98Z</time></trkpt><trkpt lat="45.76077964480498" lon="8.497120964197569"><ele>348.0</ele><time>2026-05-02T09:20:55.98Z</time></trkpt><trkpt lat="45.760845677835405" lon="8.49708233069474"><ele>346.0</ele><time>2026-05-02T09:20:57.98Z</time></trkpt><trkpt lat="45.76091840343173" lon="8.497113579185966"><ele>345.0</ele><time>2026-05-02T09:20:59.98Z</time></trkpt><trkpt lat="45.76102758219372" lon="8.497182090610176"><ele>344.0</ele><time>2026-05-02T09:21:01.98Z</time></trkpt><trkpt lat="45.76114242638365" lon="8.497222450551497"><ele>343.0</ele><time>2026-05-02T09:21:03.98Z</time></trkpt><trkpt lat="45.76121855244076" lon="8.497208952586542"><ele>342.0</ele><time>2026-05-02T09:21:04.98Z</time></trkpt><trkpt lat="45.761298248710276" lon="8.497177060884777"><ele>341.0</ele><time>2026-05-02T09:21:05.98Z</time></trkpt><trkpt lat="45.76139267578719" lon="8.497129318384054"><ele>341.0</ele><time>2026-05-02T09:21:06.98Z</time></trkpt><trkpt lat="45.761467661466845" lon="8.497079059077768"><ele>341.0</ele><time>2026-05-02T09:21:07.98Z</time></trkpt><trkpt lat="45.761559118847416" lon="8.496993548085303"><ele>341.0</ele><time>2026-05-02T09:21:08.98Z</time></trkpt><trkpt lat="45.76164461089872" lon="8.496914891990956"><ele>341.0</ele><time>2026-05-02T09:21:09.98Z</time></trkpt><trkpt lat="45.761754149909194" lon="8.496849746206177"><ele>341.0</ele><time>2026-05-02T09:21:10.98Z</time></trkpt><trkpt lat="45.76190949302485" lon="8.496786215224136"><ele>340.75</ele><time>2026-05-02T09:21:11.98Z</time></trkpt><trkpt lat="45.76206093733048" lon="8.496721986440251"><ele>340.5</ele><time>2026-05-02T09:21:12.98Z</time></trkpt><trkpt lat="45.762176593804185" lon="8.496650582181438"><ele>340.25</ele><time>2026-05-02T09:21:13.98Z</time></trkpt><trkpt lat="45.76232649836407" lon="8.49659916494599"><ele>340.0</ele><time>2026-05-02T09:21:14.98Z</time></trkpt><trkpt lat="45.76244313254074" lon="8.496552556138411"><ele>340.0</ele><time>2026-05-02T09:21:15.98Z</time></trkpt><trkpt lat="45.762565847438125" lon="8.496467911508338"><ele>340.0</ele><time>2026-05-02T09:21:16.98Z</time></trkpt><trkpt lat="45.76266355469501" lon="8.496394025061786"><ele>340.0</ele><time>2026-05-02T09:21:17.98Z</time></trkpt><trkpt lat="45.76272620631552" lon="8.496376583275302"><ele>340.0</ele><time>2026-05-02T09:21:18.98Z</time></trkpt><trkpt lat="45.76279395386287" lon="8.496375158581078"><ele>340.0</ele><time>2026-05-02T09:21:20.98Z</time></trkpt><trkpt lat="45.762865631154185" lon="8.496425704854664"><ele>341.0</ele><time>2026-05-02T09:21:22.98Z</time></trkpt><trkpt lat="45.762917257006166" lon="8.496487798301839"><ele>342.0</ele><time>2026-05-02T09:21:24.98Z</time></trkpt><trkpt lat="45.763007704697394" lon="8.496489223830299"><ele>343.0</ele><time>2026-05-02T09:21:27.98Z</time></trkpt><trkpt lat="45.763124477224" lon="8.49643368992791"><ele>344.0</ele><time>2026-05-02T09:21:29.98Z</time></trkpt><trkpt lat="45.76320775234086" lon="8.496381343103101"><ele>345.0</ele><time>2026-05-02T09:21:30.98Z</time></trkpt><trkpt lat="45.7633128909131" lon="8.49629671293124"><ele>345.0</ele><time>2026-05-02T09:21:31.98Z</time></trkpt><trkpt lat="45.763447609639705" lon="8.49617135696448"><ele>345.0</ele><time>2026-05-02T09:21:32.98Z</time></trkpt><trkpt lat="45.76358879816099" lon="8.496048955200374"><ele>345.0</ele><time>2026-05-02T09:21:33.98Z</time></trkpt><trkpt lat="45.76371784665221" lon="8.495964387311519"><ele>346.25</ele><time>2026-05-02T09:21:34.98Z</time></trkpt><trkpt lat="45.763832659095954" lon="8.495872010517243"><ele>347.5</ele><time>2026-05-02T09:21:35.98Z</time></trkpt><trkpt lat="45.763965311525546" lon="8.495803951530585"><ele>348.75</ele><time>2026-05-02T09:21:36.98Z</time></trkpt><trkpt lat="45.76409687241352" lon="8.49572797754574"><ele>350.0</ele><time>2026-05-02T09:21:37.98Z</time></trkpt><trkpt lat="45.764212277097656" lon="8.495633527517654"><ele>350.0</ele><time>2026-05-02T09:21:38.98Z</time></trkpt><trkpt lat="45.76433491566242" lon="8.495533957590641"><ele>350.0</ele><time>2026-05-02T09:21:39.98Z</time></trkpt><trkpt lat="45.764473561592" lon="8.495449878162662"><ele>350.0</ele><time>2026-05-02T09:21:40.98Z</time></trkpt><trkpt lat="45.764625123781784" lon="8.495351414507287"><ele>350.0</ele><time>2026-05-02T09:21:41.98Z</time></trkpt><trkpt lat="45.76480614554455" lon="8.495253403916504"><ele>350.0</ele><time>2026-05-02T09:21:42.981Z</time></trkpt><trkpt lat="45.7649831541621" lon="8.495161399128442"><ele>350.0</ele><time>2026-05-02T09:21:43.981Z</time></trkpt><trkpt lat="45.765120838547986" lon="8.495081313145091"><ele>351.8</ele><time>2026-05-02T09:21:44.981Z</time></trkpt><trkpt lat="45.765206594730046" lon="8.495008918493749"><ele>353.6</ele><time>2026-05-02T09:21:45.98Z</time></trkpt><trkpt lat="45.76528081050233" lon="8.494926122482916"><ele>355.4</ele><time>2026-05-02T09:21:47.98Z</time></trkpt><trkpt lat="45.765302348853744" lon="8.494810225514403"><ele>357.2</ele><time>2026-05-02T09:21:48.98Z</time></trkpt><trkpt lat="45.765328825917564" lon="8.494667383177722"><ele>359.0</ele><time>2026-05-02T09:21:49.98Z</time></trkpt><trkpt lat="45.765399846598264" lon="8.494560275476815"><ele>359.0</ele><time>2026-05-02T09:21:50.98Z</time></trkpt><trkpt lat="45.765464153916525" lon="8.494481836579956"><ele>359.0</ele><time>2026-05-02T09:21:51.98Z</time></trkpt><trkpt lat="45.765530610534235" lon="8.494384183783309"><ele>359.0</ele><time>2026-05-02T09:21:52.98Z</time></trkpt><trkpt lat="45.765621533258894" lon="8.494305390144868"><ele>359.0</ele><time>2026-05-02T09:21:53.98Z</time></trkpt><trkpt lat="45.76571446548253" lon="8.49422158069222"><ele>359.0</ele><time>2026-05-02T09:21:54.98Z</time></trkpt><trkpt lat="45.76582453465716" lon="8.494197388079408"><ele>359.0</ele><time>2026-05-02T09:21:55.98Z</time></trkpt><trkpt lat="45.76593804415353" lon="8.494202502913849"><ele>359.0</ele><time>2026-05-02T09:21:56.98Z</time></trkpt><trkpt lat="45.76605507613097" lon="8.494190076332545"><ele>359.0</ele><time>2026-05-02T09:21:57.98Z</time></trkpt><trkpt lat="45.76618993940009" lon="8.494166179828731"><ele>359.0</ele><time>2026-05-02T09:21:58.98Z</time></trkpt><trkpt lat="45.766345096259926" lon="8.49410125474517"><ele>359.79999999999995</ele><time>2026-05-02T09:21:59.98Z</time></trkpt><trkpt lat="45.76644342726723" lon="8.494056263284573"><ele>360.59999999999997</ele><time>2026-05-02T09:22:00.98Z</time></trkpt><trkpt lat="45.76651911497555" lon="8.494053476159095"><ele>361.4</ele><time>2026-05-02T09:22:01.98Z</time></trkpt><trkpt lat="45.76660899883961" lon="8.494081961235764"><ele>362.2</ele><time>2026-05-02T09:22:02.98Z</time></trkpt><trkpt lat="45.766736029809586" lon="8.494119805536155"><ele>363.0</ele><time>2026-05-02T09:22:03.98Z</time></trkpt><trkpt lat="45.76688779776563" lon="8.494151706402564"><ele>363.0</ele><time>2026-05-02T09:22:04.98Z</time></trkpt><trkpt lat="45.76705547689796" lon="8.494175375817838"><ele>363.0</ele><time>2026-05-02T09:22:05.98Z</time></trkpt><trkpt lat="45.76722418084373" lon="8.494185066529829"><ele>363.0</ele><time>2026-05-02T09:22:06.98Z</time></trkpt><trkpt lat="45.76738110860931" lon="8.494210544627082"><ele>363.0</ele><time>2026-05-02T09:22:07.98Z</time></trkpt><trkpt lat="45.767492285163726" lon="8.494231831619665"><ele>363.0</ele><time>2026-05-02T09:22:08.98Z</time></trkpt><trkpt lat="45.76757175550593" lon="8.494241886886627"><ele>363.0</ele><time>2026-05-02T09:22:09.98Z</time></trkpt><trkpt lat="45.76766221921453" lon="8.49422311739865"><ele>363.0</ele><time>2026-05-02T09:22:10.98Z</time></trkpt><trkpt lat="45.76777369041482" lon="8.49419647461581"><ele>363.0</ele><time>2026-05-02T09:22:11.98Z</time></trkpt><trkpt lat="45.76790385511249" lon="8.49422299656266"><ele>361.0</ele><time>2026-05-02T09:22:12.98Z</time></trkpt><trkpt lat="45.76805881786862" lon="8.494246165370996"><ele>359.0</ele><time>2026-05-02T09:22:13.98Z</time></trkpt><trkpt lat="45.76822719912492" lon="8.494265782627446"><ele>357.0</ele><time>2026-05-02T09:22:14.98Z</time></trkpt><trkpt lat="45.76841913381478" lon="8.494294761657418"><ele>356.5</ele><time>2026-05-02T09:22:15.98Z</time></trkpt><trkpt lat="45.768623718438675" lon="8.494316417668673"><ele>356.0</ele><time>2026-05-02T09:22:16.98Z</time></trkpt><trkpt lat="45.76887358785992" lon="8.494403070664566"><ele>356.0</ele><time>2026-05-02T09:22:17.98Z</time></trkpt><trkpt lat="45.76904686940853" lon="8.494373021046849"><ele>356.0</ele><time>2026-05-02T09:22:18.98Z</time></trkpt><trkpt lat="45.769157318563515" lon="8.494424096987824"><ele>356.0</ele><time>2026-05-02T09:22:19.98Z</time></trkpt><trkpt lat="45.7692953279166" lon="8.494422487565776"><ele>356.0</ele><time>2026-05-02T09:22:20.98Z</time></trkpt><trkpt lat="45.769424680543885" lon="8.494420767486107"><ele>356.83333333333337</ele><time>2026-05-02T09:22:21.979Z</time></trkpt><trkpt lat="45.76951346809962" lon="8.494442758353378"><ele>357.6666666666667</ele><time>2026-05-02T09:22:22.979Z</time></trkpt><trkpt lat="45.7695985401509" lon="8.494457446180578"><ele>358.5</ele><time>2026-05-02T09:22:23.979Z</time></trkpt><trkpt lat="45.76965942752657" lon="8.494481229767464"><ele>359.3333333333333</ele><time>2026-05-02T09:22:24.979Z</time></trkpt><trkpt lat="45.769726628115215" lon="8.494521312071283"><ele>360.16666666666663</ele><time>2026-05-02T09:22:25.979Z</time></trkpt><trkpt lat="45.76981129447677" lon="8.494563228432108"><ele>361.0</ele><time>2026-05-02T09:22:26.979Z</time></trkpt><trkpt lat="45.769890410895876" lon="8.494573121540048"><ele>361.0</ele><time>2026-05-02T09:22:27.979Z</time></trkpt><trkpt lat="45.76996064050912" lon="8.494487986183598"><ele>361.0</ele><time>2026-05-02T09:22:29.979Z</time></trkpt><trkpt lat="45.769997200411325" lon="8.494407222465561"><ele>361.0</ele><time>2026-05-02T09:22:31.979Z</time></trkpt><trkpt lat="45.770041549900235" lon="8.494338036331168"><ele>361.0</ele><time>2026-05-02T09:22:34.979Z</time></trkpt><trkpt lat="45.77009035452982" lon="8.49424599537781"><ele>361.0</ele><time>2026-05-02T09:22:36.979Z</time></trkpt><trkpt lat="45.77013501549725" lon="8.494160676162172"><ele>361.0</ele><time>2026-05-02T09:22:37.979Z</time></trkpt><trkpt lat="45.77015869409865" lon="8.494030991801784"><ele>361.0</ele><time>2026-05-02T09:22:39.979Z</time></trkpt><trkpt lat="45.77017570382679" lon="8.493849549376206"><ele>361.0</ele><time>2026-05-02T09:22:41.979Z</time></trkpt><trkpt lat="45.77020925646439" lon="8.493712322125885"><ele>361.0</ele><time>2026-05-02T09:22:42.979Z</time></trkpt><trkpt lat="45.77024627309854" lon="8.493576952772367"><ele>361.0</ele><time>2026-05-02T09:22:43.979Z</time></trkpt><trkpt lat="45.7702808537568" lon="8.49344948987745"><ele>361.0</ele><time>2026-05-02T09:22:44.979Z</time></trkpt><trkpt lat="45.77031366580621" lon="8.493306584426447"><ele>361.5</ele><time>2026-05-02T09:22:45.979Z</time></trkpt><trkpt lat="45.77034922782449" lon="8.493192628008874"><ele>362.0</ele><time>2026-05-02T09:22:46.979Z</time></trkpt><trkpt lat="45.770360271114455" lon="8.493083476124294"><ele>362.5</ele><time>2026-05-02T09:22:47.979Z</time></trkpt><trkpt lat="45.77035434077089" lon="8.492965536050466"><ele>363.0</ele><time>2026-05-02T09:22:48.979Z</time></trkpt><trkpt lat="45.77031119455602" lon="8.492833901144314"><ele>363.5</ele><time>2026-05-02T09:22:49.979Z</time></trkpt><trkpt lat="45.770328203719025" lon="8.492714560340897"><ele>364.0</ele><time>2026-05-02T09:22:51.979Z</time></trkpt><trkpt lat="45.770454504921844" lon="8.492795647074553"><ele>364.0</ele><time>2026-05-02T09:22:53.979Z</time></trkpt><trkpt lat="45.77054987782792" lon="8.492850060895424"><ele>364.0</ele><time>2026-05-02T09:22:54.979Z</time></trkpt><trkpt lat="45.77067669490694" lon="8.492935983066152"><ele>364.0</ele><time>2026-05-02T09:22:55.979Z</time></trkpt><trkpt lat="45.770786413085624" lon="8.493059499570478"><ele>364.0</ele><time>2026-05-02T09:22:56.979Z</time></trkpt><trkpt lat="45.7708698478474" lon="8.493125226291731"><ele>364.0</ele><time>2026-05-02T09:22:57.979Z</time></trkpt><trkpt lat="45.770937466423845" lon="8.493155946213367"><ele>364.0</ele><time>2026-05-02T09:22:58.979Z</time></trkpt><trkpt lat="45.77106632374387" lon="8.493003384086425"><ele>364.0</ele><time>2026-05-02T09:22:59.979Z</time></trkpt><trkpt lat="45.7711467627506" lon="8.493078810885564"><ele>364.0</ele><time>2026-05-02T09:23:01.979Z</time></trkpt><trkpt lat="45.77122179901122" lon="8.493161878780182"><ele>364.0</ele><time>2026-05-02T09:23:02.979Z</time></trkpt><trkpt lat="45.77130017027533" lon="8.493254442012034"><ele>364.0</ele><time>2026-05-02T09:23:03.979Z</time></trkpt><trkpt lat="45.77138219234592" lon="8.493357045400584"><ele>364.0</ele><time>2026-05-02T09:23:04.979Z</time></trkpt><trkpt lat="45.77146212311894" lon="8.493458390219471"><ele>364.0</ele><time>2026-05-02T09:23:05.979Z</time></trkpt><trkpt lat="45.7715326111895" lon="8.493550882478308"><ele>364.0</ele><time>2026-05-02T09:23:06.979Z</time></trkpt><trkpt lat="45.77161575263184" lon="8.493661295297459"><ele>364.0</ele><time>2026-05-02T09:23:08.979Z</time></trkpt><trkpt lat="45.77169203494699" lon="8.49376275437045"><ele>364.0</ele><time>2026-05-02T09:23:10.979Z</time></trkpt><trkpt lat="45.77176147479364" lon="8.493855285944887"><ele>364.0</ele><time>2026-05-02T09:23:12.979Z</time></trkpt><trkpt lat="45.77185239642217" lon="8.493976443049664"><ele>364.0</ele><time>2026-05-02T09:23:14.979Z</time></trkpt><trkpt lat="45.77178711535289" lon="8.493889453882339"><ele>364.0</ele><time>2026-05-02T09:23:19.979Z</time></trkpt><trkpt lat="45.77169960391759" lon="8.493772842234144"><ele>364.0</ele><time>2026-05-02T09:23:20.979Z</time></trkpt><trkpt lat="45.77156932300561" lon="8.493631167496138"><ele>364.6</ele><time>2026-05-02T09:23:21.979Z</time></trkpt><trkpt lat="45.771475979671564" lon="8.493476785206038"><ele>365.2</ele><time>2026-05-02T09:23:22.979Z</time></trkpt><trkpt lat="45.771416823504445" lon="8.49335632949257"><ele>365.8</ele><time>2026-05-02T09:23:23.979Z</time></trkpt><trkpt lat="45.771487510174936" lon="8.493379298163733"><ele>366.40000000000003</ele><time>2026-05-02T09:23:36.979Z</time></trkpt><trkpt lat="45.77154328407811" lon="8.493450013642137"><ele>367.0</ele><time>2026-05-02T09:23:43.979Z</time></trkpt><trkpt lat="45.77174584607651" lon="8.493355997965246"><ele>367.0</ele><time>2026-05-02T09:23:46.979Z</time></trkpt><trkpt lat="45.77180998816467" lon="8.493366983218138"><ele>367.0</ele><time>2026-05-02T09:23:47.98Z</time></trkpt><trkpt lat="45.77187654194106" lon="8.493370583386104"><ele>367.0</ele><time>2026-05-02T09:23:49.98Z</time></trkpt><trkpt lat="45.771930703821944" lon="8.493322562165629"><ele>367.0</ele><time>2026-05-02T09:23:52.98Z</time></trkpt><trkpt lat="45.77206491864439" lon="8.493315942128174"><ele>367.0</ele><time>2026-05-02T09:23:54.98Z</time></trkpt><trkpt lat="45.772135045836116" lon="8.49331407868325"><ele>367.0</ele><time>2026-05-02T09:23:55.98Z</time></trkpt><trkpt lat="45.77220562434585" lon="8.493306872889724"><ele>368.16666666666663</ele><time>2026-05-02T09:23:56.98Z</time></trkpt><trkpt lat="45.77226700631367" lon="8.493254249753766"><ele>369.3333333333333</ele><time>2026-05-02T09:23:57.98Z</time></trkpt><trkpt lat="45.772344320568806" lon="8.493143393571543"><ele>370.5</ele><time>2026-05-02T09:23:58.98Z</time></trkpt><trkpt lat="45.77244748493841" lon="8.493098540689203"><ele>371.6666666666667</ele><time>2026-05-02T09:23:59.98Z</time></trkpt><trkpt lat="45.77253824099976" lon="8.493074797883429"><ele>372.83333333333337</ele><time>2026-05-02T09:24:00.98Z</time></trkpt><trkpt lat="45.77260327267436" lon="8.493078619845456"><ele>374.0</ele><time>2026-05-02T09:24:01.98Z</time></trkpt><trkpt lat="45.77263763731656" lon="8.49295481292401"><ele>375.83333333333337</ele><time>2026-05-02T09:24:15.98Z</time></trkpt><trkpt lat="45.77269405400111" lon="8.492859219118682"><ele>377.6666666666667</ele><time>2026-05-02T09:24:19.98Z</time></trkpt><trkpt lat="45.772760122997155" lon="8.492881522801552"><ele>379.5</ele><time>2026-05-02T09:24:23.98Z</time></trkpt><trkpt lat="45.7728325134461" lon="8.492860646410298"><ele>381.33333333333337</ele><time>2026-05-02T09:24:27.98Z</time></trkpt><trkpt lat="45.77288272923429" lon="8.49278461751975"><ele>383.1666666666667</ele><time>2026-05-02T09:24:30.98Z</time></trkpt><trkpt lat="45.772961234867296" lon="8.492712202170269"><ele>385.0</ele><time>2026-05-02T09:24:33.98Z</time></trkpt><trkpt lat="45.77305258837746" lon="8.49271452161149"><ele>385.0</ele><time>2026-05-02T09:24:35.98Z</time></trkpt><trkpt lat="45.77314604984909" lon="8.492742581892106"><ele>385.0</ele><time>2026-05-02T09:24:37.98Z</time></trkpt><trkpt lat="45.77324071273217" lon="8.492670530526302"><ele>385.0</ele><time>2026-05-02T09:24:39.98Z</time></trkpt><trkpt lat="45.773322803618534" lon="8.4925773005935"><ele>385.0</ele><time>2026-05-02T09:24:41.98Z</time></trkpt><trkpt lat="45.77339994767254" lon="8.4925798686694"><ele>385.0</ele><time>2026-05-02T09:24:43.98Z</time></trkpt><trkpt lat="45.77349651422649" lon="8.492540798360583"><ele>386.33333333333337</ele><time>2026-05-02T09:24:45.98Z</time></trkpt><trkpt lat="45.773559049272784" lon="8.49251087296077"><ele>387.6666666666667</ele><time>2026-05-02T09:24:46.98Z</time></trkpt><trkpt lat="45.77366395264186" lon="8.492502048216933"><ele>389.0</ele><time>2026-05-02T09:24:48.98Z</time></trkpt><trkpt lat="45.77373819706172" lon="8.49253646644935"><ele>390.33333333333337</ele><time>2026-05-02T09:24:50.98Z</time></trkpt><trkpt lat="45.77385640534536" lon="8.4925059316427"><ele>391.6666666666667</ele><time>2026-05-02T09:24:52.98Z</time></trkpt><trkpt lat="45.77392481663415" lon="8.492510866164498"><ele>393.0</ele><time>2026-05-02T09:24:53.98Z</time></trkpt><trkpt lat="45.77398834794268" lon="8.492510372927581"><ele>393.0</ele><time>2026-05-02T09:24:54.98Z</time></trkpt><trkpt lat="45.774047694931006" lon="8.49247083577242"><ele>393.0</ele><time>2026-05-02T09:24:55.98Z</time></trkpt><trkpt lat="45.77415682090644" lon="8.492435573275436"><ele>393.0</ele><time>2026-05-02T09:24:57.98Z</time></trkpt><trkpt lat="45.774248270064966" lon="8.492370977595135"><ele>393.0</ele><time>2026-05-02T09:24:59.98Z</time></trkpt><trkpt lat="45.774319218362194" lon="8.492313498645004"><ele>393.0</ele><time>2026-05-02T09:25:00.98Z</time></trkpt><trkpt lat="45.77436224471774" lon="8.492220560943208"><ele>393.0</ele><time>2026-05-02T09:25:03.98Z</time></trkpt><trkpt lat="45.77442927808038" lon="8.492116864918131"><ele>396.4</ele><time>2026-05-02T09:25:05.98Z</time></trkpt><trkpt lat="45.77451437953255" lon="8.49205913985939"><ele>399.79999999999995</ele><time>2026-05-02T09:25:10.98Z</time></trkpt><trkpt lat="45.774583630109916" lon="8.491992571461159"><ele>403.2</ele><time>2026-05-02T09:25:12.98Z</time></trkpt><trkpt lat="45.77470806538497" lon="8.491907085144613"><ele>406.6</ele><time>2026-05-02T09:25:14.98Z</time></trkpt><trkpt lat="45.77482527015473" lon="8.491854762903795"><ele>410.0</ele><time>2026-05-02T09:25:16.98Z</time></trkpt><trkpt lat="45.77487522434411" lon="8.49191719925345"><ele>409.99999999999994</ele><time>2026-05-02T09:25:19.98Z</time></trkpt><trkpt lat="45.77488742906347" lon="8.492025225888808"><ele>410.0</ele><time>2026-05-02T09:25:22.98Z</time></trkpt><trkpt lat="45.774850534049165" lon="8.492166440084947"><ele>410.0</ele><time>2026-05-02T09:25:24.98Z</time></trkpt><trkpt lat="45.774810672658255" lon="8.492295601807072"><ele>410.0</ele><time>2026-05-02T09:25:26.98Z</time></trkpt><trkpt lat="45.774796692807186" lon="8.492429037679031"><ele>409.99999999999994</ele><time>2026-05-02T09:25:28.98Z</time></trkpt><trkpt lat="45.77479509613673" lon="8.492524261238312"><ele>410.0</ele><time>2026-05-02T09:25:29.98Z</time></trkpt><trkpt lat="45.774823844126104" lon="8.492636318311282"><ele>409.3333333333333</ele><time>2026-05-02T09:25:30.98Z</time></trkpt><trkpt lat="45.774841582191044" lon="8.492741897110228"><ele>408.66666666666663</ele><time>2026-05-02T09:25:31.98Z</time></trkpt><trkpt lat="45.77487712237078" lon="8.492826997115928"><ele>408.0</ele><time>2026-05-02T09:25:32.98Z</time></trkpt><trkpt lat="45.774934312423184" lon="8.492911085931091"><ele>407.33333333333337</ele><time>2026-05-02T09:25:33.98Z</time></trkpt><trkpt lat="45.774942364661634" lon="8.49305718666228"><ele>406.6666666666667</ele><time>2026-05-02T09:25:34.98Z</time></trkpt><trkpt lat="45.77500730523123" lon="8.493174232027904"><ele>406.0</ele><time>2026-05-02T09:25:35.98Z</time></trkpt><trkpt lat="45.775056588929715" lon="8.493232843672674"><ele>406.83333333333337</ele><time>2026-05-02T09:25:36.98Z</time></trkpt><trkpt lat="45.77508555783872" lon="8.493330709054929"><ele>407.6666666666667</ele><time>2026-05-02T09:25:37.98Z</time></trkpt><trkpt lat="45.77514894346194" lon="8.493457797429947"><ele>408.5</ele><time>2026-05-02T09:25:39.98Z</time></trkpt><trkpt lat="45.775219760933894" lon="8.493602657394177"><ele>409.33333333333337</ele><time>2026-05-02T09:25:41.98Z</time></trkpt><trkpt lat="45.77525469246681" lon="8.49368141216394"><ele>410.1666666666667</ele><time>2026-05-02T09:25:42.98Z</time></trkpt><trkpt lat="45.775295891973904" lon="8.49377329385747"><ele>411.0</ele><time>2026-05-02T09:25:43.98Z</time></trkpt><trkpt lat="45.77533368206545" lon="8.493893623592939"><ele>411.0</ele><time>2026-05-02T09:25:45.98Z</time></trkpt><trkpt lat="45.775613338798244" lon="8.493681833625981"><ele>411.0</ele><time>2026-05-02T09:25:48.98Z</time></trkpt><trkpt lat="45.775725269137205" lon="8.493719638705722"><ele>411.0</ele><time>2026-05-02T09:25:51.979Z</time></trkpt><trkpt lat="45.77579619961577" lon="8.49374022745781"><ele>411.0</ele><time>2026-05-02T09:25:52.979Z</time></trkpt><trkpt lat="45.77589947569655" lon="8.493749605199454"><ele>411.0</ele><time>2026-05-02T09:25:53.979Z</time></trkpt><trkpt lat="45.77598044424147" lon="8.493752021762365"><ele>411.0</ele><time>2026-05-02T09:25:54.978Z</time></trkpt><trkpt lat="45.77607904458053" lon="8.493858187126824"><ele>411.0</ele><time>2026-05-02T09:25:56.979Z</time></trkpt><trkpt lat="45.776189140867544" lon="8.49391034454846"><ele>411.0</ele><time>2026-05-02T09:25:58.979Z</time></trkpt><trkpt lat="45.776283569261516" lon="8.49394703041591"><ele>411.0</ele><time>2026-05-02T09:26:00.978Z</time></trkpt><trkpt lat="45.776384596376495" lon="8.494011417129144"><ele>411.0</ele><time>2026-05-02T09:26:02.979Z</time></trkpt><trkpt lat="45.77647984616062" lon="8.49403374077534"><ele>411.0</ele><time>2026-05-02T09:26:04.978Z</time></trkpt><trkpt lat="45.77655741263063" lon="8.494068982702569"><ele>411.0</ele><time>2026-05-02T09:26:06.978Z</time></trkpt><trkpt lat="45.77663733705317" lon="8.494132923641612"><ele>411.0</ele><time>2026-05-02T09:26:08.978Z</time></trkpt><trkpt lat="45.77677063558881" lon="8.494114055334427"><ele>411.0</ele><time>2026-05-02T09:26:10.978Z</time></trkpt><trkpt lat="45.77684086263323" lon="8.494101117228764"><ele>411.0</ele><time>2026-05-02T09:26:11.978Z</time></trkpt><trkpt lat="45.77692307583228" lon="8.494085630948756"><ele>411.0</ele><time>2026-05-02T09:26:14.978Z</time></trkpt><trkpt lat="45.77698541478595" lon="8.494101692336429"><ele>411.0</ele><time>2026-05-02T09:26:16.978Z</time></trkpt><trkpt lat="45.77706245624572" lon="8.494142032110668"><ele>411.0</ele><time>2026-05-02T09:26:18.978Z</time></trkpt><trkpt lat="45.77715537613765" lon="8.494177428648324"><ele>411.0</ele><time>2026-05-02T09:26:20.978Z</time></trkpt><trkpt lat="45.77725101586203" lon="8.494187983979254"><ele>413.1666666666667</ele><time>2026-05-02T09:26:22.978Z</time></trkpt><trkpt lat="45.777349598026234" lon="8.494155515503637"><ele>415.33333333333337</ele><time>2026-05-02T09:26:24.978Z</time></trkpt><trkpt lat="45.77742361239062" lon="8.494164356990384"><ele>417.5</ele><time>2026-05-02T09:26:26.978Z</time></trkpt><trkpt lat="45.777511901549" lon="8.49412084221152"><ele>419.6666666666667</ele><time>2026-05-02T09:26:27.978Z</time></trkpt><trkpt lat="45.777587703297016" lon="8.49408101212882"><ele>421.83333333333337</ele><time>2026-05-02T09:26:28.978Z</time></trkpt><trkpt lat="45.777664420450016" lon="8.494048871167617"><ele>424.0</ele><time>2026-05-02T09:26:29.978Z</time></trkpt><trkpt lat="45.777741029592" lon="8.49401807068765"><ele>425.0</ele><time>2026-05-02T09:26:30.978Z</time></trkpt><trkpt lat="45.777831029342934" lon="8.493989306757113"><ele>426.0</ele><time>2026-05-02T09:26:31.978Z</time></trkpt><trkpt lat="45.77789409239002" lon="8.49392863668032"><ele>427.0</ele><time>2026-05-02T09:26:33.978Z</time></trkpt><trkpt lat="45.77796059927932" lon="8.493861237879397"><ele>428.0</ele><time>2026-05-02T09:26:35.978Z</time></trkpt><trkpt lat="45.77800361350125" lon="8.493743742133207"><ele>429.0</ele><time>2026-05-02T09:26:37.978Z</time></trkpt><trkpt lat="45.77806378323572" lon="8.493615296834205"><ele>431.4</ele><time>2026-05-02T09:26:39.978Z</time></trkpt><trkpt lat="45.77811748634636" lon="8.493566660676189"><ele>433.79999999999995</ele><time>2026-05-02T09:26:41.978Z</time></trkpt><trkpt lat="45.77819442656756" lon="8.493558350820923"><ele>436.20000000000005</ele><time>2026-05-02T09:26:43.978Z</time></trkpt><trkpt lat="45.77832867742083" lon="8.49360836625512"><ele>438.6</ele><time>2026-05-02T09:26:45.978Z</time></trkpt><trkpt lat="45.77842134098318" lon="8.493620934500875"><ele>441.0</ele><time>2026-05-02T09:26:46.978Z</time></trkpt><trkpt lat="45.77851836075212" lon="8.493611840040813"><ele>440.0</ele><time>2026-05-02T09:26:47.978Z</time></trkpt><trkpt lat="45.77860867716607" lon="8.493633372989395"><ele>439.0</ele><time>2026-05-02T09:26:48.978Z</time></trkpt><trkpt lat="45.77868241393926" lon="8.493662131961091"><ele>438.0</ele><time>2026-05-02T09:26:49.978Z</time></trkpt><trkpt lat="45.77873950342558" lon="8.493712171568315"><ele>437.0</ele><time>2026-05-02T09:26:50.978Z</time></trkpt><trkpt lat="45.77880078732836" lon="8.49376163576932"><ele>436.0</ele><time>2026-05-02T09:26:52.978Z</time></trkpt><trkpt lat="45.778870371672745" lon="8.493521128404556"><ele>439.20000000000005</ele><time>2026-05-02T09:26:55.978Z</time></trkpt><trkpt lat="45.77893548066645" lon="8.493416790219126"><ele>442.40000000000003</ele><time>2026-05-02T09:26:57.978Z</time></trkpt><trkpt lat="45.77897995365395" lon="8.493308875727456"><ele>445.6</ele><time>2026-05-02T09:26:59.978Z</time></trkpt><trkpt lat="45.77903686190316" lon="8.493220931305697"><ele>448.8</ele><time>2026-05-02T09:27:01.978Z</time></trkpt><trkpt lat="45.77915362516693" lon="8.49316207514229"><ele>452.0</ele><time>2026-05-02T09:27:03.978Z</time></trkpt><trkpt lat="45.77921197877942" lon="8.493127171548045"><ele>452.0</ele><time>2026-05-02T09:27:04.978Z</time></trkpt><trkpt lat="45.779326709543284" lon="8.493116161012798"><ele>452.00000000000006</ele><time>2026-05-02T09:27:06.978Z</time></trkpt><trkpt lat="45.779466012268976" lon="8.49312328452903"><ele>452.00000000000006</ele><time>2026-05-02T09:27:08.978Z</time></trkpt><trkpt lat="45.77955697790022" lon="8.493126082948658"><ele>452.0</ele><time>2026-05-02T09:27:09.978Z</time></trkpt><trkpt lat="45.779652894655236" lon="8.493114753239954"><ele>452.0</ele><time>2026-05-02T09:27:10.978Z</time></trkpt><trkpt lat="45.77976499147936" lon="8.49307296854221"><ele>452.25</ele><time>2026-05-02T09:27:11.978Z</time></trkpt><trkpt lat="45.77989121540938" lon="8.493017002628855"><ele>452.5</ele><time>2026-05-02T09:27:12.978Z</time></trkpt><trkpt lat="45.78002398506112" lon="8.492967818741938"><ele>452.75</ele><time>2026-05-02T09:27:13.978Z</time></trkpt><trkpt lat="45.78014293502673" lon="8.492921188763077"><ele>453.0</ele><time>2026-05-02T09:27:14.978Z</time></trkpt><trkpt lat="45.78024579434355" lon="8.492878460369116"><ele>453.79999999999995</ele><time>2026-05-02T09:27:15.978Z</time></trkpt><trkpt lat="45.78034140035697" lon="8.492868393898062"><ele>454.59999999999997</ele><time>2026-05-02T09:27:17.978Z</time></trkpt><trkpt lat="45.78044069700545" lon="8.492888203088274"><ele>455.40000000000003</ele><time>2026-05-02T09:27:19.978Z</time></trkpt><trkpt lat="45.78051913160217" lon="8.492955182878529"><ele>456.20000000000005</ele><time>2026-05-02T09:27:20.978Z</time></trkpt><trkpt lat="45.78061917202017" lon="8.493029422676855"><ele>457.0</ele><time>2026-05-02T09:27:21.978Z</time></trkpt><trkpt lat="45.78072388191679" lon="8.49308231927155"><ele>457.0</ele><time>2026-05-02T09:27:22.978Z</time></trkpt><trkpt lat="45.78081120800167" lon="8.49312564050001"><ele>457.00000000000006</ele><time>2026-05-02T09:27:23.978Z</time></trkpt><trkpt lat="45.780923265423624" lon="8.493178453739768"><ele>457.00000000000006</ele><time>2026-05-02T09:27:25.978Z</time></trkpt><trkpt lat="45.78102319775305" lon="8.493273592244073"><ele>457.0</ele><time>2026-05-02T09:27:27.978Z</time></trkpt><trkpt lat="45.78109854872291" lon="8.493321514992317"><ele>457.0</ele><time>2026-05-02T09:27:28.978Z</time></trkpt><trkpt lat="45.78119363469157" lon="8.493371621583782"><ele>457.8</ele><time>2026-05-02T09:27:29.978Z</time></trkpt><trkpt lat="45.78127405911369" lon="8.493403248542789"><ele>458.6</ele><time>2026-05-02T09:27:30.978Z</time></trkpt><trkpt lat="45.781359586173544" lon="8.493463408283755"><ele>459.40000000000003</ele><time>2026-05-02T09:27:32.978Z</time></trkpt><trkpt lat="45.781431203097554" lon="8.493456747579463"><ele>460.20000000000005</ele><time>2026-05-02T09:27:35.978Z</time></trkpt><trkpt lat="45.78152963290007" lon="8.493425897426372"><ele>461.0</ele><time>2026-05-02T09:27:37.978Z</time></trkpt><trkpt lat="45.78152797691005" lon="8.49294493571806"><ele>464.16666666666663</ele><time>2026-05-02T09:27:42.978Z</time></trkpt><trkpt lat="45.7814513796092" lon="8.492895008275031"><ele>467.3333333333333</ele><time>2026-05-02T09:27:44.978Z</time></trkpt><trkpt lat="45.781405245166525" lon="8.492787592944836"><ele>470.5</ele><time>2026-05-02T09:27:46.978Z</time></trkpt><trkpt lat="45.78139647193702" lon="8.492665357023773"><ele>473.66666666666663</ele><time>2026-05-02T09:27:48.978Z</time></trkpt><trkpt lat="45.78142525530834" lon="8.492579093009416"><ele>476.8333333333333</ele><time>2026-05-02T09:27:50.978Z</time></trkpt><trkpt lat="45.78153122891622" lon="8.49256853296726"><ele>480.0</ele><time>2026-05-02T09:27:53.978Z</time></trkpt><trkpt lat="45.781637007147246" lon="8.492567575161948"><ele>480.0</ele><time>2026-05-02T09:27:55.978Z</time></trkpt><trkpt lat="45.781758245340754" lon="8.49249747869647"><ele>480.0</ele><time>2026-05-02T09:27:57.978Z</time></trkpt><trkpt lat="45.78182170769059" lon="8.492441528871902"><ele>480.0</ele><time>2026-05-02T09:27:58.978Z</time></trkpt><trkpt lat="45.78190161542028" lon="8.492339739218046"><ele>480.0</ele><time>2026-05-02T09:28:00.978Z</time></trkpt><trkpt lat="45.78188511833787" lon="8.492223472413992"><ele>480.0</ele><time>2026-05-02T09:28:03.978Z</time></trkpt><trkpt lat="45.78175726997813" lon="8.492230908672735"><ele>480.0</ele><time>2026-05-02T09:28:05.977Z</time></trkpt><trkpt lat="45.781690168664575" lon="8.492218152264336"><ele>480.0</ele><time>2026-05-02T09:28:06.978Z</time></trkpt><trkpt lat="45.78165172948802" lon="8.492135678207964"><ele>480.0</ele><time>2026-05-02T09:28:07.978Z</time></trkpt><trkpt lat="45.78166326807502" lon="8.492043677530937"><ele>480.0</ele><time>2026-05-02T09:28:08.978Z</time></trkpt><trkpt lat="45.78170860572019" lon="8.491965716093024"><ele>480.0</ele><time>2026-05-02T09:28:09.977Z</time></trkpt><trkpt lat="45.7817491877559" lon="8.49188987758275"><ele>480.0</ele><time>2026-05-02T09:28:10.977Z</time></trkpt><trkpt lat="45.781791879735685" lon="8.491811763138891"><ele>480.0</ele><time>2026-05-02T09:28:11.977Z</time></trkpt><trkpt lat="45.78184305925443" lon="8.491758043530288"><ele>485.4</ele><time>2026-05-02T09:28:12.977Z</time></trkpt><trkpt lat="45.78191252554406" lon="8.491724993124556"><ele>490.8</ele><time>2026-05-02T09:28:13.977Z</time></trkpt><trkpt lat="45.78197445387625" lon="8.491674455423786"><ele>496.20000000000005</ele><time>2026-05-02T09:28:14.977Z</time></trkpt><trkpt lat="45.78204817733572" lon="8.49155165251443"><ele>501.6</ele><time>2026-05-02T09:28:16.977Z</time></trkpt><trkpt lat="45.78212950572184" lon="8.491480328781288"><ele>507.0</ele><time>2026-05-02T09:28:17.977Z</time></trkpt><trkpt lat="45.78192435812177" lon="8.491635826924732"><ele>507.0</ele><time>2026-05-02T09:28:18.977Z</time></trkpt><trkpt lat="45.78200756115301" lon="8.491614732202423"><ele>507.00000000000006</ele><time>2026-05-02T09:28:21.977Z</time></trkpt><trkpt lat="45.78209540012558" lon="8.49158716507183"><ele>507.00000000000006</ele><time>2026-05-02T09:28:24.977Z</time></trkpt><trkpt lat="45.782188020852665" lon="8.491550601229257"><ele>507.0</ele><time>2026-05-02T09:28:26.977Z</time></trkpt><trkpt lat="45.78225747088089" lon="8.491492626026533"><ele>507.0</ele><time>2026-05-02T09:28:28.977Z</time></trkpt><trkpt lat="45.7823147900068" lon="8.491368849904251"><ele>507.0</ele><time>2026-05-02T09:28:30.977Z</time></trkpt><trkpt lat="45.78239020225875" lon="8.491275713440086"><ele>507.00000000000006</ele><time>2026-05-02T09:28:32.977Z</time></trkpt><trkpt lat="45.78246398429324" lon="8.491246796418071"><ele>507.00000000000006</ele><time>2026-05-02T09:28:33.977Z</time></trkpt><trkpt lat="45.782533433439745" lon="8.491254920350137"><ele>507.0</ele><time>2026-05-02T09:28:34.977Z</time></trkpt><trkpt lat="45.78263202113809" lon="8.491264812599034"><ele>507.0</ele><time>2026-05-02T09:28:36.977Z</time></trkpt><trkpt lat="45.7827524600442" lon="8.491295092761522"><ele>509.6</ele><time>2026-05-02T09:28:38.977Z</time></trkpt><trkpt lat="45.782835529199524" lon="8.4913262614015"><ele>512.2</ele><time>2026-05-02T09:28:39.977Z</time></trkpt><trkpt lat="45.78290902135048" lon="8.491363678848769"><ele>514.8</ele><time>2026-05-02T09:28:40.977Z</time></trkpt><trkpt lat="45.78301351400741" lon="8.491359839802996"><ele>517.4</ele><time>2026-05-02T09:28:41.977Z</time></trkpt><trkpt lat="45.78312476893329" lon="8.491377782430106"><ele>520.0</ele><time>2026-05-02T09:28:42.977Z</time></trkpt><trkpt lat="45.78322024163104" lon="8.4914090570198"><ele>520.0</ele><time>2026-05-02T09:28:43.977Z</time></trkpt><trkpt lat="45.78331912911366" lon="8.491377176438768"><ele>520.0</ele><time>2026-05-02T09:28:45.977Z</time></trkpt><trkpt lat="45.78339730824747" lon="8.491294727912775"><ele>520.0</ele><time>2026-05-02T09:28:46.977Z</time></trkpt><trkpt lat="45.783532713517815" lon="8.49122753586343"><ele>520.0</ele><time>2026-05-02T09:28:47.977Z</time></trkpt><trkpt lat="45.78362526621592" lon="8.491183111649498"><ele>520.0</ele><time>2026-05-02T09:28:48.977Z</time></trkpt><trkpt lat="45.78374899750122" lon="8.491179485194378"><ele>521.0</ele><time>2026-05-02T09:28:49.977Z</time></trkpt><trkpt lat="45.78394456255942" lon="8.491257366264572"><ele>522.0</ele><time>2026-05-02T09:28:50.977Z</time></trkpt><trkpt lat="45.78412930364584" lon="8.491300748016492"><ele>523.0</ele><time>2026-05-02T09:28:51.977Z</time></trkpt><trkpt lat="45.78429395288132" lon="8.491309796935695"><ele>523.6</ele><time>2026-05-02T09:28:52.977Z</time></trkpt><trkpt lat="45.78442155124915" lon="8.491299951500478"><ele>524.1999999999999</ele><time>2026-05-02T09:28:53.977Z</time></trkpt><trkpt lat="45.784538007940526" lon="8.491293470037698"><ele>524.8</ele><time>2026-05-02T09:28:54.977Z</time></trkpt><trkpt lat="45.784627731054655" lon="8.491288993998001"><ele>525.4</ele><time>2026-05-02T09:28:55.977Z</time></trkpt><trkpt lat="45.78473633541453" lon="8.491278537690444"><ele>526.0</ele><time>2026-05-02T09:28:56.977Z</time></trkpt><trkpt lat="45.784857008900076" lon="8.49131634958027"><ele>526.0</ele><time>2026-05-02T09:28:57.977Z</time></trkpt><trkpt lat="45.78495740199809" lon="8.491337594054032"><ele>526.0</ele><time>2026-05-02T09:28:58.977Z</time></trkpt><trkpt lat="45.78510736924308" lon="8.491374701241847"><ele>526.0</ele><time>2026-05-02T09:29:00.977Z</time></trkpt><trkpt lat="45.78519541260117" lon="8.491492914728807"><ele>526.0</ele><time>2026-05-02T09:29:01.977Z</time></trkpt><trkpt lat="45.785321160746655" lon="8.491655897369265"><ele>526.75</ele><time>2026-05-02T09:29:02.977Z</time></trkpt><trkpt lat="45.78544647015936" lon="8.49181342923007"><ele>527.5</ele><time>2026-05-02T09:29:03.977Z</time></trkpt><trkpt lat="45.78557350628246" lon="8.491890502649094"><ele>528.25</ele><time>2026-05-02T09:29:04.977Z</time></trkpt><trkpt lat="45.78568127326224" lon="8.491955486476181"><ele>529.0</ele><time>2026-05-02T09:29:05.977Z</time></trkpt><trkpt lat="45.785770998688726" lon="8.492007171356319"><ele>528.6666666666667</ele><time>2026-05-02T09:29:06.977Z</time></trkpt><trkpt lat="45.7858489119942" lon="8.492098918659538"><ele>528.3333333333334</ele><time>2026-05-02T09:29:07.977Z</time></trkpt><trkpt lat="45.7859071010644" lon="8.492160090357844"><ele>528.0</ele><time>2026-05-02T09:29:08.977Z</time></trkpt><trkpt lat="45.7859533605161" lon="8.492230952538527"><ele>527.6666666666666</ele><time>2026-05-02T09:29:11.977Z</time></trkpt><trkpt lat="45.785976732961785" lon="8.492353999788282"><ele>527.3333333333333</ele><time>2026-05-02T09:29:13.977Z</time></trkpt><trkpt lat="45.78592293372112" lon="8.492228354320375"><ele>527.0</ele><time>2026-05-02T09:29:21.977Z</time></trkpt><trkpt lat="45.78589526270175" lon="8.492135208997418"><ele>528.0</ele><time>2026-05-02T09:29:23.977Z</time></trkpt><trkpt lat="45.786039784932946" lon="8.491953967116434"><ele>529.0</ele><time>2026-05-02T09:29:24.977Z</time></trkpt><trkpt lat="45.78610817318125" lon="8.491863699632393"><ele>530.0</ele><time>2026-05-02T09:29:26.977Z</time></trkpt><trkpt lat="45.78619613685995" lon="8.491843942330917"><ele>531.0</ele><time>2026-05-02T09:29:28.977Z</time></trkpt><trkpt lat="45.78630174339453" lon="8.491825114457027"><ele>531.0</ele><time>2026-05-02T09:29:30.977Z</time></trkpt><trkpt lat="45.78640530534884" lon="8.491818537214519"><ele>531.0</ele><time>2026-05-02T09:29:32.977Z</time></trkpt><trkpt lat="45.786488043582565" lon="8.491775255383994"><ele>531.0</ele><time>2026-05-02T09:29:34.976Z</time></trkpt><trkpt lat="45.78656296768918" lon="8.491742052555049"><ele>531.0</ele><time>2026-05-02T09:29:35.976Z</time></trkpt><trkpt lat="45.78663005483681" lon="8.491694143193817"><ele>531.0</ele><time>2026-05-02T09:29:36.976Z</time></trkpt><trkpt lat="45.786681862209186" lon="8.491639049814895"><ele>531.0</ele><time>2026-05-02T09:29:37.976Z</time></trkpt><trkpt lat="45.78675817332953" lon="8.491505122187782"><ele>531.0</ele><time>2026-05-02T09:29:39.976Z</time></trkpt><trkpt lat="45.78677265532429" lon="8.491355405265068"><ele>531.0</ele><time>2026-05-02T09:29:41.976Z</time></trkpt><trkpt lat="45.78677430249038" lon="8.4912607817477"><ele>531.0</ele><time>2026-05-02T09:29:43.976Z</time></trkpt><trkpt lat="45.78688267711365" lon="8.491166110821489"><ele>531.0</ele><time>2026-05-02T09:29:45.976Z</time></trkpt><trkpt lat="45.78699282005765" lon="8.491120235411563"><ele>531.0</ele><time>2026-05-02T09:29:46.976Z</time></trkpt><trkpt lat="45.787134231908766" lon="8.491040902217055"><ele>532.4</ele><time>2026-05-02T09:29:47.976Z</time></trkpt><trkpt lat="45.78724854368193" lon="8.49100380611083"><ele>533.8</ele><time>2026-05-02T09:29:48.976Z</time></trkpt><trkpt lat="45.78734187113405" lon="8.490934598786192"><ele>535.1999999999999</ele><time>2026-05-02T09:29:49.976Z</time></trkpt><trkpt lat="45.78742758960707" lon="8.490891038593835"><ele>536.6</ele><time>2026-05-02T09:29:50.976Z</time></trkpt><trkpt lat="45.787522291271316" lon="8.490911770075797"><ele>538.0</ele><time>2026-05-02T09:29:51.976Z</time></trkpt><trkpt lat="45.787622943480415" lon="8.490921854434893"><ele>538.75</ele><time>2026-05-02T09:29:52.976Z</time></trkpt><trkpt lat="45.78774300360686" lon="8.490936334399079"><ele>539.5</ele><time>2026-05-02T09:29:53.976Z</time></trkpt><trkpt lat="45.78790832369111" lon="8.490965975996922"><ele>540.25</ele><time>2026-05-02T09:29:54.976Z</time></trkpt><trkpt lat="45.78804799539853" lon="8.490961972330044"><ele>541.0</ele><time>2026-05-02T09:29:55.976Z</time></trkpt><trkpt lat="45.78814506559116" lon="8.490943319763751"><ele>541.0</ele><time>2026-05-02T09:29:56.976Z</time></trkpt><trkpt lat="45.788181146171674" lon="8.49104443875157"><ele>541.0</ele><time>2026-05-02T09:29:59.976Z</time></trkpt><trkpt lat="45.788209978267346" lon="8.491162940292993"><ele>541.0</ele><time>2026-05-02T09:30:00.976Z</time></trkpt><trkpt lat="45.788261797691156" lon="8.491234954716395"><ele>541.0</ele><time>2026-05-02T09:30:02.977Z</time></trkpt><trkpt lat="45.78832668978485" lon="8.491247305851175"><ele>541.0</ele><time>2026-05-02T09:30:06.977Z</time></trkpt><trkpt lat="45.78835752149173" lon="8.491158329824728"><ele>541.0</ele><time>2026-05-02T09:30:09.976Z</time></trkpt><trkpt lat="45.788425221171295" lon="8.491037666665262"><ele>541.8333333333334</ele><time>2026-05-02T09:30:12.977Z</time></trkpt><trkpt lat="45.78852986920743" lon="8.491034871005043"><ele>542.6666666666667</ele><time>2026-05-02T09:30:15.976Z</time></trkpt><trkpt lat="45.78862304914998" lon="8.491047454248712"><ele>543.5</ele><time>2026-05-02T09:30:16.976Z</time></trkpt><trkpt lat="45.78868783918682" lon="8.491076229991183"><ele>544.3333333333334</ele><time>2026-05-02T09:30:17.976Z</time></trkpt><trkpt lat="45.78875486279279" lon="8.49111489000535"><ele>545.1666666666666</ele><time>2026-05-02T09:30:18.976Z</time></trkpt><trkpt lat="45.78885362432477" lon="8.491141625203701"><ele>546.0</ele><time>2026-05-02T09:30:20.976Z</time></trkpt><trkpt lat="45.788968628043364" lon="8.491177963191953"><ele>546.0</ele><time>2026-05-02T09:30:22.976Z</time></trkpt><trkpt lat="45.7890451958766" lon="8.491207987752215"><ele>546.0</ele><time>2026-05-02T09:30:23.976Z</time></trkpt><trkpt lat="45.7891701645833" lon="8.491253809369756"><ele>546.0</ele><time>2026-05-02T09:30:25.976Z</time></trkpt><trkpt lat="45.78926451752081" lon="8.491300195964676"><ele>546.0</ele><time>2026-05-02T09:30:26.976Z</time></trkpt><trkpt lat="45.78933665251" lon="8.491338823521998"><ele>546.0</ele><time>2026-05-02T09:30:27.976Z</time></trkpt><trkpt lat="45.7893995004546" lon="8.491366882923566"><ele>546.5</ele><time>2026-05-02T09:30:28.976Z</time></trkpt><trkpt lat="45.789483040155176" lon="8.491291453544395"><ele>547.0</ele><time>2026-05-02T09:30:34.976Z</time></trkpt><trkpt lat="45.78955038230587" lon="8.49122278365863"><ele>547.5</ele><time>2026-05-02T09:30:38.976Z</time></trkpt><trkpt lat="45.789617318868295" lon="8.491146384850104"><ele>548.0</ele><time>2026-05-02T09:30:41.976Z</time></trkpt><trkpt lat="45.78969662214979" lon="8.49107614356738"><ele>548.5</ele><time>2026-05-02T09:30:43.976Z</time></trkpt><trkpt lat="45.78973174231732" lon="8.49099662600525"><ele>549.0</ele><time>2026-05-02T09:30:45.976Z</time></trkpt><trkpt lat="45.78973165014135" lon="8.490868800903161"><ele>550.4</ele><time>2026-05-02T09:30:49.976Z</time></trkpt><trkpt lat="45.78978285592148" lon="8.490761002989313"><ele>551.8</ele><time>2026-05-02T09:30:51.976Z</time></trkpt><trkpt lat="45.789872061123965" lon="8.490667357423463"><ele>553.2</ele><time>2026-05-02T09:30:53.976Z</time></trkpt><trkpt lat="45.789928516044895" lon="8.490582979750416"><ele>554.6</ele><time>2026-05-02T09:30:55.976Z</time></trkpt><trkpt lat="45.78994955873409" lon="8.490429355215179"><ele>556.0</ele><time>2026-05-02T09:30:57.976Z</time></trkpt><trkpt lat="45.78998417359484" lon="8.490315339190976"><ele>557.5</ele><time>2026-05-02T09:30:59.976Z</time></trkpt><trkpt lat="45.790056667489864" lon="8.4902001229222"><ele>559.0</ele><time>2026-05-02T09:31:01.976Z</time></trkpt><trkpt lat="45.79011899430974" lon="8.49012615021006"><ele>560.5</ele><time>2026-05-02T09:31:02.976Z</time></trkpt><trkpt lat="45.790151906586665" lon="8.490043101873344"><ele>562.0</ele><time>2026-05-02T09:31:04.976Z</time></trkpt><trkpt lat="45.79015104988866" lon="8.489929944208267"><ele>563.5</ele><time>2026-05-02T09:31:07.976Z</time></trkpt><trkpt lat="45.79015880100391" lon="8.48980044588257"><ele>565.0</ele><time>2026-05-02T09:31:09.976Z</time></trkpt><trkpt lat="45.79023910313477" lon="8.489656904189761"><ele>567.5</ele><time>2026-05-02T09:31:11.976Z</time></trkpt><trkpt lat="45.79029202758767" lon="8.489581037574009"><ele>570.0</ele><time>2026-05-02T09:31:12.976Z</time></trkpt><trkpt lat="45.79034769609876" lon="8.48952669535254"><ele>572.5</ele><time>2026-05-02T09:31:13.976Z</time></trkpt><trkpt lat="45.79040922091467" lon="8.489489475236246"><ele>575.0</ele><time>2026-05-02T09:31:15.976Z</time></trkpt><trkpt lat="45.79049047824281" lon="8.489389736394985"><ele>577.5</ele><time>2026-05-02T09:31:17.976Z</time></trkpt><trkpt lat="45.79055593181868" lon="8.489293336750663"><ele>580.0</ele><time>2026-05-02T09:31:19.976Z</time></trkpt><trkpt lat="45.790617307794804" lon="8.489179606617043"><ele>580.0</ele><time>2026-05-02T09:31:21.976Z</time></trkpt><trkpt lat="45.79066084508171" lon="8.489092670862874"><ele>580.0</ele><time>2026-05-02T09:31:22.976Z</time></trkpt><trkpt lat="45.79069971587399" lon="8.48898448555336"><ele>580.0</ele><time>2026-05-02T09:31:24.976Z</time></trkpt><trkpt lat="45.790746529657476" lon="8.48885607936701"><ele>580.0</ele><time>2026-05-02T09:31:26.976Z</time></trkpt><trkpt lat="45.79078981714048" lon="8.488733615983337"><ele>580.0</ele><time>2026-05-02T09:31:28.976Z</time></trkpt><trkpt lat="45.79084199994264" lon="8.488681873735"><ele>580.0</ele><time>2026-05-02T09:31:29.976Z</time></trkpt><trkpt lat="45.79089118737447" lon="8.488607518751678"><ele>580.2</ele><time>2026-05-02T09:31:30.976Z</time></trkpt><trkpt lat="45.790953052846426" lon="8.488508786114085"><ele>580.4</ele><time>2026-05-02T09:31:31.976Z</time></trkpt><trkpt lat="45.791024850636354" lon="8.488420391628111"><ele>580.6</ele><time>2026-05-02T09:31:32.976Z</time></trkpt><trkpt lat="45.79109162102724" lon="8.488340460552482"><ele>580.8</ele><time>2026-05-02T09:31:33.976Z</time></trkpt><trkpt lat="45.79121277934758" lon="8.488301763517416"><ele>581.0</ele><time>2026-05-02T09:31:34.976Z</time></trkpt><trkpt lat="45.791297300082064" lon="8.488164977659817"><ele>582.6666666666666</ele><time>2026-05-02T09:31:35.976Z</time></trkpt><trkpt lat="45.7913227467526" lon="8.488017700993511"><ele>584.3333333333333</ele><time>2026-05-02T09:31:36.976Z</time></trkpt><trkpt lat="45.79130905549705" lon="8.487911650435114"><ele>586.0</ele><time>2026-05-02T09:31:38.976Z</time></trkpt><trkpt lat="45.79134410018132" lon="8.487991690609153"><ele>587.6666666666666</ele><time>2026-05-02T09:31:44.976Z</time></trkpt><trkpt lat="45.79138934696376" lon="8.488056574880648"><ele>589.3333333333334</ele><time>2026-05-02T09:31:48.976Z</time></trkpt><trkpt lat="45.791437061026286" lon="8.488124997364691"><ele>591.0</ele><time>2026-05-02T09:31:53.976Z</time></trkpt><trkpt lat="45.79199429132349" lon="8.48754735076077"><ele>593.6</ele><time>2026-05-02T09:31:59.976Z</time></trkpt><trkpt lat="45.792055681184536" lon="8.487522154512831"><ele>596.2</ele><time>2026-05-02T09:32:00.976Z</time></trkpt><trkpt lat="45.79213183449682" lon="8.487429017839744"><ele>598.8</ele><time>2026-05-02T09:32:02.976Z</time></trkpt><trkpt lat="45.79222656129507" lon="8.487373505488998"><ele>601.4</ele><time>2026-05-02T09:32:04.976Z</time></trkpt><trkpt lat="45.792380620676774" lon="8.487445617151629"><ele>604.0</ele><time>2026-05-02T09:32:06.976Z</time></trkpt><trkpt lat="45.79221753417636" lon="8.487186875597436"><ele>604.0</ele><time>2026-05-02T09:32:07.976Z</time></trkpt><trkpt lat="45.79227722663272" lon="8.487148121711666"><ele>604.0</ele><time>2026-05-02T09:32:13.975Z</time></trkpt><trkpt lat="45.79236584693408" lon="8.487161453632783"><ele>604.0</ele><time>2026-05-02T09:32:17.975Z</time></trkpt><trkpt lat="45.79245183857201" lon="8.487219226535212"><ele>604.0</ele><time>2026-05-02T09:32:25.975Z</time></trkpt><trkpt lat="45.792508914879285" lon="8.487287542472728"><ele>604.0</ele><time>2026-05-02T09:32:27.975Z</time></trkpt><trkpt lat="45.79256689342471" lon="8.487370582953599"><ele>604.0</ele><time>2026-05-02T09:32:30.975Z</time></trkpt><trkpt lat="45.79265064368942" lon="8.487331324091134"><ele>603.1666666666667</ele><time>2026-05-02T09:32:37.975Z</time></trkpt><trkpt lat="45.792709118422046" lon="8.487292638709276"><ele>602.3333333333334</ele><time>2026-05-02T09:32:39.975Z</time></trkpt><trkpt lat="45.792755162546804" lon="8.487198956685917"><ele>601.5</ele><time>2026-05-02T09:32:43.975Z</time></trkpt><trkpt lat="45.792684225292504" lon="8.487130697692123"><ele>600.6666666666666</ele><time>2026-05-02T09:32:45.975Z</time></trkpt><trkpt lat="45.79264944934587" lon="8.487038969222052"><ele>599.8333333333333</ele><time>2026-05-02T09:32:47.975Z</time></trkpt><trkpt lat="45.7926281457041" lon="8.486920210102834"><ele>599.0</ele><time>2026-05-02T09:32:49.975Z</time></trkpt><trkpt lat="45.792624502953856" lon="8.48683004277788"><ele>599.0</ele><time>2026-05-02T09:32:50.975Z</time></trkpt><trkpt lat="45.792660438319274" lon="8.486734795522509"><ele>599.0</ele><time>2026-05-02T09:32:53.975Z</time></trkpt><trkpt lat="45.79271831844342" lon="8.486608349013974"><ele>599.0</ele><time>2026-05-02T09:32:55.975Z</time></trkpt><trkpt lat="45.79279326268243" lon="8.486480489717293"><ele>599.0</ele><time>2026-05-02T09:32:57.975Z</time></trkpt><trkpt lat="45.792859348409834" lon="8.486403363952133"><ele>599.0</ele><time>2026-05-02T09:32:59.975Z</time></trkpt><trkpt lat="45.79285459936778" lon="8.486299699812287"><ele>601.0</ele><time>2026-05-02T09:33:03.975Z</time></trkpt><trkpt lat="45.79285494022687" lon="8.486183690936056"><ele>603.0</ele><time>2026-05-02T09:33:06.975Z</time></trkpt><trkpt lat="45.79283270351154" lon="8.486087427846861"><ele>605.0</ele><time>2026-05-02T09:33:11.975Z</time></trkpt><trkpt lat="45.792816896870136" lon="8.485996922235904"><ele>607.0</ele><time>2026-05-02T09:33:30.975Z</time></trkpt><trkpt lat="45.79284702216467" lon="8.485916337659827"><ele>609.0</ele><time>2026-05-02T09:33:31.975Z</time></trkpt><trkpt lat="45.79291246945099" lon="8.485841340655474"><ele>611.0</ele><time>2026-05-02T09:33:33.975Z</time></trkpt><trkpt lat="45.792968085112086" lon="8.485745904154747"><ele>611.0</ele><time>2026-05-02T09:33:35.975Z</time></trkpt><trkpt lat="45.79302446475573" lon="8.48566765958077"><ele>611.0</ele><time>2026-05-02T09:33:37.975Z</time></trkpt><trkpt lat="45.79306810643201" lon="8.485592710701182"><ele>611.0</ele><time>2026-05-02T09:33:39.975Z</time></trkpt><trkpt lat="45.79309807745937" lon="8.485480361762175"><ele>611.0</ele><time>2026-05-02T09:33:42.975Z</time></trkpt><trkpt lat="45.793154900928485" lon="8.485373924310197"><ele>611.0</ele><time>2026-05-02T09:33:45.975Z</time></trkpt><trkpt lat="45.79322369581247" lon="8.485297719418515"><ele>611.0</ele><time>2026-05-02T09:33:47.975Z</time></trkpt><trkpt lat="45.79327680609184" lon="8.485223698648932"><ele>611.5</ele><time>2026-05-02T09:33:49.975Z</time></trkpt><trkpt lat="45.79333893994477" lon="8.485172479276148"><ele>612.0</ele><time>2026-05-02T09:33:51.975Z</time></trkpt><trkpt lat="45.79340648736945" lon="8.485226781555866"><ele>612.5</ele><time>2026-05-02T09:33:54.975Z</time></trkpt><trkpt lat="45.79346806696482" lon="8.485203432647218"><ele>613.0</ele><time>2026-05-02T09:33:56.975Z</time></trkpt><trkpt lat="45.79348720779324" lon="8.485093244682618"><ele>613.5</ele><time>2026-05-02T09:33:59.975Z</time></trkpt><trkpt lat="45.79355576158305" lon="8.485022788015666"><ele>614.0</ele><time>2026-05-02T09:34:01.975Z</time></trkpt><trkpt lat="45.793610738813655" lon="8.484946869363494"><ele>615.8</ele><time>2026-05-02T09:34:04.975Z</time></trkpt><trkpt lat="45.79366190038249" lon="8.484857354130794"><ele>617.5999999999999</ele><time>2026-05-02T09:34:07.975Z</time></trkpt><trkpt lat="45.793701775585056" lon="8.484771400626252"><ele>619.4</ele><time>2026-05-02T09:34:09.975Z</time></trkpt><trkpt lat="45.793795287061506" lon="8.48467437462232"><ele>621.1999999999999</ele><time>2026-05-02T09:34:11.975Z</time></trkpt><trkpt lat="45.79386148720302" lon="8.48459775726514"><ele>623.0</ele><time>2026-05-02T09:34:12.975Z</time></trkpt><trkpt lat="45.793940302923744" lon="8.484508193206056"><ele>623.0</ele><time>2026-05-02T09:34:15.974Z</time></trkpt><trkpt lat="45.79399806171237" lon="8.484451082036136"><ele>623.0</ele><time>2026-05-02T09:34:17.974Z</time></trkpt><trkpt lat="45.79403488933617" lon="8.484361353484646"><ele>623.0</ele><time>2026-05-02T09:34:20.974Z</time></trkpt><trkpt lat="45.79398136995667" lon="8.484288548259507"><ele>623.0</ele><time>2026-05-02T09:34:24.974Z</time></trkpt><trkpt lat="45.79396490186343" lon="8.484188200976252"><ele>623.0</ele><time>2026-05-02T09:34:26.974Z</time></trkpt><trkpt lat="45.79396010817052" lon="8.484059724334776"><ele>623.0</ele><time>2026-05-02T09:34:28.974Z</time></trkpt><trkpt lat="45.79399425005112" lon="8.483956520524956"><ele>623.0</ele><time>2026-05-02T09:34:30.974Z</time></trkpt><trkpt lat="45.79400387616815" lon="8.483852198753521"><ele>623.0</ele><time>2026-05-02T09:34:32.974Z</time></trkpt><trkpt lat="45.79398474425407" lon="8.483718851955306"><ele>623.0</ele><time>2026-05-02T09:34:35.974Z</time></trkpt><trkpt lat="45.794017362741386" lon="8.483568681416912"><ele>623.0</ele><time>2026-05-02T09:34:37.974Z</time></trkpt><trkpt lat="45.79404646724529" lon="8.483471321023831"><ele>623.0</ele><time>2026-05-02T09:34:38.974Z</time></trkpt><trkpt lat="45.79409139600741" lon="8.483369488308"><ele>623.0</ele><time>2026-05-02T09:34:41.974Z</time></trkpt><trkpt lat="45.79417138403975" lon="8.483232361329591"><ele>624.0</ele><time>2026-05-02T09:34:43.974Z</time></trkpt><trkpt lat="45.794222088769665" lon="8.483132378386102"><ele>625.0</ele><time>2026-05-02T09:34:45.974Z</time></trkpt><trkpt lat="45.79429144506976" lon="8.483073282265261"><ele>626.0</ele><time>2026-05-02T09:34:47.974Z</time></trkpt><trkpt lat="45.79435559207115" lon="8.483002277701328"><ele>627.0</ele><time>2026-05-02T09:34:49.974Z</time></trkpt><trkpt lat="45.794400153967295" lon="8.482936158997461"><ele>628.0</ele><time>2026-05-02T09:34:51.974Z</time></trkpt><trkpt lat="45.79444628924731" lon="8.482855707019317"><ele>629.0</ele><time>2026-05-02T09:34:53.974Z</time></trkpt><trkpt lat="45.79451576433356" lon="8.48281378429543"><ele>634.0</ele><time>2026-05-02T09:34:56.974Z</time></trkpt><trkpt lat="45.794531711951656" lon="8.482906220353748"><ele>639.0</ele><time>2026-05-02T09:35:00.974Z</time></trkpt><trkpt lat="45.79462391980771" lon="8.482850401202047"><ele>644.0</ele><time>2026-05-02T09:35:04.974Z</time></trkpt><trkpt lat="45.79468297859197" lon="8.482806355566991"><ele>649.0</ele><time>2026-05-02T09:35:06.974Z</time></trkpt><trkpt lat="45.79472581081434" lon="8.482708941371726"><ele>654.0</ele><time>2026-05-02T09:35:09.974Z</time></trkpt><trkpt lat="45.79478145101848" lon="8.482636828717105"><ele>659.0</ele><time>2026-05-02T09:35:11.974Z</time></trkpt><trkpt lat="45.79481724639391" lon="8.482512060795756"><ele>659.0</ele><time>2026-05-02T09:35:14.974Z</time></trkpt><trkpt lat="45.794880349013255" lon="8.482414158819187"><ele>659.0</ele><time>2026-05-02T09:35:16.974Z</time></trkpt><trkpt lat="45.794943014805405" lon="8.482338670467588"><ele>659.0</ele><time>2026-05-02T09:35:18.974Z</time></trkpt><trkpt lat="45.795005231199035" lon="8.48232451891944"><ele>659.0</ele><time>2026-05-02T09:35:23.974Z</time></trkpt><trkpt lat="45.79505537895606" lon="8.482439777097747"><ele>659.0</ele><time>2026-05-02T09:35:27.974Z</time></trkpt><trkpt lat="45.795118051126465" lon="8.482514598768374"><ele>659.0</ele><time>2026-05-02T09:35:31.974Z</time></trkpt><trkpt lat="45.79514725043815" lon="8.482644966652083"><ele>662.8333333333333</ele><time>2026-05-02T09:35:34.974Z</time></trkpt><trkpt lat="45.795221415991186" lon="8.482688001194441"><ele>666.6666666666666</ele><time>2026-05-02T09:35:38.974Z</time></trkpt><trkpt lat="45.7952362897949" lon="8.482577754198298"><ele>670.5</ele><time>2026-05-02T09:35:42.974Z</time></trkpt><trkpt lat="45.795301497247294" lon="8.482585728753044"><ele>674.3333333333334</ele><time>2026-05-02T09:35:46.974Z</time></trkpt><trkpt lat="45.79537627147411" lon="8.482487692078312"><ele>678.1666666666667</ele><time>2026-05-02T09:35:48.974Z</time></trkpt><trkpt lat="45.79536295055432" lon="8.482338611699879"><ele>682.0</ele><time>2026-05-02T09:35:52.974Z</time></trkpt><trkpt lat="45.79541823004313" lon="8.482232714836622"><ele>682.0</ele><time>2026-05-02T09:35:55.974Z</time></trkpt><trkpt lat="45.795479286209925" lon="8.482202725590865"><ele>682.0</ele><time>2026-05-02T09:35:57.974Z</time></trkpt><trkpt lat="45.795520313679425" lon="8.482129861600063"><ele>682.0</ele><time>2026-05-02T09:35:59.974Z</time></trkpt><trkpt lat="45.79559258751692" lon="8.482038899574343"><ele>682.0</ele><time>2026-05-02T09:36:02.974Z</time></trkpt><trkpt lat="45.7956269127896" lon="8.481960304836509"><ele>682.0</ele><time>2026-05-02T09:36:04.974Z</time></trkpt><trkpt lat="45.795623641980775" lon="8.481866950827754"><ele>682.0</ele><time>2026-05-02T09:36:19.974Z</time></trkpt><trkpt lat="45.79568931468806" lon="8.481822854999306"><ele>682.0</ele><time>2026-05-02T09:36:29.973Z</time></trkpt><trkpt lat="45.79572109667236" lon="8.481702696035313"><ele>684.7142857142857</ele><time>2026-05-02T09:36:32.974Z</time></trkpt><trkpt lat="45.795775381784985" lon="8.481646818485679"><ele>687.4285714285714</ele><time>2026-05-02T09:36:34.973Z</time></trkpt><trkpt lat="45.79576856784435" lon="8.481537047389015"><ele>690.1428571428571</ele><time>2026-05-02T09:36:39.973Z</time></trkpt><trkpt lat="45.795812137811694" lon="8.481466959425093"><ele>692.8571428571429</ele><time>2026-05-02T09:36:44.973Z</time></trkpt><trkpt lat="45.79584877940756" lon="8.481362745489683"><ele>695.5714285714286</ele><time>2026-05-02T09:36:47.973Z</time></trkpt><trkpt lat="45.79585566297982" lon="8.481244835837487"><ele>698.2857142857143</ele><time>2026-05-02T09:36:50.973Z</time></trkpt><trkpt lat="45.79590467314502" lon="8.481171627867793"><ele>701.0</ele><time>2026-05-02T09:36:52.973Z</time></trkpt><trkpt lat="45.795971043153536" lon="8.48113271834713"><ele>706.5</ele><time>2026-05-02T09:36:54.973Z</time></trkpt><trkpt lat="45.79603254972117" lon="8.481055999972416"><ele>712.0</ele><time>2026-05-02T09:36:57.973Z</time></trkpt><trkpt lat="45.79609793031016" lon="8.481020940032193"><ele>717.5</ele><time>2026-05-02T09:37:00.973Z</time></trkpt><trkpt lat="45.79616398809675" lon="8.480981205052764"><ele>723.0</ele><time>2026-05-02T09:37:02.973Z</time></trkpt><trkpt lat="45.79622426048842" lon="8.48101604437159"><ele>728.5</ele><time>2026-05-02T09:37:05.973Z</time></trkpt><trkpt lat="45.79629333559255" lon="8.48103147004901"><ele>734.0</ele><time>2026-05-02T09:37:13.973Z</time></trkpt><trkpt lat="45.7963759715424" lon="8.48095148928125"><ele>734.0</ele><time>2026-05-02T09:37:17.973Z</time></trkpt><trkpt lat="45.79641945735048" lon="8.48087002105013"><ele>734.0</ele><time>2026-05-02T09:37:19.973Z</time></trkpt><trkpt lat="45.79649902528227" lon="8.480847477203074"><ele>734.0</ele><time>2026-05-02T09:37:22.973Z</time></trkpt><trkpt lat="45.7965662918764" lon="8.480863326658591"><ele>734.0</ele><time>2026-05-02T09:37:27.973Z</time></trkpt><trkpt lat="45.796624334564505" lon="8.480800387510634"><ele>734.0</ele><time>2026-05-02T09:37:30.973Z</time></trkpt><trkpt lat="45.79671182516036" lon="8.480772855930047"><ele>734.0</ele><time>2026-05-02T09:37:34.973Z</time></trkpt><trkpt lat="45.79678708702862" lon="8.480706510847698"><ele>737.8333333333333</ele><time>2026-05-02T09:37:36.973Z</time></trkpt><trkpt lat="45.796875659886474" lon="8.480695081178416"><ele>741.6666666666666</ele><time>2026-05-02T09:37:38.973Z</time></trkpt><trkpt lat="45.796931209273566" lon="8.480583819500811"><ele>745.5</ele><time>2026-05-02T09:37:41.973Z</time></trkpt><trkpt lat="45.796941996404364" lon="8.480473446140115"><ele>749.3333333333334</ele><time>2026-05-02T09:37:43.973Z</time></trkpt><trkpt lat="45.796943290239504" lon="8.480349473472637"><ele>753.1666666666667</ele><time>2026-05-02T09:37:45.973Z</time></trkpt><trkpt lat="45.796964903014015" lon="8.48025417835609"><ele>757.0</ele><time>2026-05-02T09:37:48.972Z</time></trkpt><trkpt lat="45.79700292615391" lon="8.480137992262419"><ele>758.8</ele><time>2026-05-02T09:37:51.972Z</time></trkpt><trkpt lat="45.79697356995584" lon="8.48004841779576"><ele>760.6</ele><time>2026-05-02T09:37:53.972Z</time></trkpt><trkpt lat="45.79691126848332" lon="8.479942259313805"><ele>762.4</ele><time>2026-05-02T09:37:55.972Z</time></trkpt><trkpt lat="45.796915239161805" lon="8.479804290921003"><ele>764.1999999999999</ele><time>2026-05-02T09:37:58.972Z</time></trkpt><trkpt lat="45.79696364722309" lon="8.479637523096832"><ele>766.0</ele><time>2026-05-02T09:38:00.972Z</time></trkpt><trkpt lat="45.797047442269005" lon="8.47955346348739"><ele>766.0</ele><time>2026-05-02T09:38:02.972Z</time></trkpt><trkpt lat="45.797132501204175" lon="8.479494573691644"><ele>766.0</ele><time>2026-05-02T09:38:05.972Z</time></trkpt><trkpt lat="45.7972069230802" lon="8.479499727372211"><ele>766.0</ele><time>2026-05-02T09:38:07.972Z</time></trkpt><trkpt lat="45.79728071232784" lon="8.479528974293148"><ele>766.0</ele><time>2026-05-02T09:38:09.972Z</time></trkpt><trkpt lat="45.79735563781006" lon="8.479600008539522"><ele>766.0</ele><time>2026-05-02T09:38:12.972Z</time></trkpt><trkpt lat="45.79744587692475" lon="8.47963587771127"><ele>766.0</ele><time>2026-05-02T09:38:14.972Z</time></trkpt><trkpt lat="45.79752735653374" lon="8.479738103324197"><ele>766.0</ele><time>2026-05-02T09:38:16.972Z</time></trkpt><trkpt lat="45.79757274384829" lon="8.479829439439293"><ele>766.0</ele><time>2026-05-02T09:38:18.972Z</time></trkpt><trkpt lat="45.797604979265735" lon="8.479925808288176"><ele>766.0</ele><time>2026-05-02T09:38:22.972Z</time></trkpt><trkpt lat="45.79768009531999" lon="8.479995469243002"><ele>766.0</ele><time>2026-05-02T09:38:24.972Z</time></trkpt><trkpt lat="45.797733478691704" lon="8.480052119381915"><ele>766.0</ele><time>2026-05-02T09:38:28.973Z</time></trkpt><trkpt lat="45.797822189656706" lon="8.48014748261069"><ele>766.0</ele><time>2026-05-02T09:38:45.973Z</time></trkpt><trkpt lat="45.7978849986547" lon="8.48019280867383"><ele>767.5</ele><time>2026-05-02T09:38:48.973Z</time></trkpt><trkpt lat="45.79794466358837" lon="8.480286927004677"><ele>769.0</ele><time>2026-05-02T09:38:50.973Z</time></trkpt><trkpt lat="45.79797821448511" lon="8.480379157651672"><ele>770.5</ele><time>2026-05-02T09:38:52.973Z</time></trkpt><trkpt lat="45.798043619007416" lon="8.480392391258896"><ele>772.0</ele><time>2026-05-02T09:38:56.973Z</time></trkpt><trkpt lat="45.798126095984586" lon="8.48032512428116"><ele>773.4999999999999</ele><time>2026-05-02T09:38:59.973Z</time></trkpt><trkpt lat="45.798204537965745" lon="8.480386622654576"><ele>775.0</ele><time>2026-05-02T09:39:01.973Z</time></trkpt><trkpt lat="45.79827247569161" lon="8.480493428667389"><ele>775.25</ele><time>2026-05-02T09:39:03.972Z</time></trkpt><trkpt lat="45.79837794615234" lon="8.480620417763848"><ele>775.5</ele><time>2026-05-02T09:39:05.972Z</time></trkpt><trkpt lat="45.79847561427795" lon="8.480713728949436"><ele>775.75</ele><time>2026-05-02T09:39:06.972Z</time></trkpt><trkpt lat="45.79857981786629" lon="8.480803510138582"><ele>776.0</ele><time>2026-05-02T09:39:07.972Z</time></trkpt><trkpt lat="45.79866564791991" lon="8.48087900504361"><ele>778.4</ele><time>2026-05-02T09:39:08.972Z</time></trkpt><trkpt lat="45.79875504491977" lon="8.480939269733934"><ele>780.8</ele><time>2026-05-02T09:39:09.972Z</time></trkpt><trkpt lat="45.798850276983245" lon="8.481000911998375"><ele>783.1999999999999</ele><time>2026-05-02T09:39:10.972Z</time></trkpt><trkpt lat="45.79894205478036" lon="8.48110501945952"><ele>785.5999999999999</ele><time>2026-05-02T09:39:11.972Z</time></trkpt><trkpt lat="45.79902633465751" lon="8.481190709005572"><ele>788.0</ele><time>2026-05-02T09:39:12.972Z</time></trkpt><trkpt lat="45.79908410171079" lon="8.481242381583018"><ele>788.6666666666667</ele><time>2026-05-02T09:39:13.972Z</time></trkpt><trkpt lat="45.79915468537219" lon="8.481306091782692"><ele>789.3333333333334</ele><time>2026-05-02T09:39:15.972Z</time></trkpt><trkpt lat="45.79921061978" lon="8.481353030814192"><ele>790.0</ele><time>2026-05-02T09:39:16.972Z</time></trkpt><trkpt lat="45.79926583623426" lon="8.481420499525214"><ele>790.6666666666667</ele><time>2026-05-02T09:39:17.972Z</time></trkpt><trkpt lat="45.79933728215253" lon="8.481509647040715"><ele>791.3333333333334</ele><time>2026-05-02T09:39:18.972Z</time></trkpt><trkpt lat="45.7994147369275" lon="8.481615847308161"><ele>792.0</ele><time>2026-05-02T09:39:19.972Z</time></trkpt><trkpt lat="45.79950520138726" lon="8.481741225494652"><ele>792.8333333333334</ele><time>2026-05-02T09:39:20.972Z</time></trkpt><trkpt lat="45.799554186250624" lon="8.481812687984466"><ele>793.6666666666667</ele><time>2026-05-02T09:39:21.972Z</time></trkpt><trkpt lat="45.79965802326555" lon="8.481779987708487"><ele>794.5</ele><time>2026-05-02T09:39:24.972Z</time></trkpt><trkpt lat="45.79973879663919" lon="8.481755349294522"><ele>795.3333333333334</ele><time>2026-05-02T09:39:25.972Z</time></trkpt><trkpt lat="45.79983396738705" lon="8.481770276103724"><ele>796.1666666666667</ele><time>2026-05-02T09:39:26.972Z</time></trkpt><trkpt lat="45.79992593033472" lon="8.481791534149345"><ele>797.0</ele><time>2026-05-02T09:39:27.972Z</time></trkpt><trkpt lat="45.80006058070268" lon="8.481873563578116"><ele>798.5</ele><time>2026-05-02T09:39:28.972Z</time></trkpt><trkpt lat="45.80021105466018" lon="8.48199910289675"><ele>800.0</ele><time>2026-05-02T09:39:29.972Z</time></trkpt><trkpt lat="45.80035713110683" lon="8.482093271407534"><ele>801.5</ele><time>2026-05-02T09:39:30.972Z</time></trkpt><trkpt lat="45.800465426995984" lon="8.482116838679902"><ele>803.0</ele><time>2026-05-02T09:39:31.972Z</time></trkpt><trkpt lat="45.800534983985465" lon="8.482124877637753"><ele>803.0</ele><time>2026-05-02T09:39:32.972Z</time></trkpt><trkpt lat="45.80062678249315" lon="8.482106997604777"><ele>803.0</ele><time>2026-05-02T09:39:35.972Z</time></trkpt><trkpt lat="45.80069146877379" lon="8.482126975849505"><ele>803.0</ele><time>2026-05-02T09:39:36.972Z</time></trkpt><trkpt lat="45.800774537194556" lon="8.482166787923637"><ele>803.0</ele><time>2026-05-02T09:39:37.972Z</time></trkpt><trkpt lat="45.80089324962748" lon="8.482209191957876"><ele>803.0</ele><time>2026-05-02T09:39:38.972Z</time></trkpt><trkpt lat="45.80103080569763" lon="8.482252080491207"><ele>803.8</ele><time>2026-05-02T09:39:39.972Z</time></trkpt><trkpt lat="45.80114061951838" lon="8.482286776746383"><ele>804.5999999999999</ele><time>2026-05-02T09:39:40.972Z</time></trkpt><trkpt lat="45.801239889217136" lon="8.482291072699976"><ele>805.4000000000001</ele><time>2026-05-02T09:39:41.972Z</time></trkpt><trkpt lat="45.801316150024974" lon="8.482266264488798"><ele>806.2</ele><time>2026-05-02T09:39:42.972Z</time></trkpt><trkpt lat="45.80141643315136" lon="8.482219717096726"><ele>807.0</ele><time>2026-05-02T09:39:43.972Z</time></trkpt><trkpt lat="45.801524249246405" lon="8.482161380112894"><ele>807.0</ele><time>2026-05-02T09:39:44.972Z</time></trkpt><trkpt lat="45.80161283009485" lon="8.482113467106593"><ele>807.0</ele><time>2026-05-02T09:39:45.972Z</time></trkpt><trkpt lat="45.801690442277255" lon="8.482064436771028"><ele>807.0</ele><time>2026-05-02T09:39:46.972Z</time></trkpt><trkpt lat="45.80177350280525" lon="8.481954845504223"><ele>807.0</ele><time>2026-05-02T09:39:47.972Z</time></trkpt><trkpt lat="45.801859126631236" lon="8.481837318815124"><ele>807.0</ele><time>2026-05-02T09:39:48.972Z</time></trkpt><trkpt lat="45.80190844427833" lon="8.481777968594244"><ele>804.5</ele><time>2026-05-02T09:39:49.972Z</time></trkpt><trkpt lat="45.801988744550144" lon="8.48175006055504"><ele>802.0</ele><time>2026-05-02T09:39:50.972Z</time></trkpt><trkpt lat="45.802128499875735" lon="8.481713336864088"><ele>799.5</ele><time>2026-05-02T09:39:51.972Z</time></trkpt><trkpt lat="45.802272157217345" lon="8.4816841888083"><ele>797.0</ele><time>2026-05-02T09:39:52.972Z</time></trkpt><trkpt lat="45.80242806458114" lon="8.481669204528178"><ele>797.0</ele><time>2026-05-02T09:39:53.972Z</time></trkpt><trkpt lat="45.80257044762254" lon="8.481669845653546"><ele>797.0</ele><time>2026-05-02T09:39:54.972Z</time></trkpt><trkpt lat="45.802677434047126" lon="8.48166127247719"><ele>797.0</ele><time>2026-05-02T09:39:55.972Z</time></trkpt><trkpt lat="45.80277058960583" lon="8.48162146635073"><ele>797.0</ele><time>2026-05-02T09:39:56.972Z</time></trkpt><trkpt lat="45.80283313306483" lon="8.481586858544237"><ele>797.0</ele><time>2026-05-02T09:39:57.972Z</time></trkpt><trkpt lat="45.80290769109935" lon="8.481449358721974"><ele>794.5</ele><time>2026-05-02T09:39:59.972Z</time></trkpt><trkpt lat="45.80299399583549" lon="8.481350893908274"><ele>792.0</ele><time>2026-05-02T09:40:00.972Z</time></trkpt><trkpt lat="45.80308682996399" lon="8.481256734253416"><ele>789.5</ele><time>2026-05-02T09:40:01.972Z</time></trkpt><trkpt lat="45.80317663598219" lon="8.481129509936242"><ele>787.0</ele><time>2026-05-02T09:40:02.972Z</time></trkpt><trkpt lat="45.80327159786689" lon="8.48102185314991"><ele>784.8</ele><time>2026-05-02T09:40:03.972Z</time></trkpt><trkpt lat="45.803364581169205" lon="8.480962260628361"><ele>782.6</ele><time>2026-05-02T09:40:04.972Z</time></trkpt><trkpt lat="45.803437038111205" lon="8.48094823782293"><ele>780.4</ele><time>2026-05-02T09:40:05.972Z</time></trkpt><trkpt lat="45.80351664462339" lon="8.480931986233943"><ele>778.1999999999999</ele><time>2026-05-02T09:40:06.972Z</time></trkpt><trkpt lat="45.8036114217287" lon="8.480851392472784"><ele>776.0</ele><time>2026-05-02T09:40:07.972Z</time></trkpt><trkpt lat="45.80368209033265" lon="8.480764492323207"><ele>776.0</ele><time>2026-05-02T09:40:08.972Z</time></trkpt><trkpt lat="45.80375981159439" lon="8.480700857320498"><ele>776.0</ele><time>2026-05-02T09:40:09.972Z</time></trkpt><trkpt lat="45.80382873795711" lon="8.4806987845811"><ele>776.0</ele><time>2026-05-02T09:40:10.972Z</time></trkpt><trkpt lat="45.80390326713465" lon="8.480525619908935"><ele>776.0</ele><time>2026-05-02T09:40:13.972Z</time></trkpt><trkpt lat="45.803953998656034" lon="8.48041049460246"><ele>776.0</ele><time>2026-05-02T09:40:14.972Z</time></trkpt><trkpt lat="45.804027361554674" lon="8.480253099571847"><ele>776.0</ele><time>2026-05-02T09:40:15.972Z</time></trkpt><trkpt lat="45.80407344601549" lon="8.480108140228735"><ele>776.0</ele><time>2026-05-02T09:40:16.972Z</time></trkpt><trkpt lat="45.80412003812399" lon="8.479983796565215"><ele>776.0</ele><time>2026-05-02T09:40:17.972Z</time></trkpt><trkpt lat="45.80420806918831" lon="8.47987197710787"><ele>776.0</ele><time>2026-05-02T09:40:18.972Z</time></trkpt><trkpt lat="45.80428886401931" lon="8.479760748895924"><ele>776.0</ele><time>2026-05-02T09:40:19.972Z</time></trkpt><trkpt lat="45.80433500655154" lon="8.479690454266317"><ele>773.5000000000001</ele><time>2026-05-02T09:40:20.972Z</time></trkpt><trkpt lat="45.80438367094573" lon="8.479607618230956"><ele>771.0</ele><time>2026-05-02T09:40:21.972Z</time></trkpt><trkpt lat="45.80442759671215" lon="8.479515858515859"><ele>768.5</ele><time>2026-05-02T09:40:22.972Z</time></trkpt><trkpt lat="45.804513657869975" lon="8.479396049605459"><ele>766.0</ele><time>2026-05-02T09:40:24.972Z</time></trkpt><trkpt lat="45.804569801071835" lon="8.479345287591025"><ele>763.5</ele><time>2026-05-02T09:40:25.972Z</time></trkpt><trkpt lat="45.804647930096166" lon="8.479267015786792"><ele>761.0</ele><time>2026-05-02T09:40:26.972Z</time></trkpt><trkpt lat="45.804711191621635" lon="8.47921048498633"><ele>761.0</ele><time>2026-05-02T09:40:27.972Z</time></trkpt><trkpt lat="45.80478263955635" lon="8.479098032573424"><ele>761.0</ele><time>2026-05-02T09:40:28.972Z</time></trkpt><trkpt lat="45.80483790628414" lon="8.478973813779783"><ele>761.0</ele><time>2026-05-02T09:40:29.972Z</time></trkpt><trkpt lat="45.80487799876058" lon="8.47878993033245"><ele>761.0</ele><time>2026-05-02T09:40:30.972Z</time></trkpt><trkpt lat="45.80489623084788" lon="8.478622481020347"><ele>760.4</ele><time>2026-05-02T09:40:31.972Z</time></trkpt><trkpt lat="45.80491206565044" lon="8.478456344833766"><ele>759.8</ele><time>2026-05-02T09:40:32.971Z</time></trkpt><trkpt lat="45.804945724395736" lon="8.478350813347687"><ele>759.1999999999999</ele><time>2026-05-02T09:40:33.972Z</time></trkpt><trkpt lat="45.805014459850405" lon="8.478261085033509"><ele>758.5999999999999</ele><time>2026-05-02T09:40:34.972Z</time></trkpt><trkpt lat="45.8050902628176" lon="8.47816112958048"><ele>758.0</ele><time>2026-05-02T09:40:35.972Z</time></trkpt><trkpt lat="45.8051703553472" lon="8.47804501644682"><ele>757.8</ele><time>2026-05-02T09:40:36.972Z</time></trkpt><trkpt lat="45.80522431209152" lon="8.477941254787536"><ele>757.5999999999999</ele><time>2026-05-02T09:40:37.972Z</time></trkpt><trkpt lat="45.80529176888102" lon="8.477876685464697"><ele>757.4000000000001</ele><time>2026-05-02T09:40:38.972Z</time></trkpt><trkpt lat="45.805365979966616" lon="8.477793491157986"><ele>757.2</ele><time>2026-05-02T09:40:39.971Z</time></trkpt><trkpt lat="45.805451551986934" lon="8.477724629064944"><ele>757.0</ele><time>2026-05-02T09:40:40.971Z</time></trkpt><trkpt lat="45.80554285952674" lon="8.477646558340922"><ele>757.0</ele><time>2026-05-02T09:40:41.972Z</time></trkpt><trkpt lat="45.805640400662064" lon="8.477552433510946"><ele>757.0</ele><time>2026-05-02T09:40:42.972Z</time></trkpt><trkpt lat="45.805728417146355" lon="8.477461508341603"><ele>757.0</ele><time>2026-05-02T09:40:43.972Z</time></trkpt><trkpt lat="45.8057948526476" lon="8.477402361133764"><ele>757.0</ele><time>2026-05-02T09:40:44.972Z</time></trkpt><trkpt lat="45.80584767957982" lon="8.477346369547915"><ele>757.0</ele><time>2026-05-02T09:40:45.971Z</time></trkpt><trkpt lat="45.80590430036471" lon="8.477280010082076"><ele>757.0</ele><time>2026-05-02T09:40:46.971Z</time></trkpt><trkpt lat="45.80596401251913" lon="8.477196896084017"><ele>757.6</ele><time>2026-05-02T09:40:47.971Z</time></trkpt><trkpt lat="45.806028908067645" lon="8.477120508194446"><ele>758.2</ele><time>2026-05-02T09:40:48.971Z</time></trkpt><trkpt lat="45.806095520754994" lon="8.477061339298254"><ele>758.8</ele><time>2026-05-02T09:40:49.971Z</time></trkpt><trkpt lat="45.80617632737665" lon="8.477002117363423"><ele>759.4</ele><time>2026-05-02T09:40:50.971Z</time></trkpt><trkpt lat="45.80627542607397" lon="8.476936092485326"><ele>760.0</ele><time>2026-05-02T09:40:51.971Z</time></trkpt><trkpt lat="45.8063762417414" lon="8.476878011106555"><ele>760.0</ele><time>2026-05-02T09:40:52.971Z</time></trkpt><trkpt lat="45.80645626748255" lon="8.476806168412677"><ele>760.0</ele><time>2026-05-02T09:40:53.971Z</time></trkpt><trkpt lat="45.80652547455288" lon="8.476760345931394"><ele>760.0</ele><time>2026-05-02T09:40:54.971Z</time></trkpt><trkpt lat="45.80661010386957" lon="8.476699103124712"><ele>760.0</ele><time>2026-05-02T09:40:55.971Z</time></trkpt><trkpt lat="45.806695349274946" lon="8.4766562518189"><ele>760.0</ele><time>2026-05-02T09:40:56.971Z</time></trkpt><trkpt lat="45.806783151168005" lon="8.476634716102149"><ele>760.0</ele><time>2026-05-02T09:40:57.971Z</time></trkpt><trkpt lat="45.80685827165512" lon="8.476600428213308"><ele>759.0</ele><time>2026-05-02T09:40:58.971Z</time></trkpt><trkpt lat="45.806922143382835" lon="8.476582664726244"><ele>758.0</ele><time>2026-05-02T09:40:59.971Z</time></trkpt><trkpt lat="45.80697168051349" lon="8.47649644322409"><ele>757.0</ele><time>2026-05-02T09:41:00.971Z</time></trkpt><trkpt lat="45.807023655214806" lon="8.476548040071918"><ele>756.0</ele><time>2026-05-02T09:41:01.971Z</time></trkpt><trkpt lat="45.807105897650935" lon="8.476476790529517"><ele>755.0</ele><time>2026-05-02T09:41:03.971Z</time></trkpt><trkpt lat="45.807167278794026" lon="8.47641652305153"><ele>754.0</ele><time>2026-05-02T09:41:04.971Z</time></trkpt><trkpt lat="45.80728037743832" lon="8.476330276228877"><ele>754.0</ele><time>2026-05-02T09:41:06.971Z</time></trkpt><trkpt lat="45.80736315290324" lon="8.47627792643761"><ele>754.0</ele><time>2026-05-02T09:41:07.971Z</time></trkpt><trkpt lat="45.80744855046463" lon="8.476214047585623"><ele>754.0</ele><time>2026-05-02T09:41:08.971Z</time></trkpt><trkpt lat="45.807565435574524" lon="8.476117147587674"><ele>754.0</ele><time>2026-05-02T09:41:09.971Z</time></trkpt><trkpt lat="45.807672582512225" lon="8.476005929303248"><ele>754.4000000000001</ele><time>2026-05-02T09:41:10.971Z</time></trkpt><trkpt lat="45.807754172313395" lon="8.475934273567512"><ele>754.8</ele><time>2026-05-02T09:41:11.971Z</time></trkpt><trkpt lat="45.80782121056822" lon="8.475828504455132"><ele>755.2</ele><time>2026-05-02T09:41:13.971Z</time></trkpt><trkpt lat="45.80788576486078" lon="8.47568339913147"><ele>755.5999999999999</ele><time>2026-05-02T09:41:15.971Z</time></trkpt><trkpt lat="45.80792315481445" lon="8.475541466657576"><ele>756.0</ele><time>2026-05-02T09:41:16.971Z</time></trkpt><trkpt lat="45.80797983237542" lon="8.475439624065901"><ele>753.8333333333334</ele><time>2026-05-02T09:41:17.971Z</time></trkpt><trkpt lat="45.80805244046281" lon="8.475336605434185"><ele>751.6666666666666</ele><time>2026-05-02T09:41:18.971Z</time></trkpt><trkpt lat="45.80811316000058" lon="8.475260578865763"><ele>749.5</ele><time>2026-05-02T09:41:19.971Z</time></trkpt><trkpt lat="45.808193522463114" lon="8.475220783428522"><ele>747.3333333333333</ele><time>2026-05-02T09:41:20.971Z</time></trkpt><trkpt lat="45.808258185938875" lon="8.475199463224756"><ele>745.1666666666666</ele><time>2026-05-02T09:41:21.971Z</time></trkpt><trkpt lat="45.80833072793168" lon="8.475178364221096"><ele>743.0</ele><time>2026-05-02T09:41:22.971Z</time></trkpt><trkpt lat="45.808384710980924" lon="8.475128134754604"><ele>743.0</ele><time>2026-05-02T09:41:23.971Z</time></trkpt><trkpt lat="45.80844480277579" lon="8.475076844474449"><ele>743.0</ele><time>2026-05-02T09:41:24.971Z</time></trkpt><trkpt lat="45.80852311398688" lon="8.475021608078487"><ele>743.0</ele><time>2026-05-02T09:41:25.971Z</time></trkpt><trkpt lat="45.808587065669016" lon="8.474940224537995"><ele>743.0</ele><time>2026-05-02T09:41:26.971Z</time></trkpt><trkpt lat="45.80866772509337" lon="8.47487785993072"><ele>743.0</ele><time>2026-05-02T09:41:27.971Z</time></trkpt><trkpt lat="45.80874830205254" lon="8.474804523627693"><ele>743.0</ele><time>2026-05-02T09:41:28.971Z</time></trkpt><trkpt lat="45.808807890073886" lon="8.474684641327272"><ele>741.5999999999999</ele><time>2026-05-02T09:41:29.971Z</time></trkpt><trkpt lat="45.80886198417658" lon="8.474565034196551"><ele>740.1999999999999</ele><time>2026-05-02T09:41:30.971Z</time></trkpt><trkpt lat="45.808933686606636" lon="8.474425886577107"><ele>738.8</ele><time>2026-05-02T09:41:31.971Z</time></trkpt><trkpt lat="45.80897670031142" lon="8.474333377391316"><ele>737.4</ele><time>2026-05-02T09:41:32.971Z</time></trkpt><trkpt lat="45.809029415503254" lon="8.47421459756806"><ele>736.0</ele><time>2026-05-02T09:41:33.971Z</time></trkpt><trkpt lat="45.80911672330709" lon="8.474104894651063"><ele>736.0</ele><time>2026-05-02T09:41:34.971Z</time></trkpt><trkpt lat="45.80921185258535" lon="8.474016000715666"><ele>736.0</ele><time>2026-05-02T09:41:35.971Z</time></trkpt><trkpt lat="45.80928231344097" lon="8.47392922337876"><ele>736.0</ele><time>2026-05-02T09:41:36.971Z</time></trkpt><trkpt lat="45.809332614052465" lon="8.473785496906087"><ele>736.0</ele><time>2026-05-02T09:41:37.971Z</time></trkpt><trkpt lat="45.80939124729362" lon="8.473679150479105"><ele>736.0</ele><time>2026-05-02T09:41:38.971Z</time></trkpt><trkpt lat="45.809442636374634" lon="8.473602272558404"><ele>735.0</ele><time>2026-05-02T09:41:39.971Z</time></trkpt><trkpt lat="45.80950499623468" lon="8.473547452242578"><ele>734.0</ele><time>2026-05-02T09:41:40.971Z</time></trkpt><trkpt lat="45.809568116527394" lon="8.473505520300924"><ele>733.0</ele><time>2026-05-02T09:41:41.971Z</time></trkpt><trkpt lat="45.809646104687836" lon="8.47347231625048"><ele>732.0</ele><time>2026-05-02T09:41:42.971Z</time></trkpt><trkpt lat="45.80975437851924" lon="8.47342862763374"><ele>731.0</ele><time>2026-05-02T09:41:43.971Z</time></trkpt><trkpt lat="45.80984794408703" lon="8.473372802957805"><ele>730.0</ele><time>2026-05-02T09:41:44.971Z</time></trkpt><trkpt lat="45.80992742340048" lon="8.473341849747584"><ele>730.0</ele><time>2026-05-02T09:41:45.971Z</time></trkpt><trkpt lat="45.8099995988204" lon="8.47335738900158"><ele>730.0</ele><time>2026-05-02T09:41:46.971Z</time></trkpt><trkpt lat="45.81010730901795" lon="8.473296271654592"><ele>730.0</ele><time>2026-05-02T09:41:48.971Z</time></trkpt><trkpt lat="45.810178248162316" lon="8.473213444336487"><ele>730.0</ele><time>2026-05-02T09:41:49.971Z</time></trkpt><trkpt lat="45.810266250709184" lon="8.473128897939919"><ele>730.0</ele><time>2026-05-02T09:41:50.971Z</time></trkpt><trkpt lat="45.81033783163143" lon="8.47300294283182"><ele>729.2</ele><time>2026-05-02T09:41:51.971Z</time></trkpt><trkpt lat="45.81040606519342" lon="8.472903412183006"><ele>728.4</ele><time>2026-05-02T09:41:52.971Z</time></trkpt><trkpt lat="45.81047503919309" lon="8.472838869512572"><ele>727.5999999999999</ele><time>2026-05-02T09:41:53.971Z</time></trkpt><trkpt lat="45.81053855960278" lon="8.472799481136175"><ele>726.8</ele><time>2026-05-02T09:41:54.971Z</time></trkpt><trkpt lat="45.81061570267089" lon="8.472700968101556"><ele>726.0</ele><time>2026-05-02T09:41:56.971Z</time></trkpt><trkpt lat="45.810715128648155" lon="8.472619035450522"><ele>726.0</ele><time>2026-05-02T09:41:58.971Z</time></trkpt><trkpt lat="45.81078971970674" lon="8.47261524561605"><ele>726.0</ele><time>2026-05-02T09:41:59.971Z</time></trkpt><trkpt lat="45.810857400195054" lon="8.472629571704674"><ele>726.0</ele><time>2026-05-02T09:42:00.971Z</time></trkpt><trkpt lat="45.81094856702242" lon="8.472638979134677"><ele>726.0</ele><time>2026-05-02T09:42:01.971Z</time></trkpt><trkpt lat="45.81102642354767" lon="8.472627997686484"><ele>726.0</ele><time>2026-05-02T09:42:02.971Z</time></trkpt><trkpt lat="45.81116802555277" lon="8.472550662263243"><ele>721.75</ele><time>2026-05-02T09:42:04.971Z</time></trkpt><trkpt lat="45.81128735063887" lon="8.472481474294453"><ele>717.5</ele><time>2026-05-02T09:42:05.971Z</time></trkpt><trkpt lat="45.81143003935541" lon="8.472387354928292"><ele>713.25</ele><time>2026-05-02T09:42:06.971Z</time></trkpt><trkpt lat="45.81155747158675" lon="8.47232098785183"><ele>709.0</ele><time>2026-05-02T09:42:07.971Z</time></trkpt><trkpt lat="45.81165429521655" lon="8.472290140941107"><ele>709.0</ele><time>2026-05-02T09:42:08.971Z</time></trkpt><trkpt lat="45.81174519221346" lon="8.472244826270446"><ele>709.0</ele><time>2026-05-02T09:42:09.971Z</time></trkpt><trkpt lat="45.8118433955739" lon="8.472161844156174"><ele>709.0</ele><time>2026-05-02T09:42:10.971Z</time></trkpt><trkpt lat="45.811933262873254" lon="8.472039270476362"><ele>709.0</ele><time>2026-05-02T09:42:11.971Z</time></trkpt><trkpt lat="45.812009621939715" lon="8.471922915445518"><ele>709.0</ele><time>2026-05-02T09:42:12.971Z</time></trkpt><trkpt lat="45.8120979658289" lon="8.471842546310103"><ele>709.0</ele><time>2026-05-02T09:42:13.971Z</time></trkpt><trkpt lat="45.81219660146764" lon="8.471749085907819"><ele>709.0</ele><time>2026-05-02T09:42:14.971Z</time></trkpt><trkpt lat="45.81229721108303" lon="8.471706675936879"><ele>709.0</ele><time>2026-05-02T09:42:15.971Z</time></trkpt><trkpt lat="45.8123775946155" lon="8.471663347578666"><ele>709.0</ele><time>2026-05-02T09:42:16.971Z</time></trkpt><trkpt lat="45.81250662669536" lon="8.4716284875959"><ele>709.0</ele><time>2026-05-02T09:42:18.971Z</time></trkpt><trkpt lat="45.81265677970588" lon="8.47167826449673"><ele>706.8000000000001</ele><time>2026-05-02T09:42:20.971Z</time></trkpt><trkpt lat="45.81276014283862" lon="8.47171524540104"><ele>704.6</ele><time>2026-05-02T09:42:21.971Z</time></trkpt><trkpt lat="45.81283907041989" lon="8.471744885228503"><ele>702.4</ele><time>2026-05-02T09:42:22.971Z</time></trkpt><trkpt lat="45.812939761330945" lon="8.471740971183364"><ele>700.2</ele><time>2026-05-02T09:42:24.971Z</time></trkpt><trkpt lat="45.81303482799526" lon="8.471705611117873"><ele>698.0</ele><time>2026-05-02T09:42:25.971Z</time></trkpt><trkpt lat="45.81311438534202" lon="8.471685609314425"><ele>698.0</ele><time>2026-05-02T09:42:26.971Z</time></trkpt><trkpt lat="45.813202463702595" lon="8.471637072654419"><ele>698.0</ele><time>2026-05-02T09:42:27.971Z</time></trkpt><trkpt lat="45.81329161738965" lon="8.471596641009477"><ele>698.0</ele><time>2026-05-02T09:42:28.971Z</time></trkpt><trkpt lat="45.81335473240409" lon="8.471543385001"><ele>698.0</ele><time>2026-05-02T09:42:29.971Z</time></trkpt><trkpt lat="45.813453492751854" lon="8.471423193675587"><ele>698.0</ele><time>2026-05-02T09:42:31.971Z</time></trkpt><trkpt lat="45.8135703897908" lon="8.471332630371313"><ele>693.2</ele><time>2026-05-02T09:42:32.971Z</time></trkpt><trkpt lat="45.81367182897568" lon="8.471259961117584"><ele>688.4</ele><time>2026-05-02T09:42:33.971Z</time></trkpt><trkpt lat="45.813760374750494" lon="8.471185927798055"><ele>683.6</ele><time>2026-05-02T09:42:34.971Z</time></trkpt><trkpt lat="45.813808520202514" lon="8.47111884076483"><ele>678.8000000000001</ele><time>2026-05-02T09:42:35.971Z</time></trkpt><trkpt lat="45.81387609396899" lon="8.470993659527597"><ele>674.0</ele><time>2026-05-02T09:42:37.971Z</time></trkpt><trkpt lat="45.8138850299783" lon="8.470888584104078"><ele>674.0</ele><time>2026-05-02T09:42:38.972Z</time></trkpt><trkpt lat="45.81389791425545" lon="8.47071550290162"><ele>674.0</ele><time>2026-05-02T09:42:40.971Z</time></trkpt><trkpt lat="45.81393998246914" lon="8.470597068037117"><ele>674.0</ele><time>2026-05-02T09:42:41.972Z</time></trkpt><trkpt lat="45.813960057781756" lon="8.470433348481347"><ele>674.0</ele><time>2026-05-02T09:42:43.971Z</time></trkpt><trkpt lat="45.81387122996473" lon="8.47039819391605"><ele>674.0</ele><time>2026-05-02T09:42:45.971Z</time></trkpt><trkpt lat="45.81382095469306" lon="8.470311203806073"><ele>671.8000000000001</ele><time>2026-05-02T09:42:46.971Z</time></trkpt><trkpt lat="45.81374701992611" lon="8.470198548009163"><ele>669.6</ele><time>2026-05-02T09:42:47.971Z</time></trkpt><trkpt lat="45.81367947532979" lon="8.470085443034389"><ele>667.4</ele><time>2026-05-02T09:42:48.971Z</time></trkpt><trkpt lat="45.81365022370119" lon="8.469992784927909"><ele>665.2</ele><time>2026-05-02T09:42:49.971Z</time></trkpt><trkpt lat="45.813617330266446" lon="8.46987315618857"><ele>663.0</ele><time>2026-05-02T09:42:50.971Z</time></trkpt><trkpt lat="45.8135734491865" lon="8.469773825064863"><ele>663.0</ele><time>2026-05-02T09:42:51.971Z</time></trkpt><trkpt lat="45.81350760855162" lon="8.469614965582627"><ele>663.0</ele><time>2026-05-02T09:42:53.971Z</time></trkpt><trkpt lat="45.81347078621949" lon="8.469514098361957"><ele>663.0</ele><time>2026-05-02T09:42:55.971Z</time></trkpt><trkpt lat="45.8135177999538" lon="8.469381292118234"><ele>663.0</ele><time>2026-05-02T09:42:56.971Z</time></trkpt><trkpt lat="45.813494539834565" lon="8.469282509370405"><ele>663.0</ele><time>2026-05-02T09:42:57.971Z</time></trkpt><trkpt lat="45.81346922048415" lon="8.469169569975554"><ele>663.0</ele><time>2026-05-02T09:42:59.971Z</time></trkpt><trkpt lat="45.81344322051188" lon="8.46905193018963"><ele>663.0</ele><time>2026-05-02T09:43:01.971Z</time></trkpt><trkpt lat="45.813413728544475" lon="8.468937151995956"><ele>663.0</ele><time>2026-05-02T09:43:02.971Z</time></trkpt><trkpt lat="45.81335342517817" lon="8.468791588823045"><ele>663.0</ele><time>2026-05-02T09:43:03.971Z</time></trkpt><trkpt lat="45.813305983214185" lon="8.468709990942855"><ele>663.0</ele><time>2026-05-02T09:43:04.971Z</time></trkpt><trkpt lat="45.81325566316547" lon="8.468641855828382"><ele>663.0</ele><time>2026-05-02T09:43:05.971Z</time></trkpt><trkpt lat="45.813156665452375" lon="8.468500143805368"><ele>657.8</ele><time>2026-05-02T09:43:07.971Z</time></trkpt><trkpt lat="45.8131061000542" lon="8.468401141550713"><ele>652.5999999999999</ele><time>2026-05-02T09:43:08.971Z</time></trkpt><trkpt lat="45.813075877515296" lon="8.46830675643471"><ele>647.4000000000001</ele><time>2026-05-02T09:43:09.971Z</time></trkpt><trkpt lat="45.81302861738405" lon="8.468125681333225"><ele>642.2</ele><time>2026-05-02T09:43:11.971Z</time></trkpt><trkpt lat="45.81300395741826" lon="8.467993181401186"><ele>637.0</ele><time>2026-05-02T09:43:13.971Z</time></trkpt><trkpt lat="45.812991738463076" lon="8.467904095574506"><ele>634.1666666666667</ele><time>2026-05-02T09:43:15.971Z</time></trkpt><trkpt lat="45.812975876657994" lon="8.467808245643594"><ele>631.3333333333334</ele><time>2026-05-02T09:43:17.971Z</time></trkpt><trkpt lat="45.81297309745288" lon="8.467717478816388"><ele>628.5</ele><time>2026-05-02T09:43:19.971Z</time></trkpt><trkpt lat="45.81298453786641" lon="8.467568863253994"><ele>625.6666666666666</ele><time>2026-05-02T09:43:21.971Z</time></trkpt><trkpt lat="45.8130018617363" lon="8.467436304597289"><ele>622.8333333333333</ele><time>2026-05-02T09:43:23.971Z</time></trkpt><trkpt lat="45.81301840770898" lon="8.46728962903571"><ele>620.0</ele><time>2026-05-02T09:43:24.971Z</time></trkpt><trkpt lat="45.813016966265764" lon="8.46719241823738"><ele>616.0</ele><time>2026-05-02T09:43:25.971Z</time></trkpt><trkpt lat="45.81300279437978" lon="8.467094994009752"><ele>612.0</ele><time>2026-05-02T09:43:26.971Z</time></trkpt><trkpt lat="45.812967886960564" lon="8.466946239350063"><ele>608.0</ele><time>2026-05-02T09:43:28.971Z</time></trkpt><trkpt lat="45.81293242116152" lon="8.466838248471156"><ele>604.0</ele><time>2026-05-02T09:43:29.971Z</time></trkpt><trkpt lat="45.81286463526517" lon="8.46668847708423"><ele>600.0</ele><time>2026-05-02T09:43:31.971Z</time></trkpt><trkpt lat="45.81282099482456" lon="8.466610819845744"><ele>600.0</ele><time>2026-05-02T09:43:32.971Z</time></trkpt><trkpt lat="45.81276960746467" lon="8.466548532589627"><ele>600.0</ele><time>2026-05-02T09:43:34.971Z</time></trkpt><trkpt lat="45.81271384325161" lon="8.466489932824807"><ele>600.0</ele><time>2026-05-02T09:43:36.971Z</time></trkpt><trkpt lat="45.812653474198356" lon="8.46639944918541"><ele>600.0</ele><time>2026-05-02T09:43:38.971Z</time></trkpt><trkpt lat="45.81261215794596" lon="8.46632798487122"><ele>600.0</ele><time>2026-05-02T09:43:40.971Z</time></trkpt><trkpt lat="45.81263274734029" lon="8.466106239774437"><ele>600.0</ele><time>2026-05-02T09:43:41.971Z</time></trkpt><trkpt lat="45.81259993380886" lon="8.465910575402269"><ele>603.0</ele><time>2026-05-02T09:43:42.971Z</time></trkpt><trkpt lat="45.81261297084943" lon="8.465760115875442"><ele>606.0</ele><time>2026-05-02T09:43:43.971Z</time></trkpt><trkpt lat="45.81262276382812" lon="8.465606934457014"><ele>609.0</ele><time>2026-05-02T09:43:44.971Z</time></trkpt><trkpt lat="45.812622548867274" lon="8.465483420083832"><ele>612.0</ele><time>2026-05-02T09:43:45.971Z</time></trkpt><trkpt lat="45.812620033197945" lon="8.46538395029476"><ele>615.0</ele><time>2026-05-02T09:43:46.97Z</time></trkpt><trkpt lat="45.812657468791485" lon="8.465217777245169"><ele>606.6666666666666</ele><time>2026-05-02T09:43:48.97Z</time></trkpt><trkpt lat="45.812680852006295" lon="8.465123974997704"><ele>598.3333333333334</ele><time>2026-05-02T09:43:49.97Z</time></trkpt><trkpt lat="45.81270831574231" lon="8.465027225327471"><ele>590.0</ele><time>2026-05-02T09:43:50.97Z</time></trkpt><trkpt lat="45.81274676549428" lon="8.464848894002888"><ele>581.6666666666667</ele><time>2026-05-02T09:43:52.97Z</time></trkpt><trkpt lat="45.81276463246175" lon="8.464756741861317"><ele>573.3333333333334</ele><time>2026-05-02T09:43:53.97Z</time></trkpt><trkpt lat="45.81276577081083" lon="8.464644349628655"><ele>565.0</ele><time>2026-05-02T09:43:54.97Z</time></trkpt><trkpt lat="45.81274583641038" lon="8.46455394862862"><ele>565.0</ele><time>2026-05-02T09:43:55.97Z</time></trkpt><trkpt lat="45.8127416103556" lon="8.46444648431319"><ele>565.0</ele><time>2026-05-02T09:43:56.97Z</time></trkpt><trkpt lat="45.81281832171269" lon="8.464262858966089"><ele>565.0</ele><time>2026-05-02T09:43:58.97Z</time></trkpt><trkpt lat="45.81286094030966" lon="8.464157450766614"><ele>565.0</ele><time>2026-05-02T09:43:59.97Z</time></trkpt><trkpt lat="45.81289879511716" lon="8.464062937998245"><ele>565.0</ele><time>2026-05-02T09:44:00.97Z</time></trkpt><trkpt lat="45.812908737941584" lon="8.463972038523693"><ele>565.0</ele><time>2026-05-02T09:44:01.97Z</time></trkpt><trkpt lat="45.81293642392104" lon="8.46381909741409"><ele>566.1666666666667</ele><time>2026-05-02T09:44:03.97Z</time></trkpt><trkpt lat="45.81294334074182" lon="8.463711909102289"><ele>567.3333333333334</ele><time>2026-05-02T09:44:04.97Z</time></trkpt><trkpt lat="45.81295569374152" lon="8.463604113598093"><ele>568.5</ele><time>2026-05-02T09:44:05.97Z</time></trkpt><trkpt lat="45.812963160191565" lon="8.463507784892801"><ele>569.6666666666666</ele><time>2026-05-02T09:44:06.97Z</time></trkpt><trkpt lat="45.81302681050551" lon="8.463336401717491"><ele>570.8333333333333</ele><time>2026-05-02T09:44:08.97Z</time></trkpt><trkpt lat="45.81305439233053" lon="8.463229969879652"><ele>572.0</ele><time>2026-05-02T09:44:09.97Z</time></trkpt><trkpt lat="45.81308988165604" lon="8.463106711295543"><ele>572.0</ele><time>2026-05-02T09:44:10.97Z</time></trkpt><trkpt lat="45.81311670677898" lon="8.46299152432416"><ele>572.0</ele><time>2026-05-02T09:44:11.97Z</time></trkpt><trkpt lat="45.81313202448425" lon="8.462857892182415"><ele>572.0</ele><time>2026-05-02T09:44:12.97Z</time></trkpt><trkpt lat="45.81317708530003" lon="8.462692854918407"><ele>572.0</ele><time>2026-05-02T09:44:13.97Z</time></trkpt><trkpt lat="45.81320783014242" lon="8.462551390667965"><ele>572.0</ele><time>2026-05-02T09:44:14.97Z</time></trkpt><trkpt lat="45.81327565755586" lon="8.462436467189338"><ele>573.8333333333333</ele><time>2026-05-02T09:44:15.97Z</time></trkpt><trkpt lat="45.81334217277844" lon="8.462329808804984"><ele>575.6666666666666</ele><time>2026-05-02T09:44:16.97Z</time></trkpt><trkpt lat="45.8134198568553" lon="8.462241505481208"><ele>577.5</ele><time>2026-05-02T09:44:17.97Z</time></trkpt><trkpt lat="45.81348258353333" lon="8.462194192256035"><ele>579.3333333333334</ele><time>2026-05-02T09:44:18.97Z</time></trkpt><trkpt lat="45.81354512929689" lon="8.462099863664994"><ele>581.1666666666667</ele><time>2026-05-02T09:44:20.97Z</time></trkpt><trkpt lat="45.81358666069951" lon="8.462026319329617"><ele>583.0</ele><time>2026-05-02T09:44:21.97Z</time></trkpt><trkpt lat="45.813616624661805" lon="8.461938804887613"><ele>575.4</ele><time>2026-05-02T09:44:22.97Z</time></trkpt><trkpt lat="45.81368136698954" lon="8.461819026951884"><ele>567.8</ele><time>2026-05-02T09:44:23.97Z</time></trkpt><trkpt lat="45.81373192602019" lon="8.461694106654749"><ele>560.2</ele><time>2026-05-02T09:44:24.97Z</time></trkpt><trkpt lat="45.81382879499533" lon="8.461597173491011"><ele>552.6</ele><time>2026-05-02T09:44:25.97Z</time></trkpt><trkpt lat="45.81388781512537" lon="8.461540865073449"><ele>545.0</ele><time>2026-05-02T09:44:26.97Z</time></trkpt><trkpt lat="45.813943205719724" lon="8.461474346859681"><ele>545.0</ele><time>2026-05-02T09:44:27.97Z</time></trkpt><trkpt lat="45.814000120611226" lon="8.461377467941585"><ele>545.0</ele><time>2026-05-02T09:44:28.97Z</time></trkpt><trkpt lat="45.81405847330396" lon="8.461255890586642"><ele>545.0</ele><time>2026-05-02T09:44:29.97Z</time></trkpt><trkpt lat="45.81415749268978" lon="8.46113019552503"><ele>545.0</ele><time>2026-05-02T09:44:30.97Z</time></trkpt><trkpt lat="45.81425368146825" lon="8.461017171450106"><ele>545.0</ele><time>2026-05-02T09:44:31.97Z</time></trkpt><trkpt lat="45.81433466312517" lon="8.460949282416312"><ele>544.0</ele><time>2026-05-02T09:44:32.97Z</time></trkpt><trkpt lat="45.81439418809228" lon="8.460895349361953"><ele>543.0</ele><time>2026-05-02T09:44:33.97Z</time></trkpt><trkpt lat="45.814478966306865" lon="8.460767050639458"><ele>542.0</ele><time>2026-05-02T09:44:35.97Z</time></trkpt><trkpt lat="45.81454807814278" lon="8.460693490993188"><ele>541.0</ele><time>2026-05-02T09:44:36.97Z</time></trkpt><trkpt lat="45.814618902358916" lon="8.460629619406086"><ele>540.0</ele><time>2026-05-02T09:44:37.97Z</time></trkpt><trkpt lat="45.81470438165657" lon="8.460540840078544"><ele>540.0</ele><time>2026-05-02T09:44:38.97Z</time></trkpt><trkpt lat="45.81483039270357" lon="8.460457788550563"><ele>540.0</ele><time>2026-05-02T09:44:39.97Z</time></trkpt><trkpt lat="45.814960290641444" lon="8.460369254831367"><ele>540.0</ele><time>2026-05-02T09:44:40.97Z</time></trkpt><trkpt lat="45.81504585816023" lon="8.460310398026646"><ele>540.0</ele><time>2026-05-02T09:44:41.97Z</time></trkpt><trkpt lat="45.81510614938447" lon="8.460240302450416"><ele>538.0</ele><time>2026-05-02T09:44:42.97Z</time></trkpt><trkpt lat="45.815167405154554" lon="8.460174360074118"><ele>536.0</ele><time>2026-05-02T09:44:43.97Z</time></trkpt><trkpt lat="45.815226307443744" lon="8.460110534036858"><ele>534.0</ele><time>2026-05-02T09:44:44.971Z</time></trkpt><trkpt lat="45.81526859367719" lon="8.46003627292052"><ele>532.0</ele><time>2026-05-02T09:44:45.971Z</time></trkpt><trkpt lat="45.815309495105716" lon="8.459900066474717"><ele>530.0</ele><time>2026-05-02T09:44:47.971Z</time></trkpt><trkpt lat="45.8153226099588" lon="8.459728834541773"><ele>528.0</ele><time>2026-05-02T09:44:49.97Z</time></trkpt><trkpt lat="45.815320415129015" lon="8.459604393785176"><ele>528.0</ele><time>2026-05-02T09:44:51.97Z</time></trkpt><trkpt lat="45.81536944922894" lon="8.4595285437923"><ele>528.0</ele><time>2026-05-02T09:44:53.97Z</time></trkpt><trkpt lat="45.81544930728729" lon="8.459501433841258"><ele>528.0</ele><time>2026-05-02T09:44:55.971Z</time></trkpt><trkpt lat="45.81556822512212" lon="8.459560720346706"><ele>528.0</ele><time>2026-05-02T09:44:57.97Z</time></trkpt><trkpt lat="45.81561975816493" lon="8.459663058426527"><ele>528.0</ele><time>2026-05-02T09:44:58.97Z</time></trkpt><trkpt lat="45.81564647686064" lon="8.459758019378942"><ele>528.0</ele><time>2026-05-02T09:44:59.97Z</time></trkpt><trkpt lat="45.815621355249945" lon="8.45989313958596"><ele>528.0</ele><time>2026-05-02T09:45:01.97Z</time></trkpt><trkpt lat="45.81555352982259" lon="8.460026820873853"><ele>528.0</ele><time>2026-05-02T09:45:03.97Z</time></trkpt><trkpt lat="45.81554809346663" lon="8.460118818486036"><ele>528.0</ele><time>2026-05-02T09:45:05.97Z</time></trkpt><trkpt lat="45.815576965842055" lon="8.46021135195997"><ele>528.0</ele><time>2026-05-02T09:45:07.97Z</time></trkpt><trkpt lat="45.815715397058476" lon="8.460212274003391"><ele>528.0</ele><time>2026-05-02T09:45:11.97Z</time></trkpt><trkpt lat="45.81580379633262" lon="8.460120091868644"><ele>528.0</ele><time>2026-05-02T09:45:12.97Z</time></trkpt><trkpt lat="45.81595170491251" lon="8.4601134745332"><ele>528.0</ele><time>2026-05-02T09:45:13.97Z</time></trkpt><trkpt lat="45.816073414906036" lon="8.459994675554231"><ele>528.0</ele><time>2026-05-02T09:45:14.97Z</time></trkpt><trkpt lat="45.816183127947745" lon="8.459848928305734"><ele>528.0</ele><time>2026-05-02T09:45:15.97Z</time></trkpt><trkpt lat="45.81628321318799" lon="8.459646878317109"><ele>529.0</ele><time>2026-05-02T09:45:16.97Z</time></trkpt><trkpt lat="45.81634608086055" lon="8.459415482460496"><ele>530.0</ele><time>2026-05-02T09:45:17.97Z</time></trkpt><trkpt lat="45.816372107933915" lon="8.45916449673076"><ele>531.0</ele><time>2026-05-02T09:45:18.97Z</time></trkpt><trkpt lat="45.81635534359615" lon="8.45893117513048"><ele>530.75</ele><time>2026-05-02T09:45:19.97Z</time></trkpt><trkpt lat="45.81634042934975" lon="8.458729446115772"><ele>530.5</ele><time>2026-05-02T09:45:20.97Z</time></trkpt><trkpt lat="45.816342335098895" lon="8.458544221436657"><ele>530.25</ele><time>2026-05-02T09:45:21.97Z</time></trkpt><trkpt lat="45.81637572449675" lon="8.458401017980778"><ele>530.0</ele><time>2026-05-02T09:45:22.97Z</time></trkpt><trkpt lat="45.81643805129867" lon="8.458302922929766"><ele>530.0</ele><time>2026-05-02T09:45:23.97Z</time></trkpt><trkpt lat="45.816542269839985" lon="8.458256086436803"><ele>530.0</ele><time>2026-05-02T09:45:24.97Z</time></trkpt><trkpt lat="45.81664384602897" lon="8.458143781354991"><ele>530.0</ele><time>2026-05-02T09:45:25.97Z</time></trkpt><trkpt lat="45.816734678508794" lon="8.458008869364436"><ele>530.0</ele><time>2026-05-02T09:45:26.97Z</time></trkpt><trkpt lat="45.816775212609514" lon="8.457813756148969"><ele>529.75</ele><time>2026-05-02T09:45:27.97Z</time></trkpt><trkpt lat="45.816819281659846" lon="8.457616641494898"><ele>529.5</ele><time>2026-05-02T09:45:28.97Z</time></trkpt><trkpt lat="45.81686005281243" lon="8.45740989408515"><ele>529.25</ele><time>2026-05-02T09:45:29.97Z</time></trkpt><trkpt lat="45.81690423016306" lon="8.457229764751085"><ele>529.0</ele><time>2026-05-02T09:45:30.97Z</time></trkpt><trkpt lat="45.81696900838713" lon="8.45706263771548"><ele>529.0</ele><time>2026-05-02T09:45:31.97Z</time></trkpt><trkpt lat="45.81703746743244" lon="8.456924850575243"><ele>529.0</ele><time>2026-05-02T09:45:32.97Z</time></trkpt><trkpt lat="45.81713588441184" lon="8.456797847120615"><ele>529.0</ele><time>2026-05-02T09:45:33.97Z</time></trkpt><trkpt lat="45.81726646809802" lon="8.45674154303293"><ele>529.0</ele><time>2026-05-02T09:45:34.97Z</time></trkpt><trkpt lat="45.81738436600166" lon="8.456678569265668"><ele>529.0</ele><time>2026-05-02T09:45:35.97Z</time></trkpt><trkpt lat="45.81749921067968" lon="8.456642219245959"><ele>529.0</ele><time>2026-05-02T09:45:36.97Z</time></trkpt><trkpt lat="45.81758489928736" lon="8.456546041650382"><ele>529.0</ele><time>2026-05-02T09:45:37.97Z</time></trkpt><trkpt lat="45.817681033850214" lon="8.456411180081775"><ele>529.0</ele><time>2026-05-02T09:45:38.97Z</time></trkpt><trkpt lat="45.817791899861824" lon="8.456249302248283"><ele>530.6666666666667</ele><time>2026-05-02T09:45:39.97Z</time></trkpt><trkpt lat="45.817902615350214" lon="8.456086347393256"><ele>532.3333333333334</ele><time>2026-05-02T09:45:40.97Z</time></trkpt><trkpt lat="45.81800627681504" lon="8.455931184056228"><ele>534.0</ele><time>2026-05-02T09:45:41.97Z</time></trkpt><trkpt lat="45.81811058687858" lon="8.455768949620479"><ele>534.0</ele><time>2026-05-02T09:45:42.97Z</time></trkpt><trkpt lat="45.81821276171441" lon="8.455573126624618"><ele>534.0</ele><time>2026-05-02T09:45:43.97Z</time></trkpt><trkpt lat="45.81828502514507" lon="8.455370425127802"><ele>534.0</ele><time>2026-05-02T09:45:44.97Z</time></trkpt><trkpt lat="45.81833038378131" lon="8.45516661221727"><ele>539.0</ele><time>2026-05-02T09:45:45.97Z</time></trkpt><trkpt lat="45.818360574825725" lon="8.454937424029612"><ele>544.0</ele><time>2026-05-02T09:45:46.97Z</time></trkpt><trkpt lat="45.81838334676212" lon="8.4547037902938"><ele>549.0</ele><time>2026-05-02T09:45:47.97Z</time></trkpt><trkpt lat="45.81840480525" lon="8.454467573837437"><ele>548.5</ele><time>2026-05-02T09:45:48.97Z</time></trkpt><trkpt lat="45.8184289759302" lon="8.454241249056189"><ele>548.0</ele><time>2026-05-02T09:45:49.97Z</time></trkpt><trkpt lat="45.818443247141374" lon="8.45403208138286"><ele>547.5</ele><time>2026-05-02T09:45:50.97Z</time></trkpt><trkpt lat="45.81848415211286" lon="8.453836249268308"><ele>547.0</ele><time>2026-05-02T09:45:51.97Z</time></trkpt><trkpt lat="45.81853622477035" lon="8.453654200697608"><ele>547.0</ele><time>2026-05-02T09:45:52.97Z</time></trkpt><trkpt lat="45.81861208783144" lon="8.453481013612341"><ele>547.0</ele><time>2026-05-02T09:45:53.97Z</time></trkpt><trkpt lat="45.81869968749943" lon="8.453322755188132"><ele>547.0</ele><time>2026-05-02T09:45:54.97Z</time></trkpt><trkpt lat="45.818800265247184" lon="8.453182708782181"><ele>547.0</ele><time>2026-05-02T09:45:55.97Z</time></trkpt><trkpt lat="45.8189265539139" lon="8.453086467966566"><ele>547.0</ele><time>2026-05-02T09:45:56.97Z</time></trkpt><trkpt lat="45.81905338972509" lon="8.452993738736296"><ele>547.0</ele><time>2026-05-02T09:45:57.97Z</time></trkpt><trkpt lat="45.81918759935078" lon="8.452899207456472"><ele>547.0</ele><time>2026-05-02T09:45:58.97Z</time></trkpt><trkpt lat="45.81929848341607" lon="8.452753470389007"><ele>547.0</ele><time>2026-05-02T09:45:59.97Z</time></trkpt><trkpt lat="45.81943263224452" lon="8.452671690845719"><ele>547.25</ele><time>2026-05-02T09:46:00.97Z</time></trkpt><trkpt lat="45.819570519421866" lon="8.452583388321477"><ele>547.5</ele><time>2026-05-02T09:46:01.97Z</time></trkpt><trkpt lat="45.819689372589146" lon="8.452489502378203"><ele>547.75</ele><time>2026-05-02T09:46:02.97Z</time></trkpt><trkpt lat="45.81979009177684" lon="8.45239157655786"><ele>548.0</ele><time>2026-05-02T09:46:03.97Z</time></trkpt><trkpt lat="45.81987585595634" lon="8.45229006703493"><ele>548.0</ele><time>2026-05-02T09:46:04.97Z</time></trkpt><trkpt lat="45.81995990716573" lon="8.452212722190566"><ele>548.0</ele><time>2026-05-02T09:46:05.97Z</time></trkpt><trkpt lat="45.820002831925095" lon="8.452129612696188"><ele>548.0</ele><time>2026-05-02T09:46:06.97Z</time></trkpt><trkpt lat="45.82004442513169" lon="8.452036411287018"><ele>548.0</ele><time>2026-05-02T09:46:08.97Z</time></trkpt><trkpt lat="45.820119717769664" lon="8.452086445455567"><ele>548.0</ele><time>2026-05-02T09:46:11.97Z</time></trkpt><trkpt lat="45.82016264456715" lon="8.452172240505112"><ele>548.0</ele><time>2026-05-02T09:46:13.97Z</time></trkpt><trkpt lat="45.82025767120707" lon="8.452236715781229"><ele>555.0</ele><time>2026-05-02T09:53:21.966Z</time></trkpt></trkseg><trkseg><trkpt lat="45.82019958228125" lon="8.452255901753595"><ele>554.6</ele><time>2026-05-02T10:06:25.893Z</time></trkpt><trkpt lat="45.8201424307105" lon="8.4521406403109"><ele>554.2</ele><time>2026-05-02T10:06:27.893Z</time></trkpt><trkpt lat="45.82010764728975" lon="8.452028773106585"><ele>553.8</ele><time>2026-05-02T10:06:30.893Z</time></trkpt><trkpt lat="45.820010211183885" lon="8.452067460463743"><ele>553.4</ele><time>2026-05-02T10:06:34.893Z</time></trkpt><trkpt lat="45.81995200407151" lon="8.45223497719497"><ele>553.0</ele><time>2026-05-02T10:06:36.893Z</time></trkpt><trkpt lat="45.81989449982808" lon="8.452325455583914"><ele>552.0</ele><time>2026-05-02T10:06:37.893Z</time></trkpt><trkpt lat="45.819793635062844" lon="8.452385616084053"><ele>551.0</ele><time>2026-05-02T10:06:38.893Z</time></trkpt><trkpt lat="45.819714908001416" lon="8.452465580579803"><ele>550.0</ele><time>2026-05-02T10:06:39.893Z</time></trkpt><trkpt lat="45.81964663439999" lon="8.452579581480089"><ele>549.0</ele><time>2026-05-02T10:06:40.893Z</time></trkpt><trkpt lat="45.819549449753644" lon="8.452645794629865"><ele>548.0</ele><time>2026-05-02T10:06:41.893Z</time></trkpt><trkpt lat="45.819447235119256" lon="8.452708250863271"><ele>548.0</ele><time>2026-05-02T10:06:42.893Z</time></trkpt><trkpt lat="45.819347709207996" lon="8.452777468416121"><ele>548.0</ele><time>2026-05-02T10:06:43.893Z</time></trkpt><trkpt lat="45.81923553911389" lon="8.452857321928342"><ele>548.0</ele><time>2026-05-02T10:06:44.893Z</time></trkpt><trkpt lat="45.819119693369146" lon="8.452922555368563"><ele>548.0</ele><time>2026-05-02T10:06:45.893Z</time></trkpt><trkpt lat="45.819015801772984" lon="8.453004896526629"><ele>547.75</ele><time>2026-05-02T10:06:46.893Z</time></trkpt><trkpt lat="45.81891540733985" lon="8.453075585133318"><ele>547.5</ele><time>2026-05-02T10:06:47.893Z</time></trkpt><trkpt lat="45.818809280185434" lon="8.453178104654866"><ele>547.25</ele><time>2026-05-02T10:06:48.893Z</time></trkpt><trkpt lat="45.81872891777293" lon="8.453299250888612"><ele>547.0</ele><time>2026-05-02T10:06:49.893Z</time></trkpt><trkpt lat="45.81863585996945" lon="8.453436863738988"><ele>547.0</ele><time>2026-05-02T10:06:50.893Z</time></trkpt><trkpt lat="45.81855936393079" lon="8.453604196375593"><ele>547.0</ele><time>2026-05-02T10:06:51.893Z</time></trkpt><trkpt lat="45.81847970896463" lon="8.453764134262858"><ele>547.0</ele><time>2026-05-02T10:06:52.893Z</time></trkpt><trkpt lat="45.81843926455664" lon="8.453955424330834"><ele>547.0</ele><time>2026-05-02T10:06:53.893Z</time></trkpt><trkpt lat="45.818441742074114" lon="8.454170554484167"><ele>547.5</ele><time>2026-05-02T10:06:54.893Z</time></trkpt><trkpt lat="45.81839934738154" lon="8.454349148218515"><ele>548.0</ele><time>2026-05-02T10:06:55.893Z</time></trkpt><trkpt lat="45.81836425238231" lon="8.454542172263709"><ele>548.5</ele><time>2026-05-02T10:06:56.893Z</time></trkpt><trkpt lat="45.81834774726864" lon="8.454726605957397"><ele>549.0</ele><time>2026-05-02T10:06:57.893Z</time></trkpt><trkpt lat="45.81834206186314" lon="8.45492121012367"><ele>549.0</ele><time>2026-05-02T10:06:58.893Z</time></trkpt><trkpt lat="45.81831375355996" lon="8.455104191849648"><ele>549.0</ele><time>2026-05-02T10:06:59.893Z</time></trkpt><trkpt lat="45.81828993864545" lon="8.45524629585852"><ele>549.0</ele><time>2026-05-02T10:07:00.893Z</time></trkpt><trkpt lat="45.81826480039691" lon="8.455375125456445"><ele>549.0</ele><time>2026-05-02T10:07:01.893Z</time></trkpt><trkpt lat="45.81821229867054" lon="8.455479166251852"><ele>549.0</ele><time>2026-05-02T10:07:02.893Z</time></trkpt><trkpt lat="45.818162222188434" lon="8.455615109680325"><ele>545.25</ele><time>2026-05-02T10:07:04.893Z</time></trkpt><trkpt lat="45.818101823803055" lon="8.45567348990028"><ele>541.5</ele><time>2026-05-02T10:07:06.893Z</time></trkpt><trkpt lat="45.81804760017488" lon="8.455763424602853"><ele>537.75</ele><time>2026-05-02T10:07:08.893Z</time></trkpt><trkpt lat="45.81799814345897" lon="8.455840083749033"><ele>534.0</ele><time>2026-05-02T10:07:09.893Z</time></trkpt><trkpt lat="45.81776440909309" lon="8.455641012155576"><ele>534.0</ele><time>2026-05-02T10:07:11.893Z</time></trkpt><trkpt lat="45.81768246472696" lon="8.455532422109602"><ele>534.0</ele><time>2026-05-02T10:07:12.893Z</time></trkpt><trkpt lat="45.81760209321512" lon="8.45545408037987"><ele>534.0</ele><time>2026-05-02T10:07:13.893Z</time></trkpt><trkpt lat="45.8175380927669" lon="8.4553944901356"><ele>534.0</ele><time>2026-05-02T10:07:14.893Z</time></trkpt><trkpt lat="45.81747018847388" lon="8.45535431649417"><ele>534.0</ele><time>2026-05-02T10:07:15.893Z</time></trkpt><trkpt lat="45.81734281067905" lon="8.455311395596352"><ele>534.1666666666666</ele><time>2026-05-02T10:07:17.893Z</time></trkpt><trkpt lat="45.817268266911455" lon="8.455321944861035"><ele>534.3333333333334</ele><time>2026-05-02T10:07:18.893Z</time></trkpt><trkpt lat="45.81720173181287" lon="8.45535437585209"><ele>534.5</ele><time>2026-05-02T10:07:19.893Z</time></trkpt><trkpt lat="45.817158609437044" lon="8.455425052460734"><ele>534.6666666666667</ele><time>2026-05-02T10:07:20.892Z</time></trkpt><trkpt lat="45.81713638814341" lon="8.455531874809283"><ele>534.8333333333334</ele><time>2026-05-02T10:07:21.892Z</time></trkpt><trkpt lat="45.81712669572471" lon="8.455660063840382"><ele>535.0</ele><time>2026-05-02T10:07:22.892Z</time></trkpt><trkpt lat="45.817124802324315" lon="8.455801892484006"><ele>535.0</ele><time>2026-05-02T10:07:23.892Z</time></trkpt><trkpt lat="45.817117556011404" lon="8.455912113398732"><ele>535.0</ele><time>2026-05-02T10:07:24.892Z</time></trkpt><trkpt lat="45.81709072627367" lon="8.456011385825567"><ele>535.0</ele><time>2026-05-02T10:07:25.892Z</time></trkpt><trkpt lat="45.817042966790844" lon="8.456083483516966"><ele>535.0</ele><time>2026-05-02T10:07:26.892Z</time></trkpt><trkpt lat="45.816962726098524" lon="8.45626048806579"><ele>535.0</ele><time>2026-05-02T10:07:28.892Z</time></trkpt><trkpt lat="45.816889752045064" lon="8.456392311757744"><ele>535.2</ele><time>2026-05-02T10:07:29.892Z</time></trkpt><trkpt lat="45.81682604673697" lon="8.456515889601082"><ele>535.4</ele><time>2026-05-02T10:07:30.892Z</time></trkpt><trkpt lat="45.81675828880061" lon="8.45664233938346"><ele>535.6</ele><time>2026-05-02T10:07:31.892Z</time></trkpt><trkpt lat="45.81668577063816" lon="8.456764256071864"><ele>535.8</ele><time>2026-05-02T10:07:32.892Z</time></trkpt><trkpt lat="45.816620492882045" lon="8.456872464572587"><ele>536.0</ele><time>2026-05-02T10:07:33.892Z</time></trkpt><trkpt lat="45.81657715180037" lon="8.456943375187718"><ele>536.0</ele><time>2026-05-02T10:07:34.892Z</time></trkpt><trkpt lat="45.81652973341061" lon="8.45700512322548"><ele>536.0</ele><time>2026-05-02T10:07:35.892Z</time></trkpt><trkpt lat="45.8164565894408" lon="8.45711212502026"><ele>536.0</ele><time>2026-05-02T10:07:37.892Z</time></trkpt><trkpt lat="45.816363346819514" lon="8.457185771085605"><ele>536.0</ele><time>2026-05-02T10:07:38.892Z</time></trkpt><trkpt lat="45.8162513800975" lon="8.45726169499342"><ele>536.0</ele><time>2026-05-02T10:07:39.892Z</time></trkpt><trkpt lat="45.81614215898764" lon="8.4573305963873"><ele>534.25</ele><time>2026-05-02T10:07:40.892Z</time></trkpt><trkpt lat="45.81600872699711" lon="8.45742696181404"><ele>532.5</ele><time>2026-05-02T10:07:41.892Z</time></trkpt><trkpt lat="45.81607566274323" lon="8.45752574654884"><ele>530.75</ele><time>2026-05-02T10:07:42.892Z</time></trkpt><trkpt lat="45.81597632806673" lon="8.457618626355643"><ele>529.0</ele><time>2026-05-02T10:07:43.892Z</time></trkpt><trkpt lat="45.815886450833055" lon="8.457684801896942"><ele>526.25</ele><time>2026-05-02T10:07:44.892Z</time></trkpt><trkpt lat="45.8157998905875" lon="8.45772646578717"><ele>523.5</ele><time>2026-05-02T10:07:45.892Z</time></trkpt><trkpt lat="45.81568593142779" lon="8.457746306397596"><ele>520.75</ele><time>2026-05-02T10:07:46.892Z</time></trkpt><trkpt lat="45.8155571248218" lon="8.457768204412876"><ele>518.0</ele><time>2026-05-02T10:07:47.892Z</time></trkpt><trkpt lat="45.815430887739026" lon="8.457791304252314"><ele>518.0</ele><time>2026-05-02T10:07:48.892Z</time></trkpt><trkpt lat="45.81532764900331" lon="8.457833096343792"><ele>518.0</ele><time>2026-05-02T10:07:49.887Z</time></trkpt><trkpt lat="45.815228798746396" lon="8.457910596638712"><ele>518.0</ele><time>2026-05-02T10:07:50.888Z</time></trkpt><trkpt lat="45.81515328208053" lon="8.457999540818012"><ele>518.0</ele><time>2026-05-02T10:07:51.888Z</time></trkpt><trkpt lat="45.81510177512669" lon="8.45809318202273"><ele>518.0</ele><time>2026-05-02T10:07:52.887Z</time></trkpt><trkpt lat="45.81507788139415" lon="8.458190302688486"><ele>517.4</ele><time>2026-05-02T10:07:53.888Z</time></trkpt><trkpt lat="45.815098684983376" lon="8.458315474351986"><ele>516.8</ele><time>2026-05-02T10:07:55.888Z</time></trkpt><trkpt lat="45.8151255236146" lon="8.45840108056265"><ele>516.2</ele><time>2026-05-02T10:07:56.888Z</time></trkpt><trkpt lat="45.815145800643535" lon="8.458540744509483"><ele>515.6</ele><time>2026-05-02T10:07:57.888Z</time></trkpt><trkpt lat="45.81515788498295" lon="8.45868803615763"><ele>515.0</ele><time>2026-05-02T10:07:58.887Z</time></trkpt><trkpt lat="45.815162146620985" lon="8.458839224129159"><ele>515.0</ele><time>2026-05-02T10:07:59.887Z</time></trkpt><trkpt lat="45.8151876364345" lon="8.458973168408498"><ele>515.0</ele><time>2026-05-02T10:08:00.887Z</time></trkpt><trkpt lat="45.81520760445111" lon="8.459089105821434"><ele>515.0</ele><time>2026-05-02T10:08:01.887Z</time></trkpt><trkpt lat="45.81522367104878" lon="8.45918208113039"><ele>515.0</ele><time>2026-05-02T10:08:02.887Z</time></trkpt><trkpt lat="45.815301846182564" lon="8.459261045679213"><ele>515.0</ele><time>2026-05-02T10:08:05.887Z</time></trkpt><trkpt lat="45.815388972523635" lon="8.459400636507526"><ele>515.0</ele><time>2026-05-02T10:08:07.887Z</time></trkpt><trkpt lat="45.815420453695204" lon="8.459504831780741"><ele>515.0</ele><time>2026-05-02T10:08:08.887Z</time></trkpt><trkpt lat="45.81542493480715" lon="8.459609675487217"><ele>515.0</ele><time>2026-05-02T10:08:09.887Z</time></trkpt><trkpt lat="45.81540224014111" lon="8.459738338325653"><ele>515.0</ele><time>2026-05-02T10:08:10.887Z</time></trkpt><trkpt lat="45.81537999673973" lon="8.459865917545862"><ele>515.0</ele><time>2026-05-02T10:08:11.887Z</time></trkpt><trkpt lat="45.81535533877525" lon="8.459956008660619"><ele>515.0</ele><time>2026-05-02T10:08:12.887Z</time></trkpt><trkpt lat="45.81531414431549" lon="8.460043855734284"><ele>517.1666666666666</ele><time>2026-05-02T10:08:14.887Z</time></trkpt><trkpt lat="45.81525897043884" lon="8.460099072455066"><ele>519.3333333333333</ele><time>2026-05-02T10:08:17.887Z</time></trkpt><trkpt lat="45.81522251643597" lon="8.460176334828308"><ele>521.5</ele><time>2026-05-02T10:08:52.886Z</time></trkpt><trkpt lat="45.815177534711474" lon="8.460259836055737"><ele>523.6666666666666</ele><time>2026-05-02T10:08:54.886Z</time></trkpt><trkpt lat="45.815067302795256" lon="8.460335516562598"><ele>525.8333333333334</ele><time>2026-05-02T10:08:56.886Z</time></trkpt><trkpt lat="45.81500162599044" lon="8.460383650861814"><ele>528.0</ele><time>2026-05-02T10:08:57.886Z</time></trkpt><trkpt lat="45.81489766727641" lon="8.460465294308118"><ele>531.0</ele><time>2026-05-02T10:08:58.886Z</time></trkpt><trkpt lat="45.81479420230301" lon="8.46055123604155"><ele>534.0</ele><time>2026-05-02T10:08:59.886Z</time></trkpt><trkpt lat="45.8146927483752" lon="8.460627243407123"><ele>537.0</ele><time>2026-05-02T10:09:00.886Z</time></trkpt><trkpt lat="45.81460080564868" lon="8.46069707397143"><ele>540.0</ele><time>2026-05-02T10:09:01.886Z</time></trkpt><trkpt lat="45.814501814335635" lon="8.460792388640602"><ele>540.0</ele><time>2026-05-02T10:09:03.886Z</time></trkpt><trkpt lat="45.81442964264157" lon="8.460914372081868"><ele>540.0</ele><time>2026-05-02T10:09:05.886Z</time></trkpt><trkpt lat="45.814376109986696" lon="8.460982624008938"><ele>540.0</ele><time>2026-05-02T10:09:06.886Z</time></trkpt><trkpt lat="45.81432796440558" lon="8.461072532408092"><ele>540.0</ele><time>2026-05-02T10:09:07.886Z</time></trkpt><trkpt lat="45.81427903924963" lon="8.461156441388288"><ele>540.0</ele><time>2026-05-02T10:09:08.886Z</time></trkpt><trkpt lat="45.81421920166951" lon="8.461241184734027"><ele>540.0</ele><time>2026-05-02T10:09:09.886Z</time></trkpt><trkpt lat="45.814158737429835" lon="8.461317028539172"><ele>540.8333333333334</ele><time>2026-05-02T10:09:10.886Z</time></trkpt><trkpt lat="45.81411041752327" lon="8.461393873322994"><ele>541.6666666666666</ele><time>2026-05-02T10:09:11.886Z</time></trkpt><trkpt lat="45.814050403027686" lon="8.461454756213222"><ele>542.5</ele><time>2026-05-02T10:09:12.886Z</time></trkpt><trkpt lat="45.81398931229802" lon="8.461511293073585"><ele>543.3333333333333</ele><time>2026-05-02T10:09:13.886Z</time></trkpt><trkpt lat="45.81391866625225" lon="8.461615384706757"><ele>544.1666666666666</ele><time>2026-05-02T10:09:14.886Z</time></trkpt><trkpt lat="45.813871558478" lon="8.461745340882498"><ele>545.0</ele><time>2026-05-02T10:09:15.886Z</time></trkpt><trkpt lat="45.813812428790385" lon="8.461880153347751"><ele>545.0</ele><time>2026-05-02T10:09:16.886Z</time></trkpt><trkpt lat="45.813765031260544" lon="8.46196825957625"><ele>545.0</ele><time>2026-05-02T10:09:17.886Z</time></trkpt><trkpt lat="45.81365920215562" lon="8.462092267539587"><ele>545.0</ele><time>2026-05-02T10:09:19.886Z</time></trkpt><trkpt lat="45.813554182683944" lon="8.46212555183736"><ele>545.0</ele><time>2026-05-02T10:09:20.886Z</time></trkpt><trkpt lat="45.813482069621514" lon="8.462212391920994"><ele>545.0</ele><time>2026-05-02T10:09:22.886Z</time></trkpt><trkpt lat="45.813443976972735" lon="8.462361709862133"><ele>550.4</ele><time>2026-05-02T10:09:23.886Z</time></trkpt><trkpt lat="45.813399393434565" lon="8.462507498692824"><ele>555.8</ele><time>2026-05-02T10:09:24.886Z</time></trkpt><trkpt lat="45.81335578449736" lon="8.462593570865415"><ele>561.2</ele><time>2026-05-02T10:09:25.886Z</time></trkpt><trkpt lat="45.81331442859395" lon="8.462726671974078"><ele>566.6</ele><time>2026-05-02T10:09:26.886Z</time></trkpt><trkpt lat="45.813267143785964" lon="8.462903369653354"><ele>572.0</ele><time>2026-05-02T10:09:27.886Z</time></trkpt><trkpt lat="45.813191757459784" lon="8.463059871284656"><ele>572.0</ele><time>2026-05-02T10:09:28.886Z</time></trkpt><trkpt lat="45.81314857014309" lon="8.463170090230326"><ele>572.0</ele><time>2026-05-02T10:09:29.886Z</time></trkpt><trkpt lat="45.81310845225489" lon="8.463262129240412"><ele>572.0</ele><time>2026-05-02T10:09:30.886Z</time></trkpt><trkpt lat="45.81310111055576" lon="8.463450960502215"><ele>572.0</ele><time>2026-05-02T10:09:32.886Z</time></trkpt><trkpt lat="45.81310702751899" lon="8.463554584945442"><ele>572.0</ele><time>2026-05-02T10:09:33.885Z</time></trkpt><trkpt lat="45.813057072390016" lon="8.463681165827282"><ele>570.25</ele><time>2026-05-02T10:09:34.885Z</time></trkpt><trkpt lat="45.81299672448239" lon="8.463812670062351"><ele>568.5</ele><time>2026-05-02T10:09:35.885Z</time></trkpt><trkpt lat="45.81292857369985" lon="8.463985735211953"><ele>566.75</ele><time>2026-05-02T10:09:36.885Z</time></trkpt><trkpt lat="45.812859335684855" lon="8.464131333909013"><ele>565.0</ele><time>2026-05-02T10:09:37.885Z</time></trkpt><trkpt lat="45.81281365706757" lon="8.464252888755055"><ele>565.0</ele><time>2026-05-02T10:09:38.885Z</time></trkpt><trkpt lat="45.81282151232148" lon="8.464353619682267"><ele>565.0</ele><time>2026-05-02T10:09:39.885Z</time></trkpt><trkpt lat="45.81283830003385" lon="8.46447286278548"><ele>565.0</ele><time>2026-05-02T10:09:40.885Z</time></trkpt><trkpt lat="45.81285155636711" lon="8.464603910827577"><ele>565.0</ele><time>2026-05-02T10:09:41.885Z</time></trkpt><trkpt lat="45.81281927503691" lon="8.464704974655948"><ele>565.0</ele><time>2026-05-02T10:09:42.885Z</time></trkpt><trkpt lat="45.81276816112737" lon="8.464810586800768"><ele>565.0</ele><time>2026-05-02T10:09:43.885Z</time></trkpt><trkpt lat="45.81273149531316" lon="8.464891797387235"><ele>565.0</ele><time>2026-05-02T10:09:44.885Z</time></trkpt><trkpt lat="45.812696303736814" lon="8.465008894869623"><ele>565.0</ele><time>2026-05-02T10:09:45.885Z</time></trkpt><trkpt lat="45.81267676118305" lon="8.465134189276785"><ele>565.0</ele><time>2026-05-02T10:09:46.885Z</time></trkpt><trkpt lat="45.81267256068626" lon="8.465240659781033"><ele>565.0</ele><time>2026-05-02T10:09:47.885Z</time></trkpt><trkpt lat="45.81268188745626" lon="8.465368816005299"><ele>565.0</ele><time>2026-05-02T10:09:48.885Z</time></trkpt><trkpt lat="45.81267520585135" lon="8.465511270880384"><ele>565.0</ele><time>2026-05-02T10:09:49.885Z</time></trkpt><trkpt lat="45.81265576162684" lon="8.465658280993676"><ele>567.4</ele><time>2026-05-02T10:09:50.885Z</time></trkpt><trkpt lat="45.81265806527436" lon="8.465800228259013"><ele>569.8</ele><time>2026-05-02T10:09:51.885Z</time></trkpt><trkpt lat="45.812672307803176" lon="8.46592262005016"><ele>572.2</ele><time>2026-05-02T10:09:52.885Z</time></trkpt><trkpt lat="45.81267594289311" lon="8.466080156937755"><ele>574.6</ele><time>2026-05-02T10:09:53.885Z</time></trkpt><trkpt lat="45.81269115186716" lon="8.466209565476063"><ele>577.0</ele><time>2026-05-02T10:09:54.885Z</time></trkpt><trkpt lat="45.81270549800546" lon="8.466309546778179"><ele>580.8333333333334</ele><time>2026-05-02T10:09:55.883Z</time></trkpt><trkpt lat="45.81277739033078" lon="8.466331831954195"><ele>584.6666666666667</ele><time>2026-05-02T10:09:59.883Z</time></trkpt><trkpt lat="45.81281306440964" lon="8.46642738960993"><ele>588.5</ele><time>2026-05-02T10:10:00.883Z</time></trkpt><trkpt lat="45.81278179804212" lon="8.466601501460648"><ele>592.3333333333334</ele><time>2026-05-02T10:10:01.882Z</time></trkpt><trkpt lat="45.81282175952938" lon="8.466688541255108"><ele>596.1666666666666</ele><time>2026-05-02T10:10:02.882Z</time></trkpt><trkpt lat="45.81286567192891" lon="8.466773411957174"><ele>600.0</ele><time>2026-05-02T10:10:03.882Z</time></trkpt><trkpt lat="45.81289903211971" lon="8.466854148119769"><ele>600.0</ele><time>2026-05-02T10:10:04.882Z</time></trkpt><trkpt lat="45.81293535532134" lon="8.466978453987364"><ele>600.0</ele><time>2026-05-02T10:10:06.882Z</time></trkpt><trkpt lat="45.81297867302307" lon="8.467141651055837"><ele>600.0</ele><time>2026-05-02T10:10:08.882Z</time></trkpt><trkpt lat="45.812983611149654" lon="8.467289905122623"><ele>600.0</ele><time>2026-05-02T10:10:10.882Z</time></trkpt><trkpt lat="45.81296094995667" lon="8.467490247672128"><ele>603.3333333333334</ele><time>2026-05-02T10:10:12.882Z</time></trkpt><trkpt lat="45.81288774215343" lon="8.467581425330053"><ele>606.6666666666666</ele><time>2026-05-02T10:10:13.882Z</time></trkpt><trkpt lat="45.81289303741666" lon="8.467717427272714"><ele>610.0</ele><time>2026-05-02T10:10:15.882Z</time></trkpt><trkpt lat="45.81295070293364" lon="8.467813613555974"><ele>613.3333333333333</ele><time>2026-05-02T10:10:17.882Z</time></trkpt><trkpt lat="45.81298604257712" lon="8.467891677846055"><ele>616.6666666666666</ele><time>2026-05-02T10:10:18.882Z</time></trkpt><trkpt lat="45.81300315651816" lon="8.467987423484674"><ele>620.0</ele><time>2026-05-02T10:10:19.882Z</time></trkpt><trkpt lat="45.813046884562205" lon="8.468077679688538"><ele>623.4</ele><time>2026-05-02T10:10:20.882Z</time></trkpt><trkpt lat="45.81308179676496" lon="8.46816216114244"><ele>626.8</ele><time>2026-05-02T10:10:21.882Z</time></trkpt><trkpt lat="45.8131288502691" lon="8.468326757744236"><ele>630.2</ele><time>2026-05-02T10:10:23.882Z</time></trkpt><trkpt lat="45.81318228568681" lon="8.468444084778774"><ele>633.6</ele><time>2026-05-02T10:10:24.882Z</time></trkpt><trkpt lat="45.81322808690106" lon="8.468558445950467"><ele>637.0</ele><time>2026-05-02T10:10:25.882Z</time></trkpt><trkpt lat="45.813273982390456" lon="8.468650413556295"><ele>637.0</ele><time>2026-05-02T10:10:26.882Z</time></trkpt><trkpt lat="45.81331302118311" lon="8.46874896160237"><ele>637.0</ele><time>2026-05-02T10:10:27.882Z</time></trkpt><trkpt lat="45.81337061047427" lon="8.468818014674287"><ele>637.0</ele><time>2026-05-02T10:10:28.882Z</time></trkpt><trkpt lat="45.81338643726405" lon="8.468915334338746"><ele>637.0</ele><time>2026-05-02T10:10:29.882Z</time></trkpt><trkpt lat="45.813381718142644" lon="8.469032552834271"><ele>637.0</ele><time>2026-05-02T10:10:31.882Z</time></trkpt><trkpt lat="45.81340879912141" lon="8.469134999722712"><ele>637.0</ele><time>2026-05-02T10:10:33.882Z</time></trkpt><trkpt lat="45.81345372497898" lon="8.469215677553768"><ele>637.4</ele><time>2026-05-02T10:10:34.882Z</time></trkpt><trkpt lat="45.81351617973815" lon="8.469385801653132"><ele>637.8000000000001</ele><time>2026-05-02T10:10:36.881Z</time></trkpt><trkpt lat="45.813539282262184" lon="8.469510597128517"><ele>638.2</ele><time>2026-05-02T10:10:37.881Z</time></trkpt><trkpt lat="45.81356236805207" lon="8.469629076251957"><ele>638.6</ele><time>2026-05-02T10:10:38.881Z</time></trkpt><trkpt lat="45.81361721442746" lon="8.469717432998227"><ele>639.0</ele><time>2026-05-02T10:10:39.881Z</time></trkpt><trkpt lat="45.813663190383835" lon="8.469814253000235"><ele>643.8</ele><time>2026-05-02T10:10:40.881Z</time></trkpt><trkpt lat="45.8137199153117" lon="8.469919197858106"><ele>648.5999999999999</ele><time>2026-05-02T10:10:42.881Z</time></trkpt><trkpt lat="45.813786953205245" lon="8.470011114332106"><ele>653.4</ele><time>2026-05-02T10:10:45.881Z</time></trkpt><trkpt lat="45.81385369354217" lon="8.470157104317506"><ele>658.1999999999999</ele><time>2026-05-02T10:10:47.881Z</time></trkpt><trkpt lat="45.81389111496893" lon="8.470250168974577"><ele>663.0</ele><time>2026-05-02T10:10:48.881Z</time></trkpt><trkpt lat="45.81395202547533" lon="8.470357720503959"><ele>664.8333333333334</ele><time>2026-05-02T10:10:49.881Z</time></trkpt><trkpt lat="45.81397304485818" lon="8.470492009200074"><ele>666.6666666666666</ele><time>2026-05-02T10:10:51.881Z</time></trkpt><trkpt lat="45.81397213294474" lon="8.47059559511139"><ele>668.5</ele><time>2026-05-02T10:10:52.881Z</time></trkpt><trkpt lat="45.8139735659068" lon="8.470698902832785"><ele>670.3333333333333</ele><time>2026-05-02T10:10:54.881Z</time></trkpt><trkpt lat="45.813957315453145" lon="8.470839053437341"><ele>672.1666666666666</ele><time>2026-05-02T10:10:56.881Z</time></trkpt><trkpt lat="45.81394662465368" lon="8.470929787782593"><ele>674.0</ele><time>2026-05-02T10:10:57.881Z</time></trkpt><trkpt lat="45.813881542008666" lon="8.47101637189074"><ele>674.0</ele><time>2026-05-02T10:10:59.881Z</time></trkpt><trkpt lat="45.81380804688864" lon="8.471107657275272"><ele>674.0</ele><time>2026-05-02T10:11:00.881Z</time></trkpt><trkpt lat="45.8137408632605" lon="8.471207603263466"><ele>674.0</ele><time>2026-05-02T10:11:01.881Z</time></trkpt><trkpt lat="45.81367022049321" lon="8.471287065819078"><ele>674.0</ele><time>2026-05-02T10:11:02.881Z</time></trkpt><trkpt lat="45.813628024613365" lon="8.471372463758705"><ele>674.0</ele><time>2026-05-02T10:11:03.881Z</time></trkpt><trkpt lat="45.81355792101165" lon="8.471475826766774"><ele>678.0</ele><time>2026-05-02T10:11:04.881Z</time></trkpt><trkpt lat="45.8134356112505" lon="8.471572034300715"><ele>682.0</ele><time>2026-05-02T10:11:05.881Z</time></trkpt><trkpt lat="45.813360406102994" lon="8.471622218907715"><ele>686.0</ele><time>2026-05-02T10:11:06.881Z</time></trkpt><trkpt lat="45.81328748521185" lon="8.471626742537232"><ele>690.0</ele><time>2026-05-02T10:11:07.881Z</time></trkpt><trkpt lat="45.813215799797526" lon="8.47163242397627"><ele>694.0</ele><time>2026-05-02T10:11:08.881Z</time></trkpt><trkpt lat="45.813137721416204" lon="8.47163988846693"><ele>698.0</ele><time>2026-05-02T10:11:09.881Z</time></trkpt><trkpt lat="45.8130713760377" lon="8.471647899149229"><ele>698.0</ele><time>2026-05-02T10:11:10.881Z</time></trkpt><trkpt lat="45.81291634198491" lon="8.471620299002383"><ele>698.0</ele><time>2026-05-02T10:11:12.881Z</time></trkpt><trkpt lat="45.812811614261406" lon="8.471586935738742"><ele>698.0</ele><time>2026-05-02T10:11:13.881Z</time></trkpt><trkpt lat="45.81271862840333" lon="8.471567436529547"><ele>698.0</ele><time>2026-05-02T10:11:14.881Z</time></trkpt><trkpt lat="45.812647183085616" lon="8.471580985755692"><ele>698.0</ele><time>2026-05-02T10:11:15.881Z</time></trkpt><trkpt lat="45.812531993964065" lon="8.471618549524969"><ele>700.75</ele><time>2026-05-02T10:11:16.881Z</time></trkpt><trkpt lat="45.812423849314904" lon="8.471670511006655"><ele>703.5</ele><time>2026-05-02T10:11:17.881Z</time></trkpt><trkpt lat="45.81232959991805" lon="8.471757173303931"><ele>706.25</ele><time>2026-05-02T10:11:18.881Z</time></trkpt><trkpt lat="45.81222433704026" lon="8.471859696862778"><ele>709.0</ele><time>2026-05-02T10:11:19.881Z</time></trkpt><trkpt lat="45.81210941701478" lon="8.471981683186883"><ele>709.0</ele><time>2026-05-02T10:11:20.881Z</time></trkpt><trkpt lat="45.811989271848226" lon="8.472081141127466"><ele>709.0</ele><time>2026-05-02T10:11:21.881Z</time></trkpt><trkpt lat="45.81187325088818" lon="8.472148320963884"><ele>709.0</ele><time>2026-05-02T10:11:22.881Z</time></trkpt><trkpt lat="45.811761492076144" lon="8.472246089714659"><ele>709.0</ele><time>2026-05-02T10:11:23.881Z</time></trkpt><trkpt lat="45.81163582684456" lon="8.472285621743845"><ele>709.0</ele><time>2026-05-02T10:11:24.881Z</time></trkpt><trkpt lat="45.81151763290132" lon="8.472306037920648"><ele>709.0</ele><time>2026-05-02T10:11:25.881Z</time></trkpt><trkpt lat="45.81137952648461" lon="8.472395852641993"><ele>709.0</ele><time>2026-05-02T10:11:26.881Z</time></trkpt><trkpt lat="45.811267025830944" lon="8.472438144911134"><ele>709.0</ele><time>2026-05-02T10:11:27.881Z</time></trkpt><trkpt lat="45.81117287311843" lon="8.472449481106361"><ele>709.0</ele><time>2026-05-02T10:11:28.881Z</time></trkpt><trkpt lat="45.811081014439914" lon="8.472414743684272"><ele>709.0</ele><time>2026-05-02T10:11:29.881Z</time></trkpt><trkpt lat="45.81097612302625" lon="8.472423877940047"><ele>709.0</ele><time>2026-05-02T10:11:30.881Z</time></trkpt><trkpt lat="45.81090904548006" lon="8.472453457342825"><ele>709.0</ele><time>2026-05-02T10:11:31.881Z</time></trkpt><trkpt lat="45.810791187767116" lon="8.472587636617948"><ele>709.0</ele><time>2026-05-02T10:11:33.881Z</time></trkpt><trkpt lat="45.81073980401708" lon="8.472656390266076"><ele>710.75</ele><time>2026-05-02T10:11:34.881Z</time></trkpt><trkpt lat="45.81065620860018" lon="8.472670368408505"><ele>712.5</ele><time>2026-05-02T10:11:35.881Z</time></trkpt><trkpt lat="45.81055928224271" lon="8.472754543624585"><ele>714.25</ele><time>2026-05-02T10:11:36.88Z</time></trkpt><trkpt lat="45.81050545301115" lon="8.472979925717436"><ele>716.0</ele><time>2026-05-02T10:11:37.88Z</time></trkpt><trkpt lat="45.81039794434185" lon="8.473043979393154"><ele>716.0</ele><time>2026-05-02T10:11:38.88Z</time></trkpt><trkpt lat="45.81029418462278" lon="8.47315030205525"><ele>716.0</ele><time>2026-05-02T10:11:39.88Z</time></trkpt><trkpt lat="45.81019216868825" lon="8.473221400043169"><ele>716.0</ele><time>2026-05-02T10:11:40.88Z</time></trkpt><trkpt lat="45.81009566290587" lon="8.473262809582154"><ele>716.0</ele><time>2026-05-02T10:11:41.88Z</time></trkpt><trkpt lat="45.80998956519983" lon="8.473298182518723"><ele>718.3333333333333</ele><time>2026-05-02T10:11:42.88Z</time></trkpt><trkpt lat="45.809909065152645" lon="8.473313959701919"><ele>720.6666666666666</ele><time>2026-05-02T10:11:43.88Z</time></trkpt><trkpt lat="45.809838885436704" lon="8.47331383900271"><ele>723.0</ele><time>2026-05-02T10:11:44.88Z</time></trkpt><trkpt lat="45.80973518613744" lon="8.473359400880156"><ele>725.3333333333334</ele><time>2026-05-02T10:11:45.88Z</time></trkpt><trkpt lat="45.80965185305841" lon="8.473400115673375"><ele>727.6666666666667</ele><time>2026-05-02T10:11:46.88Z</time></trkpt><trkpt lat="45.809574981889774" lon="8.473459693961397"><ele>730.0</ele><time>2026-05-02T10:11:47.88Z</time></trkpt><trkpt lat="45.8095152436217" lon="8.473603835041077"><ele>730.0</ele><time>2026-05-02T10:11:48.88Z</time></trkpt><trkpt lat="45.80945385389157" lon="8.473743533170747"><ele>730.0</ele><time>2026-05-02T10:11:49.88Z</time></trkpt><trkpt lat="45.8093873329762" lon="8.473851021819936"><ele>730.0</ele><time>2026-05-02T10:11:50.88Z</time></trkpt><trkpt lat="45.809305733878176" lon="8.473955480135944"><ele>730.0</ele><time>2026-05-02T10:11:51.88Z</time></trkpt><trkpt lat="45.80923743146448" lon="8.474092336392756"><ele>730.0</ele><time>2026-05-02T10:11:52.88Z</time></trkpt><trkpt lat="45.80916174799127" lon="8.474221428982819"><ele>731.2</ele><time>2026-05-02T10:11:53.88Z</time></trkpt><trkpt lat="45.8091132109908" lon="8.474335463158726"><ele>732.4</ele><time>2026-05-02T10:11:54.88Z</time></trkpt><trkpt lat="45.809050780444906" lon="8.474470106402075"><ele>733.5999999999999</ele><time>2026-05-02T10:11:55.88Z</time></trkpt><trkpt lat="45.808989893652004" lon="8.474611142990552"><ele>734.8</ele><time>2026-05-02T10:11:56.88Z</time></trkpt><trkpt lat="45.80892361930353" lon="8.474714670970029"><ele>736.0</ele><time>2026-05-02T10:11:57.88Z</time></trkpt><trkpt lat="45.808790014319165" lon="8.474736970449184"><ele>737.75</ele><time>2026-05-02T10:11:58.88Z</time></trkpt><trkpt lat="45.808761486593006" lon="8.474902224291544"><ele>739.5</ele><time>2026-05-02T10:11:59.88Z</time></trkpt><trkpt lat="45.808651827012696" lon="8.475000229350508"><ele>741.25</ele><time>2026-05-02T10:12:00.88Z</time></trkpt><trkpt lat="45.80854288355194" lon="8.475067354853307"><ele>743.0</ele><time>2026-05-02T10:12:01.879Z</time></trkpt><trkpt lat="45.80846896224822" lon="8.4751461924768"><ele>743.0</ele><time>2026-05-02T10:12:02.879Z</time></trkpt><trkpt lat="45.80837840865604" lon="8.475204063993653"><ele>743.0</ele><time>2026-05-02T10:12:03.879Z</time></trkpt><trkpt lat="45.80828967952867" lon="8.475256091612927"><ele>743.0</ele><time>2026-05-02T10:12:04.879Z</time></trkpt><trkpt lat="45.8081778928805" lon="8.475346336188382"><ele>743.0</ele><time>2026-05-02T10:12:06.878Z</time></trkpt><trkpt lat="45.808105876119825" lon="8.47544100381543"><ele>743.0</ele><time>2026-05-02T10:12:07.878Z</time></trkpt><trkpt lat="45.80804291795845" lon="8.47554791604016"><ele>745.5999999999999</ele><time>2026-05-02T10:12:08.879Z</time></trkpt><trkpt lat="45.807974890098905" lon="8.475668745732195"><ele>748.1999999999999</ele><time>2026-05-02T10:12:09.879Z</time></trkpt><trkpt lat="45.80792521276183" lon="8.475739862394443"><ele>750.8</ele><time>2026-05-02T10:12:10.879Z</time></trkpt><trkpt lat="45.80787521956996" lon="8.47581692737982"><ele>753.4</ele><time>2026-05-02T10:12:11.879Z</time></trkpt><trkpt lat="45.807801306733374" lon="8.47592850141447"><ele>756.0</ele><time>2026-05-02T10:12:12.879Z</time></trkpt><trkpt lat="45.80772257340586" lon="8.476031691455155"><ele>755.5999999999999</ele><time>2026-05-02T10:12:13.879Z</time></trkpt><trkpt lat="45.807638133675404" lon="8.476120057755345"><ele>755.2</ele><time>2026-05-02T10:12:14.879Z</time></trkpt><trkpt lat="45.80755336980484" lon="8.476183858343628"><ele>754.8</ele><time>2026-05-02T10:12:15.879Z</time></trkpt><trkpt lat="45.80746091147238" lon="8.476239852302049"><ele>754.4000000000001</ele><time>2026-05-02T10:12:16.879Z</time></trkpt><trkpt lat="45.80738048595007" lon="8.476276695546344"><ele>754.0</ele><time>2026-05-02T10:12:17.879Z</time></trkpt><trkpt lat="45.807288877122026" lon="8.476319694493363"><ele>754.0</ele><time>2026-05-02T10:12:18.878Z</time></trkpt><trkpt lat="45.80720730232302" lon="8.476357983832518"><ele>754.0</ele><time>2026-05-02T10:12:19.878Z</time></trkpt><trkpt lat="45.807126810363" lon="8.476408975179117"><ele>754.0</ele><time>2026-05-02T10:12:20.878Z</time></trkpt><trkpt lat="45.8070464998386" lon="8.476427366256415"><ele>754.0</ele><time>2026-05-02T10:12:21.878Z</time></trkpt><trkpt lat="45.80696775248382" lon="8.476446721622029"><ele>754.0</ele><time>2026-05-02T10:12:22.878Z</time></trkpt><trkpt lat="45.8068869371122" lon="8.476477814242356"><ele>754.0</ele><time>2026-05-02T10:12:23.878Z</time></trkpt><trkpt lat="45.806801556781544" lon="8.47650030696934"><ele>755.2</ele><time>2026-05-02T10:12:24.878Z</time></trkpt><trkpt lat="45.80670142241485" lon="8.476568438258326"><ele>756.4000000000001</ele><time>2026-05-02T10:12:26.878Z</time></trkpt><trkpt lat="45.80663200066684" lon="8.47655048025769"><ele>757.6</ele><time>2026-05-02T10:12:27.878Z</time></trkpt><trkpt lat="45.80656240624293" lon="8.476602695119796"><ele>758.8</ele><time>2026-05-02T10:12:28.878Z</time></trkpt><trkpt lat="45.80647582822574" lon="8.476701285147408"><ele>760.0</ele><time>2026-05-02T10:12:29.878Z</time></trkpt><trkpt lat="45.806380057084844" lon="8.476805785595172"><ele>760.0</ele><time>2026-05-02T10:12:30.878Z</time></trkpt><trkpt lat="45.80630328820936" lon="8.476889007974275"><ele>760.0</ele><time>2026-05-02T10:12:31.878Z</time></trkpt><trkpt lat="45.80625417494897" lon="8.476957401151404"><ele>760.0</ele><time>2026-05-02T10:12:32.878Z</time></trkpt><trkpt lat="45.80619685491781" lon="8.477020013292977"><ele>760.0</ele><time>2026-05-02T10:12:33.878Z</time></trkpt><trkpt lat="45.806145050122666" lon="8.477085512003544"><ele>760.0</ele><time>2026-05-02T10:12:34.878Z</time></trkpt><trkpt lat="45.806073744645026" lon="8.47716467366944"><ele>760.0</ele><time>2026-05-02T10:12:35.878Z</time></trkpt><trkpt lat="45.805996258152355" lon="8.477236248956904"><ele>759.4</ele><time>2026-05-02T10:12:36.878Z</time></trkpt><trkpt lat="45.80592694920574" lon="8.477304456171007"><ele>758.8</ele><time>2026-05-02T10:12:37.878Z</time></trkpt><trkpt lat="45.805869164044765" lon="8.47737744663694"><ele>758.2</ele><time>2026-05-02T10:12:38.878Z</time></trkpt><trkpt lat="45.805796537654146" lon="8.47744596533474"><ele>757.6</ele><time>2026-05-02T10:12:39.878Z</time></trkpt><trkpt lat="45.80570548687388" lon="8.477512361374249"><ele>757.0</ele><time>2026-05-02T10:12:40.878Z</time></trkpt><trkpt lat="45.805604465526045" lon="8.477608366982627"><ele>757.0</ele><time>2026-05-02T10:12:41.878Z</time></trkpt><trkpt lat="45.805505128767265" lon="8.477704174369109"><ele>757.0</ele><time>2026-05-02T10:12:42.878Z</time></trkpt><trkpt lat="45.805420633546284" lon="8.477839198892992"><ele>757.0</ele><time>2026-05-02T10:12:43.878Z</time></trkpt><trkpt lat="45.805332219452595" lon="8.477986846605592"><ele>757.0</ele><time>2026-05-02T10:12:44.878Z</time></trkpt><trkpt lat="45.80524785471829" lon="8.478158658620726"><ele>757.2</ele><time>2026-05-02T10:12:45.878Z</time></trkpt><trkpt lat="45.80519918441604" lon="8.478287777946464"><ele>757.4000000000001</ele><time>2026-05-02T10:12:46.878Z</time></trkpt><trkpt lat="45.805135572175395" lon="8.478360841416702"><ele>757.5999999999999</ele><time>2026-05-02T10:12:47.878Z</time></trkpt><trkpt lat="45.805169153655946" lon="8.478513683413171"><ele>757.8</ele><time>2026-05-02T10:12:48.878Z</time></trkpt><trkpt lat="45.805158856109614" lon="8.478657121346831"><ele>758.0</ele><time>2026-05-02T10:12:49.878Z</time></trkpt><trkpt lat="45.80512312413063" lon="8.478834770093917"><ele>758.5999999999999</ele><time>2026-05-02T10:12:50.88Z</time></trkpt><trkpt lat="45.80507813230386" lon="8.478987458041031"><ele>759.1999999999999</ele><time>2026-05-02T10:12:51.882Z</time></trkpt><trkpt lat="45.805012747445005" lon="8.479095815776764"><ele>759.8</ele><time>2026-05-02T10:12:52.883Z</time></trkpt><trkpt lat="45.804930013665896" lon="8.479189974955363"><ele>760.4</ele><time>2026-05-02T10:12:53.885Z</time></trkpt><trkpt lat="45.80481384046471" lon="8.479248341408788"><ele>761.0</ele><time>2026-05-02T10:12:54.887Z</time></trkpt><trkpt lat="45.80472054101424" lon="8.479323864685922"><ele>761.0</ele><time>2026-05-02T10:12:55.888Z</time></trkpt><trkpt lat="45.804659056755206" lon="8.479410288659217"><ele>761.0</ele><time>2026-05-02T10:12:56.889Z</time></trkpt><trkpt lat="45.804606609595844" lon="8.479537035799057"><ele>761.0</ele><time>2026-05-02T10:12:57.891Z</time></trkpt><trkpt lat="45.804546609048565" lon="8.47966217793468"><ele>761.0</ele><time>2026-05-02T10:12:58.892Z</time></trkpt><trkpt lat="45.80449502140802" lon="8.479734957137659"><ele>761.0</ele><time>2026-05-02T10:12:59.893Z</time></trkpt><trkpt lat="45.80441722018559" lon="8.479803852309443"><ele>760.1999999999999</ele><time>2026-05-02T10:13:00.894Z</time></trkpt><trkpt lat="45.80437266816522" lon="8.479875903556449"><ele>759.4</ele><time>2026-05-02T10:13:01.895Z</time></trkpt><trkpt lat="45.804323961817616" lon="8.479985985660313"><ele>758.6</ele><time>2026-05-02T10:13:02.896Z</time></trkpt><trkpt lat="45.804258102464786" lon="8.480139512680175"><ele>757.8</ele><time>2026-05-02T10:13:03.897Z</time></trkpt><trkpt lat="45.804207790416925" lon="8.480257575253884"><ele>757.0</ele><time>2026-05-02T10:13:04.898Z</time></trkpt><trkpt lat="45.80416983663595" lon="8.480347160467193"><ele>759.8333333333334</ele><time>2026-05-02T10:13:05.899Z</time></trkpt><trkpt lat="45.804125205203626" lon="8.480465417476887"><ele>762.6666666666667</ele><time>2026-05-02T10:13:06.899Z</time></trkpt><trkpt lat="45.80405524643243" lon="8.480581311452871"><ele>765.5</ele><time>2026-05-02T10:13:07.9Z</time></trkpt><trkpt lat="45.80401539111388" lon="8.480689928261956"><ele>768.3333333333334</ele><time>2026-05-02T10:13:08.901Z</time></trkpt><trkpt lat="45.803969636771576" lon="8.480782140309975"><ele>771.1666666666666</ele><time>2026-05-02T10:13:09.901Z</time></trkpt><trkpt lat="45.80394992836475" lon="8.48087970168654"><ele>774.0</ele><time>2026-05-02T10:13:10.902Z</time></trkpt><trkpt lat="45.803921213328266" lon="8.48099806669751"><ele>774.0</ele><time>2026-05-02T10:13:14.904Z</time></trkpt><trkpt lat="45.803838798835955" lon="8.481074762705699"><ele>774.0</ele><time>2026-05-02T10:13:17.905Z</time></trkpt><trkpt lat="45.80382392205102" lon="8.480975781976019"><ele>774.0</ele><time>2026-05-02T10:13:26.907Z</time></trkpt><trkpt lat="45.803857184740345" lon="8.480864207238383"><ele>774.0</ele><time>2026-05-02T10:13:28.907Z</time></trkpt><trkpt lat="45.80379210463385" lon="8.480872837747162"><ele>774.0</ele><time>2026-05-02T10:13:30.908Z</time></trkpt><trkpt lat="45.80372032295715" lon="8.480928686205392"><ele>774.0</ele><time>2026-05-02T10:13:32.908Z</time></trkpt><trkpt lat="45.803659780421995" lon="8.480980943949966"><ele>774.0</ele><time>2026-05-02T10:13:33.908Z</time></trkpt><trkpt lat="45.803555573018045" lon="8.480963718251289"><ele>774.0</ele><time>2026-05-02T10:13:35.908Z</time></trkpt><trkpt lat="45.80349419314367" lon="8.48099644786746"><ele>774.0</ele><time>2026-05-02T10:13:37.908Z</time></trkpt><trkpt lat="45.8034300590544" lon="8.481089125987134"><ele>774.0</ele><time>2026-05-02T10:13:39.909Z</time></trkpt><trkpt lat="45.803320700951026" lon="8.481217354281785"><ele>774.0</ele><time>2026-05-02T10:13:41.909Z</time></trkpt><trkpt lat="45.8032507565333" lon="8.481309232664497"><ele>776.6</ele><time>2026-05-02T10:13:42.909Z</time></trkpt><trkpt lat="45.803154911609234" lon="8.4814008632741"><ele>779.2</ele><time>2026-05-02T10:13:43.909Z</time></trkpt><trkpt lat="45.803075656830636" lon="8.481492049233502"><ele>781.8000000000001</ele><time>2026-05-02T10:13:44.909Z</time></trkpt><trkpt lat="45.80300945981176" lon="8.48157066613388"><ele>784.4000000000001</ele><time>2026-05-02T10:13:45.909Z</time></trkpt><trkpt lat="45.80295337008639" lon="8.481650015089416"><ele>787.0</ele><time>2026-05-02T10:13:46.909Z</time></trkpt><trkpt lat="45.80282234538589" lon="8.481689661556885"><ele>787.0</ele><time>2026-05-02T10:13:48.909Z</time></trkpt><trkpt lat="45.802724641102635" lon="8.481720722148225"><ele>787.0</ele><time>2026-05-02T10:13:49.909Z</time></trkpt><trkpt lat="45.80259355234178" lon="8.481737242102126"><ele>787.0</ele><time>2026-05-02T10:13:50.909Z</time></trkpt><trkpt lat="45.80244773350509" lon="8.481763762621505"><ele>787.0</ele><time>2026-05-02T10:13:51.909Z</time></trkpt><trkpt lat="45.80232679968999" lon="8.481802396942578"><ele>789.0</ele><time>2026-05-02T10:13:52.909Z</time></trkpt><trkpt lat="45.802225714027756" lon="8.48185867869541"><ele>791.0</ele><time>2026-05-02T10:13:53.909Z</time></trkpt><trkpt lat="45.802122695758605" lon="8.481910297081514"><ele>793.0</ele><time>2026-05-02T10:13:54.909Z</time></trkpt><trkpt lat="45.80203420350578" lon="8.481980500330675"><ele>795.0</ele><time>2026-05-02T10:13:55.909Z</time></trkpt><trkpt lat="45.80192418203939" lon="8.481927975312363"><ele>797.0</ele><time>2026-05-02T10:13:56.909Z</time></trkpt><trkpt lat="45.80193526435703" lon="8.48217047632077"><ele>798.6666666666667</ele><time>2026-05-02T10:13:57.909Z</time></trkpt><trkpt lat="45.801861351471565" lon="8.482256407059632"><ele>800.3333333333334</ele><time>2026-05-02T10:13:58.909Z</time></trkpt><trkpt lat="45.80177405740181" lon="8.482308405712281"><ele>802.0</ele><time>2026-05-02T10:13:59.909Z</time></trkpt><trkpt lat="45.80170833671245" lon="8.482324378450251"><ele>803.6666666666667</ele><time>2026-05-02T10:14:00.909Z</time></trkpt><trkpt lat="45.8016397666552" lon="8.482304601821593"><ele>805.3333333333334</ele><time>2026-05-02T10:14:02.909Z</time></trkpt><trkpt lat="45.80153025366093" lon="8.482308711144679"><ele>807.0</ele><time>2026-05-02T10:14:04.909Z</time></trkpt><trkpt lat="45.8014430959574" lon="8.48233941703104"><ele>807.0</ele><time>2026-05-02T10:14:05.909Z</time></trkpt><trkpt lat="45.801342238182876" lon="8.482366051481014"><ele>807.0</ele><time>2026-05-02T10:14:06.909Z</time></trkpt><trkpt lat="45.80123964698434" lon="8.482368091434724"><ele>807.0</ele><time>2026-05-02T10:14:07.909Z</time></trkpt><trkpt lat="45.80113814668611" lon="8.48236018799648"><ele>807.0</ele><time>2026-05-02T10:14:08.909Z</time></trkpt><trkpt lat="45.80102108150402" lon="8.482337654793024"><ele>807.0</ele><time>2026-05-02T10:14:09.909Z</time></trkpt><trkpt lat="45.80087689705003" lon="8.482304824238627"><ele>806.2</ele><time>2026-05-02T10:14:10.909Z</time></trkpt><trkpt lat="45.80077130343271" lon="8.482275756693783"><ele>805.4000000000001</ele><time>2026-05-02T10:14:11.909Z</time></trkpt><trkpt lat="45.80069076481995" lon="8.482258655450877"><ele>804.5999999999999</ele><time>2026-05-02T10:14:12.909Z</time></trkpt><trkpt lat="45.800603655872635" lon="8.482258965462387"><ele>803.8</ele><time>2026-05-02T10:14:13.909Z</time></trkpt><trkpt lat="45.80048745626067" lon="8.482236398169167"><ele>803.0</ele><time>2026-05-02T10:14:14.909Z</time></trkpt><trkpt lat="45.800355013002154" lon="8.482196266685275"><ele>803.0</ele><time>2026-05-02T10:14:15.909Z</time></trkpt><trkpt lat="45.80022155387516" lon="8.48213160798933"><ele>803.0</ele><time>2026-05-02T10:14:16.909Z</time></trkpt><trkpt lat="45.80009394156958" lon="8.482087976725797"><ele>803.0</ele><time>2026-05-02T10:14:17.908Z</time></trkpt><trkpt lat="45.80001249033432" lon="8.482031331791188"><ele>803.0</ele><time>2026-05-02T10:14:18.908Z</time></trkpt><trkpt lat="45.79992897946985" lon="8.482004660980358"><ele>803.0</ele><time>2026-05-02T10:14:19.908Z</time></trkpt><trkpt lat="45.799845171396285" lon="8.48196540907436"><ele>801.8</ele><time>2026-05-02T10:14:20.908Z</time></trkpt><trkpt lat="45.799749009378196" lon="8.481970326028568"><ele>800.5999999999999</ele><time>2026-05-02T10:14:21.908Z</time></trkpt><trkpt lat="45.79963164632005" lon="8.481950547263423"><ele>799.4000000000001</ele><time>2026-05-02T10:14:22.908Z</time></trkpt><trkpt lat="45.79951532324211" lon="8.481925672568936"><ele>798.2</ele><time>2026-05-02T10:14:23.908Z</time></trkpt><trkpt lat="45.799427148508904" lon="8.48192290731127"><ele>797.0</ele><time>2026-05-02T10:14:24.908Z</time></trkpt><trkpt lat="45.79936050005987" lon="8.481905607489754"><ele>796.0</ele><time>2026-05-02T10:14:25.908Z</time></trkpt><trkpt lat="45.79928149244778" lon="8.481939754516944"><ele>795.0</ele><time>2026-05-02T10:14:28.908Z</time></trkpt><trkpt lat="45.799221316763784" lon="8.481891669048192"><ele>794.0</ele><time>2026-05-02T10:14:30.908Z</time></trkpt><trkpt lat="45.79915291822175" lon="8.481802235559206"><ele>793.0</ele><time>2026-05-02T10:14:32.908Z</time></trkpt><trkpt lat="45.79911424714277" lon="8.481681800136416"><ele>792.0</ele><time>2026-05-02T10:14:33.908Z</time></trkpt><trkpt lat="45.7990435052049" lon="8.4815164711683"><ele>792.0</ele><time>2026-05-02T10:14:34.908Z</time></trkpt><trkpt lat="45.79897323445386" lon="8.481352283604762"><ele>792.0</ele><time>2026-05-02T10:14:35.908Z</time></trkpt><trkpt lat="45.79888105209892" lon="8.48117692890842"><ele>792.0</ele><time>2026-05-02T10:14:36.908Z</time></trkpt><trkpt lat="45.79881899486545" lon="8.481040178556652"><ele>792.0</ele><time>2026-05-02T10:14:37.908Z</time></trkpt><trkpt lat="45.798713302502115" lon="8.480972463120255"><ele>790.6666666666667</ele><time>2026-05-02T10:14:38.908Z</time></trkpt><trkpt lat="45.798602561140754" lon="8.480895084873193"><ele>789.3333333333334</ele><time>2026-05-02T10:14:39.908Z</time></trkpt><trkpt lat="45.79842998335074" lon="8.480756450207219"><ele>788.0</ele><time>2026-05-02T10:14:40.908Z</time></trkpt><trkpt lat="45.79832591475321" lon="8.480642188615253"><ele>785.0</ele><time>2026-05-02T10:14:41.908Z</time></trkpt><trkpt lat="45.79824730278437" lon="8.480544353791204"><ele>782.0</ele><time>2026-05-02T10:14:42.908Z</time></trkpt><trkpt lat="45.79817503262409" lon="8.48040989687116"><ele>779.0</ele><time>2026-05-02T10:14:44.908Z</time></trkpt><trkpt lat="45.79809967262847" lon="8.480305335983157"><ele>776.0</ele><time>2026-05-02T10:14:46.908Z</time></trkpt><trkpt lat="45.798113340900855" lon="8.480115048472921"><ele>776.0</ele><time>2026-05-02T10:14:48.908Z</time></trkpt><trkpt lat="45.79784072521975" lon="8.480349873979605"><ele>776.0</ele><time>2026-05-02T10:14:58.908Z</time></trkpt><trkpt lat="45.79786321874218" lon="8.480471587559444"><ele>776.0</ele><time>2026-05-02T10:15:03.908Z</time></trkpt><trkpt lat="45.79793426083382" lon="8.480559045000922"><ele>776.0000000000001</ele><time>2026-05-02T10:15:07.908Z</time></trkpt><trkpt lat="45.797952101817415" lon="8.480669947114718"><ele>776.0</ele><time>2026-05-02T10:15:11.908Z</time></trkpt><trkpt lat="45.79790054823949" lon="8.480748238497155"><ele>776.0</ele><time>2026-05-02T10:15:15.908Z</time></trkpt><trkpt lat="45.79781801793436" lon="8.480800804873603"><ele>776.0</ele><time>2026-05-02T10:15:18.908Z</time></trkpt><trkpt lat="45.7977245516962" lon="8.48085866278883"><ele>776.0000000000001</ele><time>2026-05-02T10:15:21.908Z</time></trkpt><trkpt lat="45.79764319653774" lon="8.48086351373435"><ele>776.0</ele><time>2026-05-02T10:15:23.908Z</time></trkpt><trkpt lat="45.79766162452324" lon="8.481021110327207"><ele>772.8333333333334</ele><time>2026-05-02T10:15:26.908Z</time></trkpt><trkpt lat="45.797590143652755" lon="8.481036474611686"><ele>769.6666666666667</ele><time>2026-05-02T10:15:28.908Z</time></trkpt><trkpt lat="45.797504668939276" lon="8.481014507638601"><ele>766.5</ele><time>2026-05-02T10:15:30.908Z</time></trkpt><trkpt lat="45.79740631117353" lon="8.480981063860204"><ele>763.3333333333334</ele><time>2026-05-02T10:15:32.908Z</time></trkpt><trkpt lat="45.797344786732886" lon="8.481017855461653"><ele>760.1666666666667</ele><time>2026-05-02T10:15:34.908Z</time></trkpt><trkpt lat="45.79725092147072" lon="8.481036972716359"><ele>757.0</ele><time>2026-05-02T10:15:36.908Z</time></trkpt><trkpt lat="45.79716943321066" lon="8.481036814110885"><ele>757.0</ele><time>2026-05-02T10:15:38.908Z</time></trkpt><trkpt lat="45.79707402563111" lon="8.4809642065467"><ele>757.0</ele><time>2026-05-02T10:15:40.908Z</time></trkpt><trkpt lat="45.79701064706186" lon="8.481004514429422"><ele>757.0</ele><time>2026-05-02T10:15:42.908Z</time></trkpt><trkpt lat="45.796937382098065" lon="8.481004378106519"><ele>757.0</ele><time>2026-05-02T10:15:44.908Z</time></trkpt><trkpt lat="45.796865894757886" lon="8.480988672813785"><ele>757.0</ele><time>2026-05-02T10:15:46.908Z</time></trkpt><trkpt lat="45.79679435874812" lon="8.48102886815278"><ele>757.0</ele><time>2026-05-02T10:15:49.908Z</time></trkpt><trkpt lat="45.796692459009115" lon="8.480975452605396"><ele>753.1666666666667</ele><time>2026-05-02T10:15:51.908Z</time></trkpt><trkpt lat="45.7966297830673" lon="8.480959505915107"><ele>749.3333333333334</ele><time>2026-05-02T10:15:52.908Z</time></trkpt><trkpt lat="45.79657079231826" lon="8.481009005859217"><ele>745.5</ele><time>2026-05-02T10:15:54.908Z</time></trkpt><trkpt lat="45.796541155095646" lon="8.481144159655313"><ele>741.6666666666666</ele><time>2026-05-02T10:15:56.908Z</time></trkpt><trkpt lat="45.79641148522736" lon="8.481168796776041"><ele>737.8333333333333</ele><time>2026-05-02T10:15:58.908Z</time></trkpt><trkpt lat="45.79632968162819" lon="8.481164188403266"><ele>734.0</ele><time>2026-05-02T10:16:00.908Z</time></trkpt><trkpt lat="45.796335422430545" lon="8.481297054352003"><ele>731.5</ele><time>2026-05-02T10:16:03.908Z</time></trkpt><trkpt lat="45.796393736963545" lon="8.481356477163807"><ele>729.0</ele><time>2026-05-02T10:16:05.908Z</time></trkpt><trkpt lat="45.796458792880074" lon="8.481411025782242"><ele>726.5</ele><time>2026-05-02T10:16:09.907Z</time></trkpt><trkpt lat="45.79640736376267" lon="8.481482420180726"><ele>724.0</ele><time>2026-05-02T10:16:11.907Z</time></trkpt><trkpt lat="45.796345234790046" lon="8.481502007554756"><ele>721.5</ele><time>2026-05-02T10:16:13.907Z</time></trkpt><trkpt lat="45.796266345440664" lon="8.481538210134449"><ele>719.0</ele><time>2026-05-02T10:16:15.907Z</time></trkpt><trkpt lat="45.79616446266397" lon="8.48152410036453"><ele>719.0</ele><time>2026-05-02T10:16:17.907Z</time></trkpt><trkpt lat="45.79606435770484" lon="8.481521437948079"><ele>719.0</ele><time>2026-05-02T10:16:19.908Z</time></trkpt><trkpt lat="45.796009592858596" lon="8.481581420969698"><ele>719.0</ele><time>2026-05-02T10:16:22.907Z</time></trkpt><trkpt lat="45.79592365962276" lon="8.481654174841479"><ele>719.0</ele><time>2026-05-02T10:16:24.908Z</time></trkpt><trkpt lat="45.79585725218635" lon="8.481743309611744"><ele>719.0</ele><time>2026-05-02T10:16:27.907Z</time></trkpt><trkpt lat="45.79586587708974" lon="8.481859577123506"><ele>719.0</ele><time>2026-05-02T10:16:30.907Z</time></trkpt><trkpt lat="45.79582876625147" lon="8.481979099424192"><ele>716.0</ele><time>2026-05-02T10:16:32.907Z</time></trkpt><trkpt lat="45.795779028046624" lon="8.482075279278455"><ele>713.0</ele><time>2026-05-02T10:16:34.907Z</time></trkpt><trkpt lat="45.79570204675458" lon="8.482179548381632"><ele>710.0</ele><time>2026-05-02T10:16:36.907Z</time></trkpt><trkpt lat="45.79562855690063" lon="8.482193140267665"><ele>707.0</ele><time>2026-05-02T10:16:37.907Z</time></trkpt><trkpt lat="45.795556311786484" lon="8.482205919432309"><ele>704.0</ele><time>2026-05-02T10:16:39.907Z</time></trkpt><trkpt lat="45.795516394550454" lon="8.48231281792148"><ele>701.0</ele><time>2026-05-02T10:16:41.907Z</time></trkpt><trkpt lat="45.79553070478027" lon="8.482420952746784"><ele>697.1999999999999</ele><time>2026-05-02T10:16:43.907Z</time></trkpt><trkpt lat="45.795544122597526" lon="8.482513270151696"><ele>693.4</ele><time>2026-05-02T10:16:45.907Z</time></trkpt><trkpt lat="45.79550222370305" lon="8.482612844654689"><ele>689.6</ele><time>2026-05-02T10:16:48.907Z</time></trkpt><trkpt lat="45.7954132388482" lon="8.482648268535375"><ele>685.8</ele><time>2026-05-02T10:16:51.907Z</time></trkpt><trkpt lat="45.79532312092525" lon="8.482698519777228"><ele>682.0</ele><time>2026-05-02T10:16:54.907Z</time></trkpt><trkpt lat="45.79521439458027" lon="8.482756923666647"><ele>678.1666666666667</ele><time>2026-05-02T10:16:56.907Z</time></trkpt><trkpt lat="45.79515319336857" lon="8.482799823486971"><ele>674.3333333333334</ele><time>2026-05-02T10:16:57.907Z</time></trkpt><trkpt lat="45.795088126935504" lon="8.482827736833647"><ele>670.5</ele><time>2026-05-02T10:17:03.907Z</time></trkpt><trkpt lat="45.79507462703542" lon="8.48272498856443"><ele>666.6666666666666</ele><time>2026-05-02T10:17:07.907Z</time></trkpt><trkpt lat="45.79499731081724" lon="8.4828011073548"><ele>662.8333333333333</ele><time>2026-05-02T10:17:22.906Z</time></trkpt><trkpt lat="45.794927849875705" lon="8.482851166707297"><ele>659.0</ele><time>2026-05-02T10:17:25.906Z</time></trkpt><trkpt lat="45.79485493645399" lon="8.482882440262328"><ele>659.0</ele><time>2026-05-02T10:17:28.906Z</time></trkpt><trkpt lat="45.79479896222701" lon="8.482925456186422"><ele>659.0</ele><time>2026-05-02T10:17:31.906Z</time></trkpt><trkpt lat="45.79473634784235" lon="8.482979933047487"><ele>659.0</ele><time>2026-05-02T10:17:33.906Z</time></trkpt><trkpt lat="45.79467227654932" lon="8.48300976647881"><ele>659.0</ele><time>2026-05-02T10:17:37.906Z</time></trkpt><trkpt lat="45.79461026955684" lon="8.483084520128374"><ele>659.0</ele><time>2026-05-02T10:17:40.906Z</time></trkpt><trkpt lat="45.794536431131256" lon="8.483140662542331"><ele>659.0</ele><time>2026-05-02T10:17:42.906Z</time></trkpt><trkpt lat="45.79445903541235" lon="8.483197003124008"><ele>656.6</ele><time>2026-05-02T10:17:44.906Z</time></trkpt><trkpt lat="45.79437984461025" lon="8.483295807324412"><ele>654.2</ele><time>2026-05-02T10:17:46.906Z</time></trkpt><trkpt lat="45.79432014305385" lon="8.483362222685194"><ele>651.8000000000001</ele><time>2026-05-02T10:17:49.906Z</time></trkpt><trkpt lat="45.79430008954167" lon="8.483506949284898"><ele>649.4000000000001</ele><time>2026-05-02T10:17:51.906Z</time></trkpt><trkpt lat="45.79425509705764" lon="8.483655062841196"><ele>647.0</ele><time>2026-05-02T10:17:53.906Z</time></trkpt><trkpt lat="45.79423310476159" lon="8.483750046264095"><ele>643.0</ele><time>2026-05-02T10:17:55.906Z</time></trkpt><trkpt lat="45.794215835526956" lon="8.483868733172935"><ele>639.0</ele><time>2026-05-02T10:17:58.906Z</time></trkpt><trkpt lat="45.79421806675149" lon="8.483994693646869"><ele>635.0</ele><time>2026-05-02T10:18:02.906Z</time></trkpt><trkpt lat="45.79415299106218" lon="8.484089580751204"><ele>631.0</ele><time>2026-05-02T10:18:05.906Z</time></trkpt><trkpt lat="45.79409474353083" lon="8.48415803482607"><ele>627.0</ele><time>2026-05-02T10:18:07.906Z</time></trkpt><trkpt lat="45.79401616289889" lon="8.484255964779964"><ele>623.0</ele><time>2026-05-02T10:18:09.906Z</time></trkpt><trkpt lat="45.79397305666902" lon="8.484330820498062"><ele>623.0</ele><time>2026-05-02T10:18:11.906Z</time></trkpt><trkpt lat="45.793940566934666" lon="8.484411977659704"><ele>623.0</ele><time>2026-05-02T10:18:13.906Z</time></trkpt><trkpt lat="45.7939062595572" lon="8.484538023295666"><ele>623.0</ele><time>2026-05-02T10:18:15.906Z</time></trkpt><trkpt lat="45.79385806424168" lon="8.484604200601687"><ele>623.0</ele><time>2026-05-02T10:18:17.906Z</time></trkpt><trkpt lat="45.793846652490544" lon="8.484737952016264"><ele>623.0</ele><time>2026-05-02T10:18:20.906Z</time></trkpt><trkpt lat="45.79377719458863" lon="8.48479068189414"><ele>623.0</ele><time>2026-05-02T10:18:23.906Z</time></trkpt><trkpt lat="45.79374019110841" lon="8.484867479071609"><ele>623.6666666666666</ele><time>2026-05-02T10:18:25.906Z</time></trkpt><trkpt lat="45.79368293722338" lon="8.4849903918051"><ele>624.3333333333333</ele><time>2026-05-02T10:18:28.906Z</time></trkpt><trkpt lat="45.79361461971947" lon="8.485031641528854"><ele>625.0</ele><time>2026-05-02T10:18:31.906Z</time></trkpt><trkpt lat="45.793542156382784" lon="8.485010883884561"><ele>625.6666666666666</ele><time>2026-05-02T10:18:34.906Z</time></trkpt><trkpt lat="45.79347526189115" lon="8.485081256424877"><ele>626.3333333333334</ele><time>2026-05-02T10:18:36.906Z</time></trkpt><trkpt lat="45.79339286405208" lon="8.485149491367098"><ele>627.0</ele><time>2026-05-02T10:18:38.906Z</time></trkpt><trkpt lat="45.79333911722131" lon="8.485226116880831"><ele>624.4</ele><time>2026-05-02T10:18:40.906Z</time></trkpt><trkpt lat="45.793301830497334" lon="8.485356045595136"><ele>621.8000000000001</ele><time>2026-05-02T10:18:43.906Z</time></trkpt><trkpt lat="45.79326150314754" lon="8.485506341403521"><ele>619.2</ele><time>2026-05-02T10:18:45.906Z</time></trkpt><trkpt lat="45.79320331568837" lon="8.485579945064105"><ele>616.6</ele><time>2026-05-02T10:18:47.906Z</time></trkpt><trkpt lat="45.793118983397214" lon="8.4856844538671"><ele>614.0</ele><time>2026-05-02T10:18:49.906Z</time></trkpt><trkpt lat="45.793057981264205" lon="8.485776534703039"><ele>614.1666666666666</ele><time>2026-05-02T10:18:51.906Z</time></trkpt><trkpt lat="45.79302293609027" lon="8.48587035153584"><ele>614.3333333333333</ele><time>2026-05-02T10:18:53.906Z</time></trkpt><trkpt lat="45.79298910258495" lon="8.485948728823821"><ele>614.5</ele><time>2026-05-02T10:18:55.906Z</time></trkpt><trkpt lat="45.79294349733573" lon="8.486058143598484"><ele>614.6666666666666</ele><time>2026-05-02T10:18:57.906Z</time></trkpt><trkpt lat="45.79288146698368" lon="8.486144870336116"><ele>614.8333333333334</ele><time>2026-05-02T10:18:59.906Z</time></trkpt><trkpt lat="45.79276915625225" lon="8.486222418775762"><ele>615.0</ele><time>2026-05-02T10:19:01.906Z</time></trkpt><trkpt lat="45.79269386586093" lon="8.486294505671994"><ele>611.8</ele><time>2026-05-02T10:19:03.906Z</time></trkpt><trkpt lat="45.79263411069664" lon="8.486333668206113"><ele>608.6</ele><time>2026-05-02T10:19:05.906Z</time></trkpt><trkpt lat="45.7925598990617" lon="8.486433655082925"><ele>605.4</ele><time>2026-05-02T10:19:08.906Z</time></trkpt><trkpt lat="45.79247319584663" lon="8.486599391071948"><ele>602.2</ele><time>2026-05-02T10:19:10.906Z</time></trkpt><trkpt lat="45.792460469576234" lon="8.4866879170137"><ele>599.0</ele><time>2026-05-02T10:19:11.906Z</time></trkpt><trkpt lat="45.792405929035155" lon="8.486813011723077"><ele>599.0</ele><time>2026-05-02T10:19:13.906Z</time></trkpt><trkpt lat="45.79232899615372" lon="8.486918350174768"><ele>599.0</ele><time>2026-05-02T10:19:15.906Z</time></trkpt><trkpt lat="45.79222841933516" lon="8.487028857557888"><ele>599.0</ele><time>2026-05-02T10:19:17.906Z</time></trkpt><trkpt lat="45.79217573255324" lon="8.487099521262651"><ele>599.0</ele><time>2026-05-02T10:19:19.905Z</time></trkpt><trkpt lat="45.79213101640455" lon="8.48719657926408"><ele>599.0</ele><time>2026-05-02T10:19:20.905Z</time></trkpt><trkpt lat="45.792055678218354" lon="8.487294270389109"><ele>599.8333333333333</ele><time>2026-05-02T10:19:21.905Z</time></trkpt><trkpt lat="45.792003234447996" lon="8.487363146567366"><ele>600.6666666666666</ele><time>2026-05-02T10:19:22.905Z</time></trkpt><trkpt lat="45.79194192827737" lon="8.487388215996676"><ele>601.5</ele><time>2026-05-02T10:19:24.905Z</time></trkpt><trkpt lat="45.79189122861945" lon="8.487454432922545"><ele>602.3333333333334</ele><time>2026-05-02T10:19:26.905Z</time></trkpt><trkpt lat="45.79181331077676" lon="8.48752982927475"><ele>603.1666666666667</ele><time>2026-05-02T10:19:28.905Z</time></trkpt><trkpt lat="45.79173129249784" lon="8.48759518684074"><ele>604.0</ele><time>2026-05-02T10:19:31.905Z</time></trkpt><trkpt lat="45.79163222440608" lon="8.487660576617927"><ele>601.8333333333334</ele><time>2026-05-02T10:19:33.905Z</time></trkpt><trkpt lat="45.791545391795076" lon="8.487731650702147"><ele>599.6666666666667</ele><time>2026-05-02T10:19:36.905Z</time></trkpt><trkpt lat="45.79148493920948" lon="8.487770760436732"><ele>597.5</ele><time>2026-05-02T10:19:38.905Z</time></trkpt><trkpt lat="45.79142304799094" lon="8.487820900285032"><ele>595.3333333333334</ele><time>2026-05-02T10:19:40.905Z</time></trkpt><trkpt lat="45.79134847003923" lon="8.487860726289464"><ele>593.1666666666666</ele><time>2026-05-02T10:19:43.905Z</time></trkpt><trkpt lat="45.791267273765094" lon="8.48788271697586"><ele>591.0</ele><time>2026-05-02T10:19:46.905Z</time></trkpt><trkpt lat="45.79118658008623" lon="8.4878862452834"><ele>591.0</ele><time>2026-05-02T10:19:48.905Z</time></trkpt><trkpt lat="45.79110670820429" lon="8.487909077726417"><ele>591.0</ele><time>2026-05-02T10:19:50.905Z</time></trkpt><trkpt lat="45.791010082485776" lon="8.487881330305724"><ele>591.0</ele><time>2026-05-02T10:19:52.905Z</time></trkpt><trkpt lat="45.790944788815224" lon="8.487854382335257"><ele>591.0</ele><time>2026-05-02T10:19:53.905Z</time></trkpt><trkpt lat="45.79086926941274" lon="8.487765843530543"><ele>591.0</ele><time>2026-05-02T10:19:55.905Z</time></trkpt><trkpt lat="45.79079823157305" lon="8.487809551998575"><ele>591.0</ele><time>2026-05-02T10:19:58.905Z</time></trkpt><trkpt lat="45.7907602208776" lon="8.48796447752862"><ele>589.3333333333334</ele><time>2026-05-02T10:20:01.905Z</time></trkpt><trkpt lat="45.79071423056452" lon="8.488051300536902"><ele>587.6666666666666</ele><time>2026-05-02T10:20:04.905Z</time></trkpt><trkpt lat="45.79065030066225" lon="8.488098186796423"><ele>586.0</ele><time>2026-05-02T10:20:10.905Z</time></trkpt><trkpt lat="45.79058229510062" lon="8.488123868562978"><ele>584.3333333333333</ele><time>2026-05-02T10:21:16.904Z</time></trkpt><trkpt lat="45.790518117641" lon="8.488165065245155"><ele>582.6666666666666</ele><time>2026-05-02T10:21:18.904Z</time></trkpt><trkpt lat="45.79043873047377" lon="8.488181959908069"><ele>581.0</ele><time>2026-05-02T10:21:21.904Z</time></trkpt><trkpt lat="45.79034299720001" lon="8.488222158039326"><ele>581.0</ele><time>2026-05-02T10:21:24.904Z</time></trkpt><trkpt lat="45.79021315642162" lon="8.488232253172958"><ele>581.0</ele><time>2026-05-02T10:21:26.904Z</time></trkpt><trkpt lat="45.79015006547997" lon="8.488241329802403"><ele>581.0</ele><time>2026-05-02T10:21:27.904Z</time></trkpt><trkpt lat="45.79006795195703" lon="8.48819723957282"><ele>581.0</ele><time>2026-05-02T10:21:29.904Z</time></trkpt><trkpt lat="45.79000549491484" lon="8.48815528944778"><ele>581.0</ele><time>2026-05-02T10:21:30.904Z</time></trkpt><trkpt lat="45.789872571156245" lon="8.488086921376434"><ele>580.8</ele><time>2026-05-02T10:21:32.904Z</time></trkpt><trkpt lat="45.78980014622667" lon="8.488075487043385"><ele>580.6</ele><time>2026-05-02T10:21:33.904Z</time></trkpt><trkpt lat="45.78966541018495" lon="8.488029276870282"><ele>580.4</ele><time>2026-05-02T10:21:35.904Z</time></trkpt><trkpt lat="45.78959752448928" lon="8.487989463534483"><ele>580.2</ele><time>2026-05-02T10:21:36.904Z</time></trkpt><trkpt lat="45.78948395660364" lon="8.487955128230599"><ele>580.0</ele><time>2026-05-02T10:21:38.904Z</time></trkpt><trkpt lat="45.78938213135779" lon="8.487906856883443"><ele>585.4</ele><time>2026-05-02T10:21:39.904Z</time></trkpt><trkpt lat="45.78926697824444" lon="8.487896970980017"><ele>590.8</ele><time>2026-05-02T10:21:40.904Z</time></trkpt><trkpt lat="45.78916529885511" lon="8.487880340177725"><ele>596.2</ele><time>2026-05-02T10:21:41.904Z</time></trkpt><trkpt lat="45.78907821118208" lon="8.487846671113582"><ele>601.6</ele><time>2026-05-02T10:21:42.904Z</time></trkpt><trkpt lat="45.78899529831809" lon="8.487855925845578"><ele>607.0</ele><time>2026-05-02T10:21:44.904Z</time></trkpt><trkpt lat="45.78890724328149" lon="8.487861714911078"><ele>607.0</ele><time>2026-05-02T10:21:45.904Z</time></trkpt><trkpt lat="45.78884283095152" lon="8.487854228571965"><ele>607.0</ele><time>2026-05-02T10:21:46.904Z</time></trkpt><trkpt lat="45.788723940491266" lon="8.487825477668286"><ele>607.0</ele><time>2026-05-02T10:21:48.904Z</time></trkpt><trkpt lat="45.78860502488865" lon="8.487764501532759"><ele>607.0</ele><time>2026-05-02T10:21:50.903Z</time></trkpt><trkpt lat="45.78852846029464" lon="8.487746656720427"><ele>607.0</ele><time>2026-05-02T10:21:51.903Z</time></trkpt><trkpt lat="45.788438342332725" lon="8.487716775066982"><ele>606.8000000000001</ele><time>2026-05-02T10:21:52.903Z</time></trkpt><trkpt lat="45.788353849894236" lon="8.487686880546013"><ele>606.6</ele><time>2026-05-02T10:21:53.903Z</time></trkpt><trkpt lat="45.78826696353835" lon="8.487639814334658"><ele>606.4000000000001</ele><time>2026-05-02T10:21:54.903Z</time></trkpt><trkpt lat="45.78816718604678" lon="8.48756232199736"><ele>606.2</ele><time>2026-05-02T10:21:55.903Z</time></trkpt><trkpt lat="45.788078890124616" lon="8.48753311306529"><ele>606.0</ele><time>2026-05-02T10:21:56.903Z</time></trkpt><trkpt lat="45.787985871742734" lon="8.487505352283545"><ele>606.0</ele><time>2026-05-02T10:21:57.903Z</time></trkpt><trkpt lat="45.78790070688227" lon="8.48747913671785"><ele>606.0</ele><time>2026-05-02T10:21:58.903Z</time></trkpt><trkpt lat="45.78780906156842" lon="8.487437601148834"><ele>606.0</ele><time>2026-05-02T10:21:59.903Z</time></trkpt><trkpt lat="45.78772405393728" lon="8.48739508645428"><ele>606.0</ele><time>2026-05-02T10:22:00.903Z</time></trkpt><trkpt lat="45.787625892026" lon="8.487345217653596"><ele>606.0</ele><time>2026-05-02T10:22:01.903Z</time></trkpt><trkpt lat="45.7875513945604" lon="8.487295369381421"><ele>606.2</ele><time>2026-05-02T10:22:02.903Z</time></trkpt><trkpt lat="45.78748793649154" lon="8.487334280575874"><ele>606.4000000000001</ele><time>2026-05-02T10:22:11.903Z</time></trkpt><trkpt lat="45.7873834806056" lon="8.487319424644655"><ele>606.6</ele><time>2026-05-02T10:22:13.903Z</time></trkpt><trkpt lat="45.78730852969278" lon="8.487301054464572"><ele>606.8000000000001</ele><time>2026-05-02T10:22:14.903Z</time></trkpt><trkpt lat="45.787197370710004" lon="8.487280672816704"><ele>607.0</ele><time>2026-05-02T10:22:15.903Z</time></trkpt><trkpt lat="45.787084497396464" lon="8.487248830365045"><ele>607.0</ele><time>2026-05-02T10:22:16.903Z</time></trkpt><trkpt lat="45.78698467563599" lon="8.487204924324091"><ele>607.0</ele><time>2026-05-02T10:22:17.903Z</time></trkpt><trkpt lat="45.78689611325901" lon="8.487174210977022"><ele>607.0</ele><time>2026-05-02T10:22:18.903Z</time></trkpt><trkpt lat="45.78679195101352" lon="8.487149906148055"><ele>607.0</ele><time>2026-05-02T10:22:19.903Z</time></trkpt><trkpt lat="45.786724244154364" lon="8.487138793530212"><ele>607.0</ele><time>2026-05-02T10:22:20.903Z</time></trkpt><trkpt lat="45.7866334853589" lon="8.4871665352116"><ele>606.0</ele><time>2026-05-02T10:22:22.903Z</time></trkpt><trkpt lat="45.78658892557724" lon="8.48726223895477"><ele>605.0</ele><time>2026-05-02T10:22:25.903Z</time></trkpt><trkpt lat="45.786581277826265" lon="8.487391855604619"><ele>604.0</ele><time>2026-05-02T10:22:27.903Z</time></trkpt><trkpt lat="45.786565207290124" lon="8.487508316336518"><ele>603.0</ele><time>2026-05-02T10:22:32.903Z</time></trkpt><trkpt lat="45.786536628734915" lon="8.487620359876903"><ele>602.0</ele><time>2026-05-02T10:22:34.903Z</time></trkpt><trkpt lat="45.786501408802664" lon="8.487733742568546"><ele>601.0</ele><time>2026-05-02T10:22:36.903Z</time></trkpt><trkpt lat="45.78647750692092" lon="8.48783919035885"><ele>599.4</ele><time>2026-05-02T10:22:38.902Z</time></trkpt><trkpt lat="45.78644904322192" lon="8.4879721454995"><ele>597.8</ele><time>2026-05-02T10:22:40.903Z</time></trkpt><trkpt lat="45.786426636765114" lon="8.488106315245082"><ele>596.1999999999999</ele><time>2026-05-02T10:22:41.903Z</time></trkpt><trkpt lat="45.78638943708366" lon="8.488247844362252"><ele>594.6</ele><time>2026-05-02T10:22:42.903Z</time></trkpt><trkpt lat="45.78634626440947" lon="8.488390305934992"><ele>593.0</ele><time>2026-05-02T10:22:43.903Z</time></trkpt><trkpt lat="45.78633278054733" lon="8.488501667936688"><ele>593.0</ele><time>2026-05-02T10:22:44.902Z</time></trkpt><trkpt lat="45.78631433790296" lon="8.488633439026449"><ele>593.0</ele><time>2026-05-02T10:22:45.902Z</time></trkpt><trkpt lat="45.78626663168995" lon="8.488744343019137"><ele>593.0</ele><time>2026-05-02T10:22:47.902Z</time></trkpt><trkpt lat="45.78626780338467" lon="8.488836714126432"><ele>593.0</ele><time>2026-05-02T10:22:50.902Z</time></trkpt><trkpt lat="45.786249247870714" lon="8.488967316850074"><ele>593.0</ele><time>2026-05-02T10:22:52.902Z</time></trkpt><trkpt lat="45.786224276592066" lon="8.489096181598473"><ele>593.0</ele><time>2026-05-02T10:22:54.902Z</time></trkpt><trkpt lat="45.78613581756956" lon="8.48921608746354"><ele>592.8333333333333</ele><time>2026-05-02T10:22:56.902Z</time></trkpt><trkpt lat="45.7860853686869" lon="8.489291208929771"><ele>592.6666666666666</ele><time>2026-05-02T10:22:58.902Z</time></trkpt><trkpt lat="45.786039370275134" lon="8.48936995990844"><ele>592.5</ele><time>2026-05-02T10:23:02.902Z</time></trkpt><trkpt lat="45.78597588456103" lon="8.489416933606307"><ele>592.3333333333334</ele><time>2026-05-02T10:23:04.902Z</time></trkpt><trkpt lat="45.78589305124872" lon="8.489437561142738"><ele>592.1666666666667</ele><time>2026-05-02T10:23:06.902Z</time></trkpt><trkpt lat="45.78580516626078" lon="8.489451790877942"><ele>592.0</ele><time>2026-05-02T10:23:08.902Z</time></trkpt><trkpt lat="45.78569433679007" lon="8.489417478304448"><ele>592.0</ele><time>2026-05-02T10:23:10.902Z</time></trkpt><trkpt lat="45.78562249686289" lon="8.489458422068878"><ele>592.0</ele><time>2026-05-02T10:23:14.902Z</time></trkpt><trkpt lat="45.78552454191497" lon="8.489398496448361"><ele>592.0</ele><time>2026-05-02T10:23:16.902Z</time></trkpt><trkpt lat="45.78546126462142" lon="8.489352353283566"><ele>592.0</ele><time>2026-05-02T10:23:18.902Z</time></trkpt><trkpt lat="45.78539253601433" lon="8.489328058767056"><ele>592.0</ele><time>2026-05-02T10:23:20.902Z</time></trkpt><trkpt lat="45.7853325124622" lon="8.489360560695765"><ele>592.0</ele><time>2026-05-02T10:23:22.902Z</time></trkpt><trkpt lat="45.78525625250098" lon="8.489398680229923"><ele>591.1666666666667</ele><time>2026-05-02T10:23:24.902Z</time></trkpt><trkpt lat="45.78517300346795" lon="8.489450502445516"><ele>590.3333333333334</ele><time>2026-05-02T10:23:27.902Z</time></trkpt><trkpt lat="45.78512115313708" lon="8.489536358128985"><ele>589.5</ele><time>2026-05-02T10:23:30.902Z</time></trkpt><trkpt lat="45.78510923728721" lon="8.489634492152273"><ele>588.6666666666666</ele><time>2026-05-02T10:23:33.902Z</time></trkpt><trkpt lat="45.78513776867401" lon="8.489730371073618"><ele>587.8333333333333</ele><time>2026-05-02T10:23:36.902Z</time></trkpt><trkpt lat="45.78521918168008" lon="8.489809809036384"><ele>587.0</ele><time>2026-05-02T10:23:39.902Z</time></trkpt><trkpt lat="45.7852582129761" lon="8.489893308416997"><ele>584.3333333333333</ele><time>2026-05-02T10:23:41.902Z</time></trkpt><trkpt lat="45.78529275108127" lon="8.489973150682532"><ele>581.6666666666666</ele><time>2026-05-02T10:23:43.902Z</time></trkpt><trkpt lat="45.78533715609389" lon="8.49008765662035"><ele>579.0</ele><time>2026-05-02T10:23:47.901Z</time></trkpt><trkpt lat="45.78536708831163" lon="8.49022632599753"><ele>576.3333333333334</ele><time>2026-05-02T10:23:50.901Z</time></trkpt><trkpt lat="45.78543958649153" lon="8.490305125432995"><ele>573.6666666666667</ele><time>2026-05-02T10:23:53.901Z</time></trkpt><trkpt lat="45.78550227119645" lon="8.490369622370935"><ele>571.0</ele><time>2026-05-02T10:23:56.901Z</time></trkpt><trkpt lat="45.78556682713961" lon="8.490469445719434"><ele>566.0</ele><time>2026-05-02T10:23:58.901Z</time></trkpt><trkpt lat="45.78563258434913" lon="8.49049594810643"><ele>561.0</ele><time>2026-05-02T10:24:00.901Z</time></trkpt><trkpt lat="45.78569916690173" lon="8.490530404761888"><ele>556.0</ele><time>2026-05-02T10:24:02.901Z</time></trkpt><trkpt lat="45.78578073831864" lon="8.490557894349879"><ele>551.0</ele><time>2026-05-02T10:24:04.901Z</time></trkpt><trkpt lat="45.78587307088193" lon="8.490575966406222"><ele>546.0</ele><time>2026-05-02T10:24:06.901Z</time></trkpt><trkpt lat="45.7859459645161" lon="8.490611609055954"><ele>541.0</ele><time>2026-05-02T10:24:08.901Z</time></trkpt><trkpt lat="45.78601697314659" lon="8.490604407404554"><ele>540.3333333333334</ele><time>2026-05-02T10:24:10.901Z</time></trkpt><trkpt lat="45.78613241053021" lon="8.490573348549752"><ele>539.6666666666667</ele><time>2026-05-02T10:24:12.901Z</time></trkpt><trkpt lat="45.78620966394226" lon="8.490562503282824"><ele>539.0</ele><time>2026-05-02T10:24:14.901Z</time></trkpt><trkpt lat="45.78628063376678" lon="8.490609353721739"><ele>538.3333333333334</ele><time>2026-05-02T10:24:16.901Z</time></trkpt><trkpt lat="45.786310575334866" lon="8.490701896763511"><ele>537.6666666666666</ele><time>2026-05-02T10:24:18.901Z</time></trkpt><trkpt lat="45.78632720213397" lon="8.490842367106447"><ele>537.0</ele><time>2026-05-02T10:24:20.901Z</time></trkpt><trkpt lat="45.78629756568183" lon="8.491009810257431"><ele>537.0</ele><time>2026-05-02T10:24:22.901Z</time></trkpt><trkpt lat="45.78630675418343" lon="8.491103765561244"><ele>537.0</ele><time>2026-05-02T10:24:24.901Z</time></trkpt><trkpt lat="45.78629764467167" lon="8.491214250181127"><ele>537.0</ele><time>2026-05-02T10:24:26.901Z</time></trkpt><trkpt lat="45.78628822827499" lon="8.491339698392748"><ele>537.0</ele><time>2026-05-02T10:24:28.901Z</time></trkpt><trkpt lat="45.786296837701" lon="8.491449637599139"><ele>537.0</ele><time>2026-05-02T10:24:30.901Z</time></trkpt><trkpt lat="45.786317542679384" lon="8.491557977408347"><ele>537.0</ele><time>2026-05-02T10:24:31.901Z</time></trkpt><trkpt lat="45.78630916837888" lon="8.491658205163878"><ele>535.8000000000001</ele><time>2026-05-02T10:24:32.901Z</time></trkpt><trkpt lat="45.786249147015745" lon="8.49173933573086"><ele>534.6</ele><time>2026-05-02T10:24:34.901Z</time></trkpt><trkpt lat="45.786144335229075" lon="8.491797190485501"><ele>533.4000000000001</ele><time>2026-05-02T10:24:36.901Z</time></trkpt><trkpt lat="45.78605281072545" lon="8.491917211420771"><ele>532.2</ele><time>2026-05-02T10:24:38.902Z</time></trkpt><trkpt lat="45.786022347181415" lon="8.492054111160428"><ele>531.0</ele><time>2026-05-02T10:24:39.902Z</time></trkpt><trkpt lat="45.78600789760936" lon="8.492144021737655"><ele>530.6</ele><time>2026-05-02T10:24:40.901Z</time></trkpt><trkpt lat="45.78593851930452" lon="8.492128579019925"><ele>530.2</ele><time>2026-05-02T10:24:43.901Z</time></trkpt><trkpt lat="45.78581039810591" lon="8.492025545242095"><ele>529.8</ele><time>2026-05-02T10:24:45.901Z</time></trkpt><trkpt lat="45.785725933219126" lon="8.491926970309514"><ele>529.4</ele><time>2026-05-02T10:24:46.901Z</time></trkpt><trkpt lat="45.78565127707085" lon="8.491870919788957"><ele>529.0</ele><time>2026-05-02T10:24:47.901Z</time></trkpt><trkpt lat="45.78556515013211" lon="8.491837557316908"><ele>529.0</ele><time>2026-05-02T10:24:48.901Z</time></trkpt><trkpt lat="45.78544789810037" lon="8.491735074731622"><ele>529.0</ele><time>2026-05-02T10:24:49.902Z</time></trkpt><trkpt lat="45.785318620575666" lon="8.491608901268906"><ele>529.0</ele><time>2026-05-02T10:24:50.901Z</time></trkpt><trkpt lat="45.78519088420478" lon="8.49150957022202"><ele>529.0</ele><time>2026-05-02T10:24:51.901Z</time></trkpt><trkpt lat="45.78509892415715" lon="8.49144589764708"><ele>528.4</ele><time>2026-05-02T10:24:52.901Z</time></trkpt><trkpt lat="45.78498468387618" lon="8.491442963764328"><ele>527.8</ele><time>2026-05-02T10:24:54.901Z</time></trkpt><trkpt lat="45.78491076897723" lon="8.491424838727918"><ele>527.2</ele><time>2026-05-02T10:24:55.901Z</time></trkpt><trkpt lat="45.7848146298066" lon="8.491430700010433"><ele>526.6</ele><time>2026-05-02T10:24:56.901Z</time></trkpt><trkpt lat="45.78469818532361" lon="8.491415531319586"><ele>526.0</ele><time>2026-05-02T10:24:57.901Z</time></trkpt><trkpt lat="45.78457834246454" lon="8.491389289768993"><ele>526.0</ele><time>2026-05-02T10:24:58.901Z</time></trkpt><trkpt lat="45.78447595362855" lon="8.491379031742433"><ele>526.0</ele><time>2026-05-02T10:24:59.901Z</time></trkpt><trkpt lat="45.78436708251066" lon="8.49138773377228"><ele>526.0</ele><time>2026-05-02T10:25:00.901Z</time></trkpt><trkpt lat="45.78426248328843" lon="8.491384089029252"><ele>526.0</ele><time>2026-05-02T10:25:01.901Z</time></trkpt><trkpt lat="45.7841205924359" lon="8.491385179085665"><ele>525.25</ele><time>2026-05-02T10:25:02.901Z</time></trkpt><trkpt lat="45.783978775721266" lon="8.491403400277576"><ele>524.5</ele><time>2026-05-02T10:25:03.901Z</time></trkpt><trkpt lat="45.78383312610311" lon="8.491371770978999"><ele>523.75</ele><time>2026-05-02T10:25:04.901Z</time></trkpt><trkpt lat="45.78373760682498" lon="8.491383984467722"><ele>523.0</ele><time>2026-05-02T10:25:05.901Z</time></trkpt><trkpt lat="45.78365551784766" lon="8.491415804648737"><ele>523.0</ele><time>2026-05-02T10:25:06.901Z</time></trkpt><trkpt lat="45.78357395363135" lon="8.491445089000313"><ele>523.0</ele><time>2026-05-02T10:25:07.901Z</time></trkpt><trkpt lat="45.78349043427757" lon="8.491488104845686"><ele>523.0</ele><time>2026-05-02T10:25:08.901Z</time></trkpt><trkpt lat="45.78341510655245" lon="8.49151924464957"><ele>523.0</ele><time>2026-05-02T10:25:09.901Z</time></trkpt><trkpt lat="45.78334352753256" lon="8.491510707233054"><ele>523.0</ele><time>2026-05-02T10:25:10.901Z</time></trkpt><trkpt lat="45.78327228530999" lon="8.491468919070611"><ele>523.0</ele><time>2026-05-02T10:25:11.901Z</time></trkpt><trkpt lat="45.78318513801065" lon="8.491436543050167"><ele>522.5</ele><time>2026-05-02T10:25:12.901Z</time></trkpt><trkpt lat="45.783096306229254" lon="8.491428607173148"><ele>522.0</ele><time>2026-05-02T10:25:13.901Z</time></trkpt><trkpt lat="45.783027767853724" lon="8.491427982475907"><ele>521.5</ele><time>2026-05-02T10:25:14.901Z</time></trkpt><trkpt lat="45.78291723161454" lon="8.491383143851873"><ele>521.0</ele><time>2026-05-02T10:25:16.901Z</time></trkpt><trkpt lat="45.78285461004131" lon="8.491338677211253"><ele>520.5</ele><time>2026-05-02T10:25:17.901Z</time></trkpt><trkpt lat="45.78279250503747" lon="8.491314728576555"><ele>520.0</ele><time>2026-05-02T10:25:18.901Z</time></trkpt><trkpt lat="45.78268631329651" lon="8.491331238806872"><ele>518.1428571428572</ele><time>2026-05-02T10:25:20.901Z</time></trkpt><trkpt lat="45.782601774685226" lon="8.491315475680722"><ele>516.2857142857143</ele><time>2026-05-02T10:25:21.901Z</time></trkpt><trkpt lat="45.78252100536881" lon="8.491343525695575"><ele>514.4285714285714</ele><time>2026-05-02T10:25:23.901Z</time></trkpt><trkpt lat="45.78247329071421" lon="8.491403555718216"><ele>512.5714285714287</ele><time>2026-05-02T10:25:24.901Z</time></trkpt><trkpt lat="45.782432610755144" lon="8.491480988208494"><ele>510.7142857142858</ele><time>2026-05-02T10:25:25.901Z</time></trkpt><trkpt lat="45.782393442877584" lon="8.491562961185577"><ele>508.85714285714283</ele><time>2026-05-02T10:25:27.901Z</time></trkpt><trkpt lat="45.78231936444784" lon="8.491567780540151"><ele>507.0</ele><time>2026-05-02T10:25:29.901Z</time></trkpt><trkpt lat="45.78222208453391" lon="8.491537406333833"><ele>507.0</ele><time>2026-05-02T10:25:31.901Z</time></trkpt><trkpt lat="45.78215076508798" lon="8.49157448618959"><ele>507.0</ele><time>2026-05-02T10:25:33.901Z</time></trkpt><trkpt lat="45.782070951089544" lon="8.49159496778397"><ele>507.0</ele><time>2026-05-02T10:25:35.901Z</time></trkpt><trkpt lat="45.78198735948783" lon="8.491613238096768"><ele>507.0</ele><time>2026-05-02T10:25:37.901Z</time></trkpt><trkpt lat="45.78193156684073" lon="8.491751109065122"><ele>507.0</ele><time>2026-05-02T10:25:40.901Z</time></trkpt><trkpt lat="45.78186176795215" lon="8.491786105125286"><ele>507.0</ele><time>2026-05-02T10:25:42.901Z</time></trkpt><trkpt lat="45.78177855863163" lon="8.491886789328325"><ele>506.5</ele><time>2026-05-02T10:25:44.901Z</time></trkpt><trkpt lat="45.781732180775755" lon="8.491985626672886"><ele>506.0</ele><time>2026-05-02T10:25:45.901Z</time></trkpt><trkpt lat="45.781695376530614" lon="8.492087538305"><ele>505.5</ele><time>2026-05-02T10:25:46.901Z</time></trkpt><trkpt lat="45.781708257337456" lon="8.492191050006213"><ele>505.0</ele><time>2026-05-02T10:25:48.901Z</time></trkpt><trkpt lat="45.7817737450596" lon="8.492217522270817"><ele>504.5</ele><time>2026-05-02T10:25:52.901Z</time></trkpt><trkpt lat="45.781716521721044" lon="8.492274588466257"><ele>504.0</ele><time>2026-05-02T10:25:53.901Z</time></trkpt><trkpt lat="45.78165983470258" lon="8.49236172103591"><ele>498.0</ele><time>2026-05-02T10:25:54.901Z</time></trkpt><trkpt lat="45.7815949925143" lon="8.492417034466778"><ele>492.0</ele><time>2026-05-02T10:25:55.901Z</time></trkpt><trkpt lat="45.78151849630875" lon="8.492482679995332"><ele>486.0</ele><time>2026-05-02T10:25:56.901Z</time></trkpt><trkpt lat="45.781443761828456" lon="8.492567083588996"><ele>480.0</ele><time>2026-05-02T10:25:57.901Z</time></trkpt><trkpt lat="45.78163569361708" lon="8.492506140861975"><ele>480.0</ele><time>2026-05-02T10:25:58.901Z</time></trkpt><trkpt lat="45.781573765917" lon="8.492534686974553"><ele>480.0</ele><time>2026-05-02T10:25:59.901Z</time></trkpt><trkpt lat="45.781459489775" lon="8.492547247339264"><ele>480.0</ele><time>2026-05-02T10:26:01.901Z</time></trkpt><trkpt lat="45.78139724752237" lon="8.492659651937585"><ele>480.0</ele><time>2026-05-02T10:26:04.901Z</time></trkpt><trkpt lat="45.78141680828177" lon="8.492824099014433"><ele>480.0</ele><time>2026-05-02T10:26:06.901Z</time></trkpt><trkpt lat="45.78149454717093" lon="8.492953747103282"><ele>476.8333333333333</ele><time>2026-05-02T10:26:08.901Z</time></trkpt><trkpt lat="45.7815484278624" lon="8.493006092275387"><ele>473.66666666666663</ele><time>2026-05-02T10:26:09.901Z</time></trkpt><trkpt lat="45.78154492940838" lon="8.493105506599663"><ele>470.5</ele><time>2026-05-02T10:26:12.901Z</time></trkpt><trkpt lat="45.78147972600022" lon="8.493255148316932"><ele>467.3333333333333</ele><time>2026-05-02T10:26:14.901Z</time></trkpt><trkpt lat="45.78143864950197" lon="8.493338430486176"><ele>464.16666666666663</ele><time>2026-05-02T10:26:15.901Z</time></trkpt><trkpt lat="45.78139112108505" lon="8.493425558642723"><ele>461.0</ele><time>2026-05-02T10:26:17.9Z</time></trkpt><trkpt lat="45.78127434504678" lon="8.493400726456589"><ele>461.0</ele><time>2026-05-02T10:26:20.9Z</time></trkpt><trkpt lat="45.78118106831856" lon="8.493326239118453"><ele>461.0</ele><time>2026-05-02T10:26:21.9Z</time></trkpt><trkpt lat="45.78108776618576" lon="8.493264195778703"><ele>461.0</ele><time>2026-05-02T10:26:22.9Z</time></trkpt><trkpt lat="45.78099000678878" lon="8.493200338389078"><ele>461.0</ele><time>2026-05-02T10:26:23.9Z</time></trkpt><trkpt lat="45.780896633164744" lon="8.493134016624097"><ele>461.0</ele><time>2026-05-02T10:26:24.9Z</time></trkpt><trkpt lat="45.780807323646556" lon="8.49308499551515"><ele>460.20000000000005</ele><time>2026-05-02T10:26:25.9Z</time></trkpt><trkpt lat="45.78070746272908" lon="8.493024855997206"><ele>459.40000000000003</ele><time>2026-05-02T10:26:26.9Z</time></trkpt><trkpt lat="45.78060769996649" lon="8.492971340425576"><ele>458.6</ele><time>2026-05-02T10:26:27.9Z</time></trkpt><trkpt lat="45.78052391028794" lon="8.492920115127959"><ele>457.8</ele><time>2026-05-02T10:26:28.9Z</time></trkpt><trkpt lat="45.7804481797263" lon="8.492868715035193"><ele>457.0</ele><time>2026-05-02T10:26:29.9Z</time></trkpt><trkpt lat="45.78038647359387" lon="8.492848681097547"><ele>456.0</ele><time>2026-05-02T10:26:30.9Z</time></trkpt><trkpt lat="45.78024645801144" lon="8.492902534725612"><ele>455.0</ele><time>2026-05-02T10:26:32.9Z</time></trkpt><trkpt lat="45.780115974190544" lon="8.49296886601063"><ele>454.0</ele><time>2026-05-02T10:26:33.9Z</time></trkpt><trkpt lat="45.77997743073786" lon="8.493032526756254"><ele>453.0</ele><time>2026-05-02T10:26:34.9Z</time></trkpt><trkpt lat="45.77985520574206" lon="8.493074968736153"><ele>453.0</ele><time>2026-05-02T10:26:35.9Z</time></trkpt><trkpt lat="45.77976679523463" lon="8.493109965792835"><ele>453.0</ele><time>2026-05-02T10:26:36.9Z</time></trkpt><trkpt lat="45.77967630349159" lon="8.49310394638708"><ele>453.0</ele><time>2026-05-02T10:26:37.9Z</time></trkpt><trkpt lat="45.779583985260324" lon="8.493113065557964"><ele>453.0</ele><time>2026-05-02T10:26:38.9Z</time></trkpt><trkpt lat="45.77949658212989" lon="8.493137649799147"><ele>453.0</ele><time>2026-05-02T10:26:39.9Z</time></trkpt><trkpt lat="45.77941674321305" lon="8.493139883092788"><ele>453.0</ele><time>2026-05-02T10:26:40.9Z</time></trkpt><trkpt lat="45.779329670030656" lon="8.493131558999629"><ele>452.79999999999995</ele><time>2026-05-02T10:26:41.9Z</time></trkpt><trkpt lat="45.7792534989049" lon="8.49312443440206"><ele>452.59999999999997</ele><time>2026-05-02T10:26:42.9Z</time></trkpt><trkpt lat="45.779141598092586" lon="8.493136986354143"><ele>452.40000000000003</ele><time>2026-05-02T10:26:44.899Z</time></trkpt><trkpt lat="45.779042588953516" lon="8.49317151632361"><ele>452.20000000000005</ele><time>2026-05-02T10:26:46.9Z</time></trkpt><trkpt lat="45.77894574165877" lon="8.493256856431463"><ele>452.0</ele><time>2026-05-02T10:26:48.9Z</time></trkpt><trkpt lat="45.778865767508705" lon="8.493290705841627"><ele>452.0</ele><time>2026-05-02T10:26:49.9Z</time></trkpt><trkpt lat="45.778802200197845" lon="8.493332709508886"><ele>452.00000000000006</ele><time>2026-05-02T10:26:50.9Z</time></trkpt><trkpt lat="45.77872127087832" lon="8.49336943669896"><ele>452.00000000000006</ele><time>2026-05-02T10:26:52.9Z</time></trkpt><trkpt lat="45.77882371399699" lon="8.49321941579541"><ele>452.0</ele><time>2026-05-02T10:26:54.9Z</time></trkpt><trkpt lat="45.77876068232153" lon="8.493168793890142"><ele>452.0</ele><time>2026-05-02T10:26:56.899Z</time></trkpt><trkpt lat="45.77833675407392" lon="8.493592480458409"><ele>449.25</ele><time>2026-05-02T10:27:14.899Z</time></trkpt><trkpt lat="45.7782329089049" lon="8.49357585362158"><ele>446.5</ele><time>2026-05-02T10:27:15.899Z</time></trkpt><trkpt lat="45.77816398459536" lon="8.493563318070386"><ele>443.75</ele><time>2026-05-02T10:27:16.899Z</time></trkpt><trkpt lat="45.778084918076544" lon="8.49385088321508"><ele>441.0</ele><time>2026-05-02T10:27:21.899Z</time></trkpt><trkpt lat="45.77806365607772" lon="8.493946636346099"><ele>438.6</ele><time>2026-05-02T10:27:22.899Z</time></trkpt><trkpt lat="45.778033197955736" lon="8.49404050961727"><ele>436.20000000000005</ele><time>2026-05-02T10:27:24.899Z</time></trkpt><trkpt lat="45.777917018552216" lon="8.494087879535066"><ele>433.79999999999995</ele><time>2026-05-02T10:27:26.899Z</time></trkpt><trkpt lat="45.777806617481396" lon="8.494153000636953"><ele>431.4</ele><time>2026-05-02T10:27:28.899Z</time></trkpt><trkpt lat="45.77774204337798" lon="8.494189143289125"><ele>429.0</ele><time>2026-05-02T10:27:29.899Z</time></trkpt><trkpt lat="45.77767573172138" lon="8.49423224169884"><ele>428.0</ele><time>2026-05-02T10:27:30.899Z</time></trkpt><trkpt lat="45.77758070302291" lon="8.494249238597963"><ele>427.0</ele><time>2026-05-02T10:27:32.899Z</time></trkpt><trkpt lat="45.77748603138517" lon="8.494232529233264"><ele>426.0</ele><time>2026-05-02T10:27:34.899Z</time></trkpt><trkpt lat="45.777365851720916" lon="8.494153206833953"><ele>425.0</ele><time>2026-05-02T10:27:36.899Z</time></trkpt><trkpt lat="45.77729304873946" lon="8.494135119126506"><ele>424.0</ele><time>2026-05-02T10:27:37.899Z</time></trkpt><trkpt lat="45.77722304062418" lon="8.49409270607977"><ele>424.0</ele><time>2026-05-02T10:27:38.899Z</time></trkpt><trkpt lat="45.77715307254998" lon="8.494092345549696"><ele>424.0</ele><time>2026-05-02T10:27:40.899Z</time></trkpt><trkpt lat="45.77705046115678" lon="8.49417251830104"><ele>424.0</ele><time>2026-05-02T10:27:42.899Z</time></trkpt><trkpt lat="45.77698035128804" lon="8.494191323948128"><ele>424.0</ele><time>2026-05-02T10:27:43.899Z</time></trkpt><trkpt lat="45.77687423506492" lon="8.494235012647797"><ele>424.0</ele><time>2026-05-02T10:27:44.899Z</time></trkpt><trkpt lat="45.77679274570923" lon="8.49425401129961"><ele>421.4</ele><time>2026-05-02T10:27:45.899Z</time></trkpt><trkpt lat="45.77670163180932" lon="8.494204149958069"><ele>418.79999999999995</ele><time>2026-05-02T10:27:47.899Z</time></trkpt><trkpt lat="45.77660822206081" lon="8.4941541904163"><ele>416.20000000000005</ele><time>2026-05-02T10:27:49.899Z</time></trkpt><trkpt lat="45.7765418949612" lon="8.494123322702002"><ele>413.6</ele><time>2026-05-02T10:27:50.899Z</time></trkpt><trkpt lat="45.77643951945894" lon="8.494068113595967"><ele>411.0</ele><time>2026-05-02T10:27:52.899Z</time></trkpt><trkpt lat="45.77631873592091" lon="8.494053994365997"><ele>411.0</ele><time>2026-05-02T10:27:54.899Z</time></trkpt><trkpt lat="45.77625396522027" lon="8.49399554671737"><ele>411.0</ele><time>2026-05-02T10:27:55.899Z</time></trkpt><trkpt lat="45.77617458232192" lon="8.493909915803563"><ele>411.0</ele><time>2026-05-02T10:27:56.899Z</time></trkpt><trkpt lat="45.77610836299766" lon="8.493866574100851"><ele>411.0</ele><time>2026-05-02T10:27:57.899Z</time></trkpt><trkpt lat="45.77604351461159" lon="8.493859181655182"><ele>411.0</ele><time>2026-05-02T10:27:58.899Z</time></trkpt><trkpt lat="45.77594039062091" lon="8.493845737503923"><ele>411.0</ele><time>2026-05-02T10:27:59.899Z</time></trkpt><trkpt lat="45.77582644186134" lon="8.493820014408982"><ele>411.0</ele><time>2026-05-02T10:28:00.899Z</time></trkpt><trkpt lat="45.77569657963437" lon="8.493765068984498"><ele>411.0</ele><time>2026-05-02T10:28:01.899Z</time></trkpt><trkpt lat="45.775588317208054" lon="8.493685156201316"><ele>411.0</ele><time>2026-05-02T10:28:02.899Z</time></trkpt><trkpt lat="45.775466418146614" lon="8.493632713902192"><ele>411.0</ele><time>2026-05-02T10:28:03.899Z</time></trkpt><trkpt lat="45.775342508310445" lon="8.493563238025803"><ele>411.0</ele><time>2026-05-02T10:28:04.899Z</time></trkpt><trkpt lat="45.77525406582337" lon="8.493525839281137"><ele>411.0</ele><time>2026-05-02T10:28:05.899Z</time></trkpt><trkpt lat="45.77519310938198" lon="8.493489024141411"><ele>411.0</ele><time>2026-05-02T10:28:07.899Z</time></trkpt><trkpt lat="45.77513869789436" lon="8.493340785458924"><ele>411.0</ele><time>2026-05-02T10:28:11.899Z</time></trkpt><trkpt lat="45.775043190287896" lon="8.493211183335347"><ele>411.0</ele><time>2026-05-02T10:28:13.899Z</time></trkpt><trkpt lat="45.77498740513312" lon="8.493139325564966"><ele>410.1666666666667</ele><time>2026-05-02T10:28:14.899Z</time></trkpt><trkpt lat="45.77494376709749" lon="8.493052482578237"><ele>409.33333333333337</ele><time>2026-05-02T10:28:15.899Z</time></trkpt><trkpt lat="45.774905571022856" lon="8.492961158174241"><ele>408.5</ele><time>2026-05-02T10:28:16.899Z</time></trkpt><trkpt lat="45.774881234192506" lon="8.492856750079833"><ele>407.6666666666667</ele><time>2026-05-02T10:28:17.897Z</time></trkpt><trkpt lat="45.774857537239726" lon="8.492760704176622"><ele>406.83333333333337</ele><time>2026-05-02T10:28:18.895Z</time></trkpt><trkpt lat="45.77483847196947" lon="8.492642598406391"><ele>406.0</ele><time>2026-05-02T10:28:20.893Z</time></trkpt><trkpt lat="45.77490310761894" lon="8.492512244273794"><ele>406.00000000000006</ele><time>2026-05-02T10:28:22.89Z</time></trkpt><trkpt lat="45.774927904025176" lon="8.492425116701588"><ele>406.0</ele><time>2026-05-02T10:28:23.889Z</time></trkpt><trkpt lat="45.77495519307018" lon="8.49229440373412"><ele>406.0</ele><time>2026-05-02T10:28:24.888Z</time></trkpt><trkpt lat="45.774978722095064" lon="8.492157151854764"><ele>406.0</ele><time>2026-05-02T10:28:25.887Z</time></trkpt><trkpt lat="45.77494809327393" lon="8.492069105868609"><ele>406.00000000000006</ele><time>2026-05-02T10:28:29.884Z</time></trkpt><trkpt lat="45.774870265336375" lon="8.492092692743505"><ele>406.0</ele><time>2026-05-02T10:28:33.881Z</time></trkpt><trkpt lat="45.77480107400466" lon="8.492112615945716"><ele>406.00000000000006</ele><time>2026-05-02T10:28:35.88Z</time></trkpt><trkpt lat="45.77471703119623" lon="8.492179640800465"><ele>406.0</ele><time>2026-05-02T10:28:37.879Z</time></trkpt><trkpt lat="45.77464752937901" lon="8.492188834623404"><ele>406.0</ele><time>2026-05-02T10:28:39.878Z</time></trkpt><trkpt lat="45.77462213698984" lon="8.492284269586197"><ele>406.0</ele><time>2026-05-02T10:28:44.877Z</time></trkpt><trkpt lat="45.77460759194022" lon="8.49237535804298"><ele>406.00000000000006</ele><time>2026-05-02T10:28:48.876Z</time></trkpt><trkpt lat="45.774540677714405" lon="8.492452511531269"><ele>406.0</ele><time>2026-05-02T10:28:50.876Z</time></trkpt><trkpt lat="45.77443999192352" lon="8.492483977576432"><ele>406.00000000000006</ele><time>2026-05-02T10:28:52.875Z</time></trkpt><trkpt lat="45.77436758431196" lon="8.492454048763655"><ele>406.0</ele><time>2026-05-02T10:28:55.874Z</time></trkpt><trkpt lat="45.77428735993551" lon="8.492460321604376"><ele>406.0</ele><time>2026-05-02T10:28:57.874Z</time></trkpt><trkpt lat="45.774216961157634" lon="8.492448838853578"><ele>406.0</ele><time>2026-05-02T10:28:58.874Z</time></trkpt><trkpt lat="45.77413572195506" lon="8.492430598825683"><ele>406.00000000000006</ele><time>2026-05-02T10:28:59.874Z</time></trkpt><trkpt lat="45.774029336572475" lon="8.49245127297648"><ele>406.0</ele><time>2026-05-02T10:29:01.874Z</time></trkpt><trkpt lat="45.77396884503526" lon="8.492417512800778"><ele>403.83333333333337</ele><time>2026-05-02T10:29:02.873Z</time></trkpt><trkpt lat="45.77389797711574" lon="8.492440370045218"><ele>401.6666666666667</ele><time>2026-05-02T10:29:03.873Z</time></trkpt><trkpt lat="45.77382098433333" lon="8.492460631563976"><ele>399.5</ele><time>2026-05-02T10:29:04.873Z</time></trkpt><trkpt lat="45.77372479086741" lon="8.492518964679219"><ele>397.33333333333337</ele><time>2026-05-02T10:29:06.873Z</time></trkpt><trkpt lat="45.77365718896642" lon="8.492551162991408"><ele>395.1666666666667</ele><time>2026-05-02T10:29:07.873Z</time></trkpt><trkpt lat="45.77355813992742" lon="8.492590612067724"><ele>393.0</ele><time>2026-05-02T10:29:08.873Z</time></trkpt><trkpt lat="45.77348374679966" lon="8.492604328274462"><ele>391.4</ele><time>2026-05-02T10:29:10.873Z</time></trkpt><trkpt lat="45.77341647192519" lon="8.492680069611387"><ele>389.79999999999995</ele><time>2026-05-02T10:29:12.872Z</time></trkpt><trkpt lat="45.773308115969726" lon="8.49272815662536"><ele>388.2</ele><time>2026-05-02T10:29:14.872Z</time></trkpt><trkpt lat="45.77323307859178" lon="8.492718354653734"><ele>386.6</ele><time>2026-05-02T10:29:15.872Z</time></trkpt><trkpt lat="45.77313749340355" lon="8.49268994612805"><ele>385.0</ele><time>2026-05-02T10:29:17.872Z</time></trkpt><trkpt lat="45.77305864599049" lon="8.49273088917917"><ele>385.00000000000006</ele><time>2026-05-02T10:29:19.872Z</time></trkpt><trkpt lat="45.7729933212588" lon="8.492854207860667"><ele>385.0</ele><time>2026-05-02T10:29:21.872Z</time></trkpt><trkpt lat="45.772930082676154" lon="8.492933152147305"><ele>385.0</ele><time>2026-05-02T10:29:22.872Z</time></trkpt><trkpt lat="45.7728670366759" lon="8.492996846484345"><ele>385.0</ele><time>2026-05-02T10:29:24.872Z</time></trkpt><trkpt lat="45.77280587954469" lon="8.493043474262686"><ele>385.00000000000006</ele><time>2026-05-02T10:29:29.872Z</time></trkpt><trkpt lat="45.77274603732273" lon="8.492969598256098"><ele>385.0</ele><time>2026-05-02T10:29:41.871Z</time></trkpt><trkpt lat="45.772676218509446" lon="8.49301677579886"><ele>383.1666666666667</ele><time>2026-05-02T10:29:47.871Z</time></trkpt><trkpt lat="45.77260680411936" lon="8.493045133182626"><ele>381.33333333333337</ele><time>2026-05-02T10:29:49.871Z</time></trkpt><trkpt lat="45.77251352658358" lon="8.493069116010535"><ele>379.5</ele><time>2026-05-02T10:29:52.871Z</time></trkpt><trkpt lat="45.77244437180861" lon="8.493114789056483"><ele>377.6666666666667</ele><time>2026-05-02T10:29:54.871Z</time></trkpt><trkpt lat="45.7723876353903" lon="8.493161304192867"><ele>375.83333333333337</ele><time>2026-05-02T10:29:55.871Z</time></trkpt><trkpt lat="45.77231744610471" lon="8.49320436260822"><ele>374.0</ele><time>2026-05-02T10:29:56.871Z</time></trkpt><trkpt lat="45.77223813088527" lon="8.493173323943239"><ele>374.0</ele><time>2026-05-02T10:29:57.871Z</time></trkpt><trkpt lat="45.77214158959695" lon="8.493146649332072"><ele>374.0</ele><time>2026-05-02T10:29:58.871Z</time></trkpt><trkpt lat="45.77206221340044" lon="8.49312546184683"><ele>374.0</ele><time>2026-05-02T10:29:59.871Z</time></trkpt><trkpt lat="45.771980364289085" lon="8.493145840143574"><ele>374.0</ele><time>2026-05-02T10:30:01.871Z</time></trkpt><trkpt lat="45.7718725826567" lon="8.493119166249548"><ele>374.0</ele><time>2026-05-02T10:30:04.871Z</time></trkpt><trkpt lat="45.77179186501797" lon="8.493106858451187"><ele>373.0</ele><time>2026-05-02T10:30:05.871Z</time></trkpt><trkpt lat="45.77170904420284" lon="8.493119201787511"><ele>372.0</ele><time>2026-05-02T10:30:06.871Z</time></trkpt><trkpt lat="45.77164364231688" lon="8.493182836085094"><ele>371.0</ele><time>2026-05-02T10:30:09.871Z</time></trkpt><trkpt lat="45.77165417609846" lon="8.493286110745174"><ele>370.0</ele><time>2026-05-02T10:30:11.871Z</time></trkpt><trkpt lat="45.771591683162725" lon="8.493310600130355"><ele>369.0</ele><time>2026-05-02T10:30:16.871Z</time></trkpt><trkpt lat="45.77151597340169" lon="8.493337821759656"><ele>368.0</ele><time>2026-05-02T10:30:17.871Z</time></trkpt><trkpt lat="45.77145392187315" lon="8.493354073224499"><ele>367.0</ele><time>2026-05-02T10:30:19.871Z</time></trkpt><trkpt lat="45.77142588771603" lon="8.493453232896188"><ele>367.0</ele><time>2026-05-02T10:30:22.871Z</time></trkpt><trkpt lat="45.77133674276872" lon="8.493434103764285"><ele>367.0</ele><time>2026-05-02T10:30:24.871Z</time></trkpt><trkpt lat="45.771286832596594" lon="8.493374444459729"><ele>367.0</ele><time>2026-05-02T10:30:25.871Z</time></trkpt><trkpt lat="45.77122089905101" lon="8.493310928411606"><ele>367.0</ele><time>2026-05-02T10:30:26.871Z</time></trkpt><trkpt lat="45.77117041459348" lon="8.493232281431405"><ele>367.0</ele><time>2026-05-02T10:30:27.871Z</time></trkpt><trkpt lat="45.77108209073224" lon="8.493149117019804"><ele>367.0</ele><time>2026-05-02T10:30:29.871Z</time></trkpt><trkpt lat="45.77107374710174" lon="8.492857064400159"><ele>366.25</ele><time>2026-05-02T10:30:31.871Z</time></trkpt><trkpt lat="45.77089824529032" lon="8.493112120872262"><ele>365.5</ele><time>2026-05-02T10:30:32.871Z</time></trkpt><trkpt lat="45.77083367651176" lon="8.49307676672086"><ele>364.75</ele><time>2026-05-02T10:30:33.871Z</time></trkpt><trkpt lat="45.770766867467444" lon="8.493021760151043"><ele>364.0</ele><time>2026-05-02T10:30:34.871Z</time></trkpt><trkpt lat="45.77071310221017" lon="8.492970997065168"><ele>364.0</ele><time>2026-05-02T10:30:35.871Z</time></trkpt><trkpt lat="45.77064014630441" lon="8.492882775439613"><ele>364.0</ele><time>2026-05-02T10:30:37.871Z</time></trkpt><trkpt lat="45.77057215091046" lon="8.492858308360466"><ele>364.0</ele><time>2026-05-02T10:30:39.87Z</time></trkpt><trkpt lat="45.77050318014334" lon="8.492819546711363"><ele>364.0</ele><time>2026-05-02T10:30:41.87Z</time></trkpt><trkpt lat="45.770437138803466" lon="8.492818914756326"><ele>364.0</ele><time>2026-05-02T10:30:43.87Z</time></trkpt><trkpt lat="45.77042424428741" lon="8.492979123811256"><ele>364.0</ele><time>2026-05-02T10:30:46.87Z</time></trkpt><trkpt lat="45.77044369704549" lon="8.493077910106782"><ele>364.0</ele><time>2026-05-02T10:30:47.87Z</time></trkpt><trkpt lat="45.770446216621366" lon="8.49320007039013"><ele>364.0</ele><time>2026-05-02T10:30:48.87Z</time></trkpt><trkpt lat="45.77044249660287" lon="8.493343327295456"><ele>364.0</ele><time>2026-05-02T10:30:49.87Z</time></trkpt><trkpt lat="45.77042016233137" lon="8.493503485221636"><ele>364.0</ele><time>2026-05-02T10:30:50.87Z</time></trkpt><trkpt lat="45.7703667542371" lon="8.493680468260909"><ele>364.0</ele><time>2026-05-02T10:30:51.87Z</time></trkpt><trkpt lat="45.77030402967245" lon="8.49385355059986"><ele>363.5</ele><time>2026-05-02T10:30:52.87Z</time></trkpt><trkpt lat="45.77027212948443" lon="8.493992897862096"><ele>363.0</ele><time>2026-05-02T10:30:53.87Z</time></trkpt><trkpt lat="45.77024673084063" lon="8.494118947875025"><ele>362.5</ele><time>2026-05-02T10:30:54.87Z</time></trkpt><trkpt lat="45.77023075323818" lon="8.494211192032648"><ele>362.0</ele><time>2026-05-02T10:30:55.87Z</time></trkpt><trkpt lat="45.77018151675704" lon="8.494309502751225"><ele>361.5</ele><time>2026-05-02T10:30:57.87Z</time></trkpt><trkpt lat="45.77011915780084" lon="8.494358882300473"><ele>361.0</ele><time>2026-05-02T10:31:01.87Z</time></trkpt><trkpt lat="45.770055611532456" lon="8.494397136844416"><ele>361.0</ele><time>2026-05-02T10:31:05.869Z</time></trkpt><trkpt lat="45.7699739149668" lon="8.494485098863453"><ele>361.0</ele><time>2026-05-02T10:31:08.869Z</time></trkpt><trkpt lat="45.76985267330878" lon="8.49447037766443"><ele>361.0</ele><time>2026-05-02T10:31:10.869Z</time></trkpt><trkpt lat="45.76976504085082" lon="8.494455393099546"><ele>361.0</ele><time>2026-05-02T10:31:12.869Z</time></trkpt><trkpt lat="45.769696819218616" lon="8.494564893854099"><ele>361.0</ele><time>2026-05-02T10:31:16.869Z</time></trkpt><trkpt lat="45.76965539646177" lon="8.494642319689516"><ele>361.8</ele><time>2026-05-02T10:31:18.869Z</time></trkpt><trkpt lat="45.7696155876835" lon="8.494734496364883"><ele>362.6</ele><time>2026-05-02T10:31:20.869Z</time></trkpt><trkpt lat="45.76959518578904" lon="8.494842912748217"><ele>363.4</ele><time>2026-05-02T10:31:22.869Z</time></trkpt><trkpt lat="45.7696757627245" lon="8.494969628809525"><ele>364.2</ele><time>2026-05-02T10:31:23.869Z</time></trkpt><trkpt lat="45.769697416518376" lon="8.495094597683451"><ele>365.0</ele><time>2026-05-02T10:31:25.869Z</time></trkpt><trkpt lat="45.76978433994805" lon="8.495125189601728"><ele>365.0</ele><time>2026-05-02T10:31:27.869Z</time></trkpt><trkpt lat="45.76990400414487" lon="8.495166715062132"><ele>365.0</ele><time>2026-05-02T10:31:29.869Z</time></trkpt><trkpt lat="45.769972453518854" lon="8.495124572704"><ele>365.0</ele><time>2026-05-02T10:31:37.869Z</time></trkpt><trkpt lat="45.76995441314263" lon="8.495291262549676"><ele>365.0</ele><time>2026-05-02T10:31:38.869Z</time></trkpt><trkpt lat="45.7699163951529" lon="8.495372676501853"><ele>365.0</ele><time>2026-05-02T10:31:40.869Z</time></trkpt><trkpt lat="45.76991310779617" lon="8.495469379745634"><ele>368.0</ele><time>2026-05-02T10:31:45.869Z</time></trkpt><trkpt lat="45.76983199845259" lon="8.495500659408018"><ele>371.0</ele><time>2026-05-02T10:31:48.869Z</time></trkpt><trkpt lat="45.76975443811879" lon="8.49553664036831"><ele>374.0</ele><time>2026-05-02T10:31:51.868Z</time></trkpt><trkpt lat="45.769677123186106" lon="8.495637548043675"><ele>377.0</ele><time>2026-05-02T10:31:54.868Z</time></trkpt><trkpt lat="45.76960856737782" lon="8.495733675167028"><ele>380.0</ele><time>2026-05-02T10:31:56.868Z</time></trkpt><trkpt lat="45.76954740723155" lon="8.495801680538495"><ele>383.0</ele><time>2026-05-02T10:31:58.868Z</time></trkpt><trkpt lat="45.76947840124195" lon="8.49583238091319"><ele>383.0</ele><time>2026-05-02T10:32:00.868Z</time></trkpt><trkpt lat="45.7693930886705" lon="8.4958688459997"><ele>383.0</ele><time>2026-05-02T10:32:02.868Z</time></trkpt><trkpt lat="45.769295366353546" lon="8.495920828782966"><ele>383.0</ele><time>2026-05-02T10:32:04.868Z</time></trkpt><trkpt lat="45.76920573043362" lon="8.495932229671194"><ele>383.0</ele><time>2026-05-02T10:32:06.868Z</time></trkpt><trkpt lat="45.7691459497656" lon="8.495976223281643"><ele>383.0</ele><time>2026-05-02T10:32:08.868Z</time></trkpt><trkpt lat="45.76907441282896" lon="8.495994159860421"><ele>383.0</ele><time>2026-05-02T10:32:10.868Z</time></trkpt><trkpt lat="45.76897896644864" lon="8.496000819891565"><ele>383.57142857142856</ele><time>2026-05-02T10:32:12.868Z</time></trkpt><trkpt lat="45.76890644698668" lon="8.496014926746764"><ele>384.1428571428571</ele><time>2026-05-02T10:32:14.868Z</time></trkpt><trkpt lat="45.76881735659979" lon="8.49599554656378"><ele>384.7142857142857</ele><time>2026-05-02T10:32:20.868Z</time></trkpt><trkpt lat="45.76875246746529" lon="8.496005078093301"><ele>385.2857142857143</ele><time>2026-05-02T10:32:22.868Z</time></trkpt><trkpt lat="45.76866422093502" lon="8.496039517308278"><ele>385.8571428571429</ele><time>2026-05-02T10:32:24.868Z</time></trkpt><trkpt lat="45.76861195452117" lon="8.496092933645297"><ele>386.42857142857144</ele><time>2026-05-02T10:32:26.868Z</time></trkpt><trkpt lat="45.76855993764092" lon="8.496147074649583"><ele>387.0</ele><time>2026-05-02T10:32:29.868Z</time></trkpt><trkpt lat="45.76849306237052" lon="8.496158301075143"><ele>387.8</ele><time>2026-05-02T10:32:32.868Z</time></trkpt><trkpt lat="45.768445181495174" lon="8.496229479186894"><ele>388.6</ele><time>2026-05-02T10:32:35.868Z</time></trkpt><trkpt lat="45.76838822236777" lon="8.496302857137138"><ele>389.40000000000003</ele><time>2026-05-02T10:32:37.868Z</time></trkpt><trkpt lat="45.76828409602335" lon="8.496371678987574"><ele>390.20000000000005</ele><time>2026-05-02T10:32:39.868Z</time></trkpt><trkpt lat="45.768178941649296" lon="8.496427229862778"><ele>391.0</ele><time>2026-05-02T10:32:41.868Z</time></trkpt><trkpt lat="45.768055541675366" lon="8.496486428383669"><ele>393.1666666666667</ele><time>2026-05-02T10:32:43.868Z</time></trkpt><trkpt lat="45.76798522047901" lon="8.496559405107964"><ele>395.33333333333337</ele><time>2026-05-02T10:32:45.868Z</time></trkpt><trkpt lat="45.7679548275888" lon="8.496709965559559"><ele>397.5</ele><time>2026-05-02T10:32:48.868Z</time></trkpt><trkpt lat="45.76788968951948" lon="8.496738263555784"><ele>399.66666666666663</ele><time>2026-05-02T10:32:50.868Z</time></trkpt><trkpt lat="45.76780651690592" lon="8.49673370787832"><ele>401.8333333333333</ele><time>2026-05-02T10:32:56.868Z</time></trkpt><trkpt lat="45.767733262344485" lon="8.496709314752959"><ele>404.0</ele><time>2026-05-02T10:32:58.867Z</time></trkpt><trkpt lat="45.767663521869075" lon="8.496674529225201"><ele>403.99999999999994</ele><time>2026-05-02T10:33:00.867Z</time></trkpt><trkpt lat="45.7675919972994" lon="8.496754045975164"><ele>404.0</ele><time>2026-05-02T10:33:04.868Z</time></trkpt><trkpt lat="45.76756411940719" lon="8.496858847115464"><ele>404.0</ele><time>2026-05-02T10:33:07.868Z</time></trkpt><trkpt lat="45.76752888342202" lon="8.496963920432767"><ele>404.0</ele><time>2026-05-02T10:33:09.867Z</time></trkpt><trkpt lat="45.76746455346339" lon="8.496993419225246"><ele>403.99999999999994</ele><time>2026-05-02T10:33:11.868Z</time></trkpt><trkpt lat="45.76736585955048" lon="8.496938891023998"><ele>404.0</ele><time>2026-05-02T10:33:13.867Z</time></trkpt><trkpt lat="45.76730806303082" lon="8.496887657577341"><ele>404.0</ele><time>2026-05-02T10:33:14.867Z</time></trkpt><trkpt lat="45.76724690001306" lon="8.496844360660436"><ele>404.0</ele><time>2026-05-02T10:33:15.867Z</time></trkpt><trkpt lat="45.767144680559234" lon="8.496798395885524"><ele>404.0</ele><time>2026-05-02T10:33:17.867Z</time></trkpt><trkpt lat="45.76707041598401" lon="8.496834903208338"><ele>404.0</ele><time>2026-05-02T10:33:19.867Z</time></trkpt><trkpt lat="45.76694984748164" lon="8.496885434054414"><ele>404.0</ele><time>2026-05-02T10:33:21.867Z</time></trkpt><trkpt lat="45.76686758451746" lon="8.496863755329706"><ele>405.4</ele><time>2026-05-02T10:33:22.867Z</time></trkpt><trkpt lat="45.76675127078094" lon="8.49688795926454"><ele>406.79999999999995</ele><time>2026-05-02T10:33:24.867Z</time></trkpt><trkpt lat="45.76669190443186" lon="8.49692100613167"><ele>408.20000000000005</ele><time>2026-05-02T10:33:25.867Z</time></trkpt><trkpt lat="45.76660156295664" lon="8.497012248412991"><ele>409.6</ele><time>2026-05-02T10:33:27.867Z</time></trkpt><trkpt lat="45.76656883294932" lon="8.497096921160015"><ele>411.0</ele><time>2026-05-02T10:33:28.867Z</time></trkpt><trkpt lat="45.76646978766504" lon="8.497185649397453"><ele>412.8333333333333</ele><time>2026-05-02T10:33:30.867Z</time></trkpt><trkpt lat="45.76638910475972" lon="8.497217508657632"><ele>414.66666666666663</ele><time>2026-05-02T10:33:31.867Z</time></trkpt><trkpt lat="45.76629632485763" lon="8.497297199809257"><ele>416.5</ele><time>2026-05-02T10:33:33.867Z</time></trkpt><trkpt lat="45.766263722127654" lon="8.497375759045365"><ele>418.3333333333333</ele><time>2026-05-02T10:33:34.867Z</time></trkpt><trkpt lat="45.76622699739394" lon="8.497507903056645"><ele>420.16666666666663</ele><time>2026-05-02T10:33:35.867Z</time></trkpt><trkpt lat="45.7661860762117" lon="8.497590305429028"><ele>422.0</ele><time>2026-05-02T10:33:36.867Z</time></trkpt><trkpt lat="45.76609874550572" lon="8.497647643477588"><ele>422.8</ele><time>2026-05-02T10:33:37.867Z</time></trkpt><trkpt lat="45.76601330795716" lon="8.497695654146042"><ele>423.6</ele><time>2026-05-02T10:33:38.867Z</time></trkpt><trkpt lat="45.765952990471035" lon="8.49773071043819"><ele>424.40000000000003</ele><time>2026-05-02T10:33:39.867Z</time></trkpt><trkpt lat="45.76585473201372" lon="8.497843798228104"><ele>425.20000000000005</ele><time>2026-05-02T10:33:41.867Z</time></trkpt><trkpt lat="45.76576082804233" lon="8.497924020880715"><ele>426.0</ele><time>2026-05-02T10:33:43.867Z</time></trkpt><trkpt lat="45.76564367099079" lon="8.49798943705112"><ele>426.0</ele><time>2026-05-02T10:33:44.867Z</time></trkpt><trkpt lat="45.76547179583047" lon="8.498049982824918"><ele>426.0</ele><time>2026-05-02T10:33:45.867Z</time></trkpt><trkpt lat="45.765370494903216" lon="8.498064637719894"><ele>426.0</ele><time>2026-05-02T10:33:46.867Z</time></trkpt><trkpt lat="45.765234145964655" lon="8.498129939455442"><ele>426.0</ele><time>2026-05-02T10:33:48.867Z</time></trkpt><trkpt lat="45.765140588747904" lon="8.498195390554958"><ele>426.25</ele><time>2026-05-02T10:33:49.867Z</time></trkpt><trkpt lat="45.76508187751714" lon="8.498323967215168"><ele>426.5</ele><time>2026-05-02T10:33:51.867Z</time></trkpt><trkpt lat="45.765029608212956" lon="8.498468120803205"><ele>426.75</ele><time>2026-05-02T10:33:52.867Z</time></trkpt><trkpt lat="45.764964892734014" lon="8.498651932466945"><ele>427.0</ele><time>2026-05-02T10:33:53.867Z</time></trkpt><trkpt lat="45.76491492195665" lon="8.498786364236839"><ele>427.0</ele><time>2026-05-02T10:33:54.866Z</time></trkpt><trkpt lat="45.7648654427256" lon="8.49888339793778"><ele>427.00000000000006</ele><time>2026-05-02T10:33:56.866Z</time></trkpt><trkpt lat="45.76489012683578" lon="8.499012957141623"><ele>427.00000000000006</ele><time>2026-05-02T10:33:58.866Z</time></trkpt><trkpt lat="45.76489027343726" lon="8.499167253348158"><ele>427.0</ele><time>2026-05-02T10:33:59.866Z</time></trkpt><trkpt lat="45.76486925393237" lon="8.499382798936521"><ele>427.0</ele><time>2026-05-02T10:34:00.866Z</time></trkpt><trkpt lat="45.76483626270807" lon="8.49953110056844"><ele>426.75</ele><time>2026-05-02T10:34:01.866Z</time></trkpt><trkpt lat="45.76480427148965" lon="8.49963795053961"><ele>426.5</ele><time>2026-05-02T10:34:02.866Z</time></trkpt><trkpt lat="45.76479419461102" lon="8.499844329277309"><ele>426.25</ele><time>2026-05-02T10:34:04.866Z</time></trkpt><trkpt lat="45.764817851114245" lon="8.499995582178002"><ele>426.0</ele><time>2026-05-02T10:34:05.866Z</time></trkpt><trkpt lat="45.76485801282792" lon="8.500170899469667"><ele>426.0</ele><time>2026-05-02T10:34:06.866Z</time></trkpt><trkpt lat="45.76487782896948" lon="8.500273332562896"><ele>426.0</ele><time>2026-05-02T10:34:07.866Z</time></trkpt><trkpt lat="45.764877766888866" lon="8.500376884086903"><ele>426.0</ele><time>2026-05-02T10:34:09.866Z</time></trkpt><trkpt lat="45.76484550035762" lon="8.500469734831661"><ele>426.0</ele><time>2026-05-02T10:34:11.866Z</time></trkpt><trkpt lat="45.764776950177605" lon="8.500532698141097"><ele>426.0</ele><time>2026-05-02T10:34:12.866Z</time></trkpt><trkpt lat="45.76469915717896" lon="8.500605988025894"><ele>426.0</ele><time>2026-05-02T10:34:13.866Z</time></trkpt><trkpt lat="45.76462852276038" lon="8.500737311114158"><ele>425.5</ele><time>2026-05-02T10:34:14.866Z</time></trkpt><trkpt lat="45.76456913124968" lon="8.50090381439749"><ele>425.0</ele><time>2026-05-02T10:34:15.866Z</time></trkpt><trkpt lat="45.76450785517322" lon="8.501102374534275"><ele>424.5</ele><time>2026-05-02T10:34:16.866Z</time></trkpt><trkpt lat="45.76443669017587" lon="8.501257322807835"><ele>424.0</ele><time>2026-05-02T10:34:17.866Z</time></trkpt><trkpt lat="45.76435681179328" lon="8.501411918852126"><ele>422.6</ele><time>2026-05-02T10:34:18.866Z</time></trkpt><trkpt lat="45.764293935145226" lon="8.50153089034112"><ele>421.2</ele><time>2026-05-02T10:34:19.866Z</time></trkpt><trkpt lat="45.76428671255216" lon="8.501640382522558"><ele>419.8</ele><time>2026-05-02T10:34:20.866Z</time></trkpt><trkpt lat="45.76429525324351" lon="8.50183445126943"><ele>418.40000000000003</ele><time>2026-05-02T10:34:22.866Z</time></trkpt><trkpt lat="45.76420880376642" lon="8.501936316063157"><ele>417.0</ele><time>2026-05-02T10:34:23.866Z</time></trkpt><trkpt lat="45.76412840006683" lon="8.502021403398407"><ele>416.8</ele><time>2026-05-02T10:34:25.866Z</time></trkpt><trkpt lat="45.76409337393576" lon="8.502222823939753"><ele>416.6</ele><time>2026-05-02T10:34:27.866Z</time></trkpt><trkpt lat="45.76409310976445" lon="8.502314552855108"><ele>416.40000000000003</ele><time>2026-05-02T10:34:28.866Z</time></trkpt><trkpt lat="45.76408504750856" lon="8.502445487918713"><ele>416.20000000000005</ele><time>2026-05-02T10:34:29.866Z</time></trkpt><trkpt lat="45.76409777994055" lon="8.502566970591236"><ele>416.0</ele><time>2026-05-02T10:34:30.866Z</time></trkpt><trkpt lat="45.76410794150479" lon="8.502710560458297"><ele>416.0</ele><time>2026-05-02T10:34:32.866Z</time></trkpt><trkpt lat="45.764139370010206" lon="8.50285533787168"><ele>416.0</ele><time>2026-05-02T10:34:34.866Z</time></trkpt><trkpt lat="45.76416323014807" lon="8.503046291852634"><ele>416.0</ele><time>2026-05-02T10:34:36.866Z</time></trkpt><trkpt lat="45.76416825939036" lon="8.503157291163607"><ele>416.0</ele><time>2026-05-02T10:34:37.866Z</time></trkpt><trkpt lat="45.764148530315225" lon="8.503261702274758"><ele>416.0</ele><time>2026-05-02T10:34:38.866Z</time></trkpt><trkpt lat="45.764141797871396" lon="8.50339057326505"><ele>415.0</ele><time>2026-05-02T10:34:39.866Z</time></trkpt><trkpt lat="45.76411747783946" lon="8.503530265761277"><ele>414.0</ele><time>2026-05-02T10:34:40.866Z</time></trkpt><trkpt lat="45.76411115576624" lon="8.50368779621718"><ele>413.0</ele><time>2026-05-02T10:34:41.866Z</time></trkpt><trkpt lat="45.76410019627428" lon="8.503821772494009"><ele>412.0</ele><time>2026-05-02T10:34:42.866Z</time></trkpt><trkpt lat="45.7640475800887" lon="8.503944096478222"><ele>411.0</ele><time>2026-05-02T10:34:43.866Z</time></trkpt><trkpt lat="45.76397631574562" lon="8.50405827124305"><ele>410.0</ele><time>2026-05-02T10:34:44.866Z</time></trkpt><trkpt lat="45.76389897981705" lon="8.504193893077517"><ele>409.0</ele><time>2026-05-02T10:34:45.866Z</time></trkpt><trkpt lat="45.763820635325445" lon="8.504325327071614"><ele>408.0</ele><time>2026-05-02T10:34:46.866Z</time></trkpt><trkpt lat="45.76373009438" lon="8.504491891073284"><ele>407.0</ele><time>2026-05-02T10:34:47.866Z</time></trkpt><trkpt lat="45.76365494673176" lon="8.504613369177491"><ele>406.6</ele><time>2026-05-02T10:34:48.866Z</time></trkpt><trkpt lat="45.7635760432559" lon="8.504668991821568"><ele>406.20000000000005</ele><time>2026-05-02T10:34:49.866Z</time></trkpt><trkpt lat="45.76349514747729" lon="8.504746728506918"><ele>405.8</ele><time>2026-05-02T10:34:50.866Z</time></trkpt><trkpt lat="45.763406784127014" lon="8.504836250565559"><ele>405.4</ele><time>2026-05-02T10:34:51.866Z</time></trkpt><trkpt lat="45.76334434397344" lon="8.504949402829546"><ele>405.0</ele><time>2026-05-02T10:34:52.866Z</time></trkpt><trkpt lat="45.76331321727703" lon="8.505053682044112"><ele>404.6</ele><time>2026-05-02T10:34:53.866Z</time></trkpt><trkpt lat="45.76332796002504" lon="8.505178070212908"><ele>404.2</ele><time>2026-05-02T10:34:54.866Z</time></trkpt><trkpt lat="45.76331321845282" lon="8.505282262305935"><ele>403.79999999999995</ele><time>2026-05-02T10:34:55.866Z</time></trkpt><trkpt lat="45.76325798073936" lon="8.505437066063566"><ele>403.4</ele><time>2026-05-02T10:34:56.866Z</time></trkpt><trkpt lat="45.76322454284567" lon="8.505556292702682"><ele>403.0</ele><time>2026-05-02T10:34:57.866Z</time></trkpt><trkpt lat="45.763183645643174" lon="8.505662407135471"><ele>402.4</ele><time>2026-05-02T10:34:58.866Z</time></trkpt><trkpt lat="45.76314771339127" lon="8.505785539839389"><ele>401.79999999999995</ele><time>2026-05-02T10:34:59.866Z</time></trkpt><trkpt lat="45.7631256917755" lon="8.505939818409425"><ele>401.2</ele><time>2026-05-02T10:35:01.866Z</time></trkpt><trkpt lat="45.76306526885886" lon="8.506067840490909"><ele>400.6</ele><time>2026-05-02T10:35:03.865Z</time></trkpt><trkpt lat="45.76297551133278" lon="8.506191197125304"><ele>400.0</ele><time>2026-05-02T10:35:05.865Z</time></trkpt><trkpt lat="45.76291487626383" lon="8.506280972980399"><ele>399.2</ele><time>2026-05-02T10:35:07.865Z</time></trkpt><trkpt lat="45.76292726955515" lon="8.506415705478434"><ele>398.4</ele><time>2026-05-02T10:35:09.866Z</time></trkpt><trkpt lat="45.76299706287053" lon="8.506463456679"><ele>397.6</ele><time>2026-05-02T10:35:12.864Z</time></trkpt><trkpt lat="45.763091814985806" lon="8.506505283385609"><ele>396.8</ele><time>2026-05-02T10:35:15.865Z</time></trkpt><trkpt lat="45.76313904909032" lon="8.506588979139869"><ele>396.0</ele><time>2026-05-02T10:35:17.865Z</time></trkpt><trkpt lat="45.763127307179616" lon="8.506799330825686"><ele>396.0</ele><time>2026-05-02T10:35:19.865Z</time></trkpt><trkpt lat="45.76313889123261" lon="8.506917069409019"><ele>396.0</ele><time>2026-05-02T10:35:20.864Z</time></trkpt><trkpt lat="45.763137187722045" lon="8.507027866469924"><ele>396.0</ele><time>2026-05-02T10:35:21.864Z</time></trkpt><trkpt lat="45.763118486772264" lon="8.507195351684604"><ele>396.0</ele><time>2026-05-02T10:35:23.864Z</time></trkpt><trkpt lat="45.76315874544719" lon="8.507317225708645"><ele>396.0</ele><time>2026-05-02T10:35:24.864Z</time></trkpt><trkpt lat="45.763205958918185" lon="8.507443605607651"><ele>395.20000000000005</ele><time>2026-05-02T10:35:25.864Z</time></trkpt><trkpt lat="45.76327774772142" lon="8.5075915376821"><ele>394.40000000000003</ele><time>2026-05-02T10:35:26.864Z</time></trkpt><trkpt lat="45.7633593110118" lon="8.507721397837216"><ele>393.6</ele><time>2026-05-02T10:35:27.864Z</time></trkpt><trkpt lat="45.763415941495886" lon="8.507811912922513"><ele>392.8</ele><time>2026-05-02T10:35:28.864Z</time></trkpt><trkpt lat="45.76343104889574" lon="8.507901346138633"><ele>392.0</ele><time>2026-05-02T10:35:29.864Z</time></trkpt><trkpt lat="45.76341302381371" lon="8.508048591076232"><ele>391.16666666666663</ele><time>2026-05-02T10:35:30.864Z</time></trkpt><trkpt lat="45.76340124411643" lon="8.508174703812736"><ele>390.3333333333333</ele><time>2026-05-02T10:35:31.864Z</time></trkpt><trkpt lat="45.763358102854376" lon="8.508256939645038"><ele>389.5</ele><time>2026-05-02T10:35:32.864Z</time></trkpt><trkpt lat="45.76330459779448" lon="8.508326607597743"><ele>388.66666666666663</ele><time>2026-05-02T10:35:33.864Z</time></trkpt><trkpt lat="45.763233848246394" lon="8.50839273047557"><ele>387.8333333333333</ele><time>2026-05-02T10:35:34.864Z</time></trkpt><trkpt lat="45.76319209158155" lon="8.50846379982576"><ele>387.0</ele><time>2026-05-02T10:35:35.864Z</time></trkpt><trkpt lat="45.76318529713728" lon="8.508587442426895"><ele>387.0</ele><time>2026-05-02T10:35:36.864Z</time></trkpt><trkpt lat="45.763154319736046" lon="8.508705067636717"><ele>387.0</ele><time>2026-05-02T10:35:37.864Z</time></trkpt><trkpt lat="45.76308816094599" lon="8.508783397343825"><ele>387.0</ele><time>2026-05-02T10:35:38.864Z</time></trkpt><trkpt lat="45.76302358196677" lon="8.508830442266326"><ele>387.0</ele><time>2026-05-02T10:35:39.864Z</time></trkpt><trkpt lat="45.76295734090441" lon="8.508891457684093"><ele>387.0</ele><time>2026-05-02T10:35:40.864Z</time></trkpt><trkpt lat="45.762909621064026" lon="8.508981458533412"><ele>387.0</ele><time>2026-05-02T10:35:41.864Z</time></trkpt><trkpt lat="45.76284374122539" lon="8.509109503391478"><ele>386.3333333333333</ele><time>2026-05-02T10:35:42.864Z</time></trkpt><trkpt lat="45.7627916318352" lon="8.509185245876733"><ele>385.6666666666667</ele><time>2026-05-02T10:35:43.864Z</time></trkpt><trkpt lat="45.762758690509315" lon="8.50934162685995"><ele>385.0</ele><time>2026-05-02T10:35:45.864Z</time></trkpt><trkpt lat="45.7627693776068" lon="8.509432735731275"><ele>384.33333333333337</ele><time>2026-05-02T10:35:46.864Z</time></trkpt><trkpt lat="45.76280473769945" lon="8.509547347174449"><ele>383.6666666666667</ele><time>2026-05-02T10:35:47.864Z</time></trkpt><trkpt lat="45.76285435881036" lon="8.50964288802346"><ele>383.0</ele><time>2026-05-02T10:35:49.864Z</time></trkpt><trkpt lat="45.762788816794384" lon="8.509608127800526"><ele>383.0</ele><time>2026-05-02T10:35:57.864Z</time></trkpt><trkpt lat="45.762728818144495" lon="8.509525563808443"><ele>383.0</ele><time>2026-05-02T10:35:59.864Z</time></trkpt><trkpt lat="45.7626664053201" lon="8.509570293208856"><ele>383.0</ele><time>2026-05-02T10:36:01.864Z</time></trkpt><trkpt lat="45.76261004299176" lon="8.509651196904917"><ele>383.0</ele><time>2026-05-02T10:36:04.864Z</time></trkpt><trkpt lat="45.76256151876401" lon="8.509738125775423"><ele>383.0</ele><time>2026-05-02T10:36:07.864Z</time></trkpt><trkpt lat="45.76248999339407" lon="8.509738779396356"><ele>383.0</ele><time>2026-05-02T10:36:15.863Z</time></trkpt><trkpt lat="45.76254406940582" lon="8.509657296704"><ele>383.0</ele><time>2026-05-02T10:36:20.863Z</time></trkpt><trkpt lat="45.7626021060847" lon="8.50961496886469"><ele>383.0</ele><time>2026-05-02T10:36:22.863Z</time></trkpt><trkpt lat="45.76266299765773" lon="8.509555380660888"><ele>383.0</ele><time>2026-05-02T10:36:24.863Z</time></trkpt><trkpt lat="45.76267789633349" lon="8.509402476969173"><ele>383.0</ele><time>2026-05-02T10:36:28.863Z</time></trkpt><trkpt lat="45.762694802025926" lon="8.509299493909387"><ele>383.0</ele><time>2026-05-02T10:36:30.863Z</time></trkpt><trkpt lat="45.76276633625698" lon="8.509211104985285"><ele>383.0</ele><time>2026-05-02T10:36:33.863Z</time></trkpt><trkpt lat="45.76283441299554" lon="8.50911399433116"><ele>383.0</ele><time>2026-05-02T10:36:36.863Z</time></trkpt><trkpt lat="45.76282976325404" lon="8.509003387762425"><ele>383.0</ele><time>2026-05-02T10:36:39.863Z</time></trkpt><trkpt lat="45.76276606248642" lon="8.509000028933315"><ele>383.0</ele><time>2026-05-02T10:36:43.863Z</time></trkpt><trkpt lat="45.76268698553168" lon="8.50903045767929"><ele>383.0</ele><time>2026-05-02T10:36:46.863Z</time></trkpt><trkpt lat="45.762633304007515" lon="8.509106228726782"><ele>383.0</ele><time>2026-05-02T10:36:48.863Z</time></trkpt><trkpt lat="45.76257854048103" lon="8.509157426500058"><ele>383.0</ele><time>2026-05-02T10:36:51.863Z</time></trkpt><trkpt lat="45.76251048532074" lon="8.509255576581278"><ele>381.5</ele><time>2026-05-02T10:36:54.863Z</time></trkpt><trkpt lat="45.76247638489186" lon="8.509348092664265"><ele>380.0</ele><time>2026-05-02T10:36:56.863Z</time></trkpt><trkpt lat="45.76239735480244" lon="8.509417434660584"><ele>378.5</ele><time>2026-05-02T10:36:59.863Z</time></trkpt><trkpt lat="45.76232678308187" lon="8.509475335816981"><ele>377.0</ele><time>2026-05-02T10:37:00.863Z</time></trkpt><trkpt lat="45.76225911747765" lon="8.50953729186033"><ele>375.5</ele><time>2026-05-02T10:37:01.863Z</time></trkpt><trkpt lat="45.76219545147831" lon="8.509615436203415"><ele>374.0</ele><time>2026-05-02T10:37:03.863Z</time></trkpt><trkpt lat="45.76214583377762" lon="8.509684693709614"><ele>373.2</ele><time>2026-05-02T10:37:05.863Z</time></trkpt><trkpt lat="45.76205494406811" lon="8.509746477957739"><ele>372.4</ele><time>2026-05-02T10:37:07.863Z</time></trkpt><trkpt lat="45.7619643885843" lon="8.509887659876567"><ele>371.6</ele><time>2026-05-02T10:37:09.863Z</time></trkpt><trkpt lat="45.76190671394925" lon="8.509930180203558"><ele>370.8</ele><time>2026-05-02T10:37:10.863Z</time></trkpt><trkpt lat="45.76185213543211" lon="8.509989387525662"><ele>370.0</ele><time>2026-05-02T10:37:11.863Z</time></trkpt><trkpt lat="45.76177645651252" lon="8.510082504135362"><ele>368.5</ele><time>2026-05-02T10:37:13.863Z</time></trkpt><trkpt lat="45.761675264396544" lon="8.510202920103339"><ele>367.0</ele><time>2026-05-02T10:37:15.863Z</time></trkpt><trkpt lat="45.76160362775856" lon="8.510340793185446"><ele>365.5</ele><time>2026-05-02T10:37:17.863Z</time></trkpt><trkpt lat="45.76153266959875" lon="8.510471189438617"><ele>364.0</ele><time>2026-05-02T10:37:19.862Z</time></trkpt><trkpt lat="45.7615031543504" lon="8.510596928246011"><ele>362.5</ele><time>2026-05-02T10:37:21.863Z</time></trkpt><trkpt lat="45.76146143460234" lon="8.510727106892894"><ele>361.0</ele><time>2026-05-02T10:37:23.863Z</time></trkpt><trkpt lat="45.761405485880346" lon="8.510815957222247"><ele>359.5</ele><time>2026-05-02T10:37:25.863Z</time></trkpt><trkpt lat="45.76134456580185" lon="8.510960255939853"><ele>358.0</ele><time>2026-05-02T10:37:27.862Z</time></trkpt><trkpt lat="45.761304598042315" lon="8.511047499611667"><ele>356.5</ele><time>2026-05-02T10:37:28.862Z</time></trkpt><trkpt lat="45.76125442988823" lon="8.511114503171529"><ele>355.0</ele><time>2026-05-02T10:37:29.862Z</time></trkpt><trkpt lat="45.761189483985795" lon="8.51116657117234"><ele>355.0</ele><time>2026-05-02T10:37:30.862Z</time></trkpt><trkpt lat="45.761115154422086" lon="8.511211527030616"><ele>355.0</ele><time>2026-05-02T10:37:31.862Z</time></trkpt><trkpt lat="45.76105585305879" lon="8.511327408175214"><ele>355.0</ele><time>2026-05-02T10:37:34.862Z</time></trkpt><trkpt lat="45.7610563598203" lon="8.511458477522718"><ele>355.0</ele><time>2026-05-02T10:37:36.862Z</time></trkpt><trkpt lat="45.76104360371238" lon="8.511550129247118"><ele>355.0</ele><time>2026-05-02T10:37:37.862Z</time></trkpt><trkpt lat="45.76093758992314" lon="8.511685492563544"><ele>351.25</ele><time>2026-05-02T10:37:39.862Z</time></trkpt><trkpt lat="45.76082749668041" lon="8.511736558342356"><ele>347.5</ele><time>2026-05-02T10:37:40.862Z</time></trkpt><trkpt lat="45.76070149288033" lon="8.51182853915805"><ele>343.75</ele><time>2026-05-02T10:37:41.862Z</time></trkpt><trkpt lat="45.760579197893556" lon="8.511925166753565"><ele>340.0</ele><time>2026-05-02T10:37:42.862Z</time></trkpt><trkpt lat="45.760496497264775" lon="8.511995282317576"><ele>338.8333333333333</ele><time>2026-05-02T10:37:43.862Z</time></trkpt><trkpt lat="45.76044502702234" lon="8.51208677147121"><ele>337.66666666666663</ele><time>2026-05-02T10:37:44.862Z</time></trkpt><trkpt lat="45.76036478566698" lon="8.51212444975844"><ele>336.5</ele><time>2026-05-02T10:37:45.862Z</time></trkpt><trkpt lat="45.760323974483924" lon="8.512193583198288"><ele>335.3333333333333</ele><time>2026-05-02T10:37:47.862Z</time></trkpt><trkpt lat="45.76031134128886" lon="8.512307825314009"><ele>334.1666666666667</ele><time>2026-05-02T10:37:49.862Z</time></trkpt><trkpt lat="45.760234440798094" lon="8.512402722296255"><ele>333.0</ele><time>2026-05-02T10:37:51.862Z</time></trkpt><trkpt lat="45.76016730597959" lon="8.512480665192282"><ele>333.0</ele><time>2026-05-02T10:37:53.862Z</time></trkpt><trkpt lat="45.76006597257054" lon="8.51250804770192"><ele>333.0</ele><time>2026-05-02T10:37:55.862Z</time></trkpt><trkpt lat="45.759995017574525" lon="8.512571608280536"><ele>333.0</ele><time>2026-05-02T10:37:57.862Z</time></trkpt><trkpt lat="45.75994377941367" lon="8.512728988072034"><ele>333.0</ele><time>2026-05-02T10:37:59.862Z</time></trkpt><trkpt lat="45.75989905399952" lon="8.512892028665636"><ele>333.0</ele><time>2026-05-02T10:38:00.862Z</time></trkpt><trkpt lat="45.75982167729788" lon="8.51306090015068"><ele>332.3333333333333</ele><time>2026-05-02T10:38:01.862Z</time></trkpt><trkpt lat="45.75965829701675" lon="8.513118963052113"><ele>331.66666666666663</ele><time>2026-05-02T10:38:02.862Z</time></trkpt><trkpt lat="45.759707987722116" lon="8.51334035997119"><ele>331.0</ele><time>2026-05-02T10:38:03.862Z</time></trkpt><trkpt lat="45.75964158734584" lon="8.513497947218191"><ele>331.0</ele><time>2026-05-02T10:38:04.862Z</time></trkpt><trkpt lat="45.759593372448315" lon="8.51364805696338"><ele>331.0</ele><time>2026-05-02T10:38:05.862Z</time></trkpt><trkpt lat="45.75954577598687" lon="8.513821692228749"><ele>331.0</ele><time>2026-05-02T10:38:06.862Z</time></trkpt><trkpt lat="45.759498216016965" lon="8.514062775416654"><ele>331.0</ele><time>2026-05-02T10:38:07.862Z</time></trkpt><trkpt lat="45.75944119619716" lon="8.514279949325434"><ele>329.75</ele><time>2026-05-02T10:38:08.862Z</time></trkpt><trkpt lat="45.75937373305356" lon="8.514491160238684"><ele>328.5</ele><time>2026-05-02T10:38:09.862Z</time></trkpt><trkpt lat="45.759318000654254" lon="8.514686153647737"><ele>327.25</ele><time>2026-05-02T10:38:10.862Z</time></trkpt><trkpt lat="45.759220170291464" lon="8.514785847707888"><ele>326.0</ele><time>2026-05-02T10:38:11.862Z</time></trkpt><trkpt lat="45.75918411442735" lon="8.514879548493974"><ele>324.75</ele><time>2026-05-02T10:38:12.862Z</time></trkpt><trkpt lat="45.759143067468266" lon="8.515061584177653"><ele>323.5</ele><time>2026-05-02T10:38:13.862Z</time></trkpt><trkpt lat="45.75910295945542" lon="8.515240045024486"><ele>322.25</ele><time>2026-05-02T10:38:14.862Z</time></trkpt><trkpt lat="45.7590519688408" lon="8.515454816208932"><ele>321.0</ele><time>2026-05-02T10:38:15.862Z</time></trkpt><trkpt lat="45.75900414039849" lon="8.515632749971154"><ele>321.0</ele><time>2026-05-02T10:38:16.862Z</time></trkpt><trkpt lat="45.75895546623297" lon="8.51579563284117"><ele>321.0</ele><time>2026-05-02T10:38:17.862Z</time></trkpt><trkpt lat="45.75890778621288" lon="8.515941726460452"><ele>321.0</ele><time>2026-05-02T10:38:18.862Z</time></trkpt><trkpt lat="45.7588528676228" lon="8.516089737557484"><ele>321.0</ele><time>2026-05-02T10:38:19.862Z</time></trkpt><trkpt lat="45.7587779526279" lon="8.516261658018687"><ele>320.5</ele><time>2026-05-02T10:38:20.862Z</time></trkpt><trkpt lat="45.75870527087668" lon="8.516406339748972"><ele>320.0</ele><time>2026-05-02T10:38:21.862Z</time></trkpt><trkpt lat="45.75863169303246" lon="8.516541833755776"><ele>319.5</ele><time>2026-05-02T10:38:22.862Z</time></trkpt><trkpt lat="45.758574710771136" lon="8.516613559519874"><ele>319.0</ele><time>2026-05-02T10:38:23.862Z</time></trkpt><trkpt lat="45.7584338103044" lon="8.516691780815187"><ele>318.59999999999997</ele><time>2026-05-02T10:38:25.862Z</time></trkpt><trkpt lat="45.758346253779955" lon="8.516711103668671"><ele>318.2</ele><time>2026-05-02T10:38:26.862Z</time></trkpt><trkpt lat="45.758248795812364" lon="8.516663317706758"><ele>317.79999999999995</ele><time>2026-05-02T10:38:27.862Z</time></trkpt><trkpt lat="45.758156314229794" lon="8.51661671204707"><ele>317.4</ele><time>2026-05-02T10:38:28.862Z</time></trkpt><trkpt lat="45.75809133139634" lon="8.51658911575672"><ele>317.0</ele><time>2026-05-02T10:38:32.861Z</time></trkpt><trkpt lat="45.7580349680779" lon="8.51674196202856"><ele>317.0</ele><time>2026-05-02T10:38:33.861Z</time></trkpt><trkpt lat="45.75805351827394" lon="8.516866245244028"><ele>317.0</ele><time>2026-05-02T10:38:34.861Z</time></trkpt><trkpt lat="45.75807258385294" lon="8.517011063908393"><ele>317.0</ele><time>2026-05-02T10:38:35.861Z</time></trkpt><trkpt lat="45.758086204096806" lon="8.517153652352475"><ele>317.0</ele><time>2026-05-02T10:38:36.861Z</time></trkpt><trkpt lat="45.758094032431224" lon="8.51731725693356"><ele>317.0</ele><time>2026-05-02T10:38:37.861Z</time></trkpt><trkpt lat="45.75809702894542" lon="8.517491221592554"><ele>317.0</ele><time>2026-05-02T10:38:38.861Z</time></trkpt><trkpt lat="45.75809187099866" lon="8.517673470518583"><ele>317.0</ele><time>2026-05-02T10:38:39.861Z</time></trkpt><trkpt lat="45.75807877967633" lon="8.51787928618946"><ele>317.0</ele><time>2026-05-02T10:38:40.861Z</time></trkpt><trkpt lat="45.75806587240894" lon="8.518082208241927"><ele>317.0</ele><time>2026-05-02T10:38:41.861Z</time></trkpt><trkpt lat="45.75806169336293" lon="8.518285883960516"><ele>317.0</ele><time>2026-05-02T10:38:42.861Z</time></trkpt><trkpt lat="45.75804023573489" lon="8.518494012829715"><ele>317.0</ele><time>2026-05-02T10:38:43.861Z</time></trkpt><trkpt lat="45.75802084387296" lon="8.518689399879614"><ele>317.0</ele><time>2026-05-02T10:38:44.861Z</time></trkpt><trkpt lat="45.758004553909835" lon="8.518859790082928"><ele>317.0</ele><time>2026-05-02T10:38:45.861Z</time></trkpt><trkpt lat="45.757991943478686" lon="8.519006535455045"><ele>317.4</ele><time>2026-05-02T10:38:46.861Z</time></trkpt><trkpt lat="45.7580061698448" lon="8.5191455329569"><ele>317.79999999999995</ele><time>2026-05-02T10:38:47.861Z</time></trkpt><trkpt lat="45.758003880695334" lon="8.51927604136409"><ele>318.2</ele><time>2026-05-02T10:38:48.861Z</time></trkpt><trkpt lat="45.75799582820819" lon="8.519386034379924"><ele>318.59999999999997</ele><time>2026-05-02T10:38:49.861Z</time></trkpt><trkpt lat="45.757970093042985" lon="8.519550038907393"><ele>319.0</ele><time>2026-05-02T10:38:51.861Z</time></trkpt><trkpt lat="45.7578995283471" lon="8.519594335139752"><ele>319.79999999999995</ele><time>2026-05-02T10:38:52.861Z</time></trkpt><trkpt lat="45.75781848082868" lon="8.519656098640755"><ele>320.59999999999997</ele><time>2026-05-02T10:38:53.861Z</time></trkpt><trkpt lat="45.757741336779645" lon="8.519712581121329"><ele>321.4</ele><time>2026-05-02T10:38:54.861Z</time></trkpt><trkpt lat="45.757658629028036" lon="8.519785370753747"><ele>322.2</ele><time>2026-05-02T10:38:55.861Z</time></trkpt><trkpt lat="45.75758188716018" lon="8.519910571952689"><ele>323.0</ele><time>2026-05-02T10:38:56.861Z</time></trkpt><trkpt lat="45.757509874343235" lon="8.52004212018554"><ele>318.6666666666667</ele><time>2026-05-02T10:38:57.861Z</time></trkpt><trkpt lat="45.7574318997562" lon="8.520169025256372"><ele>314.3333333333333</ele><time>2026-05-02T10:38:58.861Z</time></trkpt><trkpt lat="45.75729975967775" lon="8.520331641739025"><ele>310.0</ele><time>2026-05-02T10:38:59.861Z</time></trkpt><trkpt lat="45.75713000389767" lon="8.52050293397744"><ele>309.3333333333333</ele><time>2026-05-02T10:39:00.861Z</time></trkpt><trkpt lat="45.75696917869754" lon="8.5206285250633"><ele>308.6666666666667</ele><time>2026-05-02T10:39:01.861Z</time></trkpt><trkpt lat="45.756772636006545" lon="8.520742502250831"><ele>308.0</ele><time>2026-05-02T10:39:02.861Z</time></trkpt><trkpt lat="45.75658645264057" lon="8.520835181394956"><ele>307.6666666666667</ele><time>2026-05-02T10:39:03.861Z</time></trkpt><trkpt lat="45.7564008231344" lon="8.520899189278392"><ele>307.3333333333333</ele><time>2026-05-02T10:39:04.861Z</time></trkpt><trkpt lat="45.756225963464345" lon="8.520929431133624"><ele>307.0</ele><time>2026-05-02T10:39:05.861Z</time></trkpt><trkpt lat="45.756051119873824" lon="8.520937999042498"><ele>307.66666666666663</ele><time>2026-05-02T10:39:06.861Z</time></trkpt><trkpt lat="45.75587635946789" lon="8.520940963294237"><ele>308.3333333333333</ele><time>2026-05-02T10:39:07.861Z</time></trkpt><trkpt lat="45.75571519927352" lon="8.520969616148783"><ele>309.0</ele><time>2026-05-02T10:39:08.861Z</time></trkpt><trkpt lat="45.75557320324086" lon="8.52099063640527"><ele>309.0</ele><time>2026-05-02T10:39:09.861Z</time></trkpt><trkpt lat="45.7554375265361" lon="8.521010721193173"><ele>309.0</ele><time>2026-05-02T10:39:10.861Z</time></trkpt><trkpt lat="45.75531939784358" lon="8.521045340760388"><ele>309.0</ele><time>2026-05-02T10:39:11.861Z</time></trkpt><trkpt lat="45.75522109686804" lon="8.521100217563236"><ele>309.0</ele><time>2026-05-02T10:39:12.861Z</time></trkpt><trkpt lat="45.75513743799524" lon="8.521193847418731"><ele>309.0</ele><time>2026-05-02T10:39:13.861Z</time></trkpt><trkpt lat="45.75506629525266" lon="8.521334336455327"><ele>309.0</ele><time>2026-05-02T10:39:14.861Z</time></trkpt><trkpt lat="45.75499111206443" lon="8.521570085408142"><ele>309.0</ele><time>2026-05-02T10:39:15.861Z</time></trkpt><trkpt lat="45.75494129049332" lon="8.5218230931599"><ele>309.0</ele><time>2026-05-02T10:39:16.861Z</time></trkpt><trkpt lat="45.75490603267783" lon="8.522019124502444"><ele>309.0</ele><time>2026-05-02T10:39:17.861Z</time></trkpt><trkpt lat="45.754881687411306" lon="8.52216668150687"><ele>309.0</ele><time>2026-05-02T10:39:18.861Z</time></trkpt><trkpt lat="45.75485382240472" lon="8.522335569135066"><ele>309.0</ele><time>2026-05-02T10:39:19.86Z</time></trkpt><trkpt lat="45.75482218469908" lon="8.522511612489298"><ele>308.25</ele><time>2026-05-02T10:39:20.86Z</time></trkpt><trkpt lat="45.75477247644646" lon="8.522714157944897"><ele>307.5</ele><time>2026-05-02T10:39:21.86Z</time></trkpt><trkpt lat="45.75471858824503" lon="8.522909323900198"><ele>306.75</ele><time>2026-05-02T10:39:22.86Z</time></trkpt><trkpt lat="45.75466652272858" lon="8.523088799419355"><ele>306.0</ele><time>2026-05-02T10:39:23.86Z</time></trkpt><trkpt lat="45.75462727911327" lon="8.52322597251033"><ele>306.0</ele><time>2026-05-02T10:39:24.86Z</time></trkpt><trkpt lat="45.754598284187836" lon="8.523333025070777"><ele>306.0</ele><time>2026-05-02T10:39:25.86Z</time></trkpt><trkpt lat="45.75453529467306" lon="8.523367642546754"><ele>306.0</ele><time>2026-05-02T10:39:27.86Z</time></trkpt><trkpt lat="45.75449207909836" lon="8.523222531657916"><ele>306.0</ele><time>2026-05-02T10:39:29.86Z</time></trkpt><trkpt lat="45.754491988060316" lon="8.523092093264248"><ele>306.0</ele><time>2026-05-02T10:39:30.86Z</time></trkpt><trkpt lat="45.7544972101725" lon="8.522922756212871"><ele>305.5</ele><time>2026-05-02T10:39:31.86Z</time></trkpt><trkpt lat="45.754351838828" lon="8.522846263408297"><ele>305.0</ele><time>2026-05-02T10:39:32.86Z</time></trkpt><trkpt lat="45.75422907132896" lon="8.522750809367473"><ele>304.5</ele><time>2026-05-02T10:39:33.86Z</time></trkpt><trkpt lat="45.75411209470885" lon="8.522631063962997"><ele>304.0</ele><time>2026-05-02T10:39:34.86Z</time></trkpt><trkpt lat="45.75402107309857" lon="8.522508838287258"><ele>304.0</ele><time>2026-05-02T10:39:35.86Z</time></trkpt><trkpt lat="45.75392890434964" lon="8.522437882930836"><ele>304.0</ele><time>2026-05-02T10:39:36.86Z</time></trkpt><trkpt lat="45.7538345864956" lon="8.522404590546037"><ele>304.0</ele><time>2026-05-02T10:39:37.86Z</time></trkpt><trkpt lat="45.75375792318958" lon="8.522377939800805"><ele>304.0</ele><time>2026-05-02T10:39:38.86Z</time></trkpt><trkpt lat="45.753690373485036" lon="8.522382581697542"><ele>304.0</ele><time>2026-05-02T10:39:39.86Z</time></trkpt><trkpt lat="45.75361833566495" lon="8.522438465806152"><ele>304.0</ele><time>2026-05-02T10:39:41.86Z</time></trkpt><trkpt lat="45.75355481620119" lon="8.522488388330089"><ele>304.0</ele><time>2026-05-02T10:39:44.86Z</time></trkpt><trkpt lat="45.75348830494602" lon="8.522540664618946"><ele>304.0</ele><time>2026-05-02T10:39:47.86Z</time></trkpt><trkpt lat="45.75356489206487" lon="8.522480469361659"><ele>304.0</ele><time>2026-05-02T10:39:53.859Z</time></trkpt><trkpt lat="45.75349230405386" lon="8.522498007058159"><ele>304.0</ele><time>2026-05-02T10:40:00.859Z</time></trkpt><trkpt lat="45.75340205537485" lon="8.522356132255295"><ele>304.0</ele><time>2026-05-02T10:40:05.859Z</time></trkpt><trkpt lat="45.75334714141715" lon="8.52240473161206"><ele>304.0</ele><time>2026-05-02T10:40:10.859Z</time></trkpt><trkpt lat="45.753289299120866" lon="8.522501332442877"><ele>303.4</ele><time>2026-05-02T10:40:13.859Z</time></trkpt><trkpt lat="45.753244108745434" lon="8.522619264182314"><ele>302.79999999999995</ele><time>2026-05-02T10:40:15.859Z</time></trkpt><trkpt lat="45.75321051131495" lon="8.522729065557094"><ele>302.20000000000005</ele><time>2026-05-02T10:40:17.859Z</time></trkpt><trkpt lat="45.753168194558654" lon="8.52284274677341"><ele>301.6</ele><time>2026-05-02T10:40:19.859Z</time></trkpt><trkpt lat="45.75312480649841" lon="8.522962148148665"><ele>301.0</ele><time>2026-05-02T10:40:21.859Z</time></trkpt><trkpt lat="45.7530747660491" lon="8.523092541653616"><ele>300.66666666666663</ele><time>2026-05-02T10:40:23.859Z</time></trkpt><trkpt lat="45.75302338676142" lon="8.523200143578785"><ele>300.3333333333333</ele><time>2026-05-02T10:40:25.859Z</time></trkpt><trkpt lat="45.752982335267355" lon="8.523294242948088"><ele>300.0</ele><time>2026-05-02T10:40:27.859Z</time></trkpt><trkpt lat="45.75294579048791" lon="8.523381813894021"><ele>299.6666666666667</ele><time>2026-05-02T10:40:29.859Z</time></trkpt><trkpt lat="45.75290983248391" lon="8.523481482655582"><ele>299.33333333333337</ele><time>2026-05-02T10:40:31.859Z</time></trkpt><trkpt lat="45.75286326196969" lon="8.523589847630054"><ele>299.0</ele><time>2026-05-02T10:40:33.859Z</time></trkpt><trkpt lat="45.75280914315795" lon="8.523716347572798"><ele>299.0</ele><time>2026-05-02T10:40:35.859Z</time></trkpt><trkpt lat="45.752738031848736" lon="8.523876098931918"><ele>299.0</ele><time>2026-05-02T10:40:37.859Z</time></trkpt><trkpt lat="45.7527025298763" lon="8.523960079289132"><ele>299.0</ele><time>2026-05-02T10:40:38.859Z</time></trkpt><trkpt lat="45.75267050889458" lon="8.524047800280837"><ele>299.0</ele><time>2026-05-02T10:40:39.859Z</time></trkpt><trkpt lat="45.752639701723574" lon="8.524133158902261"><ele>299.0</ele><time>2026-05-02T10:40:40.859Z</time></trkpt><trkpt lat="45.7526130026263" lon="8.524222658023007"><ele>299.0</ele><time>2026-05-02T10:40:41.859Z</time></trkpt><trkpt lat="45.75258848343673" lon="8.524322598411118"><ele>298.8</ele><time>2026-05-02T10:40:42.859Z</time></trkpt><trkpt lat="45.75256096577166" lon="8.524419864167626"><ele>298.59999999999997</ele><time>2026-05-02T10:40:43.859Z</time></trkpt><trkpt lat="45.75252842392917" lon="8.52455050454599"><ele>298.4</ele><time>2026-05-02T10:40:45.859Z</time></trkpt><trkpt lat="45.752506889853606" lon="8.524652654528646"><ele>298.2</ele><time>2026-05-02T10:40:47.859Z</time></trkpt><trkpt lat="45.752488343722355" lon="8.524791956811287"><ele>298.0</ele><time>2026-05-02T10:40:49.859Z</time></trkpt><trkpt lat="45.75249070448702" lon="8.524949938251593"><ele>297.8</ele><time>2026-05-02T10:40:51.859Z</time></trkpt><trkpt lat="45.752485887743255" lon="8.52509409676142"><ele>297.6</ele><time>2026-05-02T10:40:53.859Z</time></trkpt><trkpt lat="45.752483629950774" lon="8.525251845657586"><ele>297.4</ele><time>2026-05-02T10:40:55.859Z</time></trkpt><trkpt lat="45.75247947417157" lon="8.525423441151533"><ele>297.2</ele><time>2026-05-02T10:40:57.859Z</time></trkpt><trkpt lat="45.75246327098978" lon="8.525591285129225"><ele>297.0</ele><time>2026-05-02T10:40:59.858Z</time></trkpt><trkpt lat="45.752441980343136" lon="8.525758342923888"><ele>296.8</ele><time>2026-05-02T10:41:01.858Z</time></trkpt><trkpt lat="45.752407146214" lon="8.52593318558094"><ele>296.6</ele><time>2026-05-02T10:41:03.858Z</time></trkpt><trkpt lat="45.75236757405894" lon="8.526040057437935"><ele>296.40000000000003</ele><time>2026-05-02T10:41:04.858Z</time></trkpt><trkpt lat="45.752334277764604" lon="8.526126779725113"><ele>296.2</ele><time>2026-05-02T10:41:05.858Z</time></trkpt><trkpt lat="45.752254338425324" lon="8.526240306698005"><ele>296.0</ele><time>2026-05-02T10:41:06.858Z</time></trkpt><trkpt lat="45.752164309515" lon="8.5262767738029"><ele>296.0</ele><time>2026-05-02T10:41:07.858Z</time></trkpt><trkpt lat="45.752055520185735" lon="8.526340451769816"><ele>296.0</ele><time>2026-05-02T10:41:08.858Z</time></trkpt><trkpt lat="45.75194917632732" lon="8.526470859962444"><ele>296.0</ele><time>2026-05-02T10:41:09.858Z</time></trkpt><trkpt lat="45.7518422245914" lon="8.526536476797007"><ele>296.0</ele><time>2026-05-02T10:41:10.858Z</time></trkpt><trkpt lat="45.751713302758084" lon="8.526614586862827"><ele>295.25</ele><time>2026-05-02T10:41:11.858Z</time></trkpt><trkpt lat="45.75158757149169" lon="8.526697534299336"><ele>294.5</ele><time>2026-05-02T10:41:12.858Z</time></trkpt><trkpt lat="45.75145364169498" lon="8.526746045687439"><ele>293.75</ele><time>2026-05-02T10:41:13.858Z</time></trkpt><trkpt lat="45.751334187677756" lon="8.526844785378795"><ele>293.0</ele><time>2026-05-02T10:41:14.858Z</time></trkpt><trkpt lat="45.751211890792405" lon="8.526946914932076"><ele>293.0</ele><time>2026-05-02T10:41:15.858Z</time></trkpt><trkpt lat="45.75109105789349" lon="8.527053873535055"><ele>293.0</ele><time>2026-05-02T10:41:16.858Z</time></trkpt><trkpt lat="45.750966555589805" lon="8.527137491177363"><ele>293.0</ele><time>2026-05-02T10:41:17.858Z</time></trkpt><trkpt lat="45.75085769064809" lon="8.527239423700559"><ele>293.0</ele><time>2026-05-02T10:41:18.858Z</time></trkpt><trkpt lat="45.7507282964108" lon="8.527335984392003"><ele>292.6</ele><time>2026-05-02T10:41:19.858Z</time></trkpt><trkpt lat="45.75062718447604" lon="8.527417901316797"><ele>292.20000000000005</ele><time>2026-05-02T10:41:20.858Z</time></trkpt><trkpt lat="45.75050459455724" lon="8.527470229826367"><ele>291.8</ele><time>2026-05-02T10:41:21.858Z</time></trkpt><trkpt lat="45.75041599948758" lon="8.52756506912912"><ele>291.40000000000003</ele><time>2026-05-02T10:41:22.858Z</time></trkpt><trkpt lat="45.75034220352352" lon="8.52762468302028"><ele>291.0</ele><time>2026-05-02T10:41:23.858Z</time></trkpt><trkpt lat="45.75025243154801" lon="8.527697440770638"><ele>291.0</ele><time>2026-05-02T10:41:24.858Z</time></trkpt><trkpt lat="45.75015085702176" lon="8.527781474321767"><ele>291.0</ele><time>2026-05-02T10:41:25.858Z</time></trkpt><trkpt lat="45.75004732111536" lon="8.52786655124056"><ele>291.0</ele><time>2026-05-02T10:41:26.858Z</time></trkpt><trkpt lat="45.7499555290996" lon="8.527941099603321"><ele>291.0</ele><time>2026-05-02T10:41:27.858Z</time></trkpt><trkpt lat="45.74985029395912" lon="8.528026314668635"><ele>291.25</ele><time>2026-05-02T10:41:28.858Z</time></trkpt><trkpt lat="45.74974188455435" lon="8.52811523105183"><ele>291.5</ele><time>2026-05-02T10:41:29.858Z</time></trkpt><trkpt lat="45.74963290142482" lon="8.528205652369211"><ele>291.75</ele><time>2026-05-02T10:41:30.858Z</time></trkpt><trkpt lat="45.74951647677224" lon="8.528282295233515"><ele>292.0</ele><time>2026-05-02T10:41:31.857Z</time></trkpt><trkpt lat="45.74942569328175" lon="8.528382426346857"><ele>292.2</ele><time>2026-05-02T10:41:32.857Z</time></trkpt><trkpt lat="45.74934578415922" lon="8.528477297162151"><ele>292.4</ele><time>2026-05-02T10:41:33.857Z</time></trkpt><trkpt lat="45.749264761756116" lon="8.528536222361378"><ele>292.6</ele><time>2026-05-02T10:41:34.857Z</time></trkpt><trkpt lat="45.74918859809813" lon="8.528598357882899"><ele>292.8</ele><time>2026-05-02T10:41:36.857Z</time></trkpt><trkpt lat="45.74924228167539" lon="8.52873317625035"><ele>293.0</ele><time>2026-05-02T10:41:41.857Z</time></trkpt><trkpt lat="45.74918163202349" lon="8.52877018038111"><ele>294.6</ele><time>2026-05-02T10:41:48.857Z</time></trkpt><trkpt lat="45.74919793930041" lon="8.52899926611906"><ele>296.20000000000005</ele><time>2026-05-02T10:41:50.857Z</time></trkpt><trkpt lat="45.749220000929384" lon="8.52910643492656"><ele>297.8</ele><time>2026-05-02T10:41:51.857Z</time></trkpt><trkpt lat="45.749253456801554" lon="8.529217784386502"><ele>299.40000000000003</ele><time>2026-05-02T10:41:52.857Z</time></trkpt><trkpt lat="45.74927202563564" lon="8.52933760665564"><ele>301.0</ele><time>2026-05-02T10:41:53.857Z</time></trkpt><trkpt lat="45.74928986288161" lon="8.529466716731724"><ele>300.8</ele><time>2026-05-02T10:41:54.857Z</time></trkpt><trkpt lat="45.749314679232015" lon="8.529570008983214"><ele>300.6</ele><time>2026-05-02T10:41:55.857Z</time></trkpt><trkpt lat="45.74931409374508" lon="8.52966434982195"><ele>300.4</ele><time>2026-05-02T10:41:56.857Z</time></trkpt><trkpt lat="45.74911175090293" lon="8.52971689228271"><ele>300.2</ele><time>2026-05-02T10:41:57.857Z</time></trkpt><trkpt lat="45.74909182011767" lon="8.529812978959912"><ele>300.0</ele><time>2026-05-02T10:41:58.857Z</time></trkpt><trkpt lat="45.749231911839445" lon="8.530010072337996"><ele>300.0</ele><time>2026-05-02T10:41:59.857Z</time></trkpt><trkpt lat="45.74920921810483" lon="8.53013620853254"><ele>300.0</ele><time>2026-05-02T10:42:00.857Z</time></trkpt><trkpt lat="45.74917680560924" lon="8.530276129585886"><ele>300.0</ele><time>2026-05-02T10:42:01.857Z</time></trkpt><trkpt lat="45.74914436919241" lon="8.530421016325421"><ele>300.0</ele><time>2026-05-02T10:42:02.857Z</time></trkpt><trkpt lat="45.748952595265955" lon="8.530513090272397"><ele>299.6</ele><time>2026-05-02T10:42:03.857Z</time></trkpt><trkpt lat="45.748946060104245" lon="8.53067104084816"><ele>299.2</ele><time>2026-05-02T10:42:04.856Z</time></trkpt><trkpt lat="45.74894368873714" lon="8.53080017380913"><ele>298.8</ele><time>2026-05-02T10:42:05.856Z</time></trkpt><trkpt lat="45.74894739968549" lon="8.530914192405545"><ele>298.4</ele><time>2026-05-02T10:42:06.856Z</time></trkpt><trkpt lat="45.748997482203535" lon="8.531009738850374"><ele>298.0</ele><time>2026-05-02T10:42:08.856Z</time></trkpt><trkpt lat="45.74891087989657" lon="8.53102111310696"><ele>298.0</ele><time>2026-05-02T10:42:10.856Z</time></trkpt><trkpt lat="45.74883921035401" lon="8.531002291988177"><ele>298.0</ele><time>2026-05-02T10:42:11.856Z</time></trkpt><trkpt lat="45.74876841268285" lon="8.530967588259793"><ele>298.0</ele><time>2026-05-02T10:42:12.856Z</time></trkpt><trkpt lat="45.74870083917034" lon="8.530937962970361"><ele>298.0</ele><time>2026-05-02T10:42:13.856Z</time></trkpt><trkpt lat="45.748607010178006" lon="8.530909670121822"><ele>298.0</ele><time>2026-05-02T10:42:15.856Z</time></trkpt><trkpt lat="45.74847840121787" lon="8.530976242058166"><ele>298.4</ele><time>2026-05-02T10:42:18.856Z</time></trkpt><trkpt lat="45.748440145357215" lon="8.531097024051137"><ele>298.8</ele><time>2026-05-02T10:42:19.856Z</time></trkpt><trkpt lat="45.74839994759122" lon="8.531194164501713"><ele>299.2</ele><time>2026-05-02T10:42:20.856Z</time></trkpt><trkpt lat="45.74834894371232" lon="8.531290441461397"><ele>299.6</ele><time>2026-05-02T10:42:21.856Z</time></trkpt><trkpt lat="45.748290845834525" lon="8.531428383732154"><ele>300.0</ele><time>2026-05-02T10:42:22.856Z</time></trkpt><trkpt lat="45.74820647071403" lon="8.531529087674867"><ele>300.25</ele><time>2026-05-02T10:42:23.856Z</time></trkpt><trkpt lat="45.748128433639486" lon="8.531663982481001"><ele>300.5</ele><time>2026-05-02T10:42:24.856Z</time></trkpt><trkpt lat="45.74805380574236" lon="8.53183288768939"><ele>300.75</ele><time>2026-05-02T10:42:25.856Z</time></trkpt><trkpt lat="45.74798348631596" lon="8.532020624696727"><ele>301.0</ele><time>2026-05-02T10:42:26.856Z</time></trkpt><trkpt lat="45.74792083634432" lon="8.532204799717698"><ele>300.25</ele><time>2026-05-02T10:42:27.856Z</time></trkpt><trkpt lat="45.74785277134993" lon="8.532377404992818"><ele>299.5</ele><time>2026-05-02T10:42:28.856Z</time></trkpt><trkpt lat="45.74778218060502" lon="8.532533902679894"><ele>298.75</ele><time>2026-05-02T10:42:29.856Z</time></trkpt><trkpt lat="45.74771682574754" lon="8.53266076032505"><ele>298.0</ele><time>2026-05-02T10:42:30.856Z</time></trkpt><trkpt lat="45.74764182326285" lon="8.532764044682695"><ele>298.0</ele><time>2026-05-02T10:42:31.856Z</time></trkpt><trkpt lat="45.74753568059099" lon="8.53284299750043"><ele>298.0</ele><time>2026-05-02T10:42:32.856Z</time></trkpt><trkpt lat="45.74743043303868" lon="8.532932101608168"><ele>298.0</ele><time>2026-05-02T10:42:33.856Z</time></trkpt><trkpt lat="45.74730550963232" lon="8.533037863465132"><ele>298.0</ele><time>2026-05-02T10:42:34.856Z</time></trkpt><trkpt lat="45.74719165017454" lon="8.533141028168773"><ele>298.25</ele><time>2026-05-02T10:42:35.856Z</time></trkpt><trkpt lat="45.74707199656248" lon="8.533224554420848"><ele>298.5</ele><time>2026-05-02T10:42:36.856Z</time></trkpt><trkpt lat="45.74694982425204" lon="8.533311736870377"><ele>298.75</ele><time>2026-05-02T10:42:37.856Z</time></trkpt><trkpt lat="45.74683552031081" lon="8.53340671565506"><ele>299.0</ele><time>2026-05-02T10:42:38.856Z</time></trkpt><trkpt lat="45.74672660673335" lon="8.533502365849362"><ele>299.0</ele><time>2026-05-02T10:42:39.856Z</time></trkpt><trkpt lat="45.74661447271547" lon="8.533604059365347"><ele>299.0</ele><time>2026-05-02T10:42:40.856Z</time></trkpt><trkpt lat="45.74650493317665" lon="8.533693941829783"><ele>299.0</ele><time>2026-05-02T10:42:41.856Z</time></trkpt><trkpt lat="45.74640274187498" lon="8.533842357940967"><ele>299.0</ele><time>2026-05-02T10:42:42.856Z</time></trkpt><trkpt lat="45.74627568794856" lon="8.53395777543114"><ele>299.75</ele><time>2026-05-02T10:42:43.856Z</time></trkpt><trkpt lat="45.74615546732407" lon="8.534061764365282"><ele>300.5</ele><time>2026-05-02T10:42:44.856Z</time></trkpt><trkpt lat="45.7460276432676" lon="8.53416457782109"><ele>301.25</ele><time>2026-05-02T10:42:45.856Z</time></trkpt><trkpt lat="45.745931307604934" lon="8.534311143949546"><ele>302.0</ele><time>2026-05-02T10:42:46.856Z</time></trkpt><trkpt lat="45.74583670819131" lon="8.534439648767894"><ele>302.75</ele><time>2026-05-02T10:42:47.856Z</time></trkpt><trkpt lat="45.74573318211122" lon="8.534584317863828"><ele>303.5</ele><time>2026-05-02T10:42:48.856Z</time></trkpt><trkpt lat="45.745636344868196" lon="8.534719086880308"><ele>304.25</ele><time>2026-05-02T10:42:49.856Z</time></trkpt><trkpt lat="45.745527648538925" lon="8.53486907523256"><ele>305.0</ele><time>2026-05-02T10:42:50.856Z</time></trkpt><trkpt lat="45.7454180280447" lon="8.535022523602786"><ele>305.0</ele><time>2026-05-02T10:42:51.856Z</time></trkpt><trkpt lat="45.745303758497734" lon="8.535182519510897"><ele>305.0</ele><time>2026-05-02T10:42:52.856Z</time></trkpt><trkpt lat="45.74519422397774" lon="8.535337838685223"><ele>305.0</ele><time>2026-05-02T10:42:53.856Z</time></trkpt><trkpt lat="45.74508363190452" lon="8.53549819879509"><ele>306.0</ele><time>2026-05-02T10:42:54.856Z</time></trkpt><trkpt lat="45.74496616278363" lon="8.535660947069589"><ele>307.0</ele><time>2026-05-02T10:42:55.856Z</time></trkpt><trkpt lat="45.74483326120308" lon="8.535813037814338"><ele>308.0</ele><time>2026-05-02T10:42:56.856Z</time></trkpt><trkpt lat="45.744695242610845" lon="8.53595826427536"><ele>308.0</ele><time>2026-05-02T10:42:57.856Z</time></trkpt><trkpt lat="45.74452681976796" lon="8.536060469541093"><ele>308.0</ele><time>2026-05-02T10:42:58.856Z</time></trkpt><trkpt lat="45.74436740155611" lon="8.53616097958929"><ele>308.0</ele><time>2026-05-02T10:42:59.856Z</time></trkpt><trkpt lat="45.744217553600336" lon="8.536254515101973"><ele>308.75</ele><time>2026-05-02T10:43:00.856Z</time></trkpt><trkpt lat="45.74407675911951" lon="8.536348430763201"><ele>309.5</ele><time>2026-05-02T10:43:01.856Z</time></trkpt><trkpt lat="45.74394583887111" lon="8.53645145699413"><ele>310.25</ele><time>2026-05-02T10:43:02.856Z</time></trkpt><trkpt lat="45.743844824058904" lon="8.53657354139227"><ele>311.0</ele><time>2026-05-02T10:43:03.856Z</time></trkpt><trkpt lat="45.743758108900565" lon="8.536727407695968"><ele>311.0</ele><time>2026-05-02T10:43:04.856Z</time></trkpt><trkpt lat="45.74365126116962" lon="8.536886021234084"><ele>311.0</ele><time>2026-05-02T10:43:05.856Z</time></trkpt><trkpt lat="45.74354160851288" lon="8.536991602025884"><ele>311.0</ele><time>2026-05-02T10:43:06.856Z</time></trkpt><trkpt lat="45.743437011486456" lon="8.537073961923598"><ele>311.0</ele><time>2026-05-02T10:43:07.856Z</time></trkpt><trkpt lat="45.74331474344993" lon="8.53712804575321"><ele>310.5</ele><time>2026-05-02T10:43:08.856Z</time></trkpt><trkpt lat="45.74318357060287" lon="8.537176489484994"><ele>310.0</ele><time>2026-05-02T10:43:09.856Z</time></trkpt><trkpt lat="45.74303693118826" lon="8.537224328509602"><ele>309.5</ele><time>2026-05-02T10:43:10.856Z</time></trkpt><trkpt lat="45.74288628823371" lon="8.537263563435674"><ele>309.0</ele><time>2026-05-02T10:43:11.856Z</time></trkpt><trkpt lat="45.7427436994343" lon="8.537237223969683"><ele>307.5</ele><time>2026-05-02T10:43:12.855Z</time></trkpt><trkpt lat="45.74260177598135" lon="8.537180815959749"><ele>306.0</ele><time>2026-05-02T10:43:13.855Z</time></trkpt><trkpt lat="45.7424677805293" lon="8.537159120174667"><ele>304.5</ele><time>2026-05-02T10:43:14.855Z</time></trkpt><trkpt lat="45.742336056468886" lon="8.537166032661128"><ele>303.0</ele><time>2026-05-02T10:43:15.855Z</time></trkpt><trkpt lat="45.74221779789377" lon="8.537182791688393"><ele>303.0</ele><time>2026-05-02T10:43:16.855Z</time></trkpt><trkpt lat="45.742101684902934" lon="8.537192283143915"><ele>303.0</ele><time>2026-05-02T10:43:17.855Z</time></trkpt><trkpt lat="45.741996761798475" lon="8.537199971101195"><ele>303.0</ele><time>2026-05-02T10:43:18.855Z</time></trkpt><trkpt lat="45.741901877327194" lon="8.537206272678882"><ele>303.0</ele><time>2026-05-02T10:43:19.857Z</time></trkpt><trkpt lat="45.741786475372166" lon="8.537218062202738"><ele>303.0</ele><time>2026-05-02T10:43:20.858Z</time></trkpt><trkpt lat="45.741672732068295" lon="8.537276496481544"><ele>302.75</ele><time>2026-05-02T10:43:21.86Z</time></trkpt><trkpt lat="45.74156826575302" lon="8.537353184843738"><ele>302.5</ele><time>2026-05-02T10:43:22.861Z</time></trkpt><trkpt lat="45.74146219373316" lon="8.537441401815194"><ele>302.25</ele><time>2026-05-02T10:43:23.863Z</time></trkpt><trkpt lat="45.74135494066482" lon="8.537523155052176"><ele>302.0</ele><time>2026-05-02T10:43:24.864Z</time></trkpt><trkpt lat="45.741259163656174" lon="8.537581841882368"><ele>302.0</ele><time>2026-05-02T10:43:25.865Z</time></trkpt><trkpt lat="45.74118134345236" lon="8.537625319798094"><ele>302.0</ele><time>2026-05-02T10:43:26.866Z</time></trkpt><trkpt lat="45.74110294275047" lon="8.537683557153327"><ele>302.0</ele><time>2026-05-02T10:43:28.868Z</time></trkpt><trkpt lat="45.74098048373361" lon="8.537700534343934"><ele>302.0</ele><time>2026-05-02T10:43:30.87Z</time></trkpt><trkpt lat="45.740898068548994" lon="8.537743229247432"><ele>302.0</ele><time>2026-05-02T10:43:31.871Z</time></trkpt><trkpt lat="45.740804299343175" lon="8.53781940424451"><ele>302.5</ele><time>2026-05-02T10:43:32.871Z</time></trkpt><trkpt lat="45.74070396778544" lon="8.537914066923381"><ele>303.0</ele><time>2026-05-02T10:43:33.872Z</time></trkpt><trkpt lat="45.74059854939002" lon="8.538020216355637"><ele>303.5</ele><time>2026-05-02T10:43:34.873Z</time></trkpt><trkpt lat="45.74050001184381" lon="8.538120481624716"><ele>304.0</ele><time>2026-05-02T10:43:35.874Z</time></trkpt><trkpt lat="45.74040175041643" lon="8.538218450512437"><ele>304.0</ele><time>2026-05-02T10:43:36.875Z</time></trkpt><trkpt lat="45.740304403293116" lon="8.538315062454078"><ele>304.0</ele><time>2026-05-02T10:43:37.875Z</time></trkpt><trkpt lat="45.740216684751395" lon="8.538404151068567"><ele>304.0</ele><time>2026-05-02T10:43:38.875Z</time></trkpt><trkpt lat="45.74013907415032" lon="8.538484386862594"><ele>304.0</ele><time>2026-05-02T10:43:39.875Z</time></trkpt><trkpt lat="45.74007231062472" lon="8.538554379661077"><ele>304.0</ele><time>2026-05-02T10:43:40.876Z</time></trkpt><trkpt lat="45.74001534612414" lon="8.538622581871282"><ele>303.8333333333333</ele><time>2026-05-02T10:43:41.877Z</time></trkpt><trkpt lat="45.739939861304734" lon="8.538714235469975"><ele>303.66666666666663</ele><time>2026-05-02T10:43:42.877Z</time></trkpt><trkpt lat="45.73990106939576" lon="8.538816804170217"><ele>303.5</ele><time>2026-05-02T10:43:43.878Z</time></trkpt><trkpt lat="45.739864329994894" lon="8.53896911457971"><ele>303.3333333333333</ele><time>2026-05-02T10:43:44.878Z</time></trkpt><trkpt lat="45.73986203575741" lon="8.539083157931003"><ele>303.1666666666667</ele><time>2026-05-02T10:43:45.878Z</time></trkpt><trkpt lat="45.73986780974174" lon="8.53918391483343"><ele>303.0</ele><time>2026-05-02T10:43:46.878Z</time></trkpt><trkpt lat="45.73989097405743" lon="8.539303177147167"><ele>303.6</ele><time>2026-05-02T10:43:47.879Z</time></trkpt><trkpt lat="45.7399249846414" lon="8.53939692953573"><ele>304.20000000000005</ele><time>2026-05-02T10:43:48.879Z</time></trkpt><trkpt lat="45.73994322591861" lon="8.539496485700893"><ele>304.8</ele><time>2026-05-02T10:43:49.879Z</time></trkpt><trkpt lat="45.73995629483851" lon="8.539643569422294"><ele>305.40000000000003</ele><time>2026-05-02T10:43:51.88Z</time></trkpt><trkpt lat="45.73989398158033" lon="8.539822371952132"><ele>306.0</ele><time>2026-05-02T10:43:53.88Z</time></trkpt><trkpt lat="45.739828637641324" lon="8.539916720704952"><ele>306.75</ele><time>2026-05-02T10:43:54.88Z</time></trkpt><trkpt lat="45.73973534092246" lon="8.540020069187344"><ele>307.5</ele><time>2026-05-02T10:43:55.88Z</time></trkpt><trkpt lat="45.739633173185624" lon="8.540141560445281"><ele>308.25</ele><time>2026-05-02T10:43:56.88Z</time></trkpt><trkpt lat="45.739536292496325" lon="8.540262509327418"><ele>309.0</ele><time>2026-05-02T10:43:57.881Z</time></trkpt><trkpt lat="45.73945709095805" lon="8.540423096837566"><ele>308.75</ele><time>2026-05-02T10:43:58.881Z</time></trkpt><trkpt lat="45.7393671023703" lon="8.540571762422012"><ele>308.5</ele><time>2026-05-02T10:43:59.881Z</time></trkpt><trkpt lat="45.73927553189089" lon="8.540725719595883"><ele>308.25</ele><time>2026-05-02T10:44:00.881Z</time></trkpt><trkpt lat="45.73918738807724" lon="8.54087391992778"><ele>308.0</ele><time>2026-05-02T10:44:01.881Z</time></trkpt><trkpt lat="45.73911349659029" lon="8.541005430912028"><ele>308.0</ele><time>2026-05-02T10:44:02.881Z</time></trkpt><trkpt lat="45.73907294940952" lon="8.541076681436344"><ele>308.0</ele><time>2026-05-02T10:44:03.881Z</time></trkpt><trkpt lat="45.73899808822739" lon="8.541211753379692"><ele>308.0</ele><time>2026-05-02T10:44:04.881Z</time></trkpt><trkpt lat="45.73893980679731" lon="8.541322656984851"><ele>308.0</ele><time>2026-05-02T10:44:05.882Z</time></trkpt><trkpt lat="45.73887428334503" lon="8.54145483414644"><ele>308.0</ele><time>2026-05-02T10:44:06.882Z</time></trkpt><trkpt lat="45.73881663261606" lon="8.54156779460874"><ele>308.2</ele><time>2026-05-02T10:44:07.882Z</time></trkpt><trkpt lat="45.73876968005028" lon="8.541659793746584"><ele>308.4</ele><time>2026-05-02T10:44:08.882Z</time></trkpt><trkpt lat="45.73871385682471" lon="8.541785676784038"><ele>308.59999999999997</ele><time>2026-05-02T10:44:10.882Z</time></trkpt><trkpt lat="45.73867164306681" lon="8.541959169142972"><ele>308.8</ele><time>2026-05-02T10:44:12.882Z</time></trkpt><trkpt lat="45.73866030433761" lon="8.542068008576694"><ele>309.0</ele><time>2026-05-02T10:44:13.882Z</time></trkpt><trkpt lat="45.73865348711263" lon="8.542188078943484"><ele>309.0</ele><time>2026-05-02T10:44:14.882Z</time></trkpt><trkpt lat="45.738633887386044" lon="8.54231814275478"><ele>309.0</ele><time>2026-05-02T10:44:15.882Z</time></trkpt><trkpt lat="45.738643621951056" lon="8.542431667592787"><ele>309.0</ele><time>2026-05-02T10:44:16.882Z</time></trkpt><trkpt lat="45.73862457849059" lon="8.542548913832707"><ele>309.0</ele><time>2026-05-02T10:44:17.882Z</time></trkpt><trkpt lat="45.738569176238585" lon="8.542656547274568"><ele>309.0</ele><time>2026-05-02T10:44:18.882Z</time></trkpt><trkpt lat="45.73856092537884" lon="8.542757792557447"><ele>309.0</ele><time>2026-05-02T10:44:19.882Z</time></trkpt><trkpt lat="45.7385163837165" lon="8.542879061743802"><ele>309.4</ele><time>2026-05-02T10:44:20.882Z</time></trkpt><trkpt lat="45.73846319108001" lon="8.543026016424704"><ele>309.79999999999995</ele><time>2026-05-02T10:44:21.882Z</time></trkpt><trkpt lat="45.73841623213947" lon="8.543154166806943"><ele>310.20000000000005</ele><time>2026-05-02T10:44:22.882Z</time></trkpt><trkpt lat="45.73837571836477" lon="8.54330153981905"><ele>310.6</ele><time>2026-05-02T10:44:23.882Z</time></trkpt><trkpt lat="45.73833346986534" lon="8.543406976372088"><ele>311.0</ele><time>2026-05-02T10:44:24.882Z</time></trkpt><trkpt lat="45.738271926733425" lon="8.543500393924605"><ele>311.0</ele><time>2026-05-02T10:44:25.882Z</time></trkpt><trkpt lat="45.73821751859858" lon="8.543554385233058"><ele>311.0</ele><time>2026-05-02T10:44:26.882Z</time></trkpt><trkpt lat="45.73812235909542" lon="8.543607597151325"><ele>311.0</ele><time>2026-05-02T10:44:27.882Z</time></trkpt><trkpt lat="45.738092333473055" lon="8.543753153436874"><ele>311.0</ele><time>2026-05-02T10:44:28.882Z</time></trkpt><trkpt lat="45.738127288837205" lon="8.543843110604241"><ele>311.0</ele><time>2026-05-02T10:44:29.882Z</time></trkpt><trkpt lat="45.738201551396216" lon="8.544054908230763"><ele>310.2</ele><time>2026-05-02T10:44:30.882Z</time></trkpt><trkpt lat="45.738177642166804" lon="8.543937587205303"><ele>309.40000000000003</ele><time>2026-05-02T10:44:31.882Z</time></trkpt><trkpt lat="45.7382438185335" lon="8.54407244660042"><ele>308.6</ele><time>2026-05-02T10:44:37.882Z</time></trkpt><trkpt lat="45.738308018973754" lon="8.54410624530578"><ele>307.8</ele><time>2026-05-02T10:44:39.882Z</time></trkpt><trkpt lat="45.738387782804836" lon="8.54417799922434"><ele>307.0</ele><time>2026-05-02T10:44:42.882Z</time></trkpt><trkpt lat="45.73831026238439" lon="8.54409288334497"><ele>307.0</ele><time>2026-05-02T10:44:50.882Z</time></trkpt><trkpt lat="45.73824904213342" lon="8.544062473005932"><ele>307.0</ele><time>2026-05-02T10:44:51.882Z</time></trkpt><trkpt lat="45.73814108348071" lon="8.54403981577619"><ele>307.0</ele><time>2026-05-02T10:44:53.882Z</time></trkpt><trkpt lat="45.73804758846916" lon="8.544135928284316"><ele>307.0</ele><time>2026-05-02T10:44:55.882Z</time></trkpt><trkpt lat="45.73799020233442" lon="8.544206989927574"><ele>307.0</ele><time>2026-05-02T10:44:56.882Z</time></trkpt><trkpt lat="45.737904128907566" lon="8.544278802384547"><ele>307.0</ele><time>2026-05-02T10:44:57.882Z</time></trkpt><trkpt lat="45.73781440182966" lon="8.54438066719918"><ele>307.0</ele><time>2026-05-02T10:44:58.882Z</time></trkpt><trkpt lat="45.737719996607716" lon="8.54450591955776"><ele>307.0</ele><time>2026-05-02T10:44:59.882Z</time></trkpt><trkpt lat="45.73763872110566" lon="8.544610240986339"><ele>307.0</ele><time>2026-05-02T10:45:00.882Z</time></trkpt><trkpt lat="45.737549916935215" lon="8.544688125565624"><ele>307.5</ele><time>2026-05-02T10:45:01.882Z</time></trkpt><trkpt lat="45.73746136055306" lon="8.54474253865854"><ele>308.0</ele><time>2026-05-02T10:45:02.882Z</time></trkpt><trkpt lat="45.737395521157715" lon="8.544764340820347"><ele>308.5</ele><time>2026-05-02T10:45:03.882Z</time></trkpt><trkpt lat="45.73731698781164" lon="8.54482143542771"><ele>309.0</ele><time>2026-05-02T10:45:06.882Z</time></trkpt><trkpt lat="45.7372680152339" lon="8.544914730709179"><ele>309.5</ele><time>2026-05-02T10:45:07.882Z</time></trkpt><trkpt lat="45.73720521291264" lon="8.545023586139683"><ele>310.0</ele><time>2026-05-02T10:45:08.882Z</time></trkpt><trkpt lat="45.73715548403159" lon="8.545131030890083"><ele>310.0</ele><time>2026-05-02T10:45:09.882Z</time></trkpt><trkpt lat="45.737090772617634" lon="8.545233914694546"><ele>310.0</ele><time>2026-05-02T10:45:10.882Z</time></trkpt><trkpt lat="45.737034301883355" lon="8.545315287222676"><ele>310.0</ele><time>2026-05-02T10:45:11.882Z</time></trkpt><trkpt lat="45.73695217478555" lon="8.54539364030694"><ele>310.0</ele><time>2026-05-02T10:45:12.882Z</time></trkpt><trkpt lat="45.73689437767057" lon="8.545447048057603"><ele>310.0</ele><time>2026-05-02T10:45:15.882Z</time></trkpt><trkpt lat="45.73685692212295" lon="8.545577634485618"><ele>310.0</ele><time>2026-05-02T10:45:17.882Z</time></trkpt><trkpt lat="45.736816721253554" lon="8.545682645510595"><ele>310.3333333333333</ele><time>2026-05-02T10:45:18.882Z</time></trkpt><trkpt lat="45.736783779598774" lon="8.545760526869506"><ele>310.66666666666663</ele><time>2026-05-02T10:45:19.882Z</time></trkpt><trkpt lat="45.73673546502189" lon="8.545834132647439"><ele>311.0</ele><time>2026-05-02T10:45:20.882Z</time></trkpt><trkpt lat="45.736690545418774" lon="8.545930183216822"><ele>311.3333333333333</ele><time>2026-05-02T10:45:21.882Z</time></trkpt><trkpt lat="45.73664726887354" lon="8.546064372122952"><ele>311.6666666666667</ele><time>2026-05-02T10:45:22.882Z</time></trkpt><trkpt lat="45.73660392133528" lon="8.546210389038709"><ele>312.0</ele><time>2026-05-02T10:45:23.882Z</time></trkpt><trkpt lat="45.73656570211674" lon="8.546317721091205"><ele>312.0</ele><time>2026-05-02T10:45:24.882Z</time></trkpt><trkpt lat="45.73647980566372" lon="8.546424738499043"><ele>312.0</ele><time>2026-05-02T10:45:26.882Z</time></trkpt><trkpt lat="45.73643138607006" lon="8.546521040155744"><ele>312.0</ele><time>2026-05-02T10:45:28.882Z</time></trkpt><trkpt lat="45.7364465468692" lon="8.546740495042094"><ele>312.0</ele><time>2026-05-02T10:45:30.882Z</time></trkpt><trkpt lat="45.736455866683876" lon="8.546944933381605"><ele>312.0</ele><time>2026-05-02T10:45:31.882Z</time></trkpt><trkpt lat="45.73648578874028" lon="8.547141140430131"><ele>312.0</ele><time>2026-05-02T10:45:32.882Z</time></trkpt><trkpt lat="45.73648747807634" lon="8.547316700197937"><ele>312.0</ele><time>2026-05-02T10:45:33.882Z</time></trkpt><trkpt lat="45.73646147808472" lon="8.547419800618082"><ele>312.0</ele><time>2026-05-02T10:45:34.882Z</time></trkpt><trkpt lat="45.73641249039679" lon="8.54748209335187"><ele>312.0</ele><time>2026-05-02T10:45:35.882Z</time></trkpt><trkpt lat="45.7363657065682" lon="8.547597211274947"><ele>312.0</ele><time>2026-05-02T10:45:36.882Z</time></trkpt><trkpt lat="45.736309671747165" lon="8.54770280987078"><ele>312.0</ele><time>2026-05-02T10:45:37.881Z</time></trkpt><trkpt lat="45.73622524679049" lon="8.547836394900106"><ele>312.0</ele><time>2026-05-02T10:45:38.881Z</time></trkpt><trkpt lat="45.736097188666484" lon="8.548010561654468"><ele>312.0</ele><time>2026-05-02T10:45:39.881Z</time></trkpt><trkpt lat="45.735938391647565" lon="8.548209767222327"><ele>310.6666666666667</ele><time>2026-05-02T10:45:40.881Z</time></trkpt><trkpt lat="45.73587319027784" lon="8.548316817843077"><ele>309.3333333333333</ele><time>2026-05-02T10:45:41.881Z</time></trkpt><trkpt lat="45.7358185195495" lon="8.548409903679445"><ele>308.0</ele><time>2026-05-02T10:45:42.881Z</time></trkpt><trkpt lat="45.73575836719604" lon="8.548488214151611"><ele>306.66666666666663</ele><time>2026-05-02T10:45:43.881Z</time></trkpt><trkpt lat="45.73568557971347" lon="8.548460059127798"><ele>305.3333333333333</ele><time>2026-05-02T10:45:46.881Z</time></trkpt><trkpt lat="45.73561676480361" lon="8.548393597699791"><ele>304.0</ele><time>2026-05-02T10:45:47.881Z</time></trkpt><trkpt lat="45.73551019524213" lon="8.548271112667035"><ele>304.0</ele><time>2026-05-02T10:45:48.881Z</time></trkpt><trkpt lat="45.735401591259226" lon="8.548173494475328"><ele>304.0</ele><time>2026-05-02T10:45:49.881Z</time></trkpt><trkpt lat="45.7352993682313" lon="8.54806775059946"><ele>304.0</ele><time>2026-05-02T10:45:50.881Z</time></trkpt><trkpt lat="45.73520399797117" lon="8.547940310041172"><ele>304.0</ele><time>2026-05-02T10:45:51.881Z</time></trkpt><trkpt lat="45.735154465860234" lon="8.54786946176035"><ele>303.0</ele><time>2026-05-02T10:45:53.881Z</time></trkpt><trkpt lat="45.73510342736068" lon="8.547935476409439"><ele>302.0</ele><time>2026-05-02T10:45:55.881Z</time></trkpt><trkpt lat="45.73503445882296" lon="8.548041459444066"><ele>301.0</ele><time>2026-05-02T10:45:57.881Z</time></trkpt><trkpt lat="45.734962733179465" lon="8.548172545931807"><ele>300.0</ele><time>2026-05-02T10:45:59.88Z</time></trkpt><trkpt lat="45.73492154746423" lon="8.548258511046981"><ele>299.0</ele><time>2026-05-02T10:46:01.88Z</time></trkpt><trkpt lat="45.73485970525086" lon="8.548384296395424"><ele>299.0</ele><time>2026-05-02T10:46:03.88Z</time></trkpt><trkpt lat="45.73481054589415" lon="8.548499949428779"><ele>299.0</ele><time>2026-05-02T10:46:05.88Z</time></trkpt><trkpt lat="45.73474739274094" lon="8.54862047822465"><ele>299.0</ele><time>2026-05-02T10:46:07.88Z</time></trkpt><trkpt lat="45.73470421007502" lon="8.548707400538648"><ele>299.0</ele><time>2026-05-02T10:46:08.88Z</time></trkpt><trkpt lat="45.73463575581159" lon="8.548805784086367"><ele>299.0</ele><time>2026-05-02T10:46:09.88Z</time></trkpt><trkpt lat="45.73457206544847" lon="8.548906203701678"><ele>299.0</ele><time>2026-05-02T10:46:10.88Z</time></trkpt><trkpt lat="45.73451599957539" lon="8.549012819068576"><ele>299.0</ele><time>2026-05-02T10:46:11.88Z</time></trkpt><trkpt lat="45.7344527797191" lon="8.54911161043444"><ele>299.0</ele><time>2026-05-02T10:46:12.88Z</time></trkpt><trkpt lat="45.73440176847186" lon="8.54919064341485"><ele>299.0</ele><time>2026-05-02T10:46:13.88Z</time></trkpt><trkpt lat="45.73435904848257" lon="8.549270734511015"><ele>299.0</ele><time>2026-05-02T10:46:14.88Z</time></trkpt><trkpt lat="45.734289388853426" lon="8.549367127203586"><ele>299.0</ele><time>2026-05-02T10:46:16.88Z</time></trkpt><trkpt lat="45.734207481077675" lon="8.549339729290004"><ele>299.0</ele><time>2026-05-02T10:46:18.88Z</time></trkpt><trkpt lat="45.73412261571894" lon="8.549268815030363"><ele>299.0</ele><time>2026-05-02T10:46:20.88Z</time></trkpt><trkpt lat="45.734039735371496" lon="8.549254051394396"><ele>299.0</ele><time>2026-05-02T10:46:22.88Z</time></trkpt><trkpt lat="45.733932855147636" lon="8.549242790574658"><ele>299.0</ele><time>2026-05-02T10:46:24.88Z</time></trkpt><trkpt lat="45.73383555726029" lon="8.549229468630447"><ele>299.0</ele><time>2026-05-02T10:46:26.88Z</time></trkpt><trkpt lat="45.73375411785881" lon="8.5492393096197"><ele>299.0</ele><time>2026-05-02T10:46:28.88Z</time></trkpt><trkpt lat="45.73365843437238" lon="8.549258804623376"><ele>299.0</ele><time>2026-05-02T10:46:30.88Z</time></trkpt><trkpt lat="45.733545945223774" lon="8.549287780712705"><ele>299.0</ele><time>2026-05-02T10:46:32.88Z</time></trkpt><trkpt lat="45.73347791582033" lon="8.549310465254486"><ele>299.0</ele><time>2026-05-02T10:46:33.88Z</time></trkpt><trkpt lat="45.73340681607998" lon="8.549331738128808"><ele>299.0</ele><time>2026-05-02T10:46:34.88Z</time></trkpt><trkpt lat="45.73333319875227" lon="8.549337015859479"><ele>299.0</ele><time>2026-05-02T10:46:35.88Z</time></trkpt><trkpt lat="45.73326429970556" lon="8.54937679707318"><ele>299.2</ele><time>2026-05-02T10:46:36.88Z</time></trkpt><trkpt lat="45.733170574043626" lon="8.549433832543922"><ele>299.4</ele><time>2026-05-02T10:46:37.88Z</time></trkpt><trkpt lat="45.733102650628766" lon="8.549500486910699"><ele>299.6</ele><time>2026-05-02T10:46:38.88Z</time></trkpt><trkpt lat="45.7330589472933" lon="8.549570990057305"><ele>299.8</ele><time>2026-05-02T10:46:39.88Z</time></trkpt><trkpt lat="45.73299791736547" lon="8.549681819676591"><ele>300.0</ele><time>2026-05-02T10:46:40.88Z</time></trkpt><trkpt lat="45.73292427683402" lon="8.549787554749386"><ele>298.5</ele><time>2026-05-02T10:46:41.88Z</time></trkpt><trkpt lat="45.732867842352874" lon="8.5498758147416"><ele>297.0</ele><time>2026-05-02T10:46:42.88Z</time></trkpt><trkpt lat="45.732837167535195" lon="8.550110264024633"><ele>295.5</ele><time>2026-05-02T10:46:44.88Z</time></trkpt><trkpt lat="45.73281038388285" lon="8.550319717600917"><ele>294.0</ele><time>2026-05-02T10:46:45.88Z</time></trkpt><trkpt lat="45.73274677381104" lon="8.550544523118601"><ele>294.25</ele><time>2026-05-02T10:46:46.88Z</time></trkpt><trkpt lat="45.732684762716104" lon="8.550767487345249"><ele>294.5</ele><time>2026-05-02T10:46:47.88Z</time></trkpt><trkpt lat="45.732645988590114" lon="8.5509504544496"><ele>294.75</ele><time>2026-05-02T10:46:48.88Z</time></trkpt><trkpt lat="45.73263819353082" lon="8.551135178289712"><ele>295.0</ele><time>2026-05-02T10:46:49.88Z</time></trkpt><trkpt lat="45.732623068636265" lon="8.551327602748033"><ele>295.5</ele><time>2026-05-02T10:46:50.88Z</time></trkpt><trkpt lat="45.732622651388404" lon="8.551522806364245"><ele>296.0</ele><time>2026-05-02T10:46:51.88Z</time></trkpt><trkpt lat="45.73262380724204" lon="8.55170873830979"><ele>296.5</ele><time>2026-05-02T10:46:52.88Z</time></trkpt><trkpt lat="45.73263215586753" lon="8.55190176988588"><ele>297.0</ele><time>2026-05-02T10:46:53.88Z</time></trkpt><trkpt lat="45.73264611778132" lon="8.552073683285743"><ele>297.6</ele><time>2026-05-02T10:46:54.88Z</time></trkpt><trkpt lat="45.73265943836843" lon="8.552207859689462"><ele>298.2</ele><time>2026-05-02T10:46:55.88Z</time></trkpt><trkpt lat="45.732667736631285" lon="8.552305816187497"><ele>298.8</ele><time>2026-05-02T10:46:56.88Z</time></trkpt><trkpt lat="45.732644145878076" lon="8.552528364416206"><ele>299.4</ele><time>2026-05-02T10:46:58.88Z</time></trkpt><trkpt lat="45.73259372160798" lon="8.552692200004742"><ele>300.0</ele><time>2026-05-02T10:46:59.88Z</time></trkpt><trkpt lat="45.732533116379365" lon="8.552830823901562"><ele>299.0</ele><time>2026-05-02T10:47:00.88Z</time></trkpt><trkpt lat="45.73249785286321" lon="8.552949318584938"><ele>298.0</ele><time>2026-05-02T10:47:01.88Z</time></trkpt><trkpt lat="45.732464856004" lon="8.553043022120288"><ele>297.0</ele><time>2026-05-02T10:47:02.88Z</time></trkpt><trkpt lat="45.73239786324943" lon="8.553167343734076"><ele>296.0</ele><time>2026-05-02T10:47:04.88Z</time></trkpt><trkpt lat="45.732323662507596" lon="8.55325539272184"><ele>295.0</ele><time>2026-05-02T10:47:06.88Z</time></trkpt><trkpt lat="45.73224752528575" lon="8.553311205601196"><ele>295.0</ele><time>2026-05-02T10:47:08.88Z</time></trkpt><trkpt lat="45.73227419960618" lon="8.553399836023862"><ele>295.0</ele><time>2026-05-02T10:47:12.88Z</time></trkpt><trkpt lat="45.73234905775252" lon="8.553420198268729"><ele>295.0</ele><time>2026-05-02T10:47:15.88Z</time></trkpt><trkpt lat="45.732432127213485" lon="8.553497044002327"><ele>295.0</ele><time>2026-05-02T10:47:17.88Z</time></trkpt><trkpt lat="45.73253641992961" lon="8.55355801042403"><ele>295.0</ele><time>2026-05-02T10:47:19.88Z</time></trkpt><trkpt lat="45.73259561315225" lon="8.553594646690016"><ele>295.0</ele><time>2026-05-02T10:47:20.88Z</time></trkpt><trkpt lat="45.73270599741999" lon="8.55366864482582"><ele>294.8</ele><time>2026-05-02T10:47:22.88Z</time></trkpt><trkpt lat="45.73280277428798" lon="8.553756236624892"><ele>294.6</ele><time>2026-05-02T10:47:24.88Z</time></trkpt><trkpt lat="45.73290694458159" lon="8.553844254417454"><ele>294.4</ele><time>2026-05-02T10:47:26.88Z</time></trkpt><trkpt lat="45.733008474374266" lon="8.553905857644697"><ele>294.2</ele><time>2026-05-02T10:47:28.88Z</time></trkpt><trkpt lat="45.73307378581392" lon="8.553954279970405"><ele>294.0</ele><time>2026-05-02T10:47:29.88Z</time></trkpt><trkpt lat="45.73313248839963" lon="8.55401912810544"><ele>294.0</ele><time>2026-05-02T10:47:30.88Z</time></trkpt><trkpt lat="45.733207696952086" lon="8.554084361680783"><ele>294.0</ele><time>2026-05-02T10:47:31.88Z</time></trkpt><trkpt lat="45.73328622804751" lon="8.554124106850816"><ele>294.0</ele><time>2026-05-02T10:47:32.88Z</time></trkpt><trkpt lat="45.73335851542316" lon="8.554169477969813"><ele>294.0</ele><time>2026-05-02T10:47:33.88Z</time></trkpt><trkpt lat="45.73342625479957" lon="8.554236613268337"><ele>294.0</ele><time>2026-05-02T10:47:34.88Z</time></trkpt><trkpt lat="45.73349774627365" lon="8.554292140027531"><ele>294.0</ele><time>2026-05-02T10:47:35.88Z</time></trkpt><trkpt lat="45.73357144546716" lon="8.554329719184961"><ele>293.8333333333333</ele><time>2026-05-02T10:47:36.88Z</time></trkpt><trkpt lat="45.73364417232951" lon="8.554371789677953"><ele>293.6666666666667</ele><time>2026-05-02T10:47:37.88Z</time></trkpt><trkpt lat="45.733713334917894" lon="8.554415984414302"><ele>293.5</ele><time>2026-05-02T10:47:38.88Z</time></trkpt><trkpt lat="45.733783615385256" lon="8.55445572708505"><ele>293.33333333333337</ele><time>2026-05-02T10:47:39.88Z</time></trkpt><trkpt lat="45.73384313605841" lon="8.554503111587692"><ele>293.1666666666667</ele><time>2026-05-02T10:47:40.88Z</time></trkpt><trkpt lat="45.73393707524011" lon="8.554593003611709"><ele>293.0</ele><time>2026-05-02T10:47:42.88Z</time></trkpt><trkpt lat="45.733991185778564" lon="8.554653055815203"><ele>295.1666666666667</ele><time>2026-05-02T10:47:43.879Z</time></trkpt><trkpt lat="45.73405628789527" lon="8.554694573530158"><ele>297.33333333333337</ele><time>2026-05-02T10:47:44.879Z</time></trkpt><trkpt lat="45.73414287851853" lon="8.554722913008497"><ele>299.5</ele><time>2026-05-02T10:47:45.879Z</time></trkpt><trkpt lat="45.734226813327545" lon="8.554769422083265"><ele>301.6666666666667</ele><time>2026-05-02T10:47:46.878Z</time></trkpt><trkpt lat="45.7343146581079" lon="8.554829619049716"><ele>303.8333333333333</ele><time>2026-05-02T10:47:47.878Z</time></trkpt><trkpt lat="45.734403354013466" lon="8.554882449964744"><ele>306.0</ele><time>2026-05-02T10:47:48.878Z</time></trkpt><trkpt lat="45.73448320174312" lon="8.554955005248482"><ele>305.8</ele><time>2026-05-02T10:47:49.879Z</time></trkpt><trkpt lat="45.73454476581136" lon="8.555046051276724"><ele>305.6</ele><time>2026-05-02T10:47:50.878Z</time></trkpt><trkpt lat="45.73460094055575" lon="8.555182214023352"><ele>305.4</ele><time>2026-05-02T10:47:51.878Z</time></trkpt><trkpt lat="45.734650744672265" lon="8.555306105556745"><ele>305.2</ele><time>2026-05-02T10:47:52.879Z</time></trkpt><trkpt lat="45.734699202995614" lon="8.555413901104702"><ele>305.0</ele><time>2026-05-02T10:47:53.878Z</time></trkpt><trkpt lat="45.73474259320969" lon="8.555505630357844"><ele>305.0</ele><time>2026-05-02T10:47:54.878Z</time></trkpt><trkpt lat="45.73479821610359" lon="8.555642276466413"><ele>305.0</ele><time>2026-05-02T10:47:56.878Z</time></trkpt><trkpt lat="45.73479861153094" lon="8.555786951277776"><ele>305.0</ele><time>2026-05-02T10:47:58.878Z</time></trkpt><trkpt lat="45.7347694668155" lon="8.555891478089784"><ele>305.0</ele><time>2026-05-02T10:47:59.878Z</time></trkpt><trkpt lat="45.7347751656017" lon="8.556012070334779"><ele>305.0</ele><time>2026-05-02T10:48:00.878Z</time></trkpt><trkpt lat="45.73474138180534" lon="8.556122231313466"><ele>303.8</ele><time>2026-05-02T10:48:01.878Z</time></trkpt><trkpt lat="45.734711549873076" lon="8.556224740240234"><ele>302.6</ele><time>2026-05-02T10:48:02.878Z</time></trkpt><trkpt lat="45.73471600550526" lon="8.556330361337169"><ele>301.4</ele><time>2026-05-02T10:48:03.878Z</time></trkpt><trkpt lat="45.73476608869643" lon="8.556499634209313"><ele>300.2</ele><time>2026-05-02T10:48:04.878Z</time></trkpt><trkpt lat="45.73481253183901" lon="8.556707713828544"><ele>299.0</ele><time>2026-05-02T10:48:05.878Z</time></trkpt><trkpt lat="45.73489962853703" lon="8.55692982309882"><ele>298.0</ele><time>2026-05-02T10:48:06.878Z</time></trkpt><trkpt lat="45.735021504480876" lon="8.557197083054056"><ele>297.0</ele><time>2026-05-02T10:48:08.878Z</time></trkpt><trkpt lat="45.73507399710954" lon="8.557379824151012"><ele>296.0</ele><time>2026-05-02T10:48:09.878Z</time></trkpt><trkpt lat="45.73511601557464" lon="8.557498427744909"><ele>296.0</ele><time>2026-05-02T10:48:10.878Z</time></trkpt><trkpt lat="45.73516349908616" lon="8.557638118706535"><ele>296.0</ele><time>2026-05-02T10:48:12.878Z</time></trkpt><trkpt lat="45.73519166087097" lon="8.557735272581981"><ele>296.0</ele><time>2026-05-02T10:48:13.878Z</time></trkpt><trkpt lat="45.73522349634644" lon="8.557850114830174"><ele>296.0</ele><time>2026-05-02T10:48:14.878Z</time></trkpt><trkpt lat="45.73526649574732" lon="8.557973995524248"><ele>296.0</ele><time>2026-05-02T10:48:15.878Z</time></trkpt><trkpt lat="45.73530367345957" lon="8.558109742607787"><ele>296.40000000000003</ele><time>2026-05-02T10:48:16.878Z</time></trkpt><trkpt lat="45.73531429520413" lon="8.558249132825498"><ele>296.8</ele><time>2026-05-02T10:48:17.878Z</time></trkpt><trkpt lat="45.73533142832522" lon="8.558386848683517"><ele>297.20000000000005</ele><time>2026-05-02T10:48:18.878Z</time></trkpt><trkpt lat="45.735336527340586" lon="8.558536345863176"><ele>297.6</ele><time>2026-05-02T10:48:19.878Z</time></trkpt><trkpt lat="45.73533540910716" lon="8.558687003188279"><ele>298.0</ele><time>2026-05-02T10:48:20.878Z</time></trkpt><trkpt lat="45.735330559762076" lon="8.55881161224019"><ele>296.7142857142857</ele><time>2026-05-02T10:48:21.878Z</time></trkpt><trkpt lat="45.73533033433904" lon="8.558917098457291"><ele>295.4285714285714</ele><time>2026-05-02T10:48:22.878Z</time></trkpt><trkpt lat="45.7353218135969" lon="8.559009757556158"><ele>294.1428571428571</ele><time>2026-05-02T10:48:23.878Z</time></trkpt><trkpt lat="45.73531142678297" lon="8.559116526536785"><ele>292.85714285714283</ele><time>2026-05-02T10:48:24.878Z</time></trkpt><trkpt lat="45.73529959716935" lon="8.55920837758031"><ele>291.57142857142856</ele><time>2026-05-02T10:48:25.878Z</time></trkpt><trkpt lat="45.73528615614463" lon="8.559307823701367"><ele>290.2857142857143</ele><time>2026-05-02T10:48:26.878Z</time></trkpt><trkpt lat="45.735271070153715" lon="8.559426350426765"><ele>289.0</ele><time>2026-05-02T10:48:27.878Z</time></trkpt><trkpt lat="45.73525328088545" lon="8.55955300578222"><ele>288.0</ele><time>2026-05-02T10:48:28.878Z</time></trkpt><trkpt lat="45.73521671489818" lon="8.559726420448998"><ele>287.0</ele><time>2026-05-02T10:48:29.878Z</time></trkpt><trkpt lat="45.7351809487129" lon="8.559884160019983"><ele>286.0</ele><time>2026-05-02T10:48:30.878Z</time></trkpt><trkpt lat="45.73515939945507" lon="8.560095711735805"><ele>285.0</ele><time>2026-05-02T10:48:31.878Z</time></trkpt><trkpt lat="45.73512357279683" lon="8.560294615522594"><ele>282.4</ele><time>2026-05-02T10:48:32.878Z</time></trkpt><trkpt lat="45.73509860621426" lon="8.560461639215218"><ele>279.8</ele><time>2026-05-02T10:48:33.878Z</time></trkpt><trkpt lat="45.73506486465851" lon="8.560599956171172"><ele>277.2</ele><time>2026-05-02T10:48:34.878Z</time></trkpt><trkpt lat="45.735038278714356" lon="8.560738452523227"><ele>274.6</ele><time>2026-05-02T10:48:35.878Z</time></trkpt><trkpt lat="45.735015439400584" lon="8.560877895126024"><ele>272.0</ele><time>2026-05-02T10:48:36.878Z</time></trkpt><trkpt lat="45.73498911663921" lon="8.561021374539868"><ele>272.0</ele><time>2026-05-02T10:48:37.878Z</time></trkpt><trkpt lat="45.734952705491075" lon="8.561158438712768"><ele>272.0</ele><time>2026-05-02T10:48:38.878Z</time></trkpt><trkpt lat="45.73490351844857" lon="8.561297925401892"><ele>272.0</ele><time>2026-05-02T10:48:39.878Z</time></trkpt><trkpt lat="45.73484529533211" lon="8.561436827270324"><ele>272.0</ele><time>2026-05-02T10:48:40.878Z</time></trkpt><trkpt lat="45.73479271464002" lon="8.561555154005108"><ele>272.0</ele><time>2026-05-02T10:48:41.878Z</time></trkpt><trkpt lat="45.73476841355548" lon="8.561663223978645"><ele>268.83333333333337</ele><time>2026-05-02T10:48:42.878Z</time></trkpt><trkpt lat="45.734758490778226" lon="8.561788515465297"><ele>265.6666666666667</ele><time>2026-05-02T10:48:43.878Z</time></trkpt><trkpt lat="45.734767685181474" lon="8.561928829204469"><ele>262.5</ele><time>2026-05-02T10:48:44.878Z</time></trkpt><trkpt lat="45.73480443422869" lon="8.562067152419976"><ele>259.3333333333333</ele><time>2026-05-02T10:48:45.878Z</time></trkpt><trkpt lat="45.734846773089885" lon="8.56218009433692"><ele>256.16666666666663</ele><time>2026-05-02T10:48:46.878Z</time></trkpt><trkpt lat="45.73489103459519" lon="8.562254297229327"><ele>253.0</ele><time>2026-05-02T10:48:47.878Z</time></trkpt><trkpt lat="45.734969767601285" lon="8.562355438678074"><ele>251.0</ele><time>2026-05-02T10:48:49.878Z</time></trkpt><trkpt lat="45.735017458566" lon="8.562439848537323"><ele>249.0</ele><time>2026-05-02T10:48:51.878Z</time></trkpt><trkpt lat="45.73510736184574" lon="8.562584375494298"><ele>247.0</ele><time>2026-05-02T10:48:53.878Z</time></trkpt><trkpt lat="45.7351676808292" lon="8.562677171120544"><ele>245.0</ele><time>2026-05-02T10:48:54.878Z</time></trkpt><trkpt lat="45.73524276212334" lon="8.562768955478816"><ele>243.0</ele><time>2026-05-02T10:48:55.878Z</time></trkpt><trkpt lat="45.735311120770135" lon="8.562888244564778"><ele>242.0</ele><time>2026-05-02T10:48:56.878Z</time></trkpt><trkpt lat="45.7353824864052" lon="8.562996088970198"><ele>241.0</ele><time>2026-05-02T10:48:57.878Z</time></trkpt><trkpt lat="45.7354582897726" lon="8.563092255705378"><ele>240.0</ele><time>2026-05-02T10:48:58.878Z</time></trkpt><trkpt lat="45.73552829426421" lon="8.563199931946603"><ele>239.0</ele><time>2026-05-02T10:48:59.878Z</time></trkpt><trkpt lat="45.73557989106505" lon="8.56328215530237"><ele>238.0</ele><time>2026-05-02T10:49:00.878Z</time></trkpt><trkpt lat="45.73562551134398" lon="8.563401002772736"><ele>238.0</ele><time>2026-05-02T10:49:02.878Z</time></trkpt><trkpt lat="45.735493967658705" lon="8.563556357873326"><ele>238.0</ele><time>2026-05-02T10:49:06.878Z</time></trkpt><trkpt lat="45.735417223317704" lon="8.563639180193373"><ele>238.0</ele><time>2026-05-02T10:49:07.878Z</time></trkpt><trkpt lat="45.735343805536935" lon="8.563719005490134"><ele>238.0</ele><time>2026-05-02T10:49:08.878Z</time></trkpt><trkpt lat="45.735262486170114" lon="8.563820193539371"><ele>237.75</ele><time>2026-05-02T10:49:09.878Z</time></trkpt><trkpt lat="45.73517366683364" lon="8.563906243106477"><ele>237.5</ele><time>2026-05-02T10:49:10.878Z</time></trkpt><trkpt lat="45.7350809300577" lon="8.564004895024857"><ele>237.25</ele><time>2026-05-02T10:49:11.878Z</time></trkpt><trkpt lat="45.734991846076426" lon="8.564116029908165"><ele>237.0</ele><time>2026-05-02T10:49:12.878Z</time></trkpt><trkpt lat="45.73489430197786" lon="8.564230451543947"><ele>237.0</ele><time>2026-05-02T10:49:13.878Z</time></trkpt><trkpt lat="45.734783492536174" lon="8.564318434401121"><ele>237.0</ele><time>2026-05-02T10:49:14.878Z</time></trkpt><trkpt lat="45.73468104906474" lon="8.56443407751878"><ele>237.0</ele><time>2026-05-02T10:49:15.878Z</time></trkpt><trkpt lat="45.734586804074645" lon="8.56457957386893"><ele>237.0</ele><time>2026-05-02T10:49:16.878Z</time></trkpt><trkpt lat="45.73451684784054" lon="8.564739471121689"><ele>236.75</ele><time>2026-05-02T10:49:17.878Z</time></trkpt><trkpt lat="45.734453210545055" lon="8.56490487694332"><ele>236.5</ele><time>2026-05-02T10:49:18.878Z</time></trkpt><trkpt lat="45.734409083972686" lon="8.565102880553791"><ele>236.25</ele><time>2026-05-02T10:49:19.878Z</time></trkpt><trkpt lat="45.73435831353672" lon="8.565297849675034"><ele>236.0</ele><time>2026-05-02T10:49:20.878Z</time></trkpt><trkpt lat="45.734301487208505" lon="8.56548785077295"><ele>236.0</ele><time>2026-05-02T10:49:21.878Z</time></trkpt><trkpt lat="45.73424824576058" lon="8.56567029638401"><ele>236.0</ele><time>2026-05-02T10:49:22.878Z</time></trkpt><trkpt lat="45.73419925434153" lon="8.565856300073342"><ele>236.0</ele><time>2026-05-02T10:49:23.878Z</time></trkpt><trkpt lat="45.73412925952481" lon="8.566040400488257"><ele>236.0</ele><time>2026-05-02T10:49:24.878Z</time></trkpt><trkpt lat="45.734093454246434" lon="8.566241829559377"><ele>236.0</ele><time>2026-05-02T10:49:25.878Z</time></trkpt><trkpt lat="45.734057592989274" lon="8.566440549752626"><ele>236.0</ele><time>2026-05-02T10:49:26.878Z</time></trkpt><trkpt lat="45.73402612632848" lon="8.5666368164726"><ele>236.0</ele><time>2026-05-02T10:49:27.878Z</time></trkpt><trkpt lat="45.7339781621194" lon="8.566842574252451"><ele>236.0</ele><time>2026-05-02T10:49:28.878Z</time></trkpt><trkpt lat="45.7338831561068" lon="8.567002639563626"><ele>237.66666666666669</ele><time>2026-05-02T10:49:29.878Z</time></trkpt><trkpt lat="45.73378960261987" lon="8.56717646242688"><ele>239.33333333333331</ele><time>2026-05-02T10:49:30.878Z</time></trkpt><trkpt lat="45.733684116016754" lon="8.567330112193746"><ele>241.0</ele><time>2026-05-02T10:49:31.878Z</time></trkpt><trkpt lat="45.73357928607289" lon="8.567487210902762"><ele>239.66666666666666</ele><time>2026-05-02T10:49:32.878Z</time></trkpt><trkpt lat="45.73347143152199" lon="8.567641931097224"><ele>238.33333333333331</ele><time>2026-05-02T10:49:33.878Z</time></trkpt><trkpt lat="45.733360282365645" lon="8.56779872793214"><ele>237.0</ele><time>2026-05-02T10:49:34.878Z</time></trkpt><trkpt lat="45.73324530183497" lon="8.567941443331005"><ele>237.0</ele><time>2026-05-02T10:49:35.878Z</time></trkpt><trkpt lat="45.73313134581342" lon="8.568054677628522"><ele>237.0</ele><time>2026-05-02T10:49:36.878Z</time></trkpt><trkpt lat="45.73299924905728" lon="8.568181233712597"><ele>237.0</ele><time>2026-05-02T10:49:37.878Z</time></trkpt><trkpt lat="45.732863162168" lon="8.568335334776018"><ele>237.0</ele><time>2026-05-02T10:49:38.878Z</time></trkpt><trkpt lat="45.732720452042415" lon="8.568516650978175"><ele>237.0</ele><time>2026-05-02T10:49:39.878Z</time></trkpt><trkpt lat="45.73258940658064" lon="8.568706495741871"><ele>237.0</ele><time>2026-05-02T10:49:40.878Z</time></trkpt><trkpt lat="45.73246751004839" lon="8.568855690075809"><ele>237.0</ele><time>2026-05-02T10:49:41.878Z</time></trkpt><trkpt lat="45.73236195980033" lon="8.569015580316004"><ele>237.0</ele><time>2026-05-02T10:49:42.878Z</time></trkpt><trkpt lat="45.73225526543022" lon="8.569194867443748"><ele>237.0</ele><time>2026-05-02T10:49:43.878Z</time></trkpt><trkpt lat="45.732114235144294" lon="8.569340221499623"><ele>237.0</ele><time>2026-05-02T10:49:44.878Z</time></trkpt><trkpt lat="45.73197684572283" lon="8.569510843881812"><ele>237.0</ele><time>2026-05-02T10:49:45.878Z</time></trkpt><trkpt lat="45.731836216804716" lon="8.56968549230232"><ele>237.0</ele><time>2026-05-02T10:49:46.877Z</time></trkpt><trkpt lat="45.73168727135988" lon="8.56987065081987"><ele>236.66666666666669</ele><time>2026-05-02T10:49:47.877Z</time></trkpt><trkpt lat="45.731539425812" lon="8.570054496568744"><ele>236.33333333333334</ele><time>2026-05-02T10:49:48.877Z</time></trkpt><trkpt lat="45.73139388629387" lon="8.570234422391355"><ele>236.0</ele><time>2026-05-02T10:49:49.877Z</time></trkpt><trkpt lat="45.73126700034581" lon="8.57039215482302"><ele>235.75</ele><time>2026-05-02T10:49:50.877Z</time></trkpt><trkpt lat="45.731173895167835" lon="8.570508226105549"><ele>235.5</ele><time>2026-05-02T10:49:51.877Z</time></trkpt><trkpt lat="45.73108931437872" lon="8.570613670274652"><ele>235.25</ele><time>2026-05-02T10:49:52.877Z</time></trkpt><trkpt lat="45.73101646213553" lon="8.570734659433656"><ele>235.0</ele><time>2026-05-02T10:49:53.877Z</time></trkpt><trkpt lat="45.730928114659505" lon="8.570826470397536"><ele>234.75</ele><time>2026-05-02T10:49:54.877Z</time></trkpt><trkpt lat="45.73085484864673" lon="8.570929854796889"><ele>234.5</ele><time>2026-05-02T10:49:55.876Z</time></trkpt><trkpt lat="45.73075793748484" lon="8.571017718703022"><ele>234.25</ele><time>2026-05-02T10:49:56.876Z</time></trkpt><trkpt lat="45.73066687321127" lon="8.571124865628738"><ele>234.0</ele><time>2026-05-02T10:49:57.876Z</time></trkpt><trkpt lat="45.73057123187037" lon="8.571233616090721"><ele>233.75</ele><time>2026-05-02T10:49:58.877Z</time></trkpt><trkpt lat="45.730465470055066" lon="8.571354074405413"><ele>233.5</ele><time>2026-05-02T10:49:59.876Z</time></trkpt><trkpt lat="45.73035816126958" lon="8.57147647828854"><ele>233.25</ele><time>2026-05-02T10:50:00.876Z</time></trkpt><trkpt lat="45.7302568048813" lon="8.571594245904787"><ele>233.0</ele><time>2026-05-02T10:50:01.876Z</time></trkpt><trkpt lat="45.730169266536" lon="8.571714145076902"><ele>233.0</ele><time>2026-05-02T10:50:02.876Z</time></trkpt><trkpt lat="45.73011178391078" lon="8.571826828565523"><ele>233.0</ele><time>2026-05-02T10:50:03.876Z</time></trkpt><trkpt lat="45.73007363212884" lon="8.571906625764612"><ele>233.0</ele><time>2026-05-02T10:50:04.876Z</time></trkpt><trkpt lat="45.730071842497495" lon="8.572082453583274"><ele>233.0</ele><time>2026-05-02T10:50:06.876Z</time></trkpt><trkpt lat="45.730154655945576" lon="8.572156438834131"><ele>233.0</ele><time>2026-05-02T10:50:07.876Z</time></trkpt><trkpt lat="45.73019697954661" lon="8.572247567282892"><ele>232.60000000000002</ele><time>2026-05-02T10:50:08.876Z</time></trkpt><trkpt lat="45.73021561390879" lon="8.572419452108127"><ele>232.20000000000002</ele><time>2026-05-02T10:50:10.876Z</time></trkpt><trkpt lat="45.7301287844312" lon="8.572506518339523"><ele>231.8</ele><time>2026-05-02T10:50:11.876Z</time></trkpt><trkpt lat="45.73004069392069" lon="8.572555166600791"><ele>231.4</ele><time>2026-05-02T10:50:12.876Z</time></trkpt><trkpt lat="45.72996500020034" lon="8.572614880742194"><ele>231.0</ele><time>2026-05-02T10:50:13.876Z</time></trkpt><trkpt lat="45.72988706518207" lon="8.57267704172637"><ele>231.0</ele><time>2026-05-02T10:50:14.876Z</time></trkpt><trkpt lat="45.72981489513904" lon="8.572737049998082"><ele>231.0</ele><time>2026-05-02T10:50:15.876Z</time></trkpt><trkpt lat="45.72974066583056" lon="8.572802184472668"><ele>231.0</ele><time>2026-05-02T10:50:17.876Z</time></trkpt><trkpt lat="45.72986587247315" lon="8.57303382557198"><ele>231.0</ele><time>2026-05-02T10:50:19.876Z</time></trkpt><trkpt lat="45.72993499136353" lon="8.57313012721509"><ele>230.4</ele><time>2026-05-02T10:50:20.876Z</time></trkpt><trkpt lat="45.73000316976497" lon="8.573245891524524"><ele>229.8</ele><time>2026-05-02T10:50:21.876Z</time></trkpt><trkpt lat="45.730071614385196" lon="8.573348842666562"><ele>229.20000000000002</ele><time>2026-05-02T10:50:22.876Z</time></trkpt><trkpt lat="45.73015136588355" lon="8.57345684877169"><ele>228.60000000000002</ele><time>2026-05-02T10:50:23.876Z</time></trkpt><trkpt lat="45.73022479987694" lon="8.573554295926659"><ele>228.0</ele><time>2026-05-02T10:50:24.876Z</time></trkpt><trkpt lat="45.73026272446052" lon="8.573673019671952"><ele>226.8</ele><time>2026-05-02T10:50:25.876Z</time></trkpt><trkpt lat="45.730313662975036" lon="8.573801782779523"><ele>225.60000000000002</ele><time>2026-05-02T10:50:26.876Z</time></trkpt><trkpt lat="45.73036779342268" lon="8.573940621961777"><ele>224.39999999999998</ele><time>2026-05-02T10:50:27.876Z</time></trkpt><trkpt lat="45.730409222247374" lon="8.5740611232679"><ele>223.2</ele><time>2026-05-02T10:50:28.876Z</time></trkpt><trkpt lat="45.730437281743676" lon="8.574165833944752"><ele>222.0</ele><time>2026-05-02T10:50:29.876Z</time></trkpt><trkpt lat="45.73043667564838" lon="8.574282397188874"><ele>222.0</ele><time>2026-05-02T10:50:31.876Z</time></trkpt><trkpt lat="45.73038261941027" lon="8.574338621158951"><ele>222.0</ele><time>2026-05-02T10:50:32.876Z</time></trkpt><trkpt lat="45.73034384585541" lon="8.574452217640648"><ele>222.0</ele><time>2026-05-02T10:50:33.876Z</time></trkpt><trkpt lat="45.73030731674361" lon="8.574565290633391"><ele>222.0</ele><time>2026-05-02T10:50:34.876Z</time></trkpt><trkpt lat="45.7302669584927" lon="8.57469502797438"><ele>222.0</ele><time>2026-05-02T10:50:35.876Z</time></trkpt><trkpt lat="45.7302276244046" lon="8.574835536030154"><ele>222.0</ele><time>2026-05-02T10:50:36.876Z</time></trkpt><trkpt lat="45.73019856393558" lon="8.574980578568804"><ele>220.39999999999998</ele><time>2026-05-02T10:50:37.876Z</time></trkpt><trkpt lat="45.730188266818985" lon="8.57512128066695"><ele>218.79999999999998</ele><time>2026-05-02T10:50:38.876Z</time></trkpt><trkpt lat="45.730186952564814" lon="8.575258869992512"><ele>217.2</ele><time>2026-05-02T10:50:39.876Z</time></trkpt><trkpt lat="45.73020284247327" lon="8.575399001578097"><ele>215.6</ele><time>2026-05-02T10:50:40.876Z</time></trkpt><trkpt lat="45.730245266641035" lon="8.575525836091328"><ele>214.0</ele><time>2026-05-02T10:50:41.876Z</time></trkpt><trkpt lat="45.730311437434445" lon="8.575615874506644"><ele>212.49999999999997</ele><time>2026-05-02T10:50:42.876Z</time></trkpt><trkpt lat="45.73037255003744" lon="8.575711934783467"><ele>211.0</ele><time>2026-05-02T10:50:43.876Z</time></trkpt><trkpt lat="45.73042619786389" lon="8.575801150620704"><ele>209.5</ele><time>2026-05-02T10:50:44.876Z</time></trkpt><trkpt lat="45.73047562578657" lon="8.575884227258875"><ele>208.0</ele><time>2026-05-02T10:50:45.876Z</time></trkpt><trkpt lat="45.7305104157723" lon="8.575980294711067"><ele>206.49999999999997</ele><time>2026-05-02T10:50:46.876Z</time></trkpt><trkpt lat="45.730508943842004" lon="8.576092882056164"><ele>205.0</ele><time>2026-05-02T10:50:47.876Z</time></trkpt><trkpt lat="45.73048133784918" lon="8.576174071305312"><ele>204.49999999999997</ele><time>2026-05-02T10:50:48.876Z</time></trkpt><trkpt lat="45.7304312197363" lon="8.576234583118547"><ele>204.0</ele><time>2026-05-02T10:50:49.876Z</time></trkpt><trkpt lat="45.730372227585065" lon="8.57627159028936"><ele>203.5</ele><time>2026-05-02T10:50:50.876Z</time></trkpt><trkpt lat="45.730303479772964" lon="8.576342946199553"><ele>203.0</ele><time>2026-05-02T10:50:51.876Z</time></trkpt><trkpt lat="45.7302575533527" lon="8.57643065084868"><ele>202.49999999999997</ele><time>2026-05-02T10:50:52.876Z</time></trkpt><trkpt lat="45.730261764079536" lon="8.57654694836244"><ele>202.0</ele><time>2026-05-02T10:50:53.876Z</time></trkpt><trkpt lat="45.730290089959745" lon="8.576717940697403"><ele>201.99999999999997</ele><time>2026-05-02T10:50:55.876Z</time></trkpt><trkpt lat="45.73036093518217" lon="8.576817746426338"><ele>202.0</ele><time>2026-05-02T10:50:57.876Z</time></trkpt><trkpt lat="45.730418152028264" lon="8.57685911449218"><ele>202.0</ele><time>2026-05-02T10:50:59.876Z</time></trkpt><trkpt lat="45.73045559037696" lon="8.576982327562"><ele>202.0</ele><time>2026-05-02T10:51:01.876Z</time></trkpt><trkpt lat="45.73042819728251" lon="8.577074087739872"><ele>201.99999999999997</ele><time>2026-05-02T10:51:02.876Z</time></trkpt><trkpt lat="45.73035688251724" lon="8.577166617277243"><ele>202.0</ele><time>2026-05-02T10:51:03.876Z</time></trkpt><trkpt lat="45.73025676172981" lon="8.57725825512601"><ele>202.5</ele><time>2026-05-02T10:51:04.875Z</time></trkpt><trkpt lat="45.7301490981358" lon="8.5773446108294"><ele>203.0</ele><time>2026-05-02T10:51:05.875Z</time></trkpt><trkpt lat="45.73003248059224" lon="8.577430535800772"><ele>203.5</ele><time>2026-05-02T10:51:06.875Z</time></trkpt><trkpt lat="45.72991281379126" lon="8.57752060802831"><ele>204.0</ele><time>2026-05-02T10:51:07.875Z</time></trkpt><trkpt lat="45.72979178783135" lon="8.577610901031012"><ele>204.0</ele><time>2026-05-02T10:51:08.875Z</time></trkpt><trkpt lat="45.72967642406456" lon="8.57770037928124"><ele>204.0</ele><time>2026-05-02T10:51:09.875Z</time></trkpt><trkpt lat="45.72956320228707" lon="8.57779359416856"><ele>204.0</ele><time>2026-05-02T10:51:10.875Z</time></trkpt><trkpt lat="45.72945199705233" lon="8.577884911067224"><ele>204.0</ele><time>2026-05-02T10:51:11.875Z</time></trkpt><trkpt lat="45.72934642661181" lon="8.577973681466796"><ele>204.0</ele><time>2026-05-02T10:51:12.875Z</time></trkpt><trkpt lat="45.72924300582312" lon="8.578043286898145"><ele>204.0</ele><time>2026-05-02T10:51:13.875Z</time></trkpt><trkpt lat="45.72914917647114" lon="8.578132794954273"><ele>204.0</ele><time>2026-05-02T10:51:14.875Z</time></trkpt><trkpt lat="45.72904792310263" lon="8.578210430525944"><ele>204.0</ele><time>2026-05-02T10:51:15.875Z</time></trkpt><trkpt lat="45.72894078315538" lon="8.578289395619548"><ele>204.0</ele><time>2026-05-02T10:51:16.875Z</time></trkpt><trkpt lat="45.72882957050245" lon="8.578376112000855"><ele>204.0</ele><time>2026-05-02T10:51:17.875Z</time></trkpt><trkpt lat="45.72871184206121" lon="8.57845306488143"><ele>204.0</ele><time>2026-05-02T10:51:18.875Z</time></trkpt><trkpt lat="45.72860007393375" lon="8.578546428288442"><ele>204.0</ele><time>2026-05-02T10:51:19.875Z</time></trkpt><trkpt lat="45.72848201327608" lon="8.578626980992189"><ele>203.75</ele><time>2026-05-02T10:51:20.875Z</time></trkpt><trkpt lat="45.728366140739354" lon="8.578717448731172"><ele>203.5</ele><time>2026-05-02T10:51:21.875Z</time></trkpt><trkpt lat="45.72826207675012" lon="8.57880818963267"><ele>203.25</ele><time>2026-05-02T10:51:22.875Z</time></trkpt><trkpt lat="45.728166517130454" lon="8.578898093501781"><ele>203.0</ele><time>2026-05-02T10:51:23.875Z</time></trkpt><trkpt lat="45.72807689875511" lon="8.578979026690051"><ele>203.0</ele><time>2026-05-02T10:51:24.875Z</time></trkpt><trkpt lat="45.72798653978073" lon="8.579061926393555"><ele>203.0</ele><time>2026-05-02T10:51:25.875Z</time></trkpt><trkpt lat="45.727904522662456" lon="8.579139799848745"><ele>203.0</ele><time>2026-05-02T10:51:26.875Z</time></trkpt><trkpt lat="45.72782879484716" lon="8.579218785627853"><ele>203.0</ele><time>2026-05-02T10:51:27.875Z</time></trkpt><trkpt lat="45.727761882956244" lon="8.579287531897783"><ele>203.0</ele><time>2026-05-02T10:51:28.875Z</time></trkpt><trkpt lat="45.72769293261928" lon="8.579332970654683"><ele>202.83333333333334</ele><time>2026-05-02T10:51:29.875Z</time></trkpt><trkpt lat="45.727624593271095" lon="8.579363149875713"><ele>202.66666666666669</ele><time>2026-05-02T10:51:30.875Z</time></trkpt><trkpt lat="45.72755714328513" lon="8.579396859862957"><ele>202.5</ele><time>2026-05-02T10:51:31.875Z</time></trkpt><trkpt lat="45.72749667274004" lon="8.579465372803087"><ele>202.33333333333331</ele><time>2026-05-02T10:51:32.875Z</time></trkpt><trkpt lat="45.727412661698736" lon="8.579542921506965"><ele>202.16666666666666</ele><time>2026-05-02T10:51:33.875Z</time></trkpt><trkpt lat="45.72730369653078" lon="8.57956965146913"><ele>202.0</ele><time>2026-05-02T10:51:34.875Z</time></trkpt><trkpt lat="45.72718906594893" lon="8.579646462667935"><ele>202.0</ele><time>2026-05-02T10:51:35.875Z</time></trkpt><trkpt lat="45.727088394949476" lon="8.579751441237784"><ele>202.0</ele><time>2026-05-02T10:51:36.875Z</time></trkpt><trkpt lat="45.72697696639836" lon="8.579826315781911"><ele>202.0</ele><time>2026-05-02T10:51:37.875Z</time></trkpt><trkpt lat="45.72686465901645" lon="8.579911358615112"><ele>202.0</ele><time>2026-05-02T10:51:38.875Z</time></trkpt><trkpt lat="45.726754707790384" lon="8.579994502757962"><ele>202.0</ele><time>2026-05-02T10:51:39.875Z</time></trkpt><trkpt lat="45.726642254628715" lon="8.580078826950764"><ele>202.0</ele><time>2026-05-02T10:51:40.875Z</time></trkpt><trkpt lat="45.72653590981967" lon="8.580164082912257"><ele>202.0</ele><time>2026-05-02T10:51:41.875Z</time></trkpt><trkpt lat="45.72643078043919" lon="8.58024418789472"><ele>202.0</ele><time>2026-05-02T10:51:42.875Z</time></trkpt><trkpt lat="45.72632728128226" lon="8.580320287974628"><ele>201.75</ele><time>2026-05-02T10:51:43.875Z</time></trkpt><trkpt lat="45.7262191481336" lon="8.580395081511023"><ele>201.5</ele><time>2026-05-02T10:51:44.875Z</time></trkpt><trkpt lat="45.72610797703206" lon="8.580472086379537"><ele>201.25</ele><time>2026-05-02T10:51:45.875Z</time></trkpt><trkpt lat="45.726000292573524" lon="8.580565706152601"><ele>201.0</ele><time>2026-05-02T10:51:46.875Z</time></trkpt><trkpt lat="45.72589162919462" lon="8.580662013036088"><ele>201.5</ele><time>2026-05-02T10:51:47.875Z</time></trkpt><trkpt lat="45.725774542798426" lon="8.580760674224145"><ele>202.0</ele><time>2026-05-02T10:51:48.875Z</time></trkpt><trkpt lat="45.725656747058665" lon="8.580859672296766"><ele>202.5</ele><time>2026-05-02T10:51:49.875Z</time></trkpt><trkpt lat="45.72552956009039" lon="8.580933583637211"><ele>203.0</ele><time>2026-05-02T10:51:50.875Z</time></trkpt><trkpt lat="45.725413072624114" lon="8.581037140949316"><ele>203.0</ele><time>2026-05-02T10:51:51.875Z</time></trkpt><trkpt lat="45.7252992221215" lon="8.581140342843192"><ele>203.0</ele><time>2026-05-02T10:51:52.875Z</time></trkpt><trkpt lat="45.7251784590155" lon="8.581243833337549"><ele>203.0</ele><time>2026-05-02T10:51:53.875Z</time></trkpt><trkpt lat="45.72504975271056" lon="8.581327288058946"><ele>203.0</ele><time>2026-05-02T10:51:54.875Z</time></trkpt><trkpt lat="45.724933358088386" lon="8.581426740338417"><ele>202.5</ele><time>2026-05-02T10:51:55.874Z</time></trkpt><trkpt lat="45.72481829584645" lon="8.581517574976564"><ele>202.0</ele><time>2026-05-02T10:51:56.874Z</time></trkpt><trkpt lat="45.72471442230589" lon="8.58160303844734"><ele>201.5</ele><time>2026-05-02T10:51:57.874Z</time></trkpt><trkpt lat="45.724613454370484" lon="8.58166518400324"><ele>201.0</ele><time>2026-05-02T10:51:58.874Z</time></trkpt><trkpt lat="45.724521790927646" lon="8.581741386565993"><ele>201.0</ele><time>2026-05-02T10:51:59.874Z</time></trkpt><trkpt lat="45.72442470996526" lon="8.58182698414905"><ele>201.0</ele><time>2026-05-02T10:52:00.874Z</time></trkpt><trkpt lat="45.72433204955371" lon="8.58190652592059"><ele>201.0</ele><time>2026-05-02T10:52:01.874Z</time></trkpt><trkpt lat="45.724246246087866" lon="8.5819853199312"><ele>201.0</ele><time>2026-05-02T10:52:02.874Z</time></trkpt><trkpt lat="45.72414796756797" lon="8.582051628197956"><ele>201.0</ele><time>2026-05-02T10:52:03.874Z</time></trkpt><trkpt lat="45.72404951591837" lon="8.582136966736236"><ele>200.75</ele><time>2026-05-02T10:52:04.875Z</time></trkpt><trkpt lat="45.72394381425468" lon="8.582223867171857"><ele>200.5</ele><time>2026-05-02T10:52:05.874Z</time></trkpt><trkpt lat="45.72383089033025" lon="8.582317288933577"><ele>200.25</ele><time>2026-05-02T10:52:06.874Z</time></trkpt><trkpt lat="45.72371002198595" lon="8.58241079734926"><ele>200.0</ele><time>2026-05-02T10:52:07.874Z</time></trkpt><trkpt lat="45.72357982757428" lon="8.582504800469927"><ele>200.66666666666669</ele><time>2026-05-02T10:52:08.874Z</time></trkpt><trkpt lat="45.72344246210614" lon="8.582603269130695"><ele>201.33333333333331</ele><time>2026-05-02T10:52:09.874Z</time></trkpt><trkpt lat="45.72330094350723" lon="8.582711166988211"><ele>202.0</ele><time>2026-05-02T10:52:10.874Z</time></trkpt><trkpt lat="45.72316032969403" lon="8.58281918509118"><ele>202.0</ele><time>2026-05-02T10:52:11.874Z</time></trkpt><trkpt lat="45.723016701715075" lon="8.582925736685963"><ele>202.0</ele><time>2026-05-02T10:52:12.874Z</time></trkpt><trkpt lat="45.72286638055537" lon="8.583031968686582"><ele>202.0</ele><time>2026-05-02T10:52:13.874Z</time></trkpt><trkpt lat="45.7227122493639" lon="8.58313850865641"><ele>202.33333333333331</ele><time>2026-05-02T10:52:14.874Z</time></trkpt><trkpt lat="45.722558341484664" lon="8.583250268594451"><ele>202.66666666666669</ele><time>2026-05-02T10:52:15.874Z</time></trkpt><trkpt lat="45.72240419196305" lon="8.58336863100509"><ele>203.0</ele><time>2026-05-02T10:52:16.874Z</time></trkpt><trkpt lat="45.722247567684114" lon="8.583497742174478"><ele>203.0</ele><time>2026-05-02T10:52:17.874Z</time></trkpt><trkpt lat="45.722091378310374" lon="8.583612413450693"><ele>203.0</ele><time>2026-05-02T10:52:18.874Z</time></trkpt><trkpt lat="45.72193441339359" lon="8.583726762463895"><ele>203.0</ele><time>2026-05-02T10:52:19.874Z</time></trkpt><trkpt lat="45.72178436204814" lon="8.583850381698873"><ele>202.33333333333334</ele><time>2026-05-02T10:52:20.874Z</time></trkpt><trkpt lat="45.72163780948302" lon="8.583975289596763"><ele>201.66666666666669</ele><time>2026-05-02T10:52:21.874Z</time></trkpt><trkpt lat="45.72149411453133" lon="8.584099126822098"><ele>201.0</ele><time>2026-05-02T10:52:22.874Z</time></trkpt><trkpt lat="45.72134728743279" lon="8.584216058904927"><ele>201.0</ele><time>2026-05-02T10:52:23.874Z</time></trkpt><trkpt lat="45.72120566235627" lon="8.584345115464611"><ele>201.0</ele><time>2026-05-02T10:52:24.874Z</time></trkpt><trkpt lat="45.72107041119358" lon="8.584476048818932"><ele>201.0</ele><time>2026-05-02T10:52:25.874Z</time></trkpt><trkpt lat="45.72093780263818" lon="8.584599806827317"><ele>201.33333333333331</ele><time>2026-05-02T10:52:26.874Z</time></trkpt><trkpt lat="45.72079587767824" lon="8.58472193268253"><ele>201.66666666666666</ele><time>2026-05-02T10:52:27.874Z</time></trkpt><trkpt lat="45.72065815528238" lon="8.584844846208501"><ele>202.0</ele><time>2026-05-02T10:52:28.874Z</time></trkpt><trkpt lat="45.72051876154124" lon="8.584971234401655"><ele>202.0</ele><time>2026-05-02T10:52:29.874Z</time></trkpt><trkpt lat="45.72038918885161" lon="8.585105391437002"><ele>202.0</ele><time>2026-05-02T10:52:30.874Z</time></trkpt><trkpt lat="45.720268769566864" lon="8.585254475075468"><ele>202.0</ele><time>2026-05-02T10:52:31.874Z</time></trkpt><trkpt lat="45.72015316087643" lon="8.585410738325919"><ele>202.0</ele><time>2026-05-02T10:52:32.874Z</time></trkpt><trkpt lat="45.72004367681958" lon="8.585553936165075"><ele>202.0</ele><time>2026-05-02T10:52:33.874Z</time></trkpt><trkpt lat="45.71993877643518" lon="8.585673809702802"><ele>202.0</ele><time>2026-05-02T10:52:34.874Z</time></trkpt><trkpt lat="45.719845592624715" lon="8.585780409990463"><ele>202.0</ele><time>2026-05-02T10:52:35.874Z</time></trkpt><trkpt lat="45.71976992905206" lon="8.585878736065427"><ele>202.0</ele><time>2026-05-02T10:52:36.874Z</time></trkpt><trkpt lat="45.71970322814725" lon="8.585959483876726"><ele>202.0</ele><time>2026-05-02T10:52:37.874Z</time></trkpt><trkpt lat="45.71968623432718" lon="8.586075382398647"><ele>202.0</ele><time>2026-05-02T10:52:38.874Z</time></trkpt><trkpt lat="45.71973268679218" lon="8.586209697357644"><ele>202.0</ele><time>2026-05-02T10:52:39.874Z</time></trkpt><trkpt lat="45.71977884439419" lon="8.58634389900966"><ele>202.0</ele><time>2026-05-02T10:52:40.874Z</time></trkpt><trkpt lat="45.71983261503695" lon="8.58649331136176"><ele>202.25</ele><time>2026-05-02T10:52:41.874Z</time></trkpt><trkpt lat="45.71988101139517" lon="8.586677532811127"><ele>202.5</ele><time>2026-05-02T10:52:42.874Z</time></trkpt><trkpt lat="45.719905274467436" lon="8.586874406708967"><ele>202.75</ele><time>2026-05-02T10:52:43.874Z</time></trkpt><trkpt lat="45.71990307496688" lon="8.58708573695324"><ele>203.0</ele><time>2026-05-02T10:52:44.874Z</time></trkpt><trkpt lat="45.71989732888042" lon="8.587309323685533"><ele>203.33333333333334</ele><time>2026-05-02T10:52:45.874Z</time></trkpt><trkpt lat="45.71988325387438" lon="8.58754591441712"><ele>203.66666666666669</ele><time>2026-05-02T10:52:46.874Z</time></trkpt><trkpt lat="45.719869926591365" lon="8.58778078660788"><ele>204.0</ele><time>2026-05-02T10:52:47.874Z</time></trkpt><trkpt lat="45.71985580447209" lon="8.588014792978539"><ele>204.0</ele><time>2026-05-02T10:52:48.874Z</time></trkpt><trkpt lat="45.71982591616505" lon="8.5882578088474"><ele>204.0</ele><time>2026-05-02T10:52:49.874Z</time></trkpt><trkpt lat="45.71980468648259" lon="8.58849657735196"><ele>204.0</ele><time>2026-05-02T10:52:50.874Z</time></trkpt><trkpt lat="45.719786331840524" lon="8.588736739253905"><ele>204.0</ele><time>2026-05-02T10:52:51.874Z</time></trkpt><trkpt lat="45.719773824739455" lon="8.588969912693909"><ele>204.0</ele><time>2026-05-02T10:52:52.874Z</time></trkpt><trkpt lat="45.71975909682463" lon="8.58919660936414"><ele>204.0</ele><time>2026-05-02T10:52:53.874Z</time></trkpt><trkpt lat="45.71974288508594" lon="8.589424192588192"><ele>204.33333333333331</ele><time>2026-05-02T10:52:54.874Z</time></trkpt><trkpt lat="45.719734849624345" lon="8.589648581115496"><ele>204.66666666666666</ele><time>2026-05-02T10:52:55.874Z</time></trkpt><trkpt lat="45.719718912773494" lon="8.589873930960445"><ele>205.0</ele><time>2026-05-02T10:52:56.874Z</time></trkpt><trkpt lat="45.71969491328394" lon="8.590084600896246"><ele>205.0</ele><time>2026-05-02T10:52:57.873Z</time></trkpt><trkpt lat="45.71965679931424" lon="8.590275621586319"><ele>205.0</ele><time>2026-05-02T10:52:58.873Z</time></trkpt><trkpt lat="45.71960194575581" lon="8.590441809585123"><ele>205.0</ele><time>2026-05-02T10:52:59.873Z</time></trkpt><trkpt lat="45.719534354324566" lon="8.590583911585927"><ele>205.0</ele><time>2026-05-02T10:53:00.873Z</time></trkpt><trkpt lat="45.719462276352466" lon="8.59072981301217"><ele>204.8</ele><time>2026-05-02T10:53:01.873Z</time></trkpt><trkpt lat="45.719416606479044" lon="8.59086732708809"><ele>204.6</ele><time>2026-05-02T10:53:02.873Z</time></trkpt><trkpt lat="45.71940664505255" lon="8.591005507822626"><ele>204.39999999999998</ele><time>2026-05-02T10:53:03.873Z</time></trkpt><trkpt lat="45.719429889415785" lon="8.591129078147604"><ele>204.2</ele><time>2026-05-02T10:53:04.873Z</time></trkpt><trkpt lat="45.719490148768124" lon="8.591252809961253"><ele>204.0</ele><time>2026-05-02T10:53:05.873Z</time></trkpt><trkpt lat="45.719557168407945" lon="8.591394132169086"><ele>204.5</ele><time>2026-05-02T10:53:06.873Z</time></trkpt><trkpt lat="45.71961389574794" lon="8.591557558691694"><ele>205.0</ele><time>2026-05-02T10:53:07.873Z</time></trkpt><trkpt lat="45.71964083804935" lon="8.591746785531374"><ele>205.5</ele><time>2026-05-02T10:53:08.873Z</time></trkpt><trkpt lat="45.719647974845834" lon="8.591953130044052"><ele>206.0</ele><time>2026-05-02T10:53:09.873Z</time></trkpt><trkpt lat="45.71965109146938" lon="8.592157896855689"><ele>206.33333333333334</ele><time>2026-05-02T10:53:10.873Z</time></trkpt><trkpt lat="45.719647903566205" lon="8.59237406508528"><ele>206.66666666666669</ele><time>2026-05-02T10:53:11.873Z</time></trkpt><trkpt lat="45.71964029965032" lon="8.592600027406549"><ele>207.0</ele><time>2026-05-02T10:53:12.873Z</time></trkpt><trkpt lat="45.71960460313706" lon="8.592829362197856"><ele>206.33333333333331</ele><time>2026-05-02T10:53:13.873Z</time></trkpt><trkpt lat="45.71958704707741" lon="8.593073390866618"><ele>205.66666666666666</ele><time>2026-05-02T10:53:14.873Z</time></trkpt><trkpt lat="45.71957027149829" lon="8.593313511098268"><ele>205.0</ele><time>2026-05-02T10:53:15.873Z</time></trkpt><trkpt lat="45.71955302306244" lon="8.593562359202252"><ele>204.66666666666666</ele><time>2026-05-02T10:53:16.873Z</time></trkpt><trkpt lat="45.71953370625218" lon="8.593841048186412"><ele>204.33333333333331</ele><time>2026-05-02T10:53:17.873Z</time></trkpt><trkpt lat="45.719514129377174" lon="8.594121889843974"><ele>204.0</ele><time>2026-05-02T10:53:18.873Z</time></trkpt><trkpt lat="45.71951038212739" lon="8.594402182826371"><ele>204.33333333333331</ele><time>2026-05-02T10:53:19.873Z</time></trkpt><trkpt lat="45.7194760225557" lon="8.594666094780212"><ele>204.66666666666666</ele><time>2026-05-02T10:53:20.873Z</time></trkpt><trkpt lat="45.71948022510773" lon="8.594933826536026"><ele>205.0</ele><time>2026-05-02T10:53:21.873Z</time></trkpt><trkpt lat="45.719458574264216" lon="8.595172645220368"><ele>205.0</ele><time>2026-05-02T10:53:22.873Z</time></trkpt><trkpt lat="45.71943059644771" lon="8.595405770990777"><ele>205.0</ele><time>2026-05-02T10:53:23.873Z</time></trkpt><trkpt lat="45.71940677684549" lon="8.595619176344233"><ele>205.0</ele><time>2026-05-02T10:53:24.873Z</time></trkpt><trkpt lat="45.719393055818166" lon="8.595829838461876"><ele>204.75</ele><time>2026-05-02T10:53:25.873Z</time></trkpt><trkpt lat="45.71937670890292" lon="8.596020755206313"><ele>204.5</ele><time>2026-05-02T10:53:26.873Z</time></trkpt><trkpt lat="45.71936277937382" lon="8.59622540194696"><ele>204.25</ele><time>2026-05-02T10:53:27.873Z</time></trkpt><trkpt lat="45.71935333845109" lon="8.59643079704562"><ele>204.0</ele><time>2026-05-02T10:53:28.873Z</time></trkpt><trkpt lat="45.71934755908712" lon="8.596636940412123"><ele>203.75</ele><time>2026-05-02T10:53:29.873Z</time></trkpt><trkpt lat="45.719325034504806" lon="8.596836222811183"><ele>203.5</ele><time>2026-05-02T10:53:30.873Z</time></trkpt><trkpt lat="45.71931513201285" lon="8.597037222399956"><ele>203.25</ele><time>2026-05-02T10:53:31.873Z</time></trkpt><trkpt lat="45.7193083016652" lon="8.597237838058298"><ele>203.0</ele><time>2026-05-02T10:53:32.873Z</time></trkpt><trkpt lat="45.71930522750312" lon="8.597439882669207"><ele>203.0</ele><time>2026-05-02T10:53:33.873Z</time></trkpt><trkpt lat="45.719306976107426" lon="8.59763927243665"><ele>203.0</ele><time>2026-05-02T10:53:34.873Z</time></trkpt><trkpt lat="45.71933537606525" lon="8.597844558361242"><ele>203.0</ele><time>2026-05-02T10:53:35.873Z</time></trkpt><trkpt lat="45.71933288920715" lon="8.598054206562667"><ele>203.0</ele><time>2026-05-02T10:53:36.873Z</time></trkpt><trkpt lat="45.719333519110414" lon="8.598253758218158"><ele>202.75</ele><time>2026-05-02T10:53:37.873Z</time></trkpt><trkpt lat="45.71934047258483" lon="8.59843703785008"><ele>202.5</ele><time>2026-05-02T10:53:38.873Z</time></trkpt><trkpt lat="45.7193341202233" lon="8.598625137821147"><ele>202.25</ele><time>2026-05-02T10:53:39.873Z</time></trkpt><trkpt lat="45.71933387540552" lon="8.598782892279848"><ele>202.0</ele><time>2026-05-02T10:53:40.873Z</time></trkpt><trkpt lat="45.71934255298877" lon="8.598944674359352"><ele>201.75</ele><time>2026-05-02T10:53:41.873Z</time></trkpt><trkpt lat="45.71935371860867" lon="8.599114562943376"><ele>201.5</ele><time>2026-05-02T10:53:42.873Z</time></trkpt><trkpt lat="45.719355516310074" lon="8.59930156513519"><ele>201.25</ele><time>2026-05-02T10:53:43.873Z</time></trkpt><trkpt lat="45.719352014441824" lon="8.599496576115905"><ele>201.0</ele><time>2026-05-02T10:53:44.873Z</time></trkpt><trkpt lat="45.719359479156765" lon="8.59970647438489"><ele>200.66666666666669</ele><time>2026-05-02T10:53:45.873Z</time></trkpt><trkpt lat="45.719366261000836" lon="8.599954633481302"><ele>200.33333333333334</ele><time>2026-05-02T10:53:46.873Z</time></trkpt><trkpt lat="45.719363130968496" lon="8.600177039622851"><ele>200.0</ele><time>2026-05-02T10:53:47.873Z</time></trkpt><trkpt lat="45.71936168178349" lon="8.600409359389348"><ele>201.0</ele><time>2026-05-02T10:53:48.873Z</time></trkpt><trkpt lat="45.71934723052561" lon="8.60064215719593"><ele>202.0</ele><time>2026-05-02T10:53:49.873Z</time></trkpt><trkpt lat="45.71937357277076" lon="8.600869309965635"><ele>203.0</ele><time>2026-05-02T10:53:50.873Z</time></trkpt><trkpt lat="45.71938643213213" lon="8.601087205502285"><ele>203.66666666666669</ele><time>2026-05-02T10:53:51.873Z</time></trkpt><trkpt lat="45.71939507555743" lon="8.601308979106014"><ele>204.33333333333331</ele><time>2026-05-02T10:53:52.873Z</time></trkpt><trkpt lat="45.71939669530631" lon="8.601548262509244"><ele>205.0</ele><time>2026-05-02T10:53:53.873Z</time></trkpt><trkpt lat="45.7194096748736" lon="8.601740943932326"><ele>205.0</ele><time>2026-05-02T10:53:54.873Z</time></trkpt><trkpt lat="45.71936810593602" lon="8.601903563285713"><ele>205.0</ele><time>2026-05-02T10:53:55.873Z</time></trkpt><trkpt lat="45.719441939104485" lon="8.602042520536004"><ele>205.0</ele><time>2026-05-02T10:53:56.873Z</time></trkpt><trkpt lat="45.719447256606195" lon="8.602176208602966"><ele>205.0</ele><time>2026-05-02T10:53:57.873Z</time></trkpt><trkpt lat="45.719454188953996" lon="8.60231230251036"><ele>205.0</ele><time>2026-05-02T10:53:58.873Z</time></trkpt><trkpt lat="45.71945227797057" lon="8.602464629066715"><ele>205.2</ele><time>2026-05-02T10:53:59.873Z</time></trkpt><trkpt lat="45.7194542974949" lon="8.602621136514973"><ele>205.4</ele><time>2026-05-02T10:54:00.873Z</time></trkpt><trkpt lat="45.71945591374239" lon="8.602780556244324"><ele>205.60000000000002</ele><time>2026-05-02T10:54:01.873Z</time></trkpt><trkpt lat="45.71941814730032" lon="8.602916735357315"><ele>205.8</ele><time>2026-05-02T10:54:02.872Z</time></trkpt><trkpt lat="45.7194352181593" lon="8.603018301205976"><ele>206.0</ele><time>2026-05-02T10:54:03.872Z</time></trkpt><trkpt lat="45.719412704714095" lon="8.603102861304142"><ele>206.16666666666669</ele><time>2026-05-02T10:54:04.872Z</time></trkpt><trkpt lat="45.71940853714865" lon="8.603206256989587"><ele>206.33333333333334</ele><time>2026-05-02T10:54:05.873Z</time></trkpt><trkpt lat="45.719420262712696" lon="8.603321271620475"><ele>206.5</ele><time>2026-05-02T10:54:06.873Z</time></trkpt><trkpt lat="45.719451932818544" lon="8.603402161077007"><ele>206.66666666666669</ele><time>2026-05-02T10:54:07.873Z</time></trkpt><trkpt lat="45.71955672859412" lon="8.603406513229935"><ele>206.83333333333334</ele><time>2026-05-02T10:54:08.872Z</time></trkpt><trkpt lat="45.7196703925309" lon="8.603345892424796"><ele>207.0</ele><time>2026-05-02T10:54:10.872Z</time></trkpt><trkpt lat="45.71969970381008" lon="8.603236583182118"><ele>207.0</ele><time>2026-05-02T10:54:11.872Z</time></trkpt><trkpt lat="45.719736076391634" lon="8.603114507860663"><ele>207.0</ele><time>2026-05-02T10:54:12.872Z</time></trkpt><trkpt lat="45.71970898550879" lon="8.60296163258396"><ele>207.0</ele><time>2026-05-02T10:54:13.873Z</time></trkpt><trkpt lat="45.71982192110416" lon="8.602823815402312"><ele>207.0</ele><time>2026-05-02T10:54:14.872Z</time></trkpt><trkpt lat="45.719917150004584" lon="8.602730820806674"><ele>207.0</ele><time>2026-05-02T10:54:15.872Z</time></trkpt><trkpt lat="45.72002792269047" lon="8.602675940126272"><ele>207.0</ele><time>2026-05-02T10:54:16.872Z</time></trkpt><trkpt lat="45.720147058832765" lon="8.602722405518373"><ele>207.0</ele><time>2026-05-02T10:54:17.872Z</time></trkpt><trkpt lat="45.72027226486276" lon="8.602722405517973"><ele>207.0</ele><time>2026-05-02T10:54:18.872Z</time></trkpt><trkpt lat="45.720396171924065" lon="8.6027218439954"><ele>207.0</ele><time>2026-05-02T10:54:19.872Z</time></trkpt><trkpt lat="45.720526990689365" lon="8.602721599900716"><ele>207.0</ele><time>2026-05-02T10:54:20.872Z</time></trkpt><trkpt lat="45.72064360376533" lon="8.602714510450843"><ele>207.0</ele><time>2026-05-02T10:54:21.872Z</time></trkpt><trkpt lat="45.72076321617478" lon="8.6027171311585"><ele>207.0</ele><time>2026-05-02T10:54:22.872Z</time></trkpt><trkpt lat="45.720872348665196" lon="8.602722615855415"><ele>207.0</ele><time>2026-05-02T10:54:23.872Z</time></trkpt><trkpt lat="45.72096589682156" lon="8.602762169889294"><ele>207.0</ele><time>2026-05-02T10:54:24.872Z</time></trkpt><trkpt lat="45.72104054554702" lon="8.602775810722804"><ele>207.0</ele><time>2026-05-02T10:54:25.872Z</time></trkpt><trkpt lat="45.72112923083399" lon="8.602714580646946"><ele>207.0</ele><time>2026-05-02T10:54:27.872Z</time></trkpt><trkpt lat="45.721113392785384" lon="8.602582276928493"><ele>207.0</ele><time>2026-05-02T10:54:28.872Z</time></trkpt><trkpt lat="45.72110050960861" lon="8.6024560897069"><ele>206.75</ele><time>2026-05-02T10:54:29.872Z</time></trkpt><trkpt lat="45.72108637983534" lon="8.602303305274445"><ele>206.5</ele><time>2026-05-02T10:54:30.872Z</time></trkpt><trkpt lat="45.7210955054448" lon="8.602135446571568"><ele>206.25</ele><time>2026-05-02T10:54:31.872Z</time></trkpt><trkpt lat="45.72112580290024" lon="8.601963510156326"><ele>206.0</ele><time>2026-05-02T10:54:32.872Z</time></trkpt><trkpt lat="45.72117633384497" lon="8.601770046154357"><ele>205.66666666666669</ele><time>2026-05-02T10:54:33.872Z</time></trkpt><trkpt lat="45.72122772458249" lon="8.601587887885042"><ele>205.33333333333331</ele><time>2026-05-02T10:54:34.872Z</time></trkpt><trkpt lat="45.72127020854819" lon="8.601369729585649"><ele>205.0</ele><time>2026-05-02T10:54:35.872Z</time></trkpt><trkpt lat="45.7213052163753" lon="8.601149435618108"><ele>204.0</ele><time>2026-05-02T10:54:36.872Z</time></trkpt><trkpt lat="45.72134715458521" lon="8.600932301325525"><ele>203.0</ele><time>2026-05-02T10:54:37.872Z</time></trkpt><trkpt lat="45.72141321822111" lon="8.600736721145385"><ele>202.0</ele><time>2026-05-02T10:54:38.872Z</time></trkpt><trkpt lat="45.72145215711245" lon="8.600514320281198"><ele>200.66666666666666</ele><time>2026-05-02T10:54:39.872Z</time></trkpt><trkpt lat="45.72148056328252" lon="8.600294687601881"><ele>199.33333333333331</ele><time>2026-05-02T10:54:40.872Z</time></trkpt><trkpt lat="45.721472853288844" lon="8.60007449635868"><ele>198.0</ele><time>2026-05-02T10:54:41.872Z</time></trkpt><trkpt lat="45.72148829112537" lon="8.599866586510728"><ele>198.0</ele><time>2026-05-02T10:54:42.872Z</time></trkpt><trkpt lat="45.72151326703693" lon="8.599674443127626"><ele>198.0</ele><time>2026-05-02T10:54:43.872Z</time></trkpt><trkpt lat="45.721544894608144" lon="8.599501526629142"><ele>198.0</ele><time>2026-05-02T10:54:44.872Z</time></trkpt><trkpt lat="45.72157526352321" lon="8.599335931096448"><ele>198.0</ele><time>2026-05-02T10:54:45.871Z</time></trkpt><trkpt lat="45.72160301698856" lon="8.599179519955326"><ele>198.0</ele><time>2026-05-02T10:54:46.871Z</time></trkpt><trkpt lat="45.721629605925074" lon="8.599031230607352"><ele>198.0</ele><time>2026-05-02T10:54:47.871Z</time></trkpt><trkpt lat="45.721660409334014" lon="8.598898172671632"><ele>198.0</ele><time>2026-05-02T10:54:48.871Z</time></trkpt><trkpt lat="45.72172106591278" lon="8.598815037049896"><ele>198.0</ele><time>2026-05-02T10:54:49.871Z</time></trkpt><trkpt lat="45.72181861224603" lon="8.598702038769352"><ele>198.0</ele><time>2026-05-02T10:54:51.871Z</time></trkpt><trkpt lat="45.72190888736808" lon="8.598723870973055"><ele>198.0</ele><time>2026-05-02T10:54:52.871Z</time></trkpt><trkpt lat="45.72201403367479" lon="8.59872784952039"><ele>198.0</ele><time>2026-05-02T10:54:53.871Z</time></trkpt><trkpt lat="45.72212459695984" lon="8.598714362033897"><ele>198.0</ele><time>2026-05-02T10:54:54.871Z</time></trkpt><trkpt lat="45.72223767197791" lon="8.598700568132685"><ele>198.0</ele><time>2026-05-02T10:54:55.871Z</time></trkpt><trkpt lat="45.72236759384305" lon="8.598684784670107"><ele>198.0</ele><time>2026-05-02T10:54:56.871Z</time></trkpt><trkpt lat="45.7224821077011" lon="8.598639853488613"><ele>198.0</ele><time>2026-05-02T10:54:57.871Z</time></trkpt><trkpt lat="45.72259493660457" lon="8.598605010908672"><ele>198.0</ele><time>2026-05-02T10:54:58.871Z</time></trkpt><trkpt lat="45.722696382705315" lon="8.598537855807326"><ele>198.0</ele><time>2026-05-02T10:54:59.871Z</time></trkpt><trkpt lat="45.722804848446486" lon="8.598502107909189"><ele>198.4</ele><time>2026-05-02T10:55:00.871Z</time></trkpt><trkpt lat="45.72290637565427" lon="8.59845911029577"><ele>198.8</ele><time>2026-05-02T10:55:01.871Z</time></trkpt><trkpt lat="45.72300843123186" lon="8.59842547782017"><ele>199.2</ele><time>2026-05-02T10:55:02.871Z</time></trkpt><trkpt lat="45.72312016033404" lon="8.598405657736052"><ele>199.6</ele><time>2026-05-02T10:55:03.871Z</time></trkpt><trkpt lat="45.723217246456876" lon="8.598376805786152"><ele>200.0</ele><time>2026-05-02T10:55:04.871Z</time></trkpt><trkpt lat="45.72330413108581" lon="8.59833916569535"><ele>200.00000000000003</ele><time>2026-05-02T10:55:05.871Z</time></trkpt><trkpt lat="45.7233923241264" lon="8.598317134340638"><ele>200.0</ele><time>2026-05-02T10:55:06.871Z</time></trkpt><trkpt lat="45.72346031894059" lon="8.598300990169793"><ele>200.0</ele><time>2026-05-02T10:55:07.871Z</time></trkpt><trkpt lat="45.72353081922581" lon="8.598240479270645"><ele>200.0</ele><time>2026-05-02T10:55:08.871Z</time></trkpt><trkpt lat="45.72359917654929" lon="8.59819180609292"><ele>200.00000000000003</ele><time>2026-05-02T10:55:09.871Z</time></trkpt><trkpt lat="45.72366382348716" lon="8.598133026208732"><ele>200.0</ele><time>2026-05-02T10:55:11.871Z</time></trkpt><trkpt lat="45.723743198574894" lon="8.598077502509485"><ele>199.8</ele><time>2026-05-02T10:55:14.871Z</time></trkpt><trkpt lat="45.72382941645741" lon="8.598081349492375"><ele>199.6</ele><time>2026-05-02T10:55:19.871Z</time></trkpt><trkpt lat="45.72386943794678" lon="8.598219954643127"><ele>199.39999999999998</ele><time>2026-05-02T10:55:20.871Z</time></trkpt><trkpt lat="45.72388029514832" lon="8.598370636006152"><ele>199.2</ele><time>2026-05-02T10:55:21.871Z</time></trkpt><trkpt lat="45.72390812228834" lon="8.598506761963701"><ele>199.0</ele><time>2026-05-02T10:55:22.871Z</time></trkpt><trkpt lat="45.7239514406314" lon="8.598656487008416"><ele>199.2</ele><time>2026-05-02T10:55:23.871Z</time></trkpt><trkpt lat="45.72397156596986" lon="8.598815861401945"><ele>199.39999999999998</ele><time>2026-05-02T10:55:24.871Z</time></trkpt><trkpt lat="45.72401345645305" lon="8.598937591067287"><ele>199.6</ele><time>2026-05-02T10:55:25.871Z</time></trkpt><trkpt lat="45.72407760845871" lon="8.599033152569373"><ele>199.8</ele><time>2026-05-02T10:55:26.871Z</time></trkpt><trkpt lat="45.7241701256706" lon="8.599132719040727"><ele>200.0</ele><time>2026-05-02T10:55:27.871Z</time></trkpt><trkpt lat="45.72425093682229" lon="8.599260465715242"><ele>200.00000000000003</ele><time>2026-05-02T10:55:28.871Z</time></trkpt><trkpt lat="45.72432362113922" lon="8.599371828279232"><ele>200.0</ele><time>2026-05-02T10:55:29.871Z</time></trkpt><trkpt lat="45.72438641166466" lon="8.599478086245192"><ele>200.0</ele><time>2026-05-02T10:55:30.871Z</time></trkpt><trkpt lat="45.72442341216291" lon="8.599564674702814"><ele>200.0</ele><time>2026-05-02T10:55:31.871Z</time></trkpt><trkpt lat="45.724439900129966" lon="8.59970677150616"><ele>200.00000000000003</ele><time>2026-05-02T10:55:32.871Z</time></trkpt><trkpt lat="45.72447250592445" lon="8.599793505246687"><ele>200.0</ele><time>2026-05-02T10:55:33.871Z</time></trkpt><trkpt lat="45.724532451294714" lon="8.599875390741605"><ele>199.0</ele><time>2026-05-02T10:55:34.871Z</time></trkpt><trkpt lat="45.72458187889415" lon="8.599959979464785"><ele>198.0</ele><time>2026-05-02T10:55:35.871Z</time></trkpt><trkpt lat="45.724598981646295" lon="8.600064668868285"><ele>197.0</ele><time>2026-05-02T10:55:36.871Z</time></trkpt><trkpt lat="45.724568646111784" lon="8.60019283577788"><ele>196.0</ele><time>2026-05-02T10:55:37.871Z</time></trkpt><trkpt lat="45.72458496913902" lon="8.600358206256448"><ele>195.0</ele><time>2026-05-02T10:55:38.871Z</time></trkpt><trkpt lat="45.72457722268456" lon="8.600505968541478"><ele>195.0</ele><time>2026-05-02T10:55:39.871Z</time></trkpt><trkpt lat="45.72457578901396" lon="8.600653715524196"><ele>195.0</ele><time>2026-05-02T10:55:40.871Z</time></trkpt><trkpt lat="45.72457817002614" lon="8.600806893346359"><ele>195.0</ele><time>2026-05-02T10:55:41.871Z</time></trkpt><trkpt lat="45.72458192294404" lon="8.60096077644006"><ele>195.0</ele><time>2026-05-02T10:55:42.871Z</time></trkpt><trkpt lat="45.72457329803548" lon="8.601122447392513"><ele>195.0</ele><time>2026-05-02T10:55:43.871Z</time></trkpt><trkpt lat="45.72457395906836" lon="8.601268271440503"><ele>195.0</ele><time>2026-05-02T10:55:44.871Z</time></trkpt><trkpt lat="45.72457392338965" lon="8.601425808296174"><ele>195.0</ele><time>2026-05-02T10:55:45.871Z</time></trkpt><trkpt lat="45.72457830941899" lon="8.6015785852508"><ele>195.0</ele><time>2026-05-02T10:55:46.871Z</time></trkpt><trkpt lat="45.72458062018808" lon="8.601731004102763"><ele>195.0</ele><time>2026-05-02T10:55:47.871Z</time></trkpt><trkpt lat="45.72459065279983" lon="8.60187966618643"><ele>195.0</ele><time>2026-05-02T10:55:48.871Z</time></trkpt><trkpt lat="45.724605430193066" lon="8.602008758493138"><ele>194.66666666666666</ele><time>2026-05-02T10:55:49.871Z</time></trkpt><trkpt lat="45.724612356771694" lon="8.602099487240256"><ele>194.33333333333331</ele><time>2026-05-02T10:55:50.871Z</time></trkpt><trkpt lat="45.72462753340253" lon="8.602246183059481"><ele>194.0</ele><time>2026-05-02T10:55:52.871Z</time></trkpt><trkpt lat="45.72463135266297" lon="8.602383821095591"><ele>193.66666666666666</ele><time>2026-05-02T10:55:54.871Z</time></trkpt><trkpt lat="45.72463000676179" lon="8.602490138648044"><ele>193.33333333333331</ele><time>2026-05-02T10:55:56.871Z</time></trkpt><trkpt lat="45.724616362276244" lon="8.60264119563807"><ele>193.0</ele><time>2026-05-02T10:55:58.871Z</time></trkpt><trkpt lat="45.72456726429088" lon="8.602801132780437"><ele>192.83333333333331</ele><time>2026-05-02T10:56:00.871Z</time></trkpt><trkpt lat="45.72455447090526" lon="8.602893314950714"><ele>192.66666666666666</ele><time>2026-05-02T10:56:01.871Z</time></trkpt><trkpt lat="45.724537160581576" lon="8.60306669429596"><ele>192.5</ele><time>2026-05-02T10:56:03.871Z</time></trkpt><trkpt lat="45.72451979384481" lon="8.603208321830307"><ele>192.33333333333331</ele><time>2026-05-02T10:56:05.871Z</time></trkpt><trkpt lat="45.72449847431828" lon="8.603311192551375"><ele>192.16666666666666</ele><time>2026-05-02T10:56:08.87Z</time></trkpt><trkpt lat="45.72449975007585" lon="8.603417674495303"><ele>192.0</ele><time>2026-05-02T10:56:21.869Z</time></trkpt><trkpt lat="45.72447676950608" lon="8.603523985284134"><ele>192.33333333333334</ele><time>2026-05-02T10:56:23.869Z</time></trkpt><trkpt lat="45.72444963358982" lon="8.603686175923462"><ele>192.66666666666669</ele><time>2026-05-02T10:56:25.869Z</time></trkpt><trkpt lat="45.72442194108001" lon="8.603786057267524"><ele>193.0</ele><time>2026-05-02T10:56:26.869Z</time></trkpt><trkpt lat="45.724399651405875" lon="8.603901129120167"><ele>193.33333333333334</ele><time>2026-05-02T10:56:27.869Z</time></trkpt><trkpt lat="45.7243857056243" lon="8.604020646472344"><ele>193.66666666666669</ele><time>2026-05-02T10:56:28.869Z</time></trkpt><trkpt lat="45.72436610554956" lon="8.604126358637448"><ele>194.0</ele><time>2026-05-02T10:56:29.869Z</time></trkpt><trkpt lat="45.724351927740244" lon="8.604220361724593"><ele>195.16666666666669</ele><time>2026-05-02T10:56:30.869Z</time></trkpt><trkpt lat="45.724312822968656" lon="8.604301793510144"><ele>196.33333333333334</ele><time>2026-05-02T10:56:31.869Z</time></trkpt><trkpt lat="45.724197201292995" lon="8.60434793406055"><ele>197.5</ele><time>2026-05-02T10:56:33.869Z</time></trkpt><trkpt lat="45.72412273165268" lon="8.604347305380111"><ele>198.66666666666669</ele><time>2026-05-02T10:56:34.869Z</time></trkpt><trkpt lat="45.724035023438745" lon="8.60435663466318"><ele>199.83333333333334</ele><time>2026-05-02T10:56:35.869Z</time></trkpt><trkpt lat="45.723943682198495" lon="8.604402582360384"><ele>201.0</ele><time>2026-05-02T10:56:36.869Z</time></trkpt><trkpt lat="45.72383435469346" lon="8.604464172214803"><ele>201.0</ele><time>2026-05-02T10:56:37.869Z</time></trkpt><trkpt lat="45.723736835719656" lon="8.604504941804512"><ele>201.0</ele><time>2026-05-02T10:56:38.869Z</time></trkpt><trkpt lat="45.72364615766868" lon="8.604560277757585"><ele>201.0</ele><time>2026-05-02T10:56:39.869Z</time></trkpt><trkpt lat="45.72357284529612" lon="8.604612310766628"><ele>201.0</ele><time>2026-05-02T10:56:40.869Z</time></trkpt><trkpt lat="45.72350833130238" lon="8.60467937669817"><ele>201.0</ele><time>2026-05-02T10:56:41.869Z</time></trkpt><trkpt lat="45.72342223814843" lon="8.604759016318548"><ele>201.0</ele><time>2026-05-02T10:56:42.869Z</time></trkpt><trkpt lat="45.72334163506874" lon="8.60493905887108"><ele>201.0</ele><time>2026-05-02T10:56:43.869Z</time></trkpt><trkpt lat="45.72327821297054" lon="8.60511500920221"><ele>201.0</ele><time>2026-05-02T10:56:44.869Z</time></trkpt><trkpt lat="45.7232247241488" lon="8.605253810191384"><ele>201.0</ele><time>2026-05-02T10:56:45.869Z</time></trkpt><trkpt lat="45.72316277964448" lon="8.605379107501163"><ele>202.0</ele><time>2026-05-02T10:56:46.869Z</time></trkpt><trkpt lat="45.723085496102996" lon="8.605468170333875"><ele>203.0</ele><time>2026-05-02T10:56:47.869Z</time></trkpt><trkpt lat="45.72299089040532" lon="8.605544416969755"><ele>204.0</ele><time>2026-05-02T10:56:48.869Z</time></trkpt><trkpt lat="45.72287939896794" lon="8.605635360600925"><ele>205.0</ele><time>2026-05-02T10:56:49.869Z</time></trkpt><trkpt lat="45.722775349290075" lon="8.605748792930322"><ele>204.4</ele><time>2026-05-02T10:56:50.869Z</time></trkpt><trkpt lat="45.72266670639542" lon="8.605809149296292"><ele>203.8</ele><time>2026-05-02T10:56:51.869Z</time></trkpt><trkpt lat="45.72256576362848" lon="8.605857662202501"><ele>203.2</ele><time>2026-05-02T10:56:52.869Z</time></trkpt><trkpt lat="45.72247964205438" lon="8.605886581767848"><ele>202.6</ele><time>2026-05-02T10:56:53.869Z</time></trkpt><trkpt lat="45.722427667382085" lon="8.605964052151934"><ele>202.0</ele><time>2026-05-02T10:56:54.869Z</time></trkpt><trkpt lat="45.72240126361372" lon="8.606082432200761"><ele>202.2</ele><time>2026-05-02T10:56:55.869Z</time></trkpt><trkpt lat="45.72240673822081" lon="8.606237326073796"><ele>202.39999999999998</ele><time>2026-05-02T10:56:56.869Z</time></trkpt><trkpt lat="45.72244217137548" lon="8.606400159870505"><ele>202.60000000000002</ele><time>2026-05-02T10:56:57.869Z</time></trkpt><trkpt lat="45.722471886761404" lon="8.606515014726906"><ele>202.8</ele><time>2026-05-02T10:56:58.869Z</time></trkpt><trkpt lat="45.72251626364506" lon="8.606685603012773"><ele>203.0</ele><time>2026-05-02T10:57:00.869Z</time></trkpt><trkpt lat="45.722540568032834" lon="8.606778863785317"><ele>203.0</ele><time>2026-05-02T10:57:02.869Z</time></trkpt></trkseg></trk></gpx>